<?xml version="1.0" encoding="UTF-8" standalone="no" ?>
<gpx xmlns="http://www.topografix.com/GPX/1/1" xmlns:xsi="http://www.w3.org/2001/XMLSchema-instance" xsi:schemaLocation="http://www.topografix.com/GPX/1/1 http://www.topografix.com/GPX/1/1/gpx.xsd" version="1.1" creator="VisuGPX - https://www.visugpx.com">
  <metadata>
    <name>[27/05/2017] Les 9 Cols</name>
    <desc><![CDATA[Séjour VTT SpeedEure.
Départ du VVF de St Jean la Vêtre]]></desc>
  </metadata>
  <trk>
    <name><![CDATA[[27/05/2017] Les 9 Cols_1]]></name>
    <trkseg>
      <trkpt lat="45.77615" lon="3.80751">
        <ele>925.302979</ele>
        <time>2017-05-27T06:51:47Z</time>
      </trkpt>
      <trkpt lat="45.77615" lon="3.80751">
        <ele>925.302979</ele>
        <time>2017-05-27T06:51:48Z</time>
      </trkpt>
      <trkpt lat="45.77618" lon="3.80738">
        <ele>925.610657</ele>
        <time>2017-05-27T06:52:03Z</time>
      </trkpt>
      <trkpt lat="45.77615" lon="3.80726">
        <ele>926.193604</ele>
        <time>2017-05-27T06:52:10Z</time>
      </trkpt>
      <trkpt lat="45.7761" lon="3.80714">
        <ele>926.900024</ele>
        <time>2017-05-27T06:52:16Z</time>
      </trkpt>
      <trkpt lat="45.77606" lon="3.80701">
        <ele>927.599976</ele>
        <time>2017-05-27T06:52:22Z</time>
      </trkpt>
      <trkpt lat="45.77598" lon="3.80693">
        <ele>928</ele>
        <time>2017-05-27T06:52:27Z</time>
      </trkpt>
      <trkpt lat="45.77591" lon="3.80683">
        <ele>928.400024</ele>
        <time>2017-05-27T06:52:32Z</time>
      </trkpt>
      <trkpt lat="45.77585" lon="3.80673">
        <ele>929.099976</ele>
        <time>2017-05-27T06:52:39Z</time>
      </trkpt>
      <trkpt lat="45.77577" lon="3.80664">
        <ele>929.599976</ele>
        <time>2017-05-27T06:52:45Z</time>
      </trkpt>
      <trkpt lat="45.77569" lon="3.80654">
        <ele>930.700012</ele>
        <time>2017-05-27T06:52:52Z</time>
      </trkpt>
      <trkpt lat="45.77563" lon="3.80644">
        <ele>931.5</ele>
        <time>2017-05-27T06:52:58Z</time>
      </trkpt>
      <trkpt lat="45.77557" lon="3.80631">
        <ele>932.599976</ele>
        <time>2017-05-27T06:53:04Z</time>
      </trkpt>
      <trkpt lat="45.77552" lon="3.80621">
        <ele>933.400024</ele>
        <time>2017-05-27T06:53:10Z</time>
      </trkpt>
      <trkpt lat="45.77548" lon="3.80607">
        <ele>934.099976</ele>
        <time>2017-05-27T06:53:15Z</time>
      </trkpt>
      <trkpt lat="45.77545" lon="3.80592">
        <ele>934.900024</ele>
        <time>2017-05-27T06:53:21Z</time>
      </trkpt>
      <trkpt lat="45.77541" lon="3.8058">
        <ele>935.599976</ele>
        <time>2017-05-27T06:53:27Z</time>
      </trkpt>
      <trkpt lat="45.77541" lon="3.80564">
        <ele>936.400024</ele>
        <time>2017-05-27T06:53:33Z</time>
      </trkpt>
      <trkpt lat="45.77537" lon="3.80551">
        <ele>936.799988</ele>
        <time>2017-05-27T06:53:38Z</time>
      </trkpt>
      <trkpt lat="45.77535" lon="3.80535">
        <ele>937.5</ele>
        <time>2017-05-27T06:53:44Z</time>
      </trkpt>
      <trkpt lat="45.77531" lon="3.80522">
        <ele>937.700012</ele>
        <time>2017-05-27T06:53:49Z</time>
      </trkpt>
      <trkpt lat="45.7753" lon="3.80507">
        <ele>938.200012</ele>
        <time>2017-05-27T06:53:54Z</time>
      </trkpt>
      <trkpt lat="45.77527" lon="3.80493">
        <ele>938.900024</ele>
        <time>2017-05-27T06:54:00Z</time>
      </trkpt>
      <trkpt lat="45.77526" lon="3.80479">
        <ele>938.900024</ele>
        <time>2017-05-27T06:54:05Z</time>
      </trkpt>
      <trkpt lat="45.77528" lon="3.80465">
        <ele>939.200012</ele>
        <time>2017-05-27T06:54:11Z</time>
      </trkpt>
      <trkpt lat="45.77526" lon="3.80451">
        <ele>939.599976</ele>
        <time>2017-05-27T06:54:14Z</time>
      </trkpt>
      <trkpt lat="45.77526" lon="3.80438">
        <ele>940.200012</ele>
        <time>2017-05-27T06:54:18Z</time>
      </trkpt>
      <trkpt lat="45.77527" lon="3.80425">
        <ele>941.599976</ele>
        <time>2017-05-27T06:54:24Z</time>
      </trkpt>
      <trkpt lat="45.77529" lon="3.8041">
        <ele>942.799988</ele>
        <time>2017-05-27T06:54:31Z</time>
      </trkpt>
      <trkpt lat="45.77527" lon="3.80397">
        <ele>943.5</ele>
        <time>2017-05-27T06:54:36Z</time>
      </trkpt>
      <trkpt lat="45.77524" lon="3.80383">
        <ele>944.299988</ele>
        <time>2017-05-27T06:54:41Z</time>
      </trkpt>
      <trkpt lat="45.77526" lon="3.80368">
        <ele>945.700012</ele>
        <time>2017-05-27T06:54:47Z</time>
      </trkpt>
      <trkpt lat="45.77521" lon="3.80352">
        <ele>945.799988</ele>
        <time>2017-05-27T06:54:52Z</time>
      </trkpt>
      <trkpt lat="45.7752" lon="3.80337">
        <ele>946.5</ele>
        <time>2017-05-27T06:54:58Z</time>
      </trkpt>
      <trkpt lat="45.77524" lon="3.80325">
        <ele>947.299988</ele>
        <time>2017-05-27T06:55:02Z</time>
      </trkpt>
      <trkpt lat="45.77525" lon="3.8031">
        <ele>948.400024</ele>
        <time>2017-05-27T06:55:08Z</time>
      </trkpt>
      <trkpt lat="45.77526" lon="3.80295">
        <ele>949.200012</ele>
        <time>2017-05-27T06:55:13Z</time>
      </trkpt>
      <trkpt lat="45.77527" lon="3.80282">
        <ele>949.400024</ele>
        <time>2017-05-27T06:55:17Z</time>
      </trkpt>
      <trkpt lat="45.77528" lon="3.80268">
        <ele>949.799988</ele>
        <time>2017-05-27T06:55:21Z</time>
      </trkpt>
      <trkpt lat="45.77526" lon="3.80254">
        <ele>950.099976</ele>
        <time>2017-05-27T06:55:26Z</time>
      </trkpt>
      <trkpt lat="45.77525" lon="3.80238">
        <ele>950.700012</ele>
        <time>2017-05-27T06:55:31Z</time>
      </trkpt>
      <trkpt lat="45.77522" lon="3.80223">
        <ele>951.099976</ele>
        <time>2017-05-27T06:55:36Z</time>
      </trkpt>
      <trkpt lat="45.77518" lon="3.80209">
        <ele>951.099976</ele>
        <time>2017-05-27T06:55:40Z</time>
      </trkpt>
      <trkpt lat="45.77514" lon="3.80197">
        <ele>951.099976</ele>
        <time>2017-05-27T06:55:43Z</time>
      </trkpt>
      <trkpt lat="45.7751" lon="3.80184">
        <ele>951</ele>
        <time>2017-05-27T06:55:46Z</time>
      </trkpt>
      <trkpt lat="45.77506" lon="3.80171">
        <ele>950.900024</ele>
        <time>2017-05-27T06:55:49Z</time>
      </trkpt>
      <trkpt lat="45.77502" lon="3.80158">
        <ele>950.599976</ele>
        <time>2017-05-27T06:55:52Z</time>
      </trkpt>
      <trkpt lat="45.77497" lon="3.80147">
        <ele>950.5</ele>
        <time>2017-05-27T06:55:55Z</time>
      </trkpt>
      <trkpt lat="45.77493" lon="3.80135">
        <ele>950.900024</ele>
        <time>2017-05-27T06:55:58Z</time>
      </trkpt>
      <trkpt lat="45.77489" lon="3.80124">
        <ele>951</ele>
        <time>2017-05-27T06:56:01Z</time>
      </trkpt>
      <trkpt lat="45.77484" lon="3.80112">
        <ele>951.099976</ele>
        <time>2017-05-27T06:56:04Z</time>
      </trkpt>
      <trkpt lat="45.7748" lon="3.80101">
        <ele>951.099976</ele>
        <time>2017-05-27T06:56:07Z</time>
      </trkpt>
      <trkpt lat="45.77475" lon="3.80089">
        <ele>951.200012</ele>
        <time>2017-05-27T06:56:10Z</time>
      </trkpt>
      <trkpt lat="45.7747" lon="3.80077">
        <ele>951.400024</ele>
        <time>2017-05-27T06:56:13Z</time>
      </trkpt>
      <trkpt lat="45.77466" lon="3.80066">
        <ele>951.599976</ele>
        <time>2017-05-27T06:56:16Z</time>
      </trkpt>
      <trkpt lat="45.7746" lon="3.80054">
        <ele>952</ele>
        <time>2017-05-27T06:56:20Z</time>
      </trkpt>
      <trkpt lat="45.77451" lon="3.80056">
        <ele>952.400024</ele>
        <time>2017-05-27T06:56:48Z</time>
      </trkpt>
      <trkpt lat="45.77444" lon="3.80063">
        <ele>952.099976</ele>
        <time>2017-05-27T06:57:27Z</time>
      </trkpt>
      <trkpt lat="45.77435" lon="3.80071">
        <ele>951.900024</ele>
        <time>2017-05-27T06:57:31Z</time>
      </trkpt>
      <trkpt lat="45.77427" lon="3.80078">
        <ele>951.700012</ele>
        <time>2017-05-27T06:57:34Z</time>
      </trkpt>
      <trkpt lat="45.77419" lon="3.8007">
        <ele>951.299988</ele>
        <time>2017-05-27T06:57:39Z</time>
      </trkpt>
      <trkpt lat="45.77411" lon="3.8006">
        <ele>951.599976</ele>
        <time>2017-05-27T06:57:45Z</time>
      </trkpt>
      <trkpt lat="45.77402" lon="3.80052">
        <ele>952.200012</ele>
        <time>2017-05-27T06:57:50Z</time>
      </trkpt>
      <trkpt lat="45.77394" lon="3.80044">
        <ele>953.099976</ele>
        <time>2017-05-27T06:57:56Z</time>
      </trkpt>
      <trkpt lat="45.77383" lon="3.80038">
        <ele>953.5</ele>
        <time>2017-05-27T06:58:00Z</time>
      </trkpt>
      <trkpt lat="45.77374" lon="3.80035">
        <ele>954.200012</ele>
        <time>2017-05-27T06:58:05Z</time>
      </trkpt>
      <trkpt lat="45.77366" lon="3.8003">
        <ele>954.799988</ele>
        <time>2017-05-27T06:58:09Z</time>
      </trkpt>
      <trkpt lat="45.77357" lon="3.80022">
        <ele>955.5</ele>
        <time>2017-05-27T06:58:14Z</time>
      </trkpt>
      <trkpt lat="45.77347" lon="3.80015">
        <ele>956.099976</ele>
        <time>2017-05-27T06:58:19Z</time>
      </trkpt>
      <trkpt lat="45.77339" lon="3.80009">
        <ele>956.599976</ele>
        <time>2017-05-27T06:58:23Z</time>
      </trkpt>
      <trkpt lat="45.7733" lon="3.8">
        <ele>957.099976</ele>
        <time>2017-05-27T06:58:28Z</time>
      </trkpt>
      <trkpt lat="45.77322" lon="3.79991">
        <ele>957.700012</ele>
        <time>2017-05-27T06:58:33Z</time>
      </trkpt>
      <trkpt lat="45.77315" lon="3.7998">
        <ele>958.200012</ele>
        <time>2017-05-27T06:58:38Z</time>
      </trkpt>
      <trkpt lat="45.77308" lon="3.79967">
        <ele>958.799988</ele>
        <time>2017-05-27T06:58:43Z</time>
      </trkpt>
      <trkpt lat="45.77302" lon="3.79954">
        <ele>959.200012</ele>
        <time>2017-05-27T06:58:48Z</time>
      </trkpt>
      <trkpt lat="45.77296" lon="3.79941">
        <ele>960.200012</ele>
        <time>2017-05-27T06:58:53Z</time>
      </trkpt>
      <trkpt lat="45.77291" lon="3.79929">
        <ele>960.900024</ele>
        <time>2017-05-27T06:58:58Z</time>
      </trkpt>
      <trkpt lat="45.77286" lon="3.79916">
        <ele>961.400024</ele>
        <time>2017-05-27T06:59:03Z</time>
      </trkpt>
      <trkpt lat="45.7728" lon="3.79904">
        <ele>961.900024</ele>
        <time>2017-05-27T06:59:08Z</time>
      </trkpt>
      <trkpt lat="45.77275" lon="3.79892">
        <ele>962.5</ele>
        <time>2017-05-27T06:59:13Z</time>
      </trkpt>
      <trkpt lat="45.77271" lon="3.79879">
        <ele>963.200012</ele>
        <time>2017-05-27T06:59:18Z</time>
      </trkpt>
      <trkpt lat="45.77268" lon="3.79865">
        <ele>963.799988</ele>
        <time>2017-05-27T06:59:23Z</time>
      </trkpt>
      <trkpt lat="45.77264" lon="3.79852">
        <ele>964.200012</ele>
        <time>2017-05-27T06:59:28Z</time>
      </trkpt>
      <trkpt lat="45.7726" lon="3.79839">
        <ele>964.900024</ele>
        <time>2017-05-27T06:59:33Z</time>
      </trkpt>
      <trkpt lat="45.77255" lon="3.79826">
        <ele>965.700012</ele>
        <time>2017-05-27T06:59:38Z</time>
      </trkpt>
      <trkpt lat="45.77249" lon="3.79813">
        <ele>966.200012</ele>
        <time>2017-05-27T06:59:43Z</time>
      </trkpt>
      <trkpt lat="45.77243" lon="3.79803">
        <ele>966.400024</ele>
        <time>2017-05-27T06:59:47Z</time>
      </trkpt>
      <trkpt lat="45.77234" lon="3.79794">
        <ele>966.799988</ele>
        <time>2017-05-27T06:59:52Z</time>
      </trkpt>
      <trkpt lat="45.77225" lon="3.79785">
        <ele>967.099976</ele>
        <time>2017-05-27T06:59:57Z</time>
      </trkpt>
      <trkpt lat="45.77215" lon="3.7978">
        <ele>967.599976</ele>
        <time>2017-05-27T07:00:02Z</time>
      </trkpt>
      <trkpt lat="45.77205" lon="3.79778">
        <ele>968</ele>
        <time>2017-05-27T07:00:06Z</time>
      </trkpt>
      <trkpt lat="45.77194" lon="3.79776">
        <ele>968.299988</ele>
        <time>2017-05-27T07:00:11Z</time>
      </trkpt>
      <trkpt lat="45.77185" lon="3.79775">
        <ele>968.599976</ele>
        <time>2017-05-27T07:00:15Z</time>
      </trkpt>
      <trkpt lat="45.77175" lon="3.79776">
        <ele>968.900024</ele>
        <time>2017-05-27T07:00:19Z</time>
      </trkpt>
      <trkpt lat="45.77166" lon="3.79777">
        <ele>969.200012</ele>
        <time>2017-05-27T07:00:23Z</time>
      </trkpt>
      <trkpt lat="45.77156" lon="3.79778">
        <ele>969.5</ele>
        <time>2017-05-27T07:00:27Z</time>
      </trkpt>
      <trkpt lat="45.77147" lon="3.79779">
        <ele>969.900024</ele>
        <time>2017-05-27T07:00:31Z</time>
      </trkpt>
      <trkpt lat="45.77138" lon="3.7978">
        <ele>970.400024</ele>
        <time>2017-05-27T07:00:35Z</time>
      </trkpt>
      <trkpt lat="45.77129" lon="3.79781">
        <ele>970.900024</ele>
        <time>2017-05-27T07:00:39Z</time>
      </trkpt>
      <trkpt lat="45.77118" lon="3.79782">
        <ele>971.5</ele>
        <time>2017-05-27T07:00:44Z</time>
      </trkpt>
      <trkpt lat="45.77109" lon="3.79784">
        <ele>972.200012</ele>
        <time>2017-05-27T07:00:48Z</time>
      </trkpt>
      <trkpt lat="45.77099" lon="3.79784">
        <ele>972.700012</ele>
        <time>2017-05-27T07:00:53Z</time>
      </trkpt>
      <trkpt lat="45.7709" lon="3.79786">
        <ele>973.200012</ele>
        <time>2017-05-27T07:00:57Z</time>
      </trkpt>
      <trkpt lat="45.77079" lon="3.79787">
        <ele>973.799988</ele>
        <time>2017-05-27T07:01:02Z</time>
      </trkpt>
      <trkpt lat="45.77069" lon="3.79789">
        <ele>974.400024</ele>
        <time>2017-05-27T07:01:07Z</time>
      </trkpt>
      <trkpt lat="45.77058" lon="3.7979">
        <ele>974.900024</ele>
        <time>2017-05-27T07:01:12Z</time>
      </trkpt>
      <trkpt lat="45.77048" lon="3.79789">
        <ele>975.700012</ele>
        <time>2017-05-27T07:01:17Z</time>
      </trkpt>
      <trkpt lat="45.77038" lon="3.79784">
        <ele>976.400024</ele>
        <time>2017-05-27T07:01:22Z</time>
      </trkpt>
      <trkpt lat="45.77029" lon="3.79776">
        <ele>977.200012</ele>
        <time>2017-05-27T07:01:27Z</time>
      </trkpt>
      <trkpt lat="45.77021" lon="3.79767">
        <ele>977.400024</ele>
        <time>2017-05-27T07:01:32Z</time>
      </trkpt>
      <trkpt lat="45.77013" lon="3.79758">
        <ele>978.099976</ele>
        <time>2017-05-27T07:01:37Z</time>
      </trkpt>
      <trkpt lat="45.77005" lon="3.79748">
        <ele>978.599976</ele>
        <time>2017-05-27T07:01:42Z</time>
      </trkpt>
      <trkpt lat="45.76997" lon="3.79738">
        <ele>979</ele>
        <time>2017-05-27T07:01:47Z</time>
      </trkpt>
      <trkpt lat="45.7699" lon="3.79728">
        <ele>979.5</ele>
        <time>2017-05-27T07:01:52Z</time>
      </trkpt>
      <trkpt lat="45.76982" lon="3.79718">
        <ele>980.099976</ele>
        <time>2017-05-27T07:01:57Z</time>
      </trkpt>
      <trkpt lat="45.76974" lon="3.79708">
        <ele>980.599976</ele>
        <time>2017-05-27T07:02:02Z</time>
      </trkpt>
      <trkpt lat="45.76966" lon="3.79698">
        <ele>981.099976</ele>
        <time>2017-05-27T07:02:07Z</time>
      </trkpt>
      <trkpt lat="45.76959" lon="3.79688">
        <ele>981.799988</ele>
        <time>2017-05-27T07:02:13Z</time>
      </trkpt>
      <trkpt lat="45.7695" lon="3.79679">
        <ele>982.400024</ele>
        <time>2017-05-27T07:02:18Z</time>
      </trkpt>
      <trkpt lat="45.76942" lon="3.79671">
        <ele>983.099976</ele>
        <time>2017-05-27T07:02:22Z</time>
      </trkpt>
      <trkpt lat="45.76933" lon="3.79664">
        <ele>983.799988</ele>
        <time>2017-05-27T07:02:26Z</time>
      </trkpt>
      <trkpt lat="45.76925" lon="3.79659">
        <ele>984.400024</ele>
        <time>2017-05-27T07:02:30Z</time>
      </trkpt>
      <trkpt lat="45.76915" lon="3.79653">
        <ele>984.799988</ele>
        <time>2017-05-27T07:02:34Z</time>
      </trkpt>
      <trkpt lat="45.76906" lon="3.79649">
        <ele>985.299988</ele>
        <time>2017-05-27T07:02:38Z</time>
      </trkpt>
      <trkpt lat="45.76897" lon="3.79648">
        <ele>985.799988</ele>
        <time>2017-05-27T07:02:42Z</time>
      </trkpt>
      <trkpt lat="45.76887" lon="3.79645">
        <ele>986.400024</ele>
        <time>2017-05-27T07:02:47Z</time>
      </trkpt>
      <trkpt lat="45.76876" lon="3.79644">
        <ele>987.099976</ele>
        <time>2017-05-27T07:02:52Z</time>
      </trkpt>
      <trkpt lat="45.76866" lon="3.79641">
        <ele>987.900024</ele>
        <time>2017-05-27T07:02:57Z</time>
      </trkpt>
      <trkpt lat="45.76856" lon="3.79642">
        <ele>988.400024</ele>
        <time>2017-05-27T07:03:01Z</time>
      </trkpt>
      <trkpt lat="45.76847" lon="3.79643">
        <ele>988.599976</ele>
        <time>2017-05-27T07:03:05Z</time>
      </trkpt>
      <trkpt lat="45.76836" lon="3.79646">
        <ele>989.200012</ele>
        <time>2017-05-27T07:03:10Z</time>
      </trkpt>
      <trkpt lat="45.76826" lon="3.79648">
        <ele>989.900024</ele>
        <time>2017-05-27T07:03:14Z</time>
      </trkpt>
      <trkpt lat="45.76816" lon="3.7965">
        <ele>990.299988</ele>
        <time>2017-05-27T07:03:18Z</time>
      </trkpt>
      <trkpt lat="45.76805" lon="3.79652">
        <ele>990.599976</ele>
        <time>2017-05-27T07:03:22Z</time>
      </trkpt>
      <trkpt lat="45.76796" lon="3.79651">
        <ele>991.099976</ele>
        <time>2017-05-27T07:03:26Z</time>
      </trkpt>
      <trkpt lat="45.76786" lon="3.7965">
        <ele>991.700012</ele>
        <time>2017-05-27T07:03:30Z</time>
      </trkpt>
      <trkpt lat="45.76775" lon="3.79648">
        <ele>991.900024</ele>
        <time>2017-05-27T07:03:34Z</time>
      </trkpt>
      <trkpt lat="45.76766" lon="3.79644">
        <ele>992.299988</ele>
        <time>2017-05-27T07:03:38Z</time>
      </trkpt>
      <trkpt lat="45.76756" lon="3.79639">
        <ele>992.599976</ele>
        <time>2017-05-27T07:03:42Z</time>
      </trkpt>
      <trkpt lat="45.76747" lon="3.79633">
        <ele>992.900024</ele>
        <time>2017-05-27T07:03:46Z</time>
      </trkpt>
      <trkpt lat="45.76738" lon="3.79627">
        <ele>993.400024</ele>
        <time>2017-05-27T07:03:50Z</time>
      </trkpt>
      <trkpt lat="45.76729" lon="3.7962">
        <ele>993.799988</ele>
        <time>2017-05-27T07:03:54Z</time>
      </trkpt>
      <trkpt lat="45.7672" lon="3.79612">
        <ele>994.400024</ele>
        <time>2017-05-27T07:03:58Z</time>
      </trkpt>
      <trkpt lat="45.76713" lon="3.79604">
        <ele>994.599976</ele>
        <time>2017-05-27T07:04:02Z</time>
      </trkpt>
      <trkpt lat="45.76706" lon="3.79595">
        <ele>994.900024</ele>
        <time>2017-05-27T07:04:06Z</time>
      </trkpt>
      <trkpt lat="45.76699" lon="3.79586">
        <ele>995.5</ele>
        <time>2017-05-27T07:04:10Z</time>
      </trkpt>
      <trkpt lat="45.76692" lon="3.79576">
        <ele>996</ele>
        <time>2017-05-27T07:04:14Z</time>
      </trkpt>
      <trkpt lat="45.76685" lon="3.79567">
        <ele>996.599976</ele>
        <time>2017-05-27T07:04:18Z</time>
      </trkpt>
      <trkpt lat="45.76678" lon="3.79559">
        <ele>997.200012</ele>
        <time>2017-05-27T07:04:22Z</time>
      </trkpt>
      <trkpt lat="45.76671" lon="3.79551">
        <ele>997.900024</ele>
        <time>2017-05-27T07:04:26Z</time>
      </trkpt>
      <trkpt lat="45.76662" lon="3.7954">
        <ele>998.900024</ele>
        <time>2017-05-27T07:04:31Z</time>
      </trkpt>
      <trkpt lat="45.76654" lon="3.79531">
        <ele>999.799988</ele>
        <time>2017-05-27T07:04:36Z</time>
      </trkpt>
      <trkpt lat="45.76645" lon="3.79521">
        <ele>1000.700012</ele>
        <time>2017-05-27T07:04:41Z</time>
      </trkpt>
      <trkpt lat="45.76636" lon="3.79513">
        <ele>1001.599976</ele>
        <time>2017-05-27T07:04:46Z</time>
      </trkpt>
      <trkpt lat="45.76626" lon="3.79507">
        <ele>1002.5</ele>
        <time>2017-05-27T07:04:51Z</time>
      </trkpt>
      <trkpt lat="45.76615" lon="3.79502">
        <ele>1003.200012</ele>
        <time>2017-05-27T07:04:56Z</time>
      </trkpt>
      <trkpt lat="45.76604" lon="3.79499">
        <ele>1004.099976</ele>
        <time>2017-05-27T07:05:01Z</time>
      </trkpt>
      <trkpt lat="45.76593" lon="3.79497">
        <ele>1005</ele>
        <time>2017-05-27T07:05:06Z</time>
      </trkpt>
      <trkpt lat="45.76583" lon="3.79496">
        <ele>1006.099976</ele>
        <time>2017-05-27T07:05:11Z</time>
      </trkpt>
      <trkpt lat="45.76572" lon="3.79495">
        <ele>1007</ele>
        <time>2017-05-27T07:05:16Z</time>
      </trkpt>
      <trkpt lat="45.76563" lon="3.79495">
        <ele>1007.700012</ele>
        <time>2017-05-27T07:05:20Z</time>
      </trkpt>
      <trkpt lat="45.76552" lon="3.79494">
        <ele>1008.799988</ele>
        <time>2017-05-27T07:05:25Z</time>
      </trkpt>
      <trkpt lat="45.76541" lon="3.79492">
        <ele>1009.400024</ele>
        <time>2017-05-27T07:05:30Z</time>
      </trkpt>
      <trkpt lat="45.76532" lon="3.7949">
        <ele>1009.799988</ele>
        <time>2017-05-27T07:05:34Z</time>
      </trkpt>
      <trkpt lat="45.76523" lon="3.79485">
        <ele>1010.200012</ele>
        <time>2017-05-27T07:05:38Z</time>
      </trkpt>
      <trkpt lat="45.76515" lon="3.79479">
        <ele>1010.799988</ele>
        <time>2017-05-27T07:05:42Z</time>
      </trkpt>
      <trkpt lat="45.76507" lon="3.7947">
        <ele>1011.299988</ele>
        <time>2017-05-27T07:05:46Z</time>
      </trkpt>
      <trkpt lat="45.76499" lon="3.79461">
        <ele>1011.799988</ele>
        <time>2017-05-27T07:05:50Z</time>
      </trkpt>
      <trkpt lat="45.76493" lon="3.79452">
        <ele>1012.200012</ele>
        <time>2017-05-27T07:05:54Z</time>
      </trkpt>
      <trkpt lat="45.76487" lon="3.79442">
        <ele>1012.700012</ele>
        <time>2017-05-27T07:05:58Z</time>
      </trkpt>
      <trkpt lat="45.76481" lon="3.7943">
        <ele>1013.400024</ele>
        <time>2017-05-27T07:06:03Z</time>
      </trkpt>
      <trkpt lat="45.76475" lon="3.79419">
        <ele>1014.200012</ele>
        <time>2017-05-27T07:06:08Z</time>
      </trkpt>
      <trkpt lat="45.76467" lon="3.79411">
        <ele>1015</ele>
        <time>2017-05-27T07:06:13Z</time>
      </trkpt>
      <trkpt lat="45.7646" lon="3.79402">
        <ele>1015.599976</ele>
        <time>2017-05-27T07:06:17Z</time>
      </trkpt>
      <trkpt lat="45.76454" lon="3.79391">
        <ele>1016.099976</ele>
        <time>2017-05-27T07:06:20Z</time>
      </trkpt>
      <trkpt lat="45.76447" lon="3.79381">
        <ele>1017.099976</ele>
        <time>2017-05-27T07:06:25Z</time>
      </trkpt>
      <trkpt lat="45.76443" lon="3.79366">
        <ele>1017.900024</ele>
        <time>2017-05-27T07:06:30Z</time>
      </trkpt>
      <trkpt lat="45.76436" lon="3.79354">
        <ele>1018.700012</ele>
        <time>2017-05-27T07:06:34Z</time>
      </trkpt>
      <trkpt lat="45.7643" lon="3.79345">
        <ele>1019.5</ele>
        <time>2017-05-27T07:06:38Z</time>
      </trkpt>
      <trkpt lat="45.76424" lon="3.79332">
        <ele>1020.299988</ele>
        <time>2017-05-27T07:06:42Z</time>
      </trkpt>
      <trkpt lat="45.76418" lon="3.79322">
        <ele>1021.099976</ele>
        <time>2017-05-27T07:06:46Z</time>
      </trkpt>
      <trkpt lat="45.76413" lon="3.7931">
        <ele>1021.799988</ele>
        <time>2017-05-27T07:06:50Z</time>
      </trkpt>
      <trkpt lat="45.76406" lon="3.79299">
        <ele>1022.799988</ele>
        <time>2017-05-27T07:06:55Z</time>
      </trkpt>
      <trkpt lat="45.76398" lon="3.7929">
        <ele>1023.5</ele>
        <time>2017-05-27T07:06:59Z</time>
      </trkpt>
      <trkpt lat="45.76391" lon="3.79279">
        <ele>1024.5</ele>
        <time>2017-05-27T07:07:04Z</time>
      </trkpt>
      <trkpt lat="45.76382" lon="3.79272">
        <ele>1025.199951</ele>
        <time>2017-05-27T07:07:09Z</time>
      </trkpt>
      <trkpt lat="45.76373" lon="3.79265">
        <ele>1025.800049</ele>
        <time>2017-05-27T07:07:13Z</time>
      </trkpt>
      <trkpt lat="45.76365" lon="3.79258">
        <ele>1026.400024</ele>
        <time>2017-05-27T07:07:18Z</time>
      </trkpt>
      <trkpt lat="45.76356" lon="3.79255">
        <ele>1026.900024</ele>
        <time>2017-05-27T07:07:22Z</time>
      </trkpt>
      <trkpt lat="45.76345" lon="3.79254">
        <ele>1027.599976</ele>
        <time>2017-05-27T07:07:27Z</time>
      </trkpt>
      <trkpt lat="45.76335" lon="3.79254">
        <ele>1028.5</ele>
        <time>2017-05-27T07:07:32Z</time>
      </trkpt>
      <trkpt lat="45.76326" lon="3.79254">
        <ele>1029.099976</ele>
        <time>2017-05-27T07:07:36Z</time>
      </trkpt>
      <trkpt lat="45.76315" lon="3.79256">
        <ele>1029.699951</ele>
        <time>2017-05-27T07:07:42Z</time>
      </trkpt>
      <trkpt lat="45.76306" lon="3.79257">
        <ele>1030.099976</ele>
        <time>2017-05-27T07:07:46Z</time>
      </trkpt>
      <trkpt lat="45.76296" lon="3.79262">
        <ele>1030.5</ele>
        <time>2017-05-27T07:07:49Z</time>
      </trkpt>
      <trkpt lat="45.76287" lon="3.79267">
        <ele>1030.800049</ele>
        <time>2017-05-27T07:07:52Z</time>
      </trkpt>
      <trkpt lat="45.76277" lon="3.79272">
        <ele>1031.400024</ele>
        <time>2017-05-27T07:07:57Z</time>
      </trkpt>
      <trkpt lat="45.76266" lon="3.79275">
        <ele>1032.400024</ele>
        <time>2017-05-27T07:08:01Z</time>
      </trkpt>
      <trkpt lat="45.76256" lon="3.79272">
        <ele>1032.800049</ele>
        <time>2017-05-27T07:08:05Z</time>
      </trkpt>
      <trkpt lat="45.76246" lon="3.79272">
        <ele>1033.400024</ele>
        <time>2017-05-27T07:08:09Z</time>
      </trkpt>
      <trkpt lat="45.76236" lon="3.79271">
        <ele>1033.800049</ele>
        <time>2017-05-27T07:08:14Z</time>
      </trkpt>
      <trkpt lat="45.76225" lon="3.79271">
        <ele>1034.5</ele>
        <time>2017-05-27T07:08:19Z</time>
      </trkpt>
      <trkpt lat="45.76214" lon="3.79268">
        <ele>1035.199951</ele>
        <time>2017-05-27T07:08:24Z</time>
      </trkpt>
      <trkpt lat="45.76207" lon="3.79261">
        <ele>1035.699951</ele>
        <time>2017-05-27T07:08:29Z</time>
      </trkpt>
      <trkpt lat="45.76198" lon="3.7925">
        <ele>1036.5</ele>
        <time>2017-05-27T07:08:35Z</time>
      </trkpt>
      <trkpt lat="45.76191" lon="3.79241">
        <ele>1036.900024</ele>
        <time>2017-05-27T07:08:40Z</time>
      </trkpt>
      <trkpt lat="45.76184" lon="3.79231">
        <ele>1037.599976</ele>
        <time>2017-05-27T07:08:46Z</time>
      </trkpt>
      <trkpt lat="45.76176" lon="3.79222">
        <ele>1038</ele>
        <time>2017-05-27T07:08:51Z</time>
      </trkpt>
      <trkpt lat="45.76167" lon="3.79212">
        <ele>1038.599976</ele>
        <time>2017-05-27T07:08:56Z</time>
      </trkpt>
      <trkpt lat="45.76159" lon="3.79204">
        <ele>1039.5</ele>
        <time>2017-05-27T07:09:01Z</time>
      </trkpt>
      <trkpt lat="45.76151" lon="3.79194">
        <ele>1040.199951</ele>
        <time>2017-05-27T07:09:06Z</time>
      </trkpt>
      <trkpt lat="45.76144" lon="3.79185">
        <ele>1040.800049</ele>
        <time>2017-05-27T07:09:11Z</time>
      </trkpt>
      <trkpt lat="45.76136" lon="3.79176">
        <ele>1041.5</ele>
        <time>2017-05-27T07:09:17Z</time>
      </trkpt>
      <trkpt lat="45.76129" lon="3.79166">
        <ele>1042.199951</ele>
        <time>2017-05-27T07:09:22Z</time>
      </trkpt>
      <trkpt lat="45.76121" lon="3.79155">
        <ele>1043.199951</ele>
        <time>2017-05-27T07:09:28Z</time>
      </trkpt>
      <trkpt lat="45.76114" lon="3.79143">
        <ele>1043.900024</ele>
        <time>2017-05-27T07:09:34Z</time>
      </trkpt>
      <trkpt lat="45.76107" lon="3.79135">
        <ele>1044.300049</ele>
        <time>2017-05-27T07:09:38Z</time>
      </trkpt>
      <trkpt lat="45.76098" lon="3.79128">
        <ele>1044.900024</ele>
        <time>2017-05-27T07:09:42Z</time>
      </trkpt>
      <trkpt lat="45.76092" lon="3.79118">
        <ele>1045.5</ele>
        <time>2017-05-27T07:09:47Z</time>
      </trkpt>
      <trkpt lat="45.76085" lon="3.79109">
        <ele>1046.099976</ele>
        <time>2017-05-27T07:09:52Z</time>
      </trkpt>
      <trkpt lat="45.76077" lon="3.79101">
        <ele>1046.599976</ele>
        <time>2017-05-27T07:09:57Z</time>
      </trkpt>
      <trkpt lat="45.76069" lon="3.79091">
        <ele>1047.300049</ele>
        <time>2017-05-27T07:10:02Z</time>
      </trkpt>
      <trkpt lat="45.76058" lon="3.79085">
        <ele>1047.900024</ele>
        <time>2017-05-27T07:10:06Z</time>
      </trkpt>
      <trkpt lat="45.7605" lon="3.79077">
        <ele>1048.300049</ele>
        <time>2017-05-27T07:10:11Z</time>
      </trkpt>
      <trkpt lat="45.76039" lon="3.79072">
        <ele>1048.699951</ele>
        <time>2017-05-27T07:10:16Z</time>
      </trkpt>
      <trkpt lat="45.76029" lon="3.79071">
        <ele>1049</ele>
        <time>2017-05-27T07:10:20Z</time>
      </trkpt>
      <trkpt lat="45.7602" lon="3.79071">
        <ele>1049</ele>
        <time>2017-05-27T07:10:25Z</time>
      </trkpt>
      <trkpt lat="45.76011" lon="3.79078">
        <ele>1049.400024</ele>
        <time>2017-05-27T07:10:31Z</time>
      </trkpt>
      <trkpt lat="45.76005" lon="3.79088">
        <ele>1049.900024</ele>
        <time>2017-05-27T07:10:36Z</time>
      </trkpt>
      <trkpt lat="45.75999" lon="3.79101">
        <ele>1050.5</ele>
        <time>2017-05-27T07:10:41Z</time>
      </trkpt>
      <trkpt lat="45.75993" lon="3.79112">
        <ele>1051</ele>
        <time>2017-05-27T07:10:45Z</time>
      </trkpt>
      <trkpt lat="45.75991" lon="3.79125">
        <ele>1051.400024</ele>
        <time>2017-05-27T07:10:50Z</time>
      </trkpt>
      <trkpt lat="45.75987" lon="3.79139">
        <ele>1052</ele>
        <time>2017-05-27T07:10:55Z</time>
      </trkpt>
      <trkpt lat="45.75992" lon="3.79151">
        <ele>1052.400024</ele>
        <time>2017-05-27T07:11:00Z</time>
      </trkpt>
      <trkpt lat="45.75993" lon="3.79166">
        <ele>1052.699951</ele>
        <time>2017-05-27T07:11:04Z</time>
      </trkpt>
      <trkpt lat="45.75993" lon="3.79179">
        <ele>1053.300049</ele>
        <time>2017-05-27T07:11:08Z</time>
      </trkpt>
      <trkpt lat="45.75994" lon="3.79195">
        <ele>1053.599976</ele>
        <time>2017-05-27T07:11:13Z</time>
      </trkpt>
      <trkpt lat="45.75993" lon="3.7921">
        <ele>1054</ele>
        <time>2017-05-27T07:11:18Z</time>
      </trkpt>
      <trkpt lat="45.75994" lon="3.79224">
        <ele>1054.699951</ele>
        <time>2017-05-27T07:11:23Z</time>
      </trkpt>
      <trkpt lat="45.75995" lon="3.7924">
        <ele>1055.300049</ele>
        <time>2017-05-27T07:11:28Z</time>
      </trkpt>
      <trkpt lat="45.75997" lon="3.79255">
        <ele>1056</ele>
        <time>2017-05-27T07:11:33Z</time>
      </trkpt>
      <trkpt lat="45.75999" lon="3.7927">
        <ele>1056.699951</ele>
        <time>2017-05-27T07:11:38Z</time>
      </trkpt>
      <trkpt lat="45.76001" lon="3.79285">
        <ele>1057</ele>
        <time>2017-05-27T07:11:43Z</time>
      </trkpt>
      <trkpt lat="45.76002" lon="3.793">
        <ele>1057.599976</ele>
        <time>2017-05-27T07:11:48Z</time>
      </trkpt>
      <trkpt lat="45.76001" lon="3.79313">
        <ele>1058</ele>
        <time>2017-05-27T07:11:53Z</time>
      </trkpt>
      <trkpt lat="45.76003" lon="3.79326">
        <ele>1058.599976</ele>
        <time>2017-05-27T07:11:57Z</time>
      </trkpt>
      <trkpt lat="45.76006" lon="3.79341">
        <ele>1059.199951</ele>
        <time>2017-05-27T07:12:02Z</time>
      </trkpt>
      <trkpt lat="45.76006" lon="3.79354">
        <ele>1059.800049</ele>
        <time>2017-05-27T07:12:06Z</time>
      </trkpt>
      <trkpt lat="45.76008" lon="3.79369">
        <ele>1060.5</ele>
        <time>2017-05-27T07:12:11Z</time>
      </trkpt>
      <trkpt lat="45.76011" lon="3.79383">
        <ele>1061</ele>
        <time>2017-05-27T07:12:16Z</time>
      </trkpt>
      <trkpt lat="45.7601" lon="3.79397">
        <ele>1062</ele>
        <time>2017-05-27T07:12:21Z</time>
      </trkpt>
      <trkpt lat="45.76013" lon="3.79412">
        <ele>1062.699951</ele>
        <time>2017-05-27T07:12:26Z</time>
      </trkpt>
      <trkpt lat="45.76011" lon="3.7943">
        <ele>1063.5</ele>
        <time>2017-05-27T07:12:32Z</time>
      </trkpt>
      <trkpt lat="45.76012" lon="3.79445">
        <ele>1064.400024</ele>
        <time>2017-05-27T07:12:37Z</time>
      </trkpt>
      <trkpt lat="45.76016" lon="3.79459">
        <ele>1065.199951</ele>
        <time>2017-05-27T07:12:42Z</time>
      </trkpt>
      <trkpt lat="45.76016" lon="3.79475">
        <ele>1065</ele>
        <time>2017-05-27T07:12:47Z</time>
      </trkpt>
      <trkpt lat="45.76018" lon="3.79496">
        <ele>1066.900024</ele>
        <time>2017-05-27T07:12:54Z</time>
      </trkpt>
      <trkpt lat="45.76019" lon="3.79511">
        <ele>1067.699951</ele>
        <time>2017-05-27T07:12:59Z</time>
      </trkpt>
      <trkpt lat="45.76021" lon="3.79526">
        <ele>1068.5</ele>
        <time>2017-05-27T07:13:04Z</time>
      </trkpt>
      <trkpt lat="45.76022" lon="3.7954">
        <ele>1069.199951</ele>
        <time>2017-05-27T07:13:09Z</time>
      </trkpt>
      <trkpt lat="45.76023" lon="3.79554">
        <ele>1069.800049</ele>
        <time>2017-05-27T07:13:14Z</time>
      </trkpt>
      <trkpt lat="45.76025" lon="3.7957">
        <ele>1070.400024</ele>
        <time>2017-05-27T07:13:19Z</time>
      </trkpt>
      <trkpt lat="45.76027" lon="3.79585">
        <ele>1071.300049</ele>
        <time>2017-05-27T07:13:24Z</time>
      </trkpt>
      <trkpt lat="45.76028" lon="3.796">
        <ele>1072</ele>
        <time>2017-05-27T07:13:29Z</time>
      </trkpt>
      <trkpt lat="45.76028" lon="3.79614">
        <ele>1072.599976</ele>
        <time>2017-05-27T07:13:33Z</time>
      </trkpt>
      <trkpt lat="45.76028" lon="3.79629">
        <ele>1073.400024</ele>
        <time>2017-05-27T07:13:38Z</time>
      </trkpt>
      <trkpt lat="45.76027" lon="3.79644">
        <ele>1073.900024</ele>
        <time>2017-05-27T07:13:43Z</time>
      </trkpt>
      <trkpt lat="45.76025" lon="3.79658">
        <ele>1074.599976</ele>
        <time>2017-05-27T07:13:48Z</time>
      </trkpt>
      <trkpt lat="45.76022" lon="3.79671">
        <ele>1075.599976</ele>
        <time>2017-05-27T07:13:53Z</time>
      </trkpt>
      <trkpt lat="45.76016" lon="3.79683">
        <ele>1077.099976</ele>
        <time>2017-05-27T07:13:59Z</time>
      </trkpt>
      <trkpt lat="45.76007" lon="3.7969">
        <ele>1078.099976</ele>
        <time>2017-05-27T07:14:04Z</time>
      </trkpt>
      <trkpt lat="45.75998" lon="3.79693">
        <ele>1079</ele>
        <time>2017-05-27T07:14:09Z</time>
      </trkpt>
      <trkpt lat="45.75989" lon="3.79696">
        <ele>1080</ele>
        <time>2017-05-27T07:14:14Z</time>
      </trkpt>
      <trkpt lat="45.75979" lon="3.79699">
        <ele>1081.199951</ele>
        <time>2017-05-27T07:14:21Z</time>
      </trkpt>
      <trkpt lat="45.75971" lon="3.79707">
        <ele>1082.300049</ele>
        <time>2017-05-27T07:14:27Z</time>
      </trkpt>
      <trkpt lat="45.75969" lon="3.7972">
        <ele>1083.699951</ele>
        <time>2017-05-27T07:17:55Z</time>
      </trkpt>
      <trkpt lat="45.75963" lon="3.79731">
        <ele>1083.800049</ele>
        <time>2017-05-27T07:18:01Z</time>
      </trkpt>
      <trkpt lat="45.75957" lon="3.79743">
        <ele>1084.300049</ele>
        <time>2017-05-27T07:18:07Z</time>
      </trkpt>
      <trkpt lat="45.75952" lon="3.79756">
        <ele>1084.900024</ele>
        <time>2017-05-27T07:18:13Z</time>
      </trkpt>
      <trkpt lat="45.75947" lon="3.79767">
        <ele>1085.599976</ele>
        <time>2017-05-27T07:18:18Z</time>
      </trkpt>
      <trkpt lat="45.75942" lon="3.79779">
        <ele>1086.099976</ele>
        <time>2017-05-27T07:18:23Z</time>
      </trkpt>
      <trkpt lat="45.75939" lon="3.79792">
        <ele>1086.599976</ele>
        <time>2017-05-27T07:18:28Z</time>
      </trkpt>
      <trkpt lat="45.75933" lon="3.79803">
        <ele>1086.800049</ele>
        <time>2017-05-27T07:18:32Z</time>
      </trkpt>
      <trkpt lat="45.7593" lon="3.79818">
        <ele>1087.400024</ele>
        <time>2017-05-27T07:18:37Z</time>
      </trkpt>
      <trkpt lat="45.75926" lon="3.79833">
        <ele>1087.800049</ele>
        <time>2017-05-27T07:18:42Z</time>
      </trkpt>
      <trkpt lat="45.75924" lon="3.79846">
        <ele>1087.900024</ele>
        <time>2017-05-27T07:18:47Z</time>
      </trkpt>
      <trkpt lat="45.7592" lon="3.7986">
        <ele>1088.199951</ele>
        <time>2017-05-27T07:18:52Z</time>
      </trkpt>
      <trkpt lat="45.75916" lon="3.79874">
        <ele>1088.599976</ele>
        <time>2017-05-27T07:18:57Z</time>
      </trkpt>
      <trkpt lat="45.75912" lon="3.79886">
        <ele>1088.800049</ele>
        <time>2017-05-27T07:19:01Z</time>
      </trkpt>
      <trkpt lat="45.75906" lon="3.79899">
        <ele>1089.5</ele>
        <time>2017-05-27T07:19:06Z</time>
      </trkpt>
      <trkpt lat="45.75902" lon="3.79912">
        <ele>1090.099976</ele>
        <time>2017-05-27T07:19:11Z</time>
      </trkpt>
      <trkpt lat="45.75897" lon="3.79925">
        <ele>1090.5</ele>
        <time>2017-05-27T07:19:16Z</time>
      </trkpt>
      <trkpt lat="45.75891" lon="3.79937">
        <ele>1091.099976</ele>
        <time>2017-05-27T07:19:21Z</time>
      </trkpt>
      <trkpt lat="45.75885" lon="3.79949">
        <ele>1092</ele>
        <time>2017-05-27T07:19:26Z</time>
      </trkpt>
      <trkpt lat="45.75879" lon="3.79961">
        <ele>1092.800049</ele>
        <time>2017-05-27T07:19:31Z</time>
      </trkpt>
      <trkpt lat="45.75873" lon="3.79972">
        <ele>1093.599976</ele>
        <time>2017-05-27T07:19:36Z</time>
      </trkpt>
      <trkpt lat="45.75866" lon="3.79981">
        <ele>1094.400024</ele>
        <time>2017-05-27T07:19:41Z</time>
      </trkpt>
      <trkpt lat="45.75859" lon="3.79991">
        <ele>1095.099976</ele>
        <time>2017-05-27T07:19:46Z</time>
      </trkpt>
      <trkpt lat="45.7585" lon="3.8">
        <ele>1096.300049</ele>
        <time>2017-05-27T07:19:52Z</time>
      </trkpt>
      <trkpt lat="45.75841" lon="3.8001">
        <ele>1097.199951</ele>
        <time>2017-05-27T07:19:58Z</time>
      </trkpt>
      <trkpt lat="45.75833" lon="3.8002">
        <ele>1098.199951</ele>
        <time>2017-05-27T07:20:03Z</time>
      </trkpt>
      <trkpt lat="45.75826" lon="3.80029">
        <ele>1099.5</ele>
        <time>2017-05-27T07:20:09Z</time>
      </trkpt>
      <trkpt lat="45.75817" lon="3.80036">
        <ele>1100</ele>
        <time>2017-05-27T07:20:13Z</time>
      </trkpt>
      <trkpt lat="45.75809" lon="3.80042">
        <ele>1100.699951</ele>
        <time>2017-05-27T07:20:18Z</time>
      </trkpt>
      <trkpt lat="45.758" lon="3.80048">
        <ele>1101.300049</ele>
        <time>2017-05-27T07:20:23Z</time>
      </trkpt>
      <trkpt lat="45.7579" lon="3.80056">
        <ele>1102.199951</ele>
        <time>2017-05-27T07:20:30Z</time>
      </trkpt>
      <trkpt lat="45.7578" lon="3.80059">
        <ele>1103.599976</ele>
        <time>2017-05-27T07:20:37Z</time>
      </trkpt>
      <trkpt lat="45.7577" lon="3.80063">
        <ele>1104.400024</ele>
        <time>2017-05-27T07:20:42Z</time>
      </trkpt>
      <trkpt lat="45.75759" lon="3.80065">
        <ele>1105</ele>
        <time>2017-05-27T07:20:47Z</time>
      </trkpt>
      <trkpt lat="45.75749" lon="3.80065">
        <ele>1105.900024</ele>
        <time>2017-05-27T07:20:52Z</time>
      </trkpt>
      <trkpt lat="45.7574" lon="3.80063">
        <ele>1107.099976</ele>
        <time>2017-05-27T07:20:59Z</time>
      </trkpt>
      <trkpt lat="45.7573" lon="3.80062">
        <ele>1108.900024</ele>
        <time>2017-05-27T07:21:08Z</time>
      </trkpt>
      <trkpt lat="45.75721" lon="3.80058">
        <ele>1110.199951</ele>
        <time>2017-05-27T07:21:15Z</time>
      </trkpt>
      <trkpt lat="45.75711" lon="3.80053">
        <ele>1110.5</ele>
        <time>2017-05-27T07:21:19Z</time>
      </trkpt>
      <trkpt lat="45.75701" lon="3.80049">
        <ele>1111.099976</ele>
        <time>2017-05-27T07:21:26Z</time>
      </trkpt>
      <trkpt lat="45.7569" lon="3.80045">
        <ele>1111.900024</ele>
        <time>2017-05-27T07:21:33Z</time>
      </trkpt>
      <trkpt lat="45.75679" lon="3.80042">
        <ele>1112.300049</ele>
        <time>2017-05-27T07:21:38Z</time>
      </trkpt>
      <trkpt lat="45.7567" lon="3.80039">
        <ele>1112.699951</ele>
        <time>2017-05-27T07:21:42Z</time>
      </trkpt>
      <trkpt lat="45.7566" lon="3.80035">
        <ele>1113.199951</ele>
        <time>2017-05-27T07:21:47Z</time>
      </trkpt>
      <trkpt lat="45.7565" lon="3.80033">
        <ele>1114</ele>
        <time>2017-05-27T07:21:52Z</time>
      </trkpt>
      <trkpt lat="45.75638" lon="3.80034">
        <ele>1114.699951</ele>
        <time>2017-05-27T07:21:57Z</time>
      </trkpt>
      <trkpt lat="45.75627" lon="3.80033">
        <ele>1115.400024</ele>
        <time>2017-05-27T07:22:03Z</time>
      </trkpt>
      <trkpt lat="45.75617" lon="3.80035">
        <ele>1116.199951</ele>
        <time>2017-05-27T07:22:09Z</time>
      </trkpt>
      <trkpt lat="45.75608" lon="3.80035">
        <ele>1116.699951</ele>
        <time>2017-05-27T07:22:13Z</time>
      </trkpt>
      <trkpt lat="45.75599" lon="3.80036">
        <ele>1117.199951</ele>
        <time>2017-05-27T07:22:17Z</time>
      </trkpt>
      <trkpt lat="45.75589" lon="3.80039">
        <ele>1117.900024</ele>
        <time>2017-05-27T07:22:23Z</time>
      </trkpt>
      <trkpt lat="45.75579" lon="3.80042">
        <ele>1118.400024</ele>
        <time>2017-05-27T07:22:28Z</time>
      </trkpt>
      <trkpt lat="45.75569" lon="3.80045">
        <ele>1118.900024</ele>
        <time>2017-05-27T07:22:32Z</time>
      </trkpt>
      <trkpt lat="45.75561" lon="3.80049">
        <ele>1119.400024</ele>
        <time>2017-05-27T07:22:36Z</time>
      </trkpt>
      <trkpt lat="45.75551" lon="3.80054">
        <ele>1119.900024</ele>
        <time>2017-05-27T07:22:41Z</time>
      </trkpt>
      <trkpt lat="45.75543" lon="3.80064">
        <ele>1120.400024</ele>
        <time>2017-05-27T07:22:46Z</time>
      </trkpt>
      <trkpt lat="45.75535" lon="3.80074">
        <ele>1120.5</ele>
        <time>2017-05-27T07:22:50Z</time>
      </trkpt>
      <trkpt lat="45.7553" lon="3.80088">
        <ele>1120.800049</ele>
        <time>2017-05-27T07:22:55Z</time>
      </trkpt>
      <trkpt lat="45.75526" lon="3.801">
        <ele>1121</ele>
        <time>2017-05-27T07:22:59Z</time>
      </trkpt>
      <trkpt lat="45.75524" lon="3.80115">
        <ele>1121</ele>
        <time>2017-05-27T07:23:03Z</time>
      </trkpt>
      <trkpt lat="45.75524" lon="3.80132">
        <ele>1121.099976</ele>
        <time>2017-05-27T07:23:07Z</time>
      </trkpt>
      <trkpt lat="45.75524" lon="3.80148">
        <ele>1121.099976</ele>
        <time>2017-05-27T07:23:11Z</time>
      </trkpt>
      <trkpt lat="45.75523" lon="3.80163">
        <ele>1121.099976</ele>
        <time>2017-05-27T07:23:14Z</time>
      </trkpt>
      <trkpt lat="45.75522" lon="3.80179">
        <ele>1120.900024</ele>
        <time>2017-05-27T07:23:18Z</time>
      </trkpt>
      <trkpt lat="45.75522" lon="3.80196">
        <ele>1120.599976</ele>
        <time>2017-05-27T07:23:22Z</time>
      </trkpt>
      <trkpt lat="45.75523" lon="3.80211">
        <ele>1120.199951</ele>
        <time>2017-05-27T07:23:25Z</time>
      </trkpt>
      <trkpt lat="45.75521" lon="3.80225">
        <ele>1119.699951</ele>
        <time>2017-05-27T07:23:28Z</time>
      </trkpt>
      <trkpt lat="45.7552" lon="3.80239">
        <ele>1119.5</ele>
        <time>2017-05-27T07:23:31Z</time>
      </trkpt>
      <trkpt lat="45.75522" lon="3.80252">
        <ele>1119.300049</ele>
        <time>2017-05-27T07:23:34Z</time>
      </trkpt>
      <trkpt lat="45.75526" lon="3.80264">
        <ele>1119.099976</ele>
        <time>2017-05-27T07:23:37Z</time>
      </trkpt>
      <trkpt lat="45.75528" lon="3.80279">
        <ele>1119.099976</ele>
        <time>2017-05-27T07:23:41Z</time>
      </trkpt>
      <trkpt lat="45.7553" lon="3.80293">
        <ele>1119.199951</ele>
        <time>2017-05-27T07:23:44Z</time>
      </trkpt>
      <trkpt lat="45.75532" lon="3.80306">
        <ele>1119.300049</ele>
        <time>2017-05-27T07:23:47Z</time>
      </trkpt>
      <trkpt lat="45.75534" lon="3.80321">
        <ele>1119.5</ele>
        <time>2017-05-27T07:23:51Z</time>
      </trkpt>
      <trkpt lat="45.75531" lon="3.80334">
        <ele>1119.5</ele>
        <time>2017-05-27T07:23:55Z</time>
      </trkpt>
      <trkpt lat="45.75533" lon="3.80347">
        <ele>1119.699951</ele>
        <time>2017-05-27T07:23:59Z</time>
      </trkpt>
      <trkpt lat="45.75537" lon="3.8036">
        <ele>1119.800049</ele>
        <time>2017-05-27T07:24:02Z</time>
      </trkpt>
      <trkpt lat="45.75536" lon="3.80377">
        <ele>1120</ele>
        <time>2017-05-27T07:24:06Z</time>
      </trkpt>
      <trkpt lat="45.75537" lon="3.8039">
        <ele>1120.300049</ele>
        <time>2017-05-27T07:24:10Z</time>
      </trkpt>
      <trkpt lat="45.75533" lon="3.80404">
        <ele>1120.599976</ele>
        <time>2017-05-27T07:24:13Z</time>
      </trkpt>
      <trkpt lat="45.75529" lon="3.80416">
        <ele>1120.699951</ele>
        <time>2017-05-27T07:24:18Z</time>
      </trkpt>
      <trkpt lat="45.75531" lon="3.80429">
        <ele>1121.5</ele>
        <time>2017-05-27T07:24:25Z</time>
      </trkpt>
      <trkpt lat="45.75538" lon="3.80439">
        <ele>1121.599976</ele>
        <time>2017-05-27T07:24:48Z</time>
      </trkpt>
      <trkpt lat="45.75531" lon="3.80452">
        <ele>1122.699951</ele>
        <time>2017-05-27T07:25:29Z</time>
      </trkpt>
      <trkpt lat="45.75525" lon="3.80466">
        <ele>1123.400024</ele>
        <time>2017-05-27T07:25:34Z</time>
      </trkpt>
      <trkpt lat="45.75518" lon="3.80478">
        <ele>1124.300049</ele>
        <time>2017-05-27T07:25:39Z</time>
      </trkpt>
      <trkpt lat="45.75512" lon="3.80487">
        <ele>1125</ele>
        <time>2017-05-27T07:25:43Z</time>
      </trkpt>
      <trkpt lat="45.75505" lon="3.80498">
        <ele>1126.5</ele>
        <time>2017-05-27T07:25:50Z</time>
      </trkpt>
      <trkpt lat="45.75499" lon="3.8051">
        <ele>1127.699951</ele>
        <time>2017-05-27T07:25:58Z</time>
      </trkpt>
      <trkpt lat="45.75493" lon="3.80522">
        <ele>1129.199951</ele>
        <time>2017-05-27T07:26:06Z</time>
      </trkpt>
      <trkpt lat="45.75488" lon="3.80533">
        <ele>1130.400024</ele>
        <time>2017-05-27T07:26:14Z</time>
      </trkpt>
      <trkpt lat="45.75483" lon="3.80545">
        <ele>1131.099976</ele>
        <time>2017-05-27T07:26:20Z</time>
      </trkpt>
      <trkpt lat="45.75478" lon="3.80557">
        <ele>1131.800049</ele>
        <time>2017-05-27T07:26:26Z</time>
      </trkpt>
      <trkpt lat="45.75474" lon="3.80569">
        <ele>1132.599976</ele>
        <time>2017-05-27T07:26:32Z</time>
      </trkpt>
      <trkpt lat="45.75471" lon="3.80582">
        <ele>1133.800049</ele>
        <time>2017-05-27T07:26:39Z</time>
      </trkpt>
      <trkpt lat="45.75472" lon="3.80597">
        <ele>1134.300049</ele>
        <time>2017-05-27T07:26:47Z</time>
      </trkpt>
      <trkpt lat="45.75471" lon="3.8061">
        <ele>1134.699951</ele>
        <time>2017-05-27T07:26:54Z</time>
      </trkpt>
      <trkpt lat="45.75473" lon="3.80623">
        <ele>1135.300049</ele>
        <time>2017-05-27T07:27:01Z</time>
      </trkpt>
      <trkpt lat="45.75469" lon="3.80635">
        <ele>1135.900024</ele>
        <time>2017-05-27T07:27:07Z</time>
      </trkpt>
      <trkpt lat="45.75463" lon="3.80647">
        <ele>1136.5</ele>
        <time>2017-05-27T07:27:13Z</time>
      </trkpt>
      <trkpt lat="45.75465" lon="3.80661">
        <ele>1137.300049</ele>
        <time>2017-05-27T07:27:21Z</time>
      </trkpt>
      <trkpt lat="45.75457" lon="3.80674">
        <ele>1138.099976</ele>
        <time>2017-05-27T07:27:25Z</time>
      </trkpt>
      <trkpt lat="45.75452" lon="3.80684">
        <ele>1139.199951</ele>
        <time>2017-05-27T07:27:29Z</time>
      </trkpt>
      <trkpt lat="45.75443" lon="3.8068">
        <ele>1142.599976</ele>
        <time>2017-05-27T07:27:42Z</time>
      </trkpt>
      <trkpt lat="45.75438" lon="3.80666">
        <ele>1143</ele>
        <time>2017-05-27T07:27:49Z</time>
      </trkpt>
      <trkpt lat="45.75436" lon="3.80651">
        <ele>1143.300049</ele>
        <time>2017-05-27T07:27:56Z</time>
      </trkpt>
      <trkpt lat="45.75434" lon="3.80637">
        <ele>1143.400024</ele>
        <time>2017-05-27T07:28:00Z</time>
      </trkpt>
      <trkpt lat="45.75434" lon="3.80622">
        <ele>1143.699951</ele>
        <time>2017-05-27T07:28:06Z</time>
      </trkpt>
      <trkpt lat="45.75434" lon="3.80607">
        <ele>1144.099976</ele>
        <time>2017-05-27T07:28:11Z</time>
      </trkpt>
      <trkpt lat="45.75435" lon="3.80594">
        <ele>1144.400024</ele>
        <time>2017-05-27T07:28:16Z</time>
      </trkpt>
      <trkpt lat="45.75435" lon="3.80581">
        <ele>1144.5</ele>
        <time>2017-05-27T07:28:28Z</time>
      </trkpt>
      <trkpt lat="45.75435" lon="3.80568">
        <ele>1144.400024</ele>
        <time>2017-05-27T07:28:33Z</time>
      </trkpt>
      <trkpt lat="45.75436" lon="3.80555">
        <ele>1144.599976</ele>
        <time>2017-05-27T07:28:37Z</time>
      </trkpt>
      <trkpt lat="45.75437" lon="3.80537">
        <ele>1145.199951</ele>
        <time>2017-05-27T07:28:41Z</time>
      </trkpt>
      <trkpt lat="45.75439" lon="3.8052">
        <ele>1145.900024</ele>
        <time>2017-05-27T07:28:44Z</time>
      </trkpt>
      <trkpt lat="45.7544" lon="3.80505">
        <ele>1146.5</ele>
        <time>2017-05-27T07:28:47Z</time>
      </trkpt>
      <trkpt lat="45.75437" lon="3.80492">
        <ele>1147</ele>
        <time>2017-05-27T07:28:54Z</time>
      </trkpt>
      <trkpt lat="45.75436" lon="3.80477">
        <ele>1146.900024</ele>
        <time>2017-05-27T07:29:52Z</time>
      </trkpt>
      <trkpt lat="45.75435" lon="3.80462">
        <ele>1147.199951</ele>
        <time>2017-05-27T07:29:56Z</time>
      </trkpt>
      <trkpt lat="45.75435" lon="3.80446">
        <ele>1147.699951</ele>
        <time>2017-05-27T07:30:00Z</time>
      </trkpt>
      <trkpt lat="45.75432" lon="3.80431">
        <ele>1148.400024</ele>
        <time>2017-05-27T07:30:04Z</time>
      </trkpt>
      <trkpt lat="45.75429" lon="3.80419">
        <ele>1149.099976</ele>
        <time>2017-05-27T07:30:09Z</time>
      </trkpt>
      <trkpt lat="45.75431" lon="3.80406">
        <ele>1150</ele>
        <time>2017-05-27T07:30:20Z</time>
      </trkpt>
      <trkpt lat="45.75427" lon="3.80394">
        <ele>1150.699951</ele>
        <time>2017-05-27T07:30:25Z</time>
      </trkpt>
      <trkpt lat="45.75422" lon="3.80382">
        <ele>1152.199951</ele>
        <time>2017-05-27T07:30:31Z</time>
      </trkpt>
      <trkpt lat="45.7542" lon="3.80368">
        <ele>1153.5</ele>
        <time>2017-05-27T07:30:37Z</time>
      </trkpt>
      <trkpt lat="45.75413" lon="3.80359">
        <ele>1154.900024</ele>
        <time>2017-05-27T07:30:43Z</time>
      </trkpt>
      <trkpt lat="45.75411" lon="3.80346">
        <ele>1156.5</ele>
        <time>2017-05-27T07:30:51Z</time>
      </trkpt>
      <trkpt lat="45.75405" lon="3.80334">
        <ele>1157.599976</ele>
        <time>2017-05-27T07:30:59Z</time>
      </trkpt>
      <trkpt lat="45.75403" lon="3.80319">
        <ele>1159</ele>
        <time>2017-05-27T07:31:05Z</time>
      </trkpt>
      <trkpt lat="45.754" lon="3.80306">
        <ele>1160.300049</ele>
        <time>2017-05-27T07:31:12Z</time>
      </trkpt>
      <trkpt lat="45.75399" lon="3.80293">
        <ele>1161.300049</ele>
        <time>2017-05-27T07:31:20Z</time>
      </trkpt>
      <trkpt lat="45.75394" lon="3.8028">
        <ele>1162.599976</ele>
        <time>2017-05-27T07:31:27Z</time>
      </trkpt>
      <trkpt lat="45.75388" lon="3.80268">
        <ele>1164.800049</ele>
        <time>2017-05-27T07:31:35Z</time>
      </trkpt>
      <trkpt lat="45.75384" lon="3.80255">
        <ele>1166.199951</ele>
        <time>2017-05-27T07:31:41Z</time>
      </trkpt>
      <trkpt lat="45.75377" lon="3.80243">
        <ele>1167.699951</ele>
        <time>2017-05-27T07:31:47Z</time>
      </trkpt>
      <trkpt lat="45.75372" lon="3.80232">
        <ele>1168.599976</ele>
        <time>2017-05-27T07:31:52Z</time>
      </trkpt>
      <trkpt lat="45.7537" lon="3.8022">
        <ele>1169.400024</ele>
        <time>2017-05-27T07:31:57Z</time>
      </trkpt>
      <trkpt lat="45.7537" lon="3.80207">
        <ele>1170.199951</ele>
        <time>2017-05-27T07:32:04Z</time>
      </trkpt>
      <trkpt lat="45.7537" lon="3.80191">
        <ele>1171.300049</ele>
        <time>2017-05-27T07:32:12Z</time>
      </trkpt>
      <trkpt lat="45.75371" lon="3.80178">
        <ele>1171.900024</ele>
        <time>2017-05-27T07:32:19Z</time>
      </trkpt>
      <trkpt lat="45.75367" lon="3.80166">
        <ele>1172.599976</ele>
        <time>2017-05-27T07:32:25Z</time>
      </trkpt>
      <trkpt lat="45.75367" lon="3.80153">
        <ele>1173.099976</ele>
        <time>2017-05-27T07:32:31Z</time>
      </trkpt>
      <trkpt lat="45.75362" lon="3.8014">
        <ele>1173.599976</ele>
        <time>2017-05-27T07:32:35Z</time>
      </trkpt>
      <trkpt lat="45.75363" lon="3.80127">
        <ele>1174.800049</ele>
        <time>2017-05-27T07:32:41Z</time>
      </trkpt>
      <trkpt lat="45.75361" lon="3.80115">
        <ele>1175.900024</ele>
        <time>2017-05-27T07:32:46Z</time>
      </trkpt>
      <trkpt lat="45.75362" lon="3.80101">
        <ele>1177.300049</ele>
        <time>2017-05-27T07:32:53Z</time>
      </trkpt>
      <trkpt lat="45.75365" lon="3.80087">
        <ele>1179.400024</ele>
        <time>2017-05-27T07:33:03Z</time>
      </trkpt>
      <trkpt lat="45.75362" lon="3.80073">
        <ele>1181.300049</ele>
        <time>2017-05-27T07:33:10Z</time>
      </trkpt>
      <trkpt lat="45.75357" lon="3.80061">
        <ele>1183</ele>
        <time>2017-05-27T07:33:16Z</time>
      </trkpt>
      <trkpt lat="45.75357" lon="3.80048">
        <ele>1184.900024</ele>
        <time>2017-05-27T07:33:23Z</time>
      </trkpt>
      <trkpt lat="45.75358" lon="3.80033">
        <ele>1186.599976</ele>
        <time>2017-05-27T07:33:30Z</time>
      </trkpt>
      <trkpt lat="45.7536" lon="3.80019">
        <ele>1187.800049</ele>
        <time>2017-05-27T07:33:37Z</time>
      </trkpt>
      <trkpt lat="45.75364" lon="3.80008">
        <ele>1188.400024</ele>
        <time>2017-05-27T07:33:42Z</time>
      </trkpt>
      <trkpt lat="45.75369" lon="3.79996">
        <ele>1188.599976</ele>
        <time>2017-05-27T07:33:47Z</time>
      </trkpt>
      <trkpt lat="45.75368" lon="3.79981">
        <ele>1189</ele>
        <time>2017-05-27T07:33:53Z</time>
      </trkpt>
      <trkpt lat="45.75369" lon="3.79968">
        <ele>1189.900024</ele>
        <time>2017-05-27T07:33:58Z</time>
      </trkpt>
      <trkpt lat="45.75369" lon="3.79954">
        <ele>1190.699951</ele>
        <time>2017-05-27T07:34:04Z</time>
      </trkpt>
      <trkpt lat="45.75367" lon="3.79939">
        <ele>1191.599976</ele>
        <time>2017-05-27T07:34:10Z</time>
      </trkpt>
      <trkpt lat="45.75368" lon="3.79926">
        <ele>1192.400024</ele>
        <time>2017-05-27T07:34:16Z</time>
      </trkpt>
      <trkpt lat="45.75368" lon="3.79911">
        <ele>1193</ele>
        <time>2017-05-27T07:34:22Z</time>
      </trkpt>
      <trkpt lat="45.75371" lon="3.79899">
        <ele>1194</ele>
        <time>2017-05-27T07:34:27Z</time>
      </trkpt>
      <trkpt lat="45.7537" lon="3.79884">
        <ele>1195.599976</ele>
        <time>2017-05-27T07:34:33Z</time>
      </trkpt>
      <trkpt lat="45.75374" lon="3.7987">
        <ele>1196.599976</ele>
        <time>2017-05-27T07:34:38Z</time>
      </trkpt>
      <trkpt lat="45.75378" lon="3.79856">
        <ele>1197.400024</ele>
        <time>2017-05-27T07:34:42Z</time>
      </trkpt>
      <trkpt lat="45.75382" lon="3.79843">
        <ele>1199</ele>
        <time>2017-05-27T07:34:48Z</time>
      </trkpt>
      <trkpt lat="45.75383" lon="3.79828">
        <ele>1200.900024</ele>
        <time>2017-05-27T07:34:55Z</time>
      </trkpt>
      <trkpt lat="45.7538" lon="3.79816">
        <ele>1202.300049</ele>
        <time>2017-05-27T07:35:01Z</time>
      </trkpt>
      <trkpt lat="45.75379" lon="3.79801">
        <ele>1203.699951</ele>
        <time>2017-05-27T07:35:07Z</time>
      </trkpt>
      <trkpt lat="45.75379" lon="3.79786">
        <ele>1205.900024</ele>
        <time>2017-05-27T07:35:16Z</time>
      </trkpt>
      <trkpt lat="45.75376" lon="3.79771">
        <ele>1207</ele>
        <time>2017-05-27T07:35:22Z</time>
      </trkpt>
      <trkpt lat="45.75376" lon="3.79757">
        <ele>1208.199951</ele>
        <time>2017-05-27T07:35:29Z</time>
      </trkpt>
      <trkpt lat="45.75373" lon="3.79758">
        <ele>1210.400024</ele>
        <time>2017-05-27T07:41:10Z</time>
      </trkpt>
      <trkpt lat="45.75366" lon="3.79769">
        <ele>1210.699951</ele>
        <time>2017-05-27T07:42:05Z</time>
      </trkpt>
      <trkpt lat="45.75361" lon="3.7978">
        <ele>1211</ele>
        <time>2017-05-27T07:42:10Z</time>
      </trkpt>
      <trkpt lat="45.75357" lon="3.79793">
        <ele>1211.300049</ele>
        <time>2017-05-27T07:42:14Z</time>
      </trkpt>
      <trkpt lat="45.75353" lon="3.79807">
        <ele>1211.5</ele>
        <time>2017-05-27T07:42:18Z</time>
      </trkpt>
      <trkpt lat="45.75346" lon="3.79821">
        <ele>1211.199951</ele>
        <time>2017-05-27T07:42:22Z</time>
      </trkpt>
      <trkpt lat="45.75341" lon="3.79832">
        <ele>1211.199951</ele>
        <time>2017-05-27T07:42:25Z</time>
      </trkpt>
      <trkpt lat="45.75337" lon="3.79847">
        <ele>1211</ele>
        <time>2017-05-27T07:42:28Z</time>
      </trkpt>
      <trkpt lat="45.75334" lon="3.7986">
        <ele>1210.900024</ele>
        <time>2017-05-27T07:42:30Z</time>
      </trkpt>
      <trkpt lat="45.75328" lon="3.79872">
        <ele>1210.699951</ele>
        <time>2017-05-27T07:42:32Z</time>
      </trkpt>
      <trkpt lat="45.75325" lon="3.79884">
        <ele>1210.199951</ele>
        <time>2017-05-27T07:42:34Z</time>
      </trkpt>
      <trkpt lat="45.7532" lon="3.79898">
        <ele>1209.900024</ele>
        <time>2017-05-27T07:42:37Z</time>
      </trkpt>
      <trkpt lat="45.75317" lon="3.79913">
        <ele>1209.800049</ele>
        <time>2017-05-27T07:42:40Z</time>
      </trkpt>
      <trkpt lat="45.75314" lon="3.79929">
        <ele>1209.900024</ele>
        <time>2017-05-27T07:42:43Z</time>
      </trkpt>
      <trkpt lat="45.75309" lon="3.79946">
        <ele>1209.800049</ele>
        <time>2017-05-27T07:42:46Z</time>
      </trkpt>
      <trkpt lat="45.75304" lon="3.79963">
        <ele>1209.800049</ele>
        <time>2017-05-27T07:42:49Z</time>
      </trkpt>
      <trkpt lat="45.75299" lon="3.79979">
        <ele>1210</ele>
        <time>2017-05-27T07:42:52Z</time>
      </trkpt>
      <trkpt lat="45.75293" lon="3.79994">
        <ele>1209.699951</ele>
        <time>2017-05-27T07:42:55Z</time>
      </trkpt>
      <trkpt lat="45.75288" lon="3.80011">
        <ele>1209.599976</ele>
        <time>2017-05-27T07:42:58Z</time>
      </trkpt>
      <trkpt lat="45.75284" lon="3.80029">
        <ele>1209.699951</ele>
        <time>2017-05-27T07:43:01Z</time>
      </trkpt>
      <trkpt lat="45.7528" lon="3.80041">
        <ele>1209.599976</ele>
        <time>2017-05-27T07:43:03Z</time>
      </trkpt>
      <trkpt lat="45.75275" lon="3.80053">
        <ele>1209.5</ele>
        <time>2017-05-27T07:43:05Z</time>
      </trkpt>
      <trkpt lat="45.75273" lon="3.80066">
        <ele>1209.400024</ele>
        <time>2017-05-27T07:43:07Z</time>
      </trkpt>
      <trkpt lat="45.75271" lon="3.80079">
        <ele>1209.400024</ele>
        <time>2017-05-27T07:43:09Z</time>
      </trkpt>
      <trkpt lat="45.75266" lon="3.80096">
        <ele>1209.599976</ele>
        <time>2017-05-27T07:43:12Z</time>
      </trkpt>
      <trkpt lat="45.75261" lon="3.80109">
        <ele>1209.800049</ele>
        <time>2017-05-27T07:43:15Z</time>
      </trkpt>
      <trkpt lat="45.75257" lon="3.80124">
        <ele>1209.900024</ele>
        <time>2017-05-27T07:43:18Z</time>
      </trkpt>
      <trkpt lat="45.75254" lon="3.80136">
        <ele>1210</ele>
        <time>2017-05-27T07:43:20Z</time>
      </trkpt>
      <trkpt lat="45.75251" lon="3.80154">
        <ele>1209.900024</ele>
        <time>2017-05-27T07:43:23Z</time>
      </trkpt>
      <trkpt lat="45.75248" lon="3.80171">
        <ele>1209.699951</ele>
        <time>2017-05-27T07:43:26Z</time>
      </trkpt>
      <trkpt lat="45.75247" lon="3.80185">
        <ele>1209.199951</ele>
        <time>2017-05-27T07:43:28Z</time>
      </trkpt>
      <trkpt lat="45.75245" lon="3.80199">
        <ele>1209.199951</ele>
        <time>2017-05-27T07:43:30Z</time>
      </trkpt>
      <trkpt lat="45.75244" lon="3.80214">
        <ele>1208.800049</ele>
        <time>2017-05-27T07:43:32Z</time>
      </trkpt>
      <trkpt lat="45.75244" lon="3.80229">
        <ele>1208.199951</ele>
        <time>2017-05-27T07:43:34Z</time>
      </trkpt>
      <trkpt lat="45.75243" lon="3.80244">
        <ele>1208.099976</ele>
        <time>2017-05-27T07:43:36Z</time>
      </trkpt>
      <trkpt lat="45.75244" lon="3.80262">
        <ele>1208</ele>
        <time>2017-05-27T07:43:38Z</time>
      </trkpt>
      <trkpt lat="45.75244" lon="3.80281">
        <ele>1207.699951</ele>
        <time>2017-05-27T07:43:40Z</time>
      </trkpt>
      <trkpt lat="45.75242" lon="3.80298">
        <ele>1207</ele>
        <time>2017-05-27T07:43:42Z</time>
      </trkpt>
      <trkpt lat="45.75242" lon="3.80316">
        <ele>1206.699951</ele>
        <time>2017-05-27T07:43:44Z</time>
      </trkpt>
      <trkpt lat="45.75245" lon="3.80335">
        <ele>1206.5</ele>
        <time>2017-05-27T07:43:46Z</time>
      </trkpt>
      <trkpt lat="45.75245" lon="3.80352">
        <ele>1205.699951</ele>
        <time>2017-05-27T07:43:48Z</time>
      </trkpt>
      <trkpt lat="45.75244" lon="3.80373">
        <ele>1205</ele>
        <time>2017-05-27T07:43:50Z</time>
      </trkpt>
      <trkpt lat="45.75243" lon="3.80394">
        <ele>1204.5</ele>
        <time>2017-05-27T07:43:52Z</time>
      </trkpt>
      <trkpt lat="45.7524" lon="3.80414">
        <ele>1204</ele>
        <time>2017-05-27T07:43:54Z</time>
      </trkpt>
      <trkpt lat="45.75236" lon="3.80433">
        <ele>1203.5</ele>
        <time>2017-05-27T07:43:56Z</time>
      </trkpt>
      <trkpt lat="45.75232" lon="3.80452">
        <ele>1203</ele>
        <time>2017-05-27T07:43:58Z</time>
      </trkpt>
      <trkpt lat="45.75228" lon="3.80469">
        <ele>1202.599976</ele>
        <time>2017-05-27T07:44:00Z</time>
      </trkpt>
      <trkpt lat="45.75224" lon="3.80486">
        <ele>1202.199951</ele>
        <time>2017-05-27T07:44:02Z</time>
      </trkpt>
      <trkpt lat="45.75219" lon="3.80501">
        <ele>1201.900024</ele>
        <time>2017-05-27T07:44:04Z</time>
      </trkpt>
      <trkpt lat="45.75216" lon="3.80518">
        <ele>1201.599976</ele>
        <time>2017-05-27T07:44:06Z</time>
      </trkpt>
      <trkpt lat="45.75211" lon="3.80534">
        <ele>1201.300049</ele>
        <time>2017-05-27T07:44:08Z</time>
      </trkpt>
      <trkpt lat="45.75207" lon="3.80551">
        <ele>1200.900024</ele>
        <time>2017-05-27T07:44:10Z</time>
      </trkpt>
      <trkpt lat="45.75202" lon="3.80569">
        <ele>1200.300049</ele>
        <time>2017-05-27T07:44:12Z</time>
      </trkpt>
      <trkpt lat="45.75196" lon="3.80587">
        <ele>1199.800049</ele>
        <time>2017-05-27T07:44:14Z</time>
      </trkpt>
      <trkpt lat="45.75191" lon="3.80604">
        <ele>1199.300049</ele>
        <time>2017-05-27T07:44:16Z</time>
      </trkpt>
      <trkpt lat="45.75187" lon="3.80623">
        <ele>1198.900024</ele>
        <time>2017-05-27T07:44:18Z</time>
      </trkpt>
      <trkpt lat="45.75182" lon="3.8064">
        <ele>1198.599976</ele>
        <time>2017-05-27T07:44:20Z</time>
      </trkpt>
      <trkpt lat="45.7518" lon="3.80659">
        <ele>1198.199951</ele>
        <time>2017-05-27T07:44:22Z</time>
      </trkpt>
      <trkpt lat="45.75174" lon="3.80676">
        <ele>1197.800049</ele>
        <time>2017-05-27T07:44:24Z</time>
      </trkpt>
      <trkpt lat="45.75166" lon="3.80693">
        <ele>1197.5</ele>
        <time>2017-05-27T07:44:26Z</time>
      </trkpt>
      <trkpt lat="45.75155" lon="3.8071">
        <ele>1197</ele>
        <time>2017-05-27T07:44:28Z</time>
      </trkpt>
      <trkpt lat="45.75142" lon="3.80725">
        <ele>1196.199951</ele>
        <time>2017-05-27T07:44:30Z</time>
      </trkpt>
      <trkpt lat="45.75132" lon="3.80739">
        <ele>1195.400024</ele>
        <time>2017-05-27T07:44:32Z</time>
      </trkpt>
      <trkpt lat="45.75119" lon="3.8075">
        <ele>1194.800049</ele>
        <time>2017-05-27T07:44:34Z</time>
      </trkpt>
      <trkpt lat="45.75107" lon="3.80759">
        <ele>1194.199951</ele>
        <time>2017-05-27T07:44:36Z</time>
      </trkpt>
      <trkpt lat="45.75097" lon="3.80767">
        <ele>1193.900024</ele>
        <time>2017-05-27T07:44:38Z</time>
      </trkpt>
      <trkpt lat="45.75085" lon="3.80772">
        <ele>1193</ele>
        <time>2017-05-27T07:44:40Z</time>
      </trkpt>
      <trkpt lat="45.75072" lon="3.80775">
        <ele>1192.400024</ele>
        <time>2017-05-27T07:44:42Z</time>
      </trkpt>
      <trkpt lat="45.7506" lon="3.80778">
        <ele>1191.699951</ele>
        <time>2017-05-27T07:44:44Z</time>
      </trkpt>
      <trkpt lat="45.75049" lon="3.80783">
        <ele>1191.300049</ele>
        <time>2017-05-27T07:44:46Z</time>
      </trkpt>
      <trkpt lat="45.75036" lon="3.8079">
        <ele>1190.800049</ele>
        <time>2017-05-27T07:44:48Z</time>
      </trkpt>
      <trkpt lat="45.75025" lon="3.808">
        <ele>1190.300049</ele>
        <time>2017-05-27T07:44:50Z</time>
      </trkpt>
      <trkpt lat="45.75014" lon="3.80812">
        <ele>1190</ele>
        <time>2017-05-27T07:44:52Z</time>
      </trkpt>
      <trkpt lat="45.75005" lon="3.80824">
        <ele>1189.900024</ele>
        <time>2017-05-27T07:44:54Z</time>
      </trkpt>
      <trkpt lat="45.74998" lon="3.80838">
        <ele>1189.900024</ele>
        <time>2017-05-27T07:44:56Z</time>
      </trkpt>
      <trkpt lat="45.74991" lon="3.80849">
        <ele>1190.199951</ele>
        <time>2017-05-27T07:44:58Z</time>
      </trkpt>
      <trkpt lat="45.74985" lon="3.80859">
        <ele>1190.699951</ele>
        <time>2017-05-27T07:45:00Z</time>
      </trkpt>
      <trkpt lat="45.74979" lon="3.80875">
        <ele>1191.400024</ele>
        <time>2017-05-27T07:45:03Z</time>
      </trkpt>
      <trkpt lat="45.7497" lon="3.80887">
        <ele>1192.5</ele>
        <time>2017-05-27T07:45:06Z</time>
      </trkpt>
      <trkpt lat="45.74962" lon="3.809">
        <ele>1193.099976</ele>
        <time>2017-05-27T07:45:09Z</time>
      </trkpt>
      <trkpt lat="45.74953" lon="3.80912">
        <ele>1193.900024</ele>
        <time>2017-05-27T07:45:12Z</time>
      </trkpt>
      <trkpt lat="45.74945" lon="3.80926">
        <ele>1194.300049</ele>
        <time>2017-05-27T07:45:15Z</time>
      </trkpt>
      <trkpt lat="45.74935" lon="3.80938">
        <ele>1194.599976</ele>
        <time>2017-05-27T07:45:18Z</time>
      </trkpt>
      <trkpt lat="45.74925" lon="3.80951">
        <ele>1194.699951</ele>
        <time>2017-05-27T07:45:21Z</time>
      </trkpt>
      <trkpt lat="45.74919" lon="3.8096">
        <ele>1194.699951</ele>
        <time>2017-05-27T07:45:23Z</time>
      </trkpt>
      <trkpt lat="45.7491" lon="3.80969">
        <ele>1194.800049</ele>
        <time>2017-05-27T07:45:26Z</time>
      </trkpt>
      <trkpt lat="45.74899" lon="3.8098">
        <ele>1195</ele>
        <time>2017-05-27T07:45:29Z</time>
      </trkpt>
      <trkpt lat="45.74889" lon="3.80989">
        <ele>1195.099976</ele>
        <time>2017-05-27T07:45:32Z</time>
      </trkpt>
      <trkpt lat="45.74882" lon="3.81001">
        <ele>1195.300049</ele>
        <time>2017-05-27T07:45:35Z</time>
      </trkpt>
      <trkpt lat="45.74874" lon="3.8101">
        <ele>1195.599976</ele>
        <time>2017-05-27T07:45:38Z</time>
      </trkpt>
      <trkpt lat="45.74865" lon="3.8102">
        <ele>1195.800049</ele>
        <time>2017-05-27T07:45:41Z</time>
      </trkpt>
      <trkpt lat="45.74856" lon="3.81029">
        <ele>1196</ele>
        <time>2017-05-27T07:45:44Z</time>
      </trkpt>
      <trkpt lat="45.74847" lon="3.81038">
        <ele>1196.300049</ele>
        <time>2017-05-27T07:45:47Z</time>
      </trkpt>
      <trkpt lat="45.74838" lon="3.81045">
        <ele>1196.300049</ele>
        <time>2017-05-27T07:45:50Z</time>
      </trkpt>
      <trkpt lat="45.74828" lon="3.81056">
        <ele>1196.300049</ele>
        <time>2017-05-27T07:45:53Z</time>
      </trkpt>
      <trkpt lat="45.74822" lon="3.81065">
        <ele>1196.099976</ele>
        <time>2017-05-27T07:45:55Z</time>
      </trkpt>
      <trkpt lat="45.74814" lon="3.81072">
        <ele>1195.599976</ele>
        <time>2017-05-27T07:45:57Z</time>
      </trkpt>
      <trkpt lat="45.74807" lon="3.81081">
        <ele>1195.199951</ele>
        <time>2017-05-27T07:45:59Z</time>
      </trkpt>
      <trkpt lat="45.74799" lon="3.8109">
        <ele>1194.099976</ele>
        <time>2017-05-27T07:46:01Z</time>
      </trkpt>
      <trkpt lat="45.74791" lon="3.81096">
        <ele>1194.099976</ele>
        <time>2017-05-27T07:46:03Z</time>
      </trkpt>
      <trkpt lat="45.74783" lon="3.81108">
        <ele>1194</ele>
        <time>2017-05-27T07:46:05Z</time>
      </trkpt>
      <trkpt lat="45.74776" lon="3.8112">
        <ele>1193.900024</ele>
        <time>2017-05-27T07:46:07Z</time>
      </trkpt>
      <trkpt lat="45.74768" lon="3.81131">
        <ele>1193.599976</ele>
        <time>2017-05-27T07:46:09Z</time>
      </trkpt>
      <trkpt lat="45.74762" lon="3.81144">
        <ele>1193.099976</ele>
        <time>2017-05-27T07:46:11Z</time>
      </trkpt>
      <trkpt lat="45.74756" lon="3.81157">
        <ele>1193</ele>
        <time>2017-05-27T07:46:13Z</time>
      </trkpt>
      <trkpt lat="45.74751" lon="3.81169">
        <ele>1192.800049</ele>
        <time>2017-05-27T07:46:15Z</time>
      </trkpt>
      <trkpt lat="45.74746" lon="3.81181">
        <ele>1192.800049</ele>
        <time>2017-05-27T07:46:17Z</time>
      </trkpt>
      <trkpt lat="45.74741" lon="3.81194">
        <ele>1192.800049</ele>
        <time>2017-05-27T07:46:19Z</time>
      </trkpt>
      <trkpt lat="45.74735" lon="3.81206">
        <ele>1192.599976</ele>
        <time>2017-05-27T07:46:21Z</time>
      </trkpt>
      <trkpt lat="45.74729" lon="3.81218">
        <ele>1192.5</ele>
        <time>2017-05-27T07:46:23Z</time>
      </trkpt>
      <trkpt lat="45.74723" lon="3.8123">
        <ele>1192.599976</ele>
        <time>2017-05-27T07:46:25Z</time>
      </trkpt>
      <trkpt lat="45.74716" lon="3.8124">
        <ele>1192.400024</ele>
        <time>2017-05-27T07:46:27Z</time>
      </trkpt>
      <trkpt lat="45.74711" lon="3.8125">
        <ele>1192.199951</ele>
        <time>2017-05-27T07:46:29Z</time>
      </trkpt>
      <trkpt lat="45.7471" lon="3.81265">
        <ele>1191.800049</ele>
        <time>2017-05-27T07:46:32Z</time>
      </trkpt>
      <trkpt lat="45.74718" lon="3.81271">
        <ele>1191.900024</ele>
        <time>2017-05-27T07:46:35Z</time>
      </trkpt>
      <trkpt lat="45.74727" lon="3.81276">
        <ele>1192</ele>
        <time>2017-05-27T07:46:38Z</time>
      </trkpt>
      <trkpt lat="45.74737" lon="3.81282">
        <ele>1192.699951</ele>
        <time>2017-05-27T07:46:42Z</time>
      </trkpt>
      <trkpt lat="45.74747" lon="3.8129">
        <ele>1192.900024</ele>
        <time>2017-05-27T07:46:46Z</time>
      </trkpt>
      <trkpt lat="45.74755" lon="3.813">
        <ele>1193.5</ele>
        <time>2017-05-27T07:46:50Z</time>
      </trkpt>
      <trkpt lat="45.74763" lon="3.81306">
        <ele>1194.099976</ele>
        <time>2017-05-27T07:46:54Z</time>
      </trkpt>
      <trkpt lat="45.74771" lon="3.81312">
        <ele>1194.599976</ele>
        <time>2017-05-27T07:46:57Z</time>
      </trkpt>
      <trkpt lat="45.7478" lon="3.81317">
        <ele>1195.199951</ele>
        <time>2017-05-27T07:47:01Z</time>
      </trkpt>
      <trkpt lat="45.7479" lon="3.81325">
        <ele>1195.5</ele>
        <time>2017-05-27T07:47:05Z</time>
      </trkpt>
      <trkpt lat="45.74799" lon="3.81328">
        <ele>1195.5</ele>
        <time>2017-05-27T07:47:07Z</time>
      </trkpt>
      <trkpt lat="45.7481" lon="3.81327">
        <ele>1195.5</ele>
        <time>2017-05-27T07:47:11Z</time>
      </trkpt>
      <trkpt lat="45.74821" lon="3.81328">
        <ele>1195.400024</ele>
        <time>2017-05-27T07:47:15Z</time>
      </trkpt>
      <trkpt lat="45.74833" lon="3.81328">
        <ele>1195.199951</ele>
        <time>2017-05-27T07:47:18Z</time>
      </trkpt>
      <trkpt lat="45.74843" lon="3.81323">
        <ele>1194.699951</ele>
        <time>2017-05-27T07:47:21Z</time>
      </trkpt>
      <trkpt lat="45.74857" lon="3.81321">
        <ele>1193.699951</ele>
        <time>2017-05-27T07:47:24Z</time>
      </trkpt>
      <trkpt lat="45.74876" lon="3.81322">
        <ele>1192.199951</ele>
        <time>2017-05-27T07:47:27Z</time>
      </trkpt>
      <trkpt lat="45.74888" lon="3.81323">
        <ele>1192</ele>
        <time>2017-05-27T07:47:28Z</time>
      </trkpt>
      <trkpt lat="45.74901" lon="3.81334">
        <ele>1191.699951</ele>
        <time>2017-05-27T07:47:30Z</time>
      </trkpt>
      <trkpt lat="45.74909" lon="3.81344">
        <ele>1191.5</ele>
        <time>2017-05-27T07:47:31Z</time>
      </trkpt>
      <trkpt lat="45.74922" lon="3.81359">
        <ele>1191.199951</ele>
        <time>2017-05-27T07:47:33Z</time>
      </trkpt>
      <trkpt lat="45.7493" lon="3.81372">
        <ele>1190.699951</ele>
        <time>2017-05-27T07:47:35Z</time>
      </trkpt>
      <trkpt lat="45.74943" lon="3.81383">
        <ele>1190.5</ele>
        <time>2017-05-27T07:47:37Z</time>
      </trkpt>
      <trkpt lat="45.74952" lon="3.81397">
        <ele>1190</ele>
        <time>2017-05-27T07:47:39Z</time>
      </trkpt>
      <trkpt lat="45.74961" lon="3.8141">
        <ele>1189.800049</ele>
        <time>2017-05-27T07:47:41Z</time>
      </trkpt>
      <trkpt lat="45.74968" lon="3.81423">
        <ele>1189.5</ele>
        <time>2017-05-27T07:47:43Z</time>
      </trkpt>
      <trkpt lat="45.74974" lon="3.81435">
        <ele>1189.400024</ele>
        <time>2017-05-27T07:47:45Z</time>
      </trkpt>
      <trkpt lat="45.74981" lon="3.81446">
        <ele>1189.400024</ele>
        <time>2017-05-27T07:47:47Z</time>
      </trkpt>
      <trkpt lat="45.74989" lon="3.81457">
        <ele>1189.5</ele>
        <time>2017-05-27T07:47:49Z</time>
      </trkpt>
      <trkpt lat="45.74996" lon="3.81467">
        <ele>1189.599976</ele>
        <time>2017-05-27T07:47:51Z</time>
      </trkpt>
      <trkpt lat="45.75003" lon="3.81479">
        <ele>1189.300049</ele>
        <time>2017-05-27T07:47:53Z</time>
      </trkpt>
      <trkpt lat="45.75011" lon="3.81492">
        <ele>1189.199951</ele>
        <time>2017-05-27T07:47:55Z</time>
      </trkpt>
      <trkpt lat="45.75019" lon="3.81505">
        <ele>1189.199951</ele>
        <time>2017-05-27T07:47:57Z</time>
      </trkpt>
      <trkpt lat="45.75026" lon="3.81517">
        <ele>1189</ele>
        <time>2017-05-27T07:47:59Z</time>
      </trkpt>
      <trkpt lat="45.75033" lon="3.81528">
        <ele>1188.800049</ele>
        <time>2017-05-27T07:48:01Z</time>
      </trkpt>
      <trkpt lat="45.75041" lon="3.81538">
        <ele>1188.599976</ele>
        <time>2017-05-27T07:48:03Z</time>
      </trkpt>
      <trkpt lat="45.75048" lon="3.81547">
        <ele>1188.400024</ele>
        <time>2017-05-27T07:48:05Z</time>
      </trkpt>
      <trkpt lat="45.75055" lon="3.81555">
        <ele>1188.300049</ele>
        <time>2017-05-27T07:48:07Z</time>
      </trkpt>
      <trkpt lat="45.75063" lon="3.81563">
        <ele>1188.5</ele>
        <time>2017-05-27T07:48:09Z</time>
      </trkpt>
      <trkpt lat="45.75071" lon="3.81569">
        <ele>1188.300049</ele>
        <time>2017-05-27T07:48:11Z</time>
      </trkpt>
      <trkpt lat="45.7508" lon="3.81576">
        <ele>1188.300049</ele>
        <time>2017-05-27T07:48:13Z</time>
      </trkpt>
      <trkpt lat="45.75089" lon="3.81582">
        <ele>1188.199951</ele>
        <time>2017-05-27T07:48:15Z</time>
      </trkpt>
      <trkpt lat="45.75098" lon="3.81588">
        <ele>1188.099976</ele>
        <time>2017-05-27T07:48:17Z</time>
      </trkpt>
      <trkpt lat="45.75108" lon="3.81596">
        <ele>1187.900024</ele>
        <time>2017-05-27T07:48:19Z</time>
      </trkpt>
      <trkpt lat="45.75116" lon="3.81604">
        <ele>1187.5</ele>
        <time>2017-05-27T07:48:21Z</time>
      </trkpt>
      <trkpt lat="45.75125" lon="3.81613">
        <ele>1187.300049</ele>
        <time>2017-05-27T07:48:23Z</time>
      </trkpt>
      <trkpt lat="45.75134" lon="3.81622">
        <ele>1186.900024</ele>
        <time>2017-05-27T07:48:25Z</time>
      </trkpt>
      <trkpt lat="45.75147" lon="3.81633">
        <ele>1186.5</ele>
        <time>2017-05-27T07:48:27Z</time>
      </trkpt>
      <trkpt lat="45.75159" lon="3.81645">
        <ele>1185.800049</ele>
        <time>2017-05-27T07:48:29Z</time>
      </trkpt>
      <trkpt lat="45.7517" lon="3.81659">
        <ele>1185.400024</ele>
        <time>2017-05-27T07:48:31Z</time>
      </trkpt>
      <trkpt lat="45.75178" lon="3.81672">
        <ele>1184.900024</ele>
        <time>2017-05-27T07:48:33Z</time>
      </trkpt>
      <trkpt lat="45.75184" lon="3.81686">
        <ele>1184.699951</ele>
        <time>2017-05-27T07:48:35Z</time>
      </trkpt>
      <trkpt lat="45.75188" lon="3.817">
        <ele>1184.699951</ele>
        <time>2017-05-27T07:48:37Z</time>
      </trkpt>
      <trkpt lat="45.75191" lon="3.81714">
        <ele>1184.400024</ele>
        <time>2017-05-27T07:48:39Z</time>
      </trkpt>
      <trkpt lat="45.75193" lon="3.81729">
        <ele>1184</ele>
        <time>2017-05-27T07:48:41Z</time>
      </trkpt>
      <trkpt lat="45.75196" lon="3.81748">
        <ele>1183.800049</ele>
        <time>2017-05-27T07:48:43Z</time>
      </trkpt>
      <trkpt lat="45.75193" lon="3.81764">
        <ele>1183.800049</ele>
        <time>2017-05-27T07:48:45Z</time>
      </trkpt>
      <trkpt lat="45.75193" lon="3.8178">
        <ele>1183.699951</ele>
        <time>2017-05-27T07:48:47Z</time>
      </trkpt>
      <trkpt lat="45.75192" lon="3.81797">
        <ele>1183.599976</ele>
        <time>2017-05-27T07:48:49Z</time>
      </trkpt>
      <trkpt lat="45.7519" lon="3.81814">
        <ele>1183.599976</ele>
        <time>2017-05-27T07:48:51Z</time>
      </trkpt>
      <trkpt lat="45.75185" lon="3.8183">
        <ele>1183.599976</ele>
        <time>2017-05-27T07:48:53Z</time>
      </trkpt>
      <trkpt lat="45.7518" lon="3.81846">
        <ele>1183.199951</ele>
        <time>2017-05-27T07:48:55Z</time>
      </trkpt>
      <trkpt lat="45.75175" lon="3.8186">
        <ele>1183</ele>
        <time>2017-05-27T07:48:57Z</time>
      </trkpt>
      <trkpt lat="45.7517" lon="3.81874">
        <ele>1182.900024</ele>
        <time>2017-05-27T07:48:59Z</time>
      </trkpt>
      <trkpt lat="45.75165" lon="3.8189">
        <ele>1182.800049</ele>
        <time>2017-05-27T07:49:01Z</time>
      </trkpt>
      <trkpt lat="45.75159" lon="3.81905">
        <ele>1182.599976</ele>
        <time>2017-05-27T07:49:03Z</time>
      </trkpt>
      <trkpt lat="45.75151" lon="3.81918">
        <ele>1182.400024</ele>
        <time>2017-05-27T07:49:05Z</time>
      </trkpt>
      <trkpt lat="45.75144" lon="3.81928">
        <ele>1182.199951</ele>
        <time>2017-05-27T07:49:07Z</time>
      </trkpt>
      <trkpt lat="45.75137" lon="3.81936">
        <ele>1182</ele>
        <time>2017-05-27T07:49:09Z</time>
      </trkpt>
      <trkpt lat="45.75127" lon="3.81947">
        <ele>1181.699951</ele>
        <time>2017-05-27T07:49:11Z</time>
      </trkpt>
      <trkpt lat="45.75117" lon="3.81957">
        <ele>1181.5</ele>
        <time>2017-05-27T07:49:13Z</time>
      </trkpt>
      <trkpt lat="45.75108" lon="3.81972">
        <ele>1181</ele>
        <time>2017-05-27T07:49:15Z</time>
      </trkpt>
      <trkpt lat="45.75098" lon="3.81983">
        <ele>1181</ele>
        <time>2017-05-27T07:49:17Z</time>
      </trkpt>
      <trkpt lat="45.7509" lon="3.81993">
        <ele>1180.400024</ele>
        <time>2017-05-27T07:49:19Z</time>
      </trkpt>
      <trkpt lat="45.75077" lon="3.82006">
        <ele>1180</ele>
        <time>2017-05-27T07:49:21Z</time>
      </trkpt>
      <trkpt lat="45.75064" lon="3.82015">
        <ele>1179.699951</ele>
        <time>2017-05-27T07:49:23Z</time>
      </trkpt>
      <trkpt lat="45.75055" lon="3.82026">
        <ele>1179.5</ele>
        <time>2017-05-27T07:49:25Z</time>
      </trkpt>
      <trkpt lat="45.75047" lon="3.82035">
        <ele>1179.400024</ele>
        <time>2017-05-27T07:49:27Z</time>
      </trkpt>
      <trkpt lat="45.75037" lon="3.82043">
        <ele>1178.900024</ele>
        <time>2017-05-27T07:49:29Z</time>
      </trkpt>
      <trkpt lat="45.75028" lon="3.82051">
        <ele>1178.900024</ele>
        <time>2017-05-27T07:49:31Z</time>
      </trkpt>
      <trkpt lat="45.75021" lon="3.8206">
        <ele>1178.900024</ele>
        <time>2017-05-27T07:49:33Z</time>
      </trkpt>
      <trkpt lat="45.75009" lon="3.8207">
        <ele>1178.5</ele>
        <time>2017-05-27T07:49:35Z</time>
      </trkpt>
      <trkpt lat="45.74996" lon="3.8208">
        <ele>1177.900024</ele>
        <time>2017-05-27T07:49:37Z</time>
      </trkpt>
      <trkpt lat="45.74985" lon="3.82092">
        <ele>1177.699951</ele>
        <time>2017-05-27T07:49:39Z</time>
      </trkpt>
      <trkpt lat="45.74974" lon="3.82105">
        <ele>1177.199951</ele>
        <time>2017-05-27T07:49:41Z</time>
      </trkpt>
      <trkpt lat="45.74967" lon="3.82123">
        <ele>1176.699951</ele>
        <time>2017-05-27T07:49:43Z</time>
      </trkpt>
      <trkpt lat="45.74957" lon="3.82139">
        <ele>1176.099976</ele>
        <time>2017-05-27T07:49:45Z</time>
      </trkpt>
      <trkpt lat="45.74948" lon="3.82155">
        <ele>1175.400024</ele>
        <time>2017-05-27T07:49:47Z</time>
      </trkpt>
      <trkpt lat="45.74937" lon="3.8217">
        <ele>1175.199951</ele>
        <time>2017-05-27T07:49:49Z</time>
      </trkpt>
      <trkpt lat="45.74927" lon="3.82184">
        <ele>1174.900024</ele>
        <time>2017-05-27T07:49:51Z</time>
      </trkpt>
      <trkpt lat="45.74917" lon="3.82196">
        <ele>1174.699951</ele>
        <time>2017-05-27T07:49:53Z</time>
      </trkpt>
      <trkpt lat="45.74909" lon="3.82207">
        <ele>1174.800049</ele>
        <time>2017-05-27T07:49:55Z</time>
      </trkpt>
      <trkpt lat="45.74899" lon="3.82215">
        <ele>1174.800049</ele>
        <time>2017-05-27T07:49:57Z</time>
      </trkpt>
      <trkpt lat="45.74893" lon="3.82225">
        <ele>1174.900024</ele>
        <time>2017-05-27T07:49:59Z</time>
      </trkpt>
      <trkpt lat="45.74885" lon="3.82234">
        <ele>1175.099976</ele>
        <time>2017-05-27T07:50:01Z</time>
      </trkpt>
      <trkpt lat="45.74877" lon="3.82242">
        <ele>1175.199951</ele>
        <time>2017-05-27T07:50:03Z</time>
      </trkpt>
      <trkpt lat="45.74867" lon="3.82248">
        <ele>1175.099976</ele>
        <time>2017-05-27T07:50:05Z</time>
      </trkpt>
      <trkpt lat="45.7486" lon="3.82258">
        <ele>1175.199951</ele>
        <time>2017-05-27T07:50:07Z</time>
      </trkpt>
      <trkpt lat="45.74855" lon="3.82269">
        <ele>1175.5</ele>
        <time>2017-05-27T07:50:09Z</time>
      </trkpt>
      <trkpt lat="45.74844" lon="3.82279">
        <ele>1175.699951</ele>
        <time>2017-05-27T07:50:12Z</time>
      </trkpt>
      <trkpt lat="45.74837" lon="3.8229">
        <ele>1175.800049</ele>
        <time>2017-05-27T07:50:14Z</time>
      </trkpt>
      <trkpt lat="45.7483" lon="3.82298">
        <ele>1175.800049</ele>
        <time>2017-05-27T07:50:16Z</time>
      </trkpt>
      <trkpt lat="45.7482" lon="3.82307">
        <ele>1176</ele>
        <time>2017-05-27T07:50:19Z</time>
      </trkpt>
      <trkpt lat="45.74812" lon="3.82314">
        <ele>1176.199951</ele>
        <time>2017-05-27T07:50:22Z</time>
      </trkpt>
      <trkpt lat="45.74804" lon="3.8232">
        <ele>1176.699951</ele>
        <time>2017-05-27T07:50:25Z</time>
      </trkpt>
      <trkpt lat="45.74793" lon="3.82327">
        <ele>1177.300049</ele>
        <time>2017-05-27T07:50:29Z</time>
      </trkpt>
      <trkpt lat="45.74783" lon="3.82333">
        <ele>1177.900024</ele>
        <time>2017-05-27T07:50:33Z</time>
      </trkpt>
      <trkpt lat="45.74773" lon="3.82339">
        <ele>1178.699951</ele>
        <time>2017-05-27T07:50:37Z</time>
      </trkpt>
      <trkpt lat="45.74761" lon="3.82345">
        <ele>1179.5</ele>
        <time>2017-05-27T07:50:41Z</time>
      </trkpt>
      <trkpt lat="45.74752" lon="3.82351">
        <ele>1180.099976</ele>
        <time>2017-05-27T07:50:44Z</time>
      </trkpt>
      <trkpt lat="45.74744" lon="3.82361">
        <ele>1180.699951</ele>
        <time>2017-05-27T07:50:48Z</time>
      </trkpt>
      <trkpt lat="45.74735" lon="3.82367">
        <ele>1181.5</ele>
        <time>2017-05-27T07:50:51Z</time>
      </trkpt>
      <trkpt lat="45.74726" lon="3.82377">
        <ele>1182.300049</ele>
        <time>2017-05-27T07:50:55Z</time>
      </trkpt>
      <trkpt lat="45.74717" lon="3.82387">
        <ele>1182.900024</ele>
        <time>2017-05-27T07:50:59Z</time>
      </trkpt>
      <trkpt lat="45.74708" lon="3.82397">
        <ele>1183.5</ele>
        <time>2017-05-27T07:51:03Z</time>
      </trkpt>
      <trkpt lat="45.747" lon="3.82408">
        <ele>1183.800049</ele>
        <time>2017-05-27T07:51:07Z</time>
      </trkpt>
      <trkpt lat="45.7469" lon="3.82418">
        <ele>1184.5</ele>
        <time>2017-05-27T07:51:11Z</time>
      </trkpt>
      <trkpt lat="45.74682" lon="3.82427">
        <ele>1185.199951</ele>
        <time>2017-05-27T07:51:15Z</time>
      </trkpt>
      <trkpt lat="45.74674" lon="3.8244">
        <ele>1185.5</ele>
        <time>2017-05-27T07:51:19Z</time>
      </trkpt>
      <trkpt lat="45.74668" lon="3.8245">
        <ele>1185.900024</ele>
        <time>2017-05-27T07:51:22Z</time>
      </trkpt>
      <trkpt lat="45.74662" lon="3.8246">
        <ele>1186.300049</ele>
        <time>2017-05-27T07:51:25Z</time>
      </trkpt>
      <trkpt lat="45.74655" lon="3.8247">
        <ele>1186.800049</ele>
        <time>2017-05-27T07:51:28Z</time>
      </trkpt>
      <trkpt lat="45.7465" lon="3.8248">
        <ele>1187.099976</ele>
        <time>2017-05-27T07:51:31Z</time>
      </trkpt>
      <trkpt lat="45.74643" lon="3.8249">
        <ele>1187.599976</ele>
        <time>2017-05-27T07:51:34Z</time>
      </trkpt>
      <trkpt lat="45.74638" lon="3.82501">
        <ele>1188</ele>
        <time>2017-05-27T07:51:37Z</time>
      </trkpt>
      <trkpt lat="45.74632" lon="3.82512">
        <ele>1188.199951</ele>
        <time>2017-05-27T07:51:40Z</time>
      </trkpt>
      <trkpt lat="45.74625" lon="3.82523">
        <ele>1188.5</ele>
        <time>2017-05-27T07:51:43Z</time>
      </trkpt>
      <trkpt lat="45.74619" lon="3.82534">
        <ele>1188.900024</ele>
        <time>2017-05-27T07:51:46Z</time>
      </trkpt>
      <trkpt lat="45.74611" lon="3.82546">
        <ele>1189.5</ele>
        <time>2017-05-27T07:51:50Z</time>
      </trkpt>
      <trkpt lat="45.74603" lon="3.82557">
        <ele>1190.099976</ele>
        <time>2017-05-27T07:51:54Z</time>
      </trkpt>
      <trkpt lat="45.74595" lon="3.8257">
        <ele>1190.699951</ele>
        <time>2017-05-27T07:51:58Z</time>
      </trkpt>
      <trkpt lat="45.7459" lon="3.82584">
        <ele>1191.400024</ele>
        <time>2017-05-27T07:52:02Z</time>
      </trkpt>
      <trkpt lat="45.74583" lon="3.82593">
        <ele>1191.699951</ele>
        <time>2017-05-27T07:52:05Z</time>
      </trkpt>
      <trkpt lat="45.74576" lon="3.82602">
        <ele>1192.199951</ele>
        <time>2017-05-27T07:52:08Z</time>
      </trkpt>
      <trkpt lat="45.74571" lon="3.82613">
        <ele>1192.800049</ele>
        <time>2017-05-27T07:52:11Z</time>
      </trkpt>
      <trkpt lat="45.74564" lon="3.82623">
        <ele>1193.5</ele>
        <time>2017-05-27T07:52:14Z</time>
      </trkpt>
      <trkpt lat="45.74556" lon="3.82631">
        <ele>1194</ele>
        <time>2017-05-27T07:52:17Z</time>
      </trkpt>
      <trkpt lat="45.74549" lon="3.82641">
        <ele>1194.5</ele>
        <time>2017-05-27T07:52:20Z</time>
      </trkpt>
      <trkpt lat="45.74543" lon="3.82652">
        <ele>1195</ele>
        <time>2017-05-27T07:52:23Z</time>
      </trkpt>
      <trkpt lat="45.74536" lon="3.82663">
        <ele>1195.699951</ele>
        <time>2017-05-27T07:52:26Z</time>
      </trkpt>
      <trkpt lat="45.74525" lon="3.82672">
        <ele>1196.5</ele>
        <time>2017-05-27T07:52:29Z</time>
      </trkpt>
      <trkpt lat="45.74517" lon="3.82681">
        <ele>1197.099976</ele>
        <time>2017-05-27T07:52:32Z</time>
      </trkpt>
      <trkpt lat="45.7451" lon="3.8269">
        <ele>1197.699951</ele>
        <time>2017-05-27T07:52:35Z</time>
      </trkpt>
      <trkpt lat="45.74503" lon="3.82704">
        <ele>1198.5</ele>
        <time>2017-05-27T07:52:39Z</time>
      </trkpt>
      <trkpt lat="45.74497" lon="3.82717">
        <ele>1199.099976</ele>
        <time>2017-05-27T07:52:43Z</time>
      </trkpt>
      <trkpt lat="45.74492" lon="3.82732">
        <ele>1199.400024</ele>
        <time>2017-05-27T07:52:47Z</time>
      </trkpt>
      <trkpt lat="45.74484" lon="3.82744">
        <ele>1199.699951</ele>
        <time>2017-05-27T07:52:51Z</time>
      </trkpt>
      <trkpt lat="45.74479" lon="3.82756">
        <ele>1199.900024</ele>
        <time>2017-05-27T07:52:54Z</time>
      </trkpt>
      <trkpt lat="45.74472" lon="3.82765">
        <ele>1200</ele>
        <time>2017-05-27T07:52:57Z</time>
      </trkpt>
      <trkpt lat="45.74466" lon="3.82775">
        <ele>1200.5</ele>
        <time>2017-05-27T07:53:00Z</time>
      </trkpt>
      <trkpt lat="45.74459" lon="3.82789">
        <ele>1201</ele>
        <time>2017-05-27T07:53:04Z</time>
      </trkpt>
      <trkpt lat="45.74454" lon="3.82799">
        <ele>1201.300049</ele>
        <time>2017-05-27T07:53:07Z</time>
      </trkpt>
      <trkpt lat="45.74447" lon="3.82813">
        <ele>1201.699951</ele>
        <time>2017-05-27T07:53:11Z</time>
      </trkpt>
      <trkpt lat="45.74441" lon="3.82826">
        <ele>1202.199951</ele>
        <time>2017-05-27T07:53:15Z</time>
      </trkpt>
      <trkpt lat="45.74434" lon="3.82837">
        <ele>1203.099976</ele>
        <time>2017-05-27T07:53:19Z</time>
      </trkpt>
      <trkpt lat="45.74429" lon="3.82852">
        <ele>1203.699951</ele>
        <time>2017-05-27T07:53:23Z</time>
      </trkpt>
      <trkpt lat="45.7442" lon="3.82857">
        <ele>1204.5</ele>
        <time>2017-05-27T07:54:46Z</time>
      </trkpt>
      <trkpt lat="45.74415" lon="3.8287">
        <ele>1205</ele>
        <time>2017-05-27T07:54:50Z</time>
      </trkpt>
      <trkpt lat="45.7441" lon="3.82882">
        <ele>1205.800049</ele>
        <time>2017-05-27T07:54:54Z</time>
      </trkpt>
      <trkpt lat="45.74404" lon="3.82898">
        <ele>1206.699951</ele>
        <time>2017-05-27T07:54:59Z</time>
      </trkpt>
      <trkpt lat="45.744" lon="3.82911">
        <ele>1207.400024</ele>
        <time>2017-05-27T07:55:03Z</time>
      </trkpt>
      <trkpt lat="45.74396" lon="3.82925">
        <ele>1208.599976</ele>
        <time>2017-05-27T07:55:08Z</time>
      </trkpt>
      <trkpt lat="45.74392" lon="3.82938">
        <ele>1209</ele>
        <time>2017-05-27T07:55:13Z</time>
      </trkpt>
      <trkpt lat="45.74389" lon="3.82952">
        <ele>1209.400024</ele>
        <time>2017-05-27T07:55:18Z</time>
      </trkpt>
      <trkpt lat="45.74387" lon="3.82972">
        <ele>1209.599976</ele>
        <time>2017-05-27T07:55:24Z</time>
      </trkpt>
      <trkpt lat="45.74387" lon="3.82986">
        <ele>1209.599976</ele>
        <time>2017-05-27T07:55:27Z</time>
      </trkpt>
      <trkpt lat="45.74387" lon="3.83002">
        <ele>1209.5</ele>
        <time>2017-05-27T07:55:31Z</time>
      </trkpt>
      <trkpt lat="45.74384" lon="3.83019">
        <ele>1209.5</ele>
        <time>2017-05-27T07:55:36Z</time>
      </trkpt>
      <trkpt lat="45.74382" lon="3.83033">
        <ele>1209.400024</ele>
        <time>2017-05-27T07:55:39Z</time>
      </trkpt>
      <trkpt lat="45.74379" lon="3.83049">
        <ele>1209.099976</ele>
        <time>2017-05-27T07:55:43Z</time>
      </trkpt>
      <trkpt lat="45.74376" lon="3.83063">
        <ele>1209</ele>
        <time>2017-05-27T07:55:47Z</time>
      </trkpt>
      <trkpt lat="45.74379" lon="3.83075">
        <ele>1208.800049</ele>
        <time>2017-05-27T07:56:16Z</time>
      </trkpt>
      <trkpt lat="45.74372" lon="3.83087">
        <ele>1208.900024</ele>
        <time>2017-05-27T07:57:40Z</time>
      </trkpt>
      <trkpt lat="45.74366" lon="3.831">
        <ele>1209</ele>
        <time>2017-05-27T07:57:44Z</time>
      </trkpt>
      <trkpt lat="45.74359" lon="3.8311">
        <ele>1208.900024</ele>
        <time>2017-05-27T07:57:47Z</time>
      </trkpt>
      <trkpt lat="45.74354" lon="3.83125">
        <ele>1208.900024</ele>
        <time>2017-05-27T07:57:50Z</time>
      </trkpt>
      <trkpt lat="45.74351" lon="3.83142">
        <ele>1208.900024</ele>
        <time>2017-05-27T07:57:53Z</time>
      </trkpt>
      <trkpt lat="45.74347" lon="3.83159">
        <ele>1208.699951</ele>
        <time>2017-05-27T07:57:56Z</time>
      </trkpt>
      <trkpt lat="45.74339" lon="3.83172">
        <ele>1208.400024</ele>
        <time>2017-05-27T07:57:59Z</time>
      </trkpt>
      <trkpt lat="45.74329" lon="3.83181">
        <ele>1208.199951</ele>
        <time>2017-05-27T07:58:02Z</time>
      </trkpt>
      <trkpt lat="45.74321" lon="3.83188">
        <ele>1208</ele>
        <time>2017-05-27T07:58:05Z</time>
      </trkpt>
      <trkpt lat="45.74313" lon="3.83196">
        <ele>1208</ele>
        <time>2017-05-27T07:58:08Z</time>
      </trkpt>
      <trkpt lat="45.74305" lon="3.83204">
        <ele>1208.099976</ele>
        <time>2017-05-27T07:58:11Z</time>
      </trkpt>
      <trkpt lat="45.74296" lon="3.83212">
        <ele>1208.099976</ele>
        <time>2017-05-27T07:58:14Z</time>
      </trkpt>
      <trkpt lat="45.74289" lon="3.83224">
        <ele>1208.199951</ele>
        <time>2017-05-27T07:58:17Z</time>
      </trkpt>
      <trkpt lat="45.74282" lon="3.83232">
        <ele>1208.199951</ele>
        <time>2017-05-27T07:58:20Z</time>
      </trkpt>
      <trkpt lat="45.74275" lon="3.83244">
        <ele>1208.300049</ele>
        <time>2017-05-27T07:58:23Z</time>
      </trkpt>
      <trkpt lat="45.74267" lon="3.83253">
        <ele>1208.099976</ele>
        <time>2017-05-27T07:58:26Z</time>
      </trkpt>
      <trkpt lat="45.7426" lon="3.83264">
        <ele>1207.900024</ele>
        <time>2017-05-27T07:58:29Z</time>
      </trkpt>
      <trkpt lat="45.74252" lon="3.83278">
        <ele>1207.599976</ele>
        <time>2017-05-27T07:58:32Z</time>
      </trkpt>
      <trkpt lat="45.74245" lon="3.83288">
        <ele>1207.400024</ele>
        <time>2017-05-27T07:58:34Z</time>
      </trkpt>
      <trkpt lat="45.74236" lon="3.83294">
        <ele>1207.300049</ele>
        <time>2017-05-27T07:58:36Z</time>
      </trkpt>
      <trkpt lat="45.74228" lon="3.83303">
        <ele>1207.099976</ele>
        <time>2017-05-27T07:58:38Z</time>
      </trkpt>
      <trkpt lat="45.7422" lon="3.83313">
        <ele>1206.900024</ele>
        <time>2017-05-27T07:58:40Z</time>
      </trkpt>
      <trkpt lat="45.74212" lon="3.83326">
        <ele>1206.699951</ele>
        <time>2017-05-27T07:58:42Z</time>
      </trkpt>
      <trkpt lat="45.74201" lon="3.83338">
        <ele>1206.199951</ele>
        <time>2017-05-27T07:58:44Z</time>
      </trkpt>
      <trkpt lat="45.7419" lon="3.83352">
        <ele>1205.400024</ele>
        <time>2017-05-27T07:58:46Z</time>
      </trkpt>
      <trkpt lat="45.74179" lon="3.83365">
        <ele>1204.699951</ele>
        <time>2017-05-27T07:58:48Z</time>
      </trkpt>
      <trkpt lat="45.74168" lon="3.83379">
        <ele>1203.699951</ele>
        <time>2017-05-27T07:58:50Z</time>
      </trkpt>
      <trkpt lat="45.74155" lon="3.83392">
        <ele>1203.099976</ele>
        <time>2017-05-27T07:58:52Z</time>
      </trkpt>
      <trkpt lat="45.74141" lon="3.83403">
        <ele>1202.300049</ele>
        <time>2017-05-27T07:58:54Z</time>
      </trkpt>
      <trkpt lat="45.74126" lon="3.83411">
        <ele>1201.599976</ele>
        <time>2017-05-27T07:58:56Z</time>
      </trkpt>
      <trkpt lat="45.74113" lon="3.83416">
        <ele>1201</ele>
        <time>2017-05-27T07:58:58Z</time>
      </trkpt>
      <trkpt lat="45.74101" lon="3.83419">
        <ele>1200.400024</ele>
        <time>2017-05-27T07:59:00Z</time>
      </trkpt>
      <trkpt lat="45.74092" lon="3.83421">
        <ele>1199.599976</ele>
        <time>2017-05-27T07:59:02Z</time>
      </trkpt>
      <trkpt lat="45.74082" lon="3.83422">
        <ele>1198.400024</ele>
        <time>2017-05-27T07:59:06Z</time>
      </trkpt>
      <trkpt lat="45.74073" lon="3.83424">
        <ele>1197.5</ele>
        <time>2017-05-27T07:59:21Z</time>
      </trkpt>
      <trkpt lat="45.74075" lon="3.83436">
        <ele>1197.699951</ele>
        <time>2017-05-27T08:00:02Z</time>
      </trkpt>
      <trkpt lat="45.74074" lon="3.8345">
        <ele>1197.699951</ele>
        <time>2017-05-27T08:00:05Z</time>
      </trkpt>
      <trkpt lat="45.74076" lon="3.83467">
        <ele>1197.5</ele>
        <time>2017-05-27T08:00:08Z</time>
      </trkpt>
      <trkpt lat="45.74077" lon="3.8348">
        <ele>1197.199951</ele>
        <time>2017-05-27T08:00:10Z</time>
      </trkpt>
      <trkpt lat="45.74079" lon="3.83495">
        <ele>1196.800049</ele>
        <time>2017-05-27T08:00:12Z</time>
      </trkpt>
      <trkpt lat="45.7408" lon="3.83512">
        <ele>1196.300049</ele>
        <time>2017-05-27T08:00:14Z</time>
      </trkpt>
      <trkpt lat="45.74079" lon="3.83531">
        <ele>1196.099976</ele>
        <time>2017-05-27T08:00:16Z</time>
      </trkpt>
      <trkpt lat="45.74077" lon="3.83551">
        <ele>1195.699951</ele>
        <time>2017-05-27T08:00:18Z</time>
      </trkpt>
      <trkpt lat="45.74071" lon="3.83571">
        <ele>1195.199951</ele>
        <time>2017-05-27T08:00:20Z</time>
      </trkpt>
      <trkpt lat="45.74065" lon="3.83591">
        <ele>1194.400024</ele>
        <time>2017-05-27T08:00:22Z</time>
      </trkpt>
      <trkpt lat="45.74059" lon="3.83612">
        <ele>1193.599976</ele>
        <time>2017-05-27T08:00:24Z</time>
      </trkpt>
      <trkpt lat="45.74052" lon="3.83633">
        <ele>1192.5</ele>
        <time>2017-05-27T08:00:26Z</time>
      </trkpt>
      <trkpt lat="45.74045" lon="3.83654">
        <ele>1191.699951</ele>
        <time>2017-05-27T08:00:28Z</time>
      </trkpt>
      <trkpt lat="45.74038" lon="3.83676">
        <ele>1190.699951</ele>
        <time>2017-05-27T08:00:30Z</time>
      </trkpt>
      <trkpt lat="45.74035" lon="3.83688">
        <ele>1190.300049</ele>
        <time>2017-05-27T08:00:31Z</time>
      </trkpt>
      <trkpt lat="45.74027" lon="3.83711">
        <ele>1189.199951</ele>
        <time>2017-05-27T08:00:33Z</time>
      </trkpt>
      <trkpt lat="45.74023" lon="3.83723">
        <ele>1188.800049</ele>
        <time>2017-05-27T08:00:34Z</time>
      </trkpt>
      <trkpt lat="45.74019" lon="3.83735">
        <ele>1188.300049</ele>
        <time>2017-05-27T08:00:35Z</time>
      </trkpt>
      <trkpt lat="45.74013" lon="3.83758">
        <ele>1187.400024</ele>
        <time>2017-05-27T08:00:37Z</time>
      </trkpt>
      <trkpt lat="45.74008" lon="3.83784">
        <ele>1186.400024</ele>
        <time>2017-05-27T08:00:39Z</time>
      </trkpt>
      <trkpt lat="45.74005" lon="3.83797">
        <ele>1185.900024</ele>
        <time>2017-05-27T08:00:40Z</time>
      </trkpt>
      <trkpt lat="45.74001" lon="3.83809">
        <ele>1185.400024</ele>
        <time>2017-05-27T08:00:41Z</time>
      </trkpt>
      <trkpt lat="45.73999" lon="3.83823">
        <ele>1185.099976</ele>
        <time>2017-05-27T08:00:42Z</time>
      </trkpt>
      <trkpt lat="45.73997" lon="3.83836">
        <ele>1184.699951</ele>
        <time>2017-05-27T08:00:43Z</time>
      </trkpt>
      <trkpt lat="45.73994" lon="3.83849">
        <ele>1184.300049</ele>
        <time>2017-05-27T08:00:44Z</time>
      </trkpt>
      <trkpt lat="45.73991" lon="3.83861">
        <ele>1184</ele>
        <time>2017-05-27T08:00:45Z</time>
      </trkpt>
      <trkpt lat="45.73983" lon="3.83884">
        <ele>1183.099976</ele>
        <time>2017-05-27T08:00:47Z</time>
      </trkpt>
      <trkpt lat="45.73976" lon="3.83901">
        <ele>1182.300049</ele>
        <time>2017-05-27T08:00:49Z</time>
      </trkpt>
      <trkpt lat="45.73973" lon="3.83919">
        <ele>1181.599976</ele>
        <time>2017-05-27T08:00:51Z</time>
      </trkpt>
      <trkpt lat="45.73976" lon="3.83934">
        <ele>1181</ele>
        <time>2017-05-27T08:00:53Z</time>
      </trkpt>
      <trkpt lat="45.73982" lon="3.83947">
        <ele>1180.199951</ele>
        <time>2017-05-27T08:00:55Z</time>
      </trkpt>
      <trkpt lat="45.73988" lon="3.83956">
        <ele>1176.5</ele>
        <time>2017-05-27T08:01:24Z</time>
      </trkpt>
      <trkpt lat="45.7399" lon="3.83971">
        <ele>1176.400024</ele>
        <time>2017-05-27T08:01:39Z</time>
      </trkpt>
      <trkpt lat="45.73992" lon="3.8399">
        <ele>1175.900024</ele>
        <time>2017-05-27T08:01:42Z</time>
      </trkpt>
      <trkpt lat="45.73996" lon="3.84009">
        <ele>1174.300049</ele>
        <time>2017-05-27T08:01:44Z</time>
      </trkpt>
      <trkpt lat="45.73997" lon="3.84026">
        <ele>1172.900024</ele>
        <time>2017-05-27T08:01:46Z</time>
      </trkpt>
      <trkpt lat="45.73999" lon="3.84045">
        <ele>1171.199951</ele>
        <time>2017-05-27T08:01:48Z</time>
      </trkpt>
      <trkpt lat="45.74" lon="3.84062">
        <ele>1169.099976</ele>
        <time>2017-05-27T08:01:50Z</time>
      </trkpt>
      <trkpt lat="45.74004" lon="3.84076">
        <ele>1167.300049</ele>
        <time>2017-05-27T08:01:52Z</time>
      </trkpt>
      <trkpt lat="45.74007" lon="3.84101">
        <ele>1165.199951</ele>
        <time>2017-05-27T08:01:54Z</time>
      </trkpt>
      <trkpt lat="45.74013" lon="3.84122">
        <ele>1163.300049</ele>
        <time>2017-05-27T08:01:56Z</time>
      </trkpt>
      <trkpt lat="45.74018" lon="3.84135">
        <ele>1161.900024</ele>
        <time>2017-05-27T08:01:57Z</time>
      </trkpt>
      <trkpt lat="45.74016" lon="3.8416">
        <ele>1159.599976</ele>
        <time>2017-05-27T08:01:59Z</time>
      </trkpt>
      <trkpt lat="45.74014" lon="3.84174">
        <ele>1157.800049</ele>
        <time>2017-05-27T08:02:00Z</time>
      </trkpt>
      <trkpt lat="45.74012" lon="3.84188">
        <ele>1156.300049</ele>
        <time>2017-05-27T08:02:01Z</time>
      </trkpt>
      <trkpt lat="45.74011" lon="3.84203">
        <ele>1154.699951</ele>
        <time>2017-05-27T08:02:02Z</time>
      </trkpt>
      <trkpt lat="45.7401" lon="3.84217">
        <ele>1153.199951</ele>
        <time>2017-05-27T08:02:03Z</time>
      </trkpt>
      <trkpt lat="45.7401" lon="3.84233">
        <ele>1151.699951</ele>
        <time>2017-05-27T08:02:04Z</time>
      </trkpt>
      <trkpt lat="45.7401" lon="3.84246">
        <ele>1150.300049</ele>
        <time>2017-05-27T08:02:05Z</time>
      </trkpt>
      <trkpt lat="45.74012" lon="3.84261">
        <ele>1148.099976</ele>
        <time>2017-05-27T08:02:06Z</time>
      </trkpt>
      <trkpt lat="45.74015" lon="3.84278">
        <ele>1146.5</ele>
        <time>2017-05-27T08:02:07Z</time>
      </trkpt>
      <trkpt lat="45.74016" lon="3.84299">
        <ele>1145.199951</ele>
        <time>2017-05-27T08:02:08Z</time>
      </trkpt>
      <trkpt lat="45.74017" lon="3.84318">
        <ele>1144.099976</ele>
        <time>2017-05-27T08:02:09Z</time>
      </trkpt>
      <trkpt lat="45.74017" lon="3.84334">
        <ele>1142.900024</ele>
        <time>2017-05-27T08:02:10Z</time>
      </trkpt>
      <trkpt lat="45.74018" lon="3.84348">
        <ele>1141.800049</ele>
        <time>2017-05-27T08:02:11Z</time>
      </trkpt>
      <trkpt lat="45.74021" lon="3.84361">
        <ele>1140.800049</ele>
        <time>2017-05-27T08:02:12Z</time>
      </trkpt>
      <trkpt lat="45.74027" lon="3.84383">
        <ele>1139</ele>
        <time>2017-05-27T08:02:14Z</time>
      </trkpt>
      <trkpt lat="45.74032" lon="3.84407">
        <ele>1137.5</ele>
        <time>2017-05-27T08:02:16Z</time>
      </trkpt>
      <trkpt lat="45.74042" lon="3.84423">
        <ele>1135.599976</ele>
        <time>2017-05-27T08:02:18Z</time>
      </trkpt>
      <trkpt lat="45.74047" lon="3.84435">
        <ele>1133.900024</ele>
        <time>2017-05-27T08:02:21Z</time>
      </trkpt>
      <trkpt lat="45.7405" lon="3.84451">
        <ele>1132.5</ele>
        <time>2017-05-27T08:02:25Z</time>
      </trkpt>
      <trkpt lat="45.74054" lon="3.84464">
        <ele>1132</ele>
        <time>2017-05-27T08:02:27Z</time>
      </trkpt>
      <trkpt lat="45.74056" lon="3.84478">
        <ele>1131.5</ele>
        <time>2017-05-27T08:02:29Z</time>
      </trkpt>
      <trkpt lat="45.7406" lon="3.84494">
        <ele>1131</ele>
        <time>2017-05-27T08:02:31Z</time>
      </trkpt>
      <trkpt lat="45.74065" lon="3.84513">
        <ele>1130.400024</ele>
        <time>2017-05-27T08:02:33Z</time>
      </trkpt>
      <trkpt lat="45.74071" lon="3.84534">
        <ele>1129.699951</ele>
        <time>2017-05-27T08:02:35Z</time>
      </trkpt>
      <trkpt lat="45.74072" lon="3.84557">
        <ele>1129</ele>
        <time>2017-05-27T08:02:37Z</time>
      </trkpt>
      <trkpt lat="45.74078" lon="3.84578">
        <ele>1127.900024</ele>
        <time>2017-05-27T08:02:39Z</time>
      </trkpt>
      <trkpt lat="45.74083" lon="3.84594">
        <ele>1126.699951</ele>
        <time>2017-05-27T08:02:41Z</time>
      </trkpt>
      <trkpt lat="45.74092" lon="3.84618">
        <ele>1126.199951</ele>
        <time>2017-05-27T08:02:43Z</time>
      </trkpt>
      <trkpt lat="45.74098" lon="3.84638">
        <ele>1125.800049</ele>
        <time>2017-05-27T08:02:45Z</time>
      </trkpt>
      <trkpt lat="45.74103" lon="3.84661">
        <ele>1125.400024</ele>
        <time>2017-05-27T08:02:47Z</time>
      </trkpt>
      <trkpt lat="45.74101" lon="3.84675">
        <ele>1125.199951</ele>
        <time>2017-05-27T08:02:48Z</time>
      </trkpt>
      <trkpt lat="45.74102" lon="3.84689">
        <ele>1125.199951</ele>
        <time>2017-05-27T08:02:49Z</time>
      </trkpt>
      <trkpt lat="45.74105" lon="3.8471">
        <ele>1125</ele>
        <time>2017-05-27T08:02:51Z</time>
      </trkpt>
      <trkpt lat="45.7411" lon="3.84731">
        <ele>1124.900024</ele>
        <time>2017-05-27T08:02:53Z</time>
      </trkpt>
      <trkpt lat="45.74115" lon="3.84748">
        <ele>1124.699951</ele>
        <time>2017-05-27T08:02:55Z</time>
      </trkpt>
      <trkpt lat="45.7412" lon="3.84763">
        <ele>1124.300049</ele>
        <time>2017-05-27T08:02:57Z</time>
      </trkpt>
      <trkpt lat="45.74124" lon="3.84782">
        <ele>1124.400024</ele>
        <time>2017-05-27T08:02:59Z</time>
      </trkpt>
      <trkpt lat="45.74128" lon="3.84798">
        <ele>1124.300049</ele>
        <time>2017-05-27T08:03:01Z</time>
      </trkpt>
      <trkpt lat="45.74131" lon="3.84816">
        <ele>1124.199951</ele>
        <time>2017-05-27T08:03:03Z</time>
      </trkpt>
      <trkpt lat="45.74136" lon="3.84836">
        <ele>1124.300049</ele>
        <time>2017-05-27T08:03:05Z</time>
      </trkpt>
      <trkpt lat="45.74136" lon="3.84853">
        <ele>1124.199951</ele>
        <time>2017-05-27T08:03:07Z</time>
      </trkpt>
      <trkpt lat="45.74137" lon="3.84869">
        <ele>1124.300049</ele>
        <time>2017-05-27T08:03:09Z</time>
      </trkpt>
      <trkpt lat="45.74138" lon="3.84885">
        <ele>1124.5</ele>
        <time>2017-05-27T08:03:11Z</time>
      </trkpt>
      <trkpt lat="45.7414" lon="3.84899">
        <ele>1124.699951</ele>
        <time>2017-05-27T08:03:13Z</time>
      </trkpt>
      <trkpt lat="45.74142" lon="3.84914">
        <ele>1124.699951</ele>
        <time>2017-05-27T08:03:15Z</time>
      </trkpt>
      <trkpt lat="45.7414" lon="3.84932">
        <ele>1124.599976</ele>
        <time>2017-05-27T08:03:17Z</time>
      </trkpt>
      <trkpt lat="45.7414" lon="3.84951">
        <ele>1124.099976</ele>
        <time>2017-05-27T08:03:20Z</time>
      </trkpt>
      <trkpt lat="45.7414" lon="3.84964">
        <ele>1123.5</ele>
        <time>2017-05-27T08:03:22Z</time>
      </trkpt>
      <trkpt lat="45.74141" lon="3.8498">
        <ele>1123</ele>
        <time>2017-05-27T08:03:24Z</time>
      </trkpt>
      <trkpt lat="45.74142" lon="3.84996">
        <ele>1122.5</ele>
        <time>2017-05-27T08:03:26Z</time>
      </trkpt>
      <trkpt lat="45.74141" lon="3.85015">
        <ele>1122.300049</ele>
        <time>2017-05-27T08:03:28Z</time>
      </trkpt>
      <trkpt lat="45.7414" lon="3.85035">
        <ele>1121.699951</ele>
        <time>2017-05-27T08:03:30Z</time>
      </trkpt>
      <trkpt lat="45.74143" lon="3.85058">
        <ele>1121.300049</ele>
        <time>2017-05-27T08:03:32Z</time>
      </trkpt>
      <trkpt lat="45.74143" lon="3.85082">
        <ele>1120.699951</ele>
        <time>2017-05-27T08:03:34Z</time>
      </trkpt>
      <trkpt lat="45.74143" lon="3.85104">
        <ele>1119.800049</ele>
        <time>2017-05-27T08:03:36Z</time>
      </trkpt>
      <trkpt lat="45.74143" lon="3.85127">
        <ele>1119</ele>
        <time>2017-05-27T08:03:38Z</time>
      </trkpt>
      <trkpt lat="45.74144" lon="3.8515">
        <ele>1117.900024</ele>
        <time>2017-05-27T08:03:40Z</time>
      </trkpt>
      <trkpt lat="45.74146" lon="3.85174">
        <ele>1116.900024</ele>
        <time>2017-05-27T08:03:42Z</time>
      </trkpt>
      <trkpt lat="45.74145" lon="3.852">
        <ele>1116.099976</ele>
        <time>2017-05-27T08:03:44Z</time>
      </trkpt>
      <trkpt lat="45.74146" lon="3.85213">
        <ele>1115.699951</ele>
        <time>2017-05-27T08:03:45Z</time>
      </trkpt>
      <trkpt lat="45.74145" lon="3.85238">
        <ele>1114.900024</ele>
        <time>2017-05-27T08:03:47Z</time>
      </trkpt>
      <trkpt lat="45.74144" lon="3.85264">
        <ele>1113.900024</ele>
        <time>2017-05-27T08:03:49Z</time>
      </trkpt>
      <trkpt lat="45.74142" lon="3.85278">
        <ele>1113.699951</ele>
        <time>2017-05-27T08:03:50Z</time>
      </trkpt>
      <trkpt lat="45.74139" lon="3.85292">
        <ele>1113.300049</ele>
        <time>2017-05-27T08:03:51Z</time>
      </trkpt>
      <trkpt lat="45.74137" lon="3.85306">
        <ele>1112.800049</ele>
        <time>2017-05-27T08:03:52Z</time>
      </trkpt>
      <trkpt lat="45.74135" lon="3.8532">
        <ele>1112.199951</ele>
        <time>2017-05-27T08:03:53Z</time>
      </trkpt>
      <trkpt lat="45.74131" lon="3.85334">
        <ele>1111.699951</ele>
        <time>2017-05-27T08:03:54Z</time>
      </trkpt>
      <trkpt lat="45.74128" lon="3.85348">
        <ele>1110.900024</ele>
        <time>2017-05-27T08:03:55Z</time>
      </trkpt>
      <trkpt lat="45.74124" lon="3.85362">
        <ele>1110.400024</ele>
        <time>2017-05-27T08:03:56Z</time>
      </trkpt>
      <trkpt lat="45.74121" lon="3.85375">
        <ele>1109.800049</ele>
        <time>2017-05-27T08:03:57Z</time>
      </trkpt>
      <trkpt lat="45.74117" lon="3.85388">
        <ele>1109.300049</ele>
        <time>2017-05-27T08:03:58Z</time>
      </trkpt>
      <trkpt lat="45.74114" lon="3.85401">
        <ele>1108.800049</ele>
        <time>2017-05-27T08:03:59Z</time>
      </trkpt>
      <trkpt lat="45.74108" lon="3.85422">
        <ele>1107.300049</ele>
        <time>2017-05-27T08:04:01Z</time>
      </trkpt>
      <trkpt lat="45.74104" lon="3.85446">
        <ele>1106.199951</ele>
        <time>2017-05-27T08:04:03Z</time>
      </trkpt>
      <trkpt lat="45.74102" lon="3.85463">
        <ele>1105.300049</ele>
        <time>2017-05-27T08:04:05Z</time>
      </trkpt>
      <trkpt lat="45.74096" lon="3.85483">
        <ele>1104.699951</ele>
        <time>2017-05-27T08:04:07Z</time>
      </trkpt>
      <trkpt lat="45.74088" lon="3.85506">
        <ele>1104</ele>
        <time>2017-05-27T08:04:09Z</time>
      </trkpt>
      <trkpt lat="45.74086" lon="3.85519">
        <ele>1103.199951</ele>
        <time>2017-05-27T08:04:10Z</time>
      </trkpt>
      <trkpt lat="45.74082" lon="3.85534">
        <ele>1102.599976</ele>
        <time>2017-05-27T08:04:11Z</time>
      </trkpt>
      <trkpt lat="45.74079" lon="3.85546">
        <ele>1102.099976</ele>
        <time>2017-05-27T08:04:12Z</time>
      </trkpt>
      <trkpt lat="45.74072" lon="3.85567">
        <ele>1101</ele>
        <time>2017-05-27T08:04:14Z</time>
      </trkpt>
      <trkpt lat="45.74067" lon="3.85579">
        <ele>1100.5</ele>
        <time>2017-05-27T08:04:15Z</time>
      </trkpt>
      <trkpt lat="45.74062" lon="3.8559">
        <ele>1100</ele>
        <time>2017-05-27T08:04:16Z</time>
      </trkpt>
      <trkpt lat="45.74057" lon="3.85604">
        <ele>1099.5</ele>
        <time>2017-05-27T08:04:17Z</time>
      </trkpt>
      <trkpt lat="45.7405" lon="3.85619">
        <ele>1099.099976</ele>
        <time>2017-05-27T08:04:18Z</time>
      </trkpt>
      <trkpt lat="45.74045" lon="3.85636">
        <ele>1098.5</ele>
        <time>2017-05-27T08:04:19Z</time>
      </trkpt>
      <trkpt lat="45.74039" lon="3.85649">
        <ele>1098</ele>
        <time>2017-05-27T08:04:20Z</time>
      </trkpt>
      <trkpt lat="45.74034" lon="3.85663">
        <ele>1097.5</ele>
        <time>2017-05-27T08:04:21Z</time>
      </trkpt>
      <trkpt lat="45.74029" lon="3.85675">
        <ele>1096.699951</ele>
        <time>2017-05-27T08:04:22Z</time>
      </trkpt>
      <trkpt lat="45.74021" lon="3.85693">
        <ele>1095.5</ele>
        <time>2017-05-27T08:04:24Z</time>
      </trkpt>
      <trkpt lat="45.74017" lon="3.85709">
        <ele>1094.199951</ele>
        <time>2017-05-27T08:04:26Z</time>
      </trkpt>
      <trkpt lat="45.74013" lon="3.85726">
        <ele>1092.800049</ele>
        <time>2017-05-27T08:04:28Z</time>
      </trkpt>
      <trkpt lat="45.74009" lon="3.8574">
        <ele>1091.099976</ele>
        <time>2017-05-27T08:04:30Z</time>
      </trkpt>
      <trkpt lat="45.74008" lon="3.85753">
        <ele>1087.800049</ele>
        <time>2017-05-27T08:04:35Z</time>
      </trkpt>
      <trkpt lat="45.74007" lon="3.85767">
        <ele>1085.599976</ele>
        <time>2017-05-27T08:04:46Z</time>
      </trkpt>
      <trkpt lat="45.74003" lon="3.85782">
        <ele>1085.300049</ele>
        <time>2017-05-27T08:04:50Z</time>
      </trkpt>
      <trkpt lat="45.73999" lon="3.85798">
        <ele>1085.099976</ele>
        <time>2017-05-27T08:04:52Z</time>
      </trkpt>
      <trkpt lat="45.73994" lon="3.85818">
        <ele>1084.699951</ele>
        <time>2017-05-27T08:04:54Z</time>
      </trkpt>
      <trkpt lat="45.73989" lon="3.85841">
        <ele>1083.699951</ele>
        <time>2017-05-27T08:04:56Z</time>
      </trkpt>
      <trkpt lat="45.73989" lon="3.85855">
        <ele>1083.5</ele>
        <time>2017-05-27T08:04:57Z</time>
      </trkpt>
      <trkpt lat="45.73987" lon="3.8588">
        <ele>1082.599976</ele>
        <time>2017-05-27T08:04:59Z</time>
      </trkpt>
      <trkpt lat="45.73988" lon="3.85906">
        <ele>1081.800049</ele>
        <time>2017-05-27T08:05:01Z</time>
      </trkpt>
      <trkpt lat="45.73989" lon="3.85919">
        <ele>1081.400024</ele>
        <time>2017-05-27T08:05:02Z</time>
      </trkpt>
      <trkpt lat="45.7399" lon="3.85932">
        <ele>1081.099976</ele>
        <time>2017-05-27T08:05:03Z</time>
      </trkpt>
      <trkpt lat="45.73991" lon="3.85946">
        <ele>1080.800049</ele>
        <time>2017-05-27T08:05:04Z</time>
      </trkpt>
      <trkpt lat="45.73992" lon="3.85959">
        <ele>1080.400024</ele>
        <time>2017-05-27T08:05:05Z</time>
      </trkpt>
      <trkpt lat="45.73994" lon="3.85972">
        <ele>1080</ele>
        <time>2017-05-27T08:05:06Z</time>
      </trkpt>
      <trkpt lat="45.73999" lon="3.85994">
        <ele>1079.5</ele>
        <time>2017-05-27T08:05:08Z</time>
      </trkpt>
      <trkpt lat="45.74006" lon="3.86017">
        <ele>1078.400024</ele>
        <time>2017-05-27T08:05:10Z</time>
      </trkpt>
      <trkpt lat="45.74012" lon="3.86038">
        <ele>1077.800049</ele>
        <time>2017-05-27T08:05:12Z</time>
      </trkpt>
      <trkpt lat="45.74016" lon="3.86057">
        <ele>1077.099976</ele>
        <time>2017-05-27T08:05:14Z</time>
      </trkpt>
      <trkpt lat="45.74019" lon="3.86074">
        <ele>1076.599976</ele>
        <time>2017-05-27T08:05:16Z</time>
      </trkpt>
      <trkpt lat="45.74024" lon="3.8609">
        <ele>1076.099976</ele>
        <time>2017-05-27T08:05:18Z</time>
      </trkpt>
      <trkpt lat="45.74032" lon="3.86105">
        <ele>1075.400024</ele>
        <time>2017-05-27T08:05:20Z</time>
      </trkpt>
      <trkpt lat="45.74041" lon="3.86123">
        <ele>1074.599976</ele>
        <time>2017-05-27T08:05:22Z</time>
      </trkpt>
      <trkpt lat="45.74048" lon="3.86137">
        <ele>1073.800049</ele>
        <time>2017-05-27T08:05:24Z</time>
      </trkpt>
      <trkpt lat="45.74053" lon="3.8615">
        <ele>1073.400024</ele>
        <time>2017-05-27T08:05:25Z</time>
      </trkpt>
      <trkpt lat="45.74063" lon="3.8617">
        <ele>1072.699951</ele>
        <time>2017-05-27T08:05:27Z</time>
      </trkpt>
      <trkpt lat="45.74071" lon="3.86184">
        <ele>1072.199951</ele>
        <time>2017-05-27T08:05:28Z</time>
      </trkpt>
      <trkpt lat="45.74081" lon="3.86203">
        <ele>1071.400024</ele>
        <time>2017-05-27T08:05:30Z</time>
      </trkpt>
      <trkpt lat="45.74085" lon="3.86214">
        <ele>1070.900024</ele>
        <time>2017-05-27T08:05:31Z</time>
      </trkpt>
      <trkpt lat="45.74091" lon="3.86225">
        <ele>1070.599976</ele>
        <time>2017-05-27T08:05:32Z</time>
      </trkpt>
      <trkpt lat="45.74096" lon="3.86236">
        <ele>1070.099976</ele>
        <time>2017-05-27T08:05:33Z</time>
      </trkpt>
      <trkpt lat="45.74107" lon="3.86258">
        <ele>1069.300049</ele>
        <time>2017-05-27T08:05:35Z</time>
      </trkpt>
      <trkpt lat="45.74114" lon="3.86268">
        <ele>1069</ele>
        <time>2017-05-27T08:05:36Z</time>
      </trkpt>
      <trkpt lat="45.74119" lon="3.86279">
        <ele>1068.699951</ele>
        <time>2017-05-27T08:05:37Z</time>
      </trkpt>
      <trkpt lat="45.74129" lon="3.86298">
        <ele>1068.199951</ele>
        <time>2017-05-27T08:05:39Z</time>
      </trkpt>
      <trkpt lat="45.74136" lon="3.86316">
        <ele>1067.599976</ele>
        <time>2017-05-27T08:05:41Z</time>
      </trkpt>
      <trkpt lat="45.74146" lon="3.86335">
        <ele>1067.099976</ele>
        <time>2017-05-27T08:05:43Z</time>
      </trkpt>
      <trkpt lat="45.74158" lon="3.86353">
        <ele>1066.099976</ele>
        <time>2017-05-27T08:05:45Z</time>
      </trkpt>
      <trkpt lat="45.74166" lon="3.86369">
        <ele>1064.699951</ele>
        <time>2017-05-27T08:05:47Z</time>
      </trkpt>
      <trkpt lat="45.74177" lon="3.86388">
        <ele>1063.199951</ele>
        <time>2017-05-27T08:05:49Z</time>
      </trkpt>
      <trkpt lat="45.74183" lon="3.86399">
        <ele>1062.400024</ele>
        <time>2017-05-27T08:05:50Z</time>
      </trkpt>
      <trkpt lat="45.74184" lon="3.86414">
        <ele>1061.599976</ele>
        <time>2017-05-27T08:05:51Z</time>
      </trkpt>
      <trkpt lat="45.74186" lon="3.86428">
        <ele>1060.400024</ele>
        <time>2017-05-27T08:05:52Z</time>
      </trkpt>
      <trkpt lat="45.74188" lon="3.86441">
        <ele>1059.5</ele>
        <time>2017-05-27T08:05:53Z</time>
      </trkpt>
      <trkpt lat="45.74192" lon="3.86466">
        <ele>1057.800049</ele>
        <time>2017-05-27T08:05:55Z</time>
      </trkpt>
      <trkpt lat="45.74194" lon="3.86493">
        <ele>1056.300049</ele>
        <time>2017-05-27T08:05:57Z</time>
      </trkpt>
      <trkpt lat="45.74195" lon="3.86506">
        <ele>1055.199951</ele>
        <time>2017-05-27T08:05:58Z</time>
      </trkpt>
      <trkpt lat="45.74197" lon="3.86521">
        <ele>1054.300049</ele>
        <time>2017-05-27T08:05:59Z</time>
      </trkpt>
      <trkpt lat="45.74198" lon="3.86536">
        <ele>1053.5</ele>
        <time>2017-05-27T08:06:00Z</time>
      </trkpt>
      <trkpt lat="45.74198" lon="3.86551">
        <ele>1052.699951</ele>
        <time>2017-05-27T08:06:01Z</time>
      </trkpt>
      <trkpt lat="45.74198" lon="3.86566">
        <ele>1051.900024</ele>
        <time>2017-05-27T08:06:02Z</time>
      </trkpt>
      <trkpt lat="45.74197" lon="3.86581">
        <ele>1051.099976</ele>
        <time>2017-05-27T08:06:03Z</time>
      </trkpt>
      <trkpt lat="45.74197" lon="3.86595">
        <ele>1050.5</ele>
        <time>2017-05-27T08:06:04Z</time>
      </trkpt>
      <trkpt lat="45.74197" lon="3.86609">
        <ele>1049.699951</ele>
        <time>2017-05-27T08:06:05Z</time>
      </trkpt>
      <trkpt lat="45.74196" lon="3.86622">
        <ele>1049</ele>
        <time>2017-05-27T08:06:06Z</time>
      </trkpt>
      <trkpt lat="45.74198" lon="3.86636">
        <ele>1048.5</ele>
        <time>2017-05-27T08:06:07Z</time>
      </trkpt>
      <trkpt lat="45.742" lon="3.8665">
        <ele>1047.900024</ele>
        <time>2017-05-27T08:06:08Z</time>
      </trkpt>
      <trkpt lat="45.74203" lon="3.86671">
        <ele>1046.599976</ele>
        <time>2017-05-27T08:06:10Z</time>
      </trkpt>
      <trkpt lat="45.74208" lon="3.86685">
        <ele>1045.5</ele>
        <time>2017-05-27T08:06:12Z</time>
      </trkpt>
      <trkpt lat="45.74216" lon="3.86695">
        <ele>1044.699951</ele>
        <time>2017-05-27T08:06:14Z</time>
      </trkpt>
      <trkpt lat="45.7422" lon="3.86706">
        <ele>1042.900024</ele>
        <time>2017-05-27T08:06:23Z</time>
      </trkpt>
      <trkpt lat="45.74228" lon="3.86715">
        <ele>1042.400024</ele>
        <time>2017-05-27T08:07:53Z</time>
      </trkpt>
      <trkpt lat="45.74237" lon="3.86728">
        <ele>1042</ele>
        <time>2017-05-27T08:08:54Z</time>
      </trkpt>
      <trkpt lat="45.74244" lon="3.86739">
        <ele>1041.699951</ele>
        <time>2017-05-27T08:08:56Z</time>
      </trkpt>
      <trkpt lat="45.74253" lon="3.86754">
        <ele>1041.300049</ele>
        <time>2017-05-27T08:08:58Z</time>
      </trkpt>
      <trkpt lat="45.74262" lon="3.86771">
        <ele>1040.800049</ele>
        <time>2017-05-27T08:09:00Z</time>
      </trkpt>
      <trkpt lat="45.7427" lon="3.86789">
        <ele>1040.900024</ele>
        <time>2017-05-27T08:09:02Z</time>
      </trkpt>
      <trkpt lat="45.7428" lon="3.86808">
        <ele>1040.400024</ele>
        <time>2017-05-27T08:09:04Z</time>
      </trkpt>
      <trkpt lat="45.74291" lon="3.86827">
        <ele>1039.699951</ele>
        <time>2017-05-27T08:09:06Z</time>
      </trkpt>
      <trkpt lat="45.74304" lon="3.86843">
        <ele>1039</ele>
        <time>2017-05-27T08:09:08Z</time>
      </trkpt>
      <trkpt lat="45.7432" lon="3.86855">
        <ele>1038.5</ele>
        <time>2017-05-27T08:09:10Z</time>
      </trkpt>
      <trkpt lat="45.74337" lon="3.86864">
        <ele>1037.699951</ele>
        <time>2017-05-27T08:09:12Z</time>
      </trkpt>
      <trkpt lat="45.74346" lon="3.86867">
        <ele>1037.099976</ele>
        <time>2017-05-27T08:09:13Z</time>
      </trkpt>
      <trkpt lat="45.74363" lon="3.86874">
        <ele>1036.099976</ele>
        <time>2017-05-27T08:09:15Z</time>
      </trkpt>
      <trkpt lat="45.74372" lon="3.86875">
        <ele>1035.099976</ele>
        <time>2017-05-27T08:09:17Z</time>
      </trkpt>
      <trkpt lat="45.74383" lon="3.86874">
        <ele>1034.199951</ele>
        <time>2017-05-27T08:09:19Z</time>
      </trkpt>
      <trkpt lat="45.74394" lon="3.86875">
        <ele>1033.199951</ele>
        <time>2017-05-27T08:09:21Z</time>
      </trkpt>
      <trkpt lat="45.74405" lon="3.86874">
        <ele>1032.400024</ele>
        <time>2017-05-27T08:09:23Z</time>
      </trkpt>
      <trkpt lat="45.74414" lon="3.86877">
        <ele>1032</ele>
        <time>2017-05-27T08:09:24Z</time>
      </trkpt>
      <trkpt lat="45.74429" lon="3.86882">
        <ele>1031.5</ele>
        <time>2017-05-27T08:09:26Z</time>
      </trkpt>
      <trkpt lat="45.74445" lon="3.86886">
        <ele>1031.199951</ele>
        <time>2017-05-27T08:09:28Z</time>
      </trkpt>
      <trkpt lat="45.74456" lon="3.86888">
        <ele>1031</ele>
        <time>2017-05-27T08:09:30Z</time>
      </trkpt>
      <trkpt lat="45.74468" lon="3.8689">
        <ele>1030.099976</ele>
        <time>2017-05-27T08:09:32Z</time>
      </trkpt>
      <trkpt lat="45.74479" lon="3.86891">
        <ele>1030.099976</ele>
        <time>2017-05-27T08:09:34Z</time>
      </trkpt>
      <trkpt lat="45.74493" lon="3.86892">
        <ele>1030.099976</ele>
        <time>2017-05-27T08:09:36Z</time>
      </trkpt>
      <trkpt lat="45.74506" lon="3.86894">
        <ele>1030</ele>
        <time>2017-05-27T08:09:38Z</time>
      </trkpt>
      <trkpt lat="45.74518" lon="3.86896">
        <ele>1030</ele>
        <time>2017-05-27T08:09:40Z</time>
      </trkpt>
      <trkpt lat="45.74531" lon="3.86897">
        <ele>1029.199951</ele>
        <time>2017-05-27T08:09:43Z</time>
      </trkpt>
      <trkpt lat="45.74541" lon="3.86898">
        <ele>1028.400024</ele>
        <time>2017-05-27T08:09:45Z</time>
      </trkpt>
      <trkpt lat="45.74551" lon="3.86901">
        <ele>1027.099976</ele>
        <time>2017-05-27T08:09:48Z</time>
      </trkpt>
      <trkpt lat="45.74561" lon="3.86901">
        <ele>1026</ele>
        <time>2017-05-27T08:09:51Z</time>
      </trkpt>
      <trkpt lat="45.7457" lon="3.869">
        <ele>1024.800049</ele>
        <time>2017-05-27T08:09:55Z</time>
      </trkpt>
      <trkpt lat="45.7458" lon="3.86898">
        <ele>1024.199951</ele>
        <time>2017-05-27T08:09:58Z</time>
      </trkpt>
      <trkpt lat="45.74591" lon="3.86897">
        <ele>1023.400024</ele>
        <time>2017-05-27T08:10:01Z</time>
      </trkpt>
      <trkpt lat="45.74602" lon="3.86893">
        <ele>1022.599976</ele>
        <time>2017-05-27T08:10:04Z</time>
      </trkpt>
      <trkpt lat="45.74616" lon="3.86887">
        <ele>1022</ele>
        <time>2017-05-27T08:10:07Z</time>
      </trkpt>
      <trkpt lat="45.74625" lon="3.86886">
        <ele>1021.400024</ele>
        <time>2017-05-27T08:10:09Z</time>
      </trkpt>
      <trkpt lat="45.74637" lon="3.86882">
        <ele>1020.900024</ele>
        <time>2017-05-27T08:10:11Z</time>
      </trkpt>
      <trkpt lat="45.74651" lon="3.86883">
        <ele>1020.200012</ele>
        <time>2017-05-27T08:10:13Z</time>
      </trkpt>
      <trkpt lat="45.74661" lon="3.86883">
        <ele>1019.799988</ele>
        <time>2017-05-27T08:10:14Z</time>
      </trkpt>
      <trkpt lat="45.74676" lon="3.86884">
        <ele>1018.5</ele>
        <time>2017-05-27T08:10:16Z</time>
      </trkpt>
      <trkpt lat="45.74691" lon="3.86882">
        <ele>1017.200012</ele>
        <time>2017-05-27T08:10:18Z</time>
      </trkpt>
      <trkpt lat="45.747" lon="3.86881">
        <ele>1016.200012</ele>
        <time>2017-05-27T08:10:19Z</time>
      </trkpt>
      <trkpt lat="45.74709" lon="3.8688">
        <ele>1015.400024</ele>
        <time>2017-05-27T08:10:20Z</time>
      </trkpt>
      <trkpt lat="45.7472" lon="3.86882">
        <ele>1014.5</ele>
        <time>2017-05-27T08:10:21Z</time>
      </trkpt>
      <trkpt lat="45.74729" lon="3.86884">
        <ele>1013.299988</ele>
        <time>2017-05-27T08:10:22Z</time>
      </trkpt>
      <trkpt lat="45.74739" lon="3.86885">
        <ele>1012.299988</ele>
        <time>2017-05-27T08:10:23Z</time>
      </trkpt>
      <trkpt lat="45.74757" lon="3.86892">
        <ele>1010.700012</ele>
        <time>2017-05-27T08:10:25Z</time>
      </trkpt>
      <trkpt lat="45.74772" lon="3.86898">
        <ele>1009.400024</ele>
        <time>2017-05-27T08:10:27Z</time>
      </trkpt>
      <trkpt lat="45.74781" lon="3.869">
        <ele>1008.799988</ele>
        <time>2017-05-27T08:10:28Z</time>
      </trkpt>
      <trkpt lat="45.74796" lon="3.86906">
        <ele>1007.799988</ele>
        <time>2017-05-27T08:10:30Z</time>
      </trkpt>
      <trkpt lat="45.74804" lon="3.86911">
        <ele>1007.400024</ele>
        <time>2017-05-27T08:10:31Z</time>
      </trkpt>
      <trkpt lat="45.74822" lon="3.86922">
        <ele>1006.599976</ele>
        <time>2017-05-27T08:10:33Z</time>
      </trkpt>
      <trkpt lat="45.74833" lon="3.86929">
        <ele>1006.400024</ele>
        <time>2017-05-27T08:10:34Z</time>
      </trkpt>
      <trkpt lat="45.74844" lon="3.86935">
        <ele>1006.200012</ele>
        <time>2017-05-27T08:10:35Z</time>
      </trkpt>
      <trkpt lat="45.74852" lon="3.86942">
        <ele>1005.900024</ele>
        <time>2017-05-27T08:10:36Z</time>
      </trkpt>
      <trkpt lat="45.74865" lon="3.86952">
        <ele>1005.299988</ele>
        <time>2017-05-27T08:10:38Z</time>
      </trkpt>
      <trkpt lat="45.74879" lon="3.86961">
        <ele>1005</ele>
        <time>2017-05-27T08:10:39Z</time>
      </trkpt>
      <trkpt lat="45.74891" lon="3.86969">
        <ele>1004.700012</ele>
        <time>2017-05-27T08:10:40Z</time>
      </trkpt>
      <trkpt lat="45.74902" lon="3.86977">
        <ele>1004.299988</ele>
        <time>2017-05-27T08:10:41Z</time>
      </trkpt>
      <trkpt lat="45.74913" lon="3.86984">
        <ele>1003.799988</ele>
        <time>2017-05-27T08:10:42Z</time>
      </trkpt>
      <trkpt lat="45.74929" lon="3.86996">
        <ele>1002.700012</ele>
        <time>2017-05-27T08:10:44Z</time>
      </trkpt>
      <trkpt lat="45.74939" lon="3.87004">
        <ele>1001.900024</ele>
        <time>2017-05-27T08:10:45Z</time>
      </trkpt>
      <trkpt lat="45.74948" lon="3.87012">
        <ele>1001.200012</ele>
        <time>2017-05-27T08:10:46Z</time>
      </trkpt>
      <trkpt lat="45.74956" lon="3.8702">
        <ele>1000.700012</ele>
        <time>2017-05-27T08:10:47Z</time>
      </trkpt>
      <trkpt lat="45.74964" lon="3.87031">
        <ele>1000.299988</ele>
        <time>2017-05-27T08:10:48Z</time>
      </trkpt>
      <trkpt lat="45.74972" lon="3.87042">
        <ele>999.599976</ele>
        <time>2017-05-27T08:10:49Z</time>
      </trkpt>
      <trkpt lat="45.74979" lon="3.87051">
        <ele>998.700012</ele>
        <time>2017-05-27T08:10:50Z</time>
      </trkpt>
      <trkpt lat="45.74987" lon="3.87059">
        <ele>997.799988</ele>
        <time>2017-05-27T08:10:51Z</time>
      </trkpt>
      <trkpt lat="45.74996" lon="3.87067">
        <ele>997</ele>
        <time>2017-05-27T08:10:52Z</time>
      </trkpt>
      <trkpt lat="45.75007" lon="3.87075">
        <ele>996.299988</ele>
        <time>2017-05-27T08:10:53Z</time>
      </trkpt>
      <trkpt lat="45.75016" lon="3.87084">
        <ele>995.400024</ele>
        <time>2017-05-27T08:10:54Z</time>
      </trkpt>
      <trkpt lat="45.75025" lon="3.87092">
        <ele>994.099976</ele>
        <time>2017-05-27T08:10:55Z</time>
      </trkpt>
      <trkpt lat="45.75034" lon="3.871">
        <ele>993.099976</ele>
        <time>2017-05-27T08:10:56Z</time>
      </trkpt>
      <trkpt lat="45.75043" lon="3.87107">
        <ele>992</ele>
        <time>2017-05-27T08:10:57Z</time>
      </trkpt>
      <trkpt lat="45.75052" lon="3.87118">
        <ele>990.799988</ele>
        <time>2017-05-27T08:10:58Z</time>
      </trkpt>
      <trkpt lat="45.75061" lon="3.87128">
        <ele>989.799988</ele>
        <time>2017-05-27T08:10:59Z</time>
      </trkpt>
      <trkpt lat="45.75068" lon="3.87139">
        <ele>988.5</ele>
        <time>2017-05-27T08:11:00Z</time>
      </trkpt>
      <trkpt lat="45.75075" lon="3.87151">
        <ele>987.5</ele>
        <time>2017-05-27T08:11:01Z</time>
      </trkpt>
      <trkpt lat="45.75082" lon="3.87161">
        <ele>986.599976</ele>
        <time>2017-05-27T08:11:02Z</time>
      </trkpt>
      <trkpt lat="45.75089" lon="3.87168">
        <ele>985.799988</ele>
        <time>2017-05-27T08:11:03Z</time>
      </trkpt>
      <trkpt lat="45.75097" lon="3.87179">
        <ele>984.599976</ele>
        <time>2017-05-27T08:11:04Z</time>
      </trkpt>
      <trkpt lat="45.75109" lon="3.87194">
        <ele>982.299988</ele>
        <time>2017-05-27T08:11:06Z</time>
      </trkpt>
      <trkpt lat="45.75122" lon="3.87205">
        <ele>980</ele>
        <time>2017-05-27T08:11:08Z</time>
      </trkpt>
      <trkpt lat="45.75136" lon="3.87214">
        <ele>977.200012</ele>
        <time>2017-05-27T08:11:10Z</time>
      </trkpt>
      <trkpt lat="45.75145" lon="3.87217">
        <ele>975.700012</ele>
        <time>2017-05-27T08:11:11Z</time>
      </trkpt>
      <trkpt lat="45.75162" lon="3.87221">
        <ele>973.400024</ele>
        <time>2017-05-27T08:11:13Z</time>
      </trkpt>
      <trkpt lat="45.75176" lon="3.87223">
        <ele>971.099976</ele>
        <time>2017-05-27T08:11:15Z</time>
      </trkpt>
      <trkpt lat="45.75192" lon="3.87225">
        <ele>969</ele>
        <time>2017-05-27T08:11:17Z</time>
      </trkpt>
      <trkpt lat="45.75207" lon="3.87229">
        <ele>967</ele>
        <time>2017-05-27T08:11:19Z</time>
      </trkpt>
      <trkpt lat="45.75223" lon="3.8724">
        <ele>964</ele>
        <time>2017-05-27T08:11:21Z</time>
      </trkpt>
      <trkpt lat="45.75231" lon="3.87248">
        <ele>963.099976</ele>
        <time>2017-05-27T08:11:22Z</time>
      </trkpt>
      <trkpt lat="45.75247" lon="3.87265">
        <ele>961.700012</ele>
        <time>2017-05-27T08:11:24Z</time>
      </trkpt>
      <trkpt lat="45.75254" lon="3.87274">
        <ele>960.700012</ele>
        <time>2017-05-27T08:11:25Z</time>
      </trkpt>
      <trkpt lat="45.75262" lon="3.87284">
        <ele>959.799988</ele>
        <time>2017-05-27T08:11:26Z</time>
      </trkpt>
      <trkpt lat="45.75272" lon="3.87293">
        <ele>959.200012</ele>
        <time>2017-05-27T08:11:27Z</time>
      </trkpt>
      <trkpt lat="45.75282" lon="3.87302">
        <ele>958.5</ele>
        <time>2017-05-27T08:11:28Z</time>
      </trkpt>
      <trkpt lat="45.75294" lon="3.87309">
        <ele>957.599976</ele>
        <time>2017-05-27T08:11:29Z</time>
      </trkpt>
      <trkpt lat="45.75303" lon="3.87314">
        <ele>956.299988</ele>
        <time>2017-05-27T08:11:30Z</time>
      </trkpt>
      <trkpt lat="45.75312" lon="3.87318">
        <ele>955.5</ele>
        <time>2017-05-27T08:11:31Z</time>
      </trkpt>
      <trkpt lat="45.75329" lon="3.87326">
        <ele>953.5</ele>
        <time>2017-05-27T08:11:33Z</time>
      </trkpt>
      <trkpt lat="45.75343" lon="3.87331">
        <ele>951.700012</ele>
        <time>2017-05-27T08:11:35Z</time>
      </trkpt>
      <trkpt lat="45.75352" lon="3.87337">
        <ele>950.799988</ele>
        <time>2017-05-27T08:11:36Z</time>
      </trkpt>
      <trkpt lat="45.75362" lon="3.87348">
        <ele>947.5</ele>
        <time>2017-05-27T08:11:38Z</time>
      </trkpt>
      <trkpt lat="45.7537" lon="3.87363">
        <ele>945.200012</ele>
        <time>2017-05-27T08:11:40Z</time>
      </trkpt>
      <trkpt lat="45.75374" lon="3.87387">
        <ele>943.099976</ele>
        <time>2017-05-27T08:11:42Z</time>
      </trkpt>
      <trkpt lat="45.75376" lon="3.87412">
        <ele>940.900024</ele>
        <time>2017-05-27T08:11:44Z</time>
      </trkpt>
      <trkpt lat="45.75378" lon="3.87426">
        <ele>939.900024</ele>
        <time>2017-05-27T08:11:45Z</time>
      </trkpt>
      <trkpt lat="45.75377" lon="3.87439">
        <ele>939.200012</ele>
        <time>2017-05-27T08:11:46Z</time>
      </trkpt>
      <trkpt lat="45.75378" lon="3.87453">
        <ele>937.799988</ele>
        <time>2017-05-27T08:11:47Z</time>
      </trkpt>
      <trkpt lat="45.75378" lon="3.87467">
        <ele>936.799988</ele>
        <time>2017-05-27T08:11:48Z</time>
      </trkpt>
      <trkpt lat="45.75381" lon="3.87481">
        <ele>935.900024</ele>
        <time>2017-05-27T08:11:49Z</time>
      </trkpt>
      <trkpt lat="45.75382" lon="3.87494">
        <ele>935.099976</ele>
        <time>2017-05-27T08:11:50Z</time>
      </trkpt>
      <trkpt lat="45.75385" lon="3.87507">
        <ele>934.400024</ele>
        <time>2017-05-27T08:11:51Z</time>
      </trkpt>
      <trkpt lat="45.75388" lon="3.87519">
        <ele>933.599976</ele>
        <time>2017-05-27T08:11:52Z</time>
      </trkpt>
      <trkpt lat="45.75396" lon="3.87543">
        <ele>932</ele>
        <time>2017-05-27T08:11:54Z</time>
      </trkpt>
      <trkpt lat="45.75401" lon="3.87555">
        <ele>931.299988</ele>
        <time>2017-05-27T08:11:55Z</time>
      </trkpt>
      <trkpt lat="45.75408" lon="3.8758">
        <ele>929.599976</ele>
        <time>2017-05-27T08:11:57Z</time>
      </trkpt>
      <trkpt lat="45.75411" lon="3.87593">
        <ele>928.799988</ele>
        <time>2017-05-27T08:11:58Z</time>
      </trkpt>
      <trkpt lat="45.75415" lon="3.87606">
        <ele>928</ele>
        <time>2017-05-27T08:11:59Z</time>
      </trkpt>
      <trkpt lat="45.75418" lon="3.87619">
        <ele>927.200012</ele>
        <time>2017-05-27T08:12:00Z</time>
      </trkpt>
      <trkpt lat="45.75421" lon="3.87632">
        <ele>926.400024</ele>
        <time>2017-05-27T08:12:01Z</time>
      </trkpt>
      <trkpt lat="45.75424" lon="3.87645">
        <ele>925.799988</ele>
        <time>2017-05-27T08:12:02Z</time>
      </trkpt>
      <trkpt lat="45.75427" lon="3.87659">
        <ele>925.299988</ele>
        <time>2017-05-27T08:12:03Z</time>
      </trkpt>
      <trkpt lat="45.7543" lon="3.87671">
        <ele>924.799988</ele>
        <time>2017-05-27T08:12:04Z</time>
      </trkpt>
      <trkpt lat="45.75434" lon="3.87683">
        <ele>924</ele>
        <time>2017-05-27T08:12:05Z</time>
      </trkpt>
      <trkpt lat="45.75439" lon="3.87697">
        <ele>923.400024</ele>
        <time>2017-05-27T08:12:06Z</time>
      </trkpt>
      <trkpt lat="45.75444" lon="3.87711">
        <ele>922.900024</ele>
        <time>2017-05-27T08:12:07Z</time>
      </trkpt>
      <trkpt lat="45.75449" lon="3.87725">
        <ele>922.400024</ele>
        <time>2017-05-27T08:12:08Z</time>
      </trkpt>
      <trkpt lat="45.75452" lon="3.87737">
        <ele>921.900024</ele>
        <time>2017-05-27T08:12:09Z</time>
      </trkpt>
      <trkpt lat="45.75455" lon="3.87761">
        <ele>920.700012</ele>
        <time>2017-05-27T08:12:11Z</time>
      </trkpt>
      <trkpt lat="45.75455" lon="3.87784">
        <ele>920.200012</ele>
        <time>2017-05-27T08:12:13Z</time>
      </trkpt>
      <trkpt lat="45.7545" lon="3.87806">
        <ele>919.5</ele>
        <time>2017-05-27T08:12:15Z</time>
      </trkpt>
      <trkpt lat="45.75442" lon="3.87824">
        <ele>919</ele>
        <time>2017-05-27T08:12:17Z</time>
      </trkpt>
      <trkpt lat="45.75433" lon="3.87838">
        <ele>918.5</ele>
        <time>2017-05-27T08:12:19Z</time>
      </trkpt>
      <trkpt lat="45.75425" lon="3.87853">
        <ele>918.700012</ele>
        <time>2017-05-27T08:12:21Z</time>
      </trkpt>
      <trkpt lat="45.75419" lon="3.87869">
        <ele>918.900024</ele>
        <time>2017-05-27T08:12:23Z</time>
      </trkpt>
      <trkpt lat="45.75414" lon="3.87885">
        <ele>919.099976</ele>
        <time>2017-05-27T08:12:25Z</time>
      </trkpt>
      <trkpt lat="45.7541" lon="3.879">
        <ele>919.099976</ele>
        <time>2017-05-27T08:12:27Z</time>
      </trkpt>
      <trkpt lat="45.75407" lon="3.87915">
        <ele>918.900024</ele>
        <time>2017-05-27T08:12:29Z</time>
      </trkpt>
      <trkpt lat="45.75404" lon="3.87931">
        <ele>918.400024</ele>
        <time>2017-05-27T08:12:31Z</time>
      </trkpt>
      <trkpt lat="45.75402" lon="3.87948">
        <ele>918</ele>
        <time>2017-05-27T08:12:33Z</time>
      </trkpt>
      <trkpt lat="45.75402" lon="3.87966">
        <ele>917.900024</ele>
        <time>2017-05-27T08:12:35Z</time>
      </trkpt>
      <trkpt lat="45.75403" lon="3.87984">
        <ele>917.700012</ele>
        <time>2017-05-27T08:12:37Z</time>
      </trkpt>
      <trkpt lat="45.75404" lon="3.88002">
        <ele>917.400024</ele>
        <time>2017-05-27T08:12:39Z</time>
      </trkpt>
      <trkpt lat="45.75405" lon="3.88018">
        <ele>917</ele>
        <time>2017-05-27T08:12:41Z</time>
      </trkpt>
      <trkpt lat="45.75408" lon="3.88034">
        <ele>916.799988</ele>
        <time>2017-05-27T08:12:43Z</time>
      </trkpt>
      <trkpt lat="45.75411" lon="3.88053">
        <ele>916.200012</ele>
        <time>2017-05-27T08:12:45Z</time>
      </trkpt>
      <trkpt lat="45.75412" lon="3.88072">
        <ele>915.599976</ele>
        <time>2017-05-27T08:12:47Z</time>
      </trkpt>
      <trkpt lat="45.75414" lon="3.88091">
        <ele>915</ele>
        <time>2017-05-27T08:12:49Z</time>
      </trkpt>
      <trkpt lat="45.75415" lon="3.8811">
        <ele>914.5</ele>
        <time>2017-05-27T08:12:51Z</time>
      </trkpt>
      <trkpt lat="45.75415" lon="3.88127">
        <ele>914.299988</ele>
        <time>2017-05-27T08:12:53Z</time>
      </trkpt>
      <trkpt lat="45.75415" lon="3.88145">
        <ele>914.099976</ele>
        <time>2017-05-27T08:12:55Z</time>
      </trkpt>
      <trkpt lat="45.75416" lon="3.88161">
        <ele>913.900024</ele>
        <time>2017-05-27T08:12:57Z</time>
      </trkpt>
      <trkpt lat="45.75417" lon="3.88174">
        <ele>913.799988</ele>
        <time>2017-05-27T08:12:59Z</time>
      </trkpt>
      <trkpt lat="45.75419" lon="3.88191">
        <ele>913.900024</ele>
        <time>2017-05-27T08:13:02Z</time>
      </trkpt>
      <trkpt lat="45.7542" lon="3.88206">
        <ele>913.900024</ele>
        <time>2017-05-27T08:13:05Z</time>
      </trkpt>
      <trkpt lat="45.75421" lon="3.88222">
        <ele>913.900024</ele>
        <time>2017-05-27T08:13:08Z</time>
      </trkpt>
      <trkpt lat="45.75422" lon="3.88236">
        <ele>914.400024</ele>
        <time>2017-05-27T08:13:11Z</time>
      </trkpt>
      <trkpt lat="45.75422" lon="3.88251">
        <ele>914.700012</ele>
        <time>2017-05-27T08:13:14Z</time>
      </trkpt>
      <trkpt lat="45.75423" lon="3.88265">
        <ele>914.5</ele>
        <time>2017-05-27T08:13:17Z</time>
      </trkpt>
      <trkpt lat="45.75423" lon="3.88283">
        <ele>914.299988</ele>
        <time>2017-05-27T08:13:20Z</time>
      </trkpt>
      <trkpt lat="45.75423" lon="3.88296">
        <ele>914.099976</ele>
        <time>2017-05-27T08:13:22Z</time>
      </trkpt>
      <trkpt lat="45.75422" lon="3.88313">
        <ele>913.700012</ele>
        <time>2017-05-27T08:13:24Z</time>
      </trkpt>
      <trkpt lat="45.7542" lon="3.88331">
        <ele>913.099976</ele>
        <time>2017-05-27T08:13:26Z</time>
      </trkpt>
      <trkpt lat="45.75417" lon="3.8835">
        <ele>912.5</ele>
        <time>2017-05-27T08:13:28Z</time>
      </trkpt>
      <trkpt lat="45.75414" lon="3.88371">
        <ele>911.799988</ele>
        <time>2017-05-27T08:13:30Z</time>
      </trkpt>
      <trkpt lat="45.75411" lon="3.88393">
        <ele>911.200012</ele>
        <time>2017-05-27T08:13:32Z</time>
      </trkpt>
      <trkpt lat="45.75409" lon="3.88415">
        <ele>910.5</ele>
        <time>2017-05-27T08:13:34Z</time>
      </trkpt>
      <trkpt lat="45.75407" lon="3.88436">
        <ele>909.700012</ele>
        <time>2017-05-27T08:13:36Z</time>
      </trkpt>
      <trkpt lat="45.75406" lon="3.88455">
        <ele>908.700012</ele>
        <time>2017-05-27T08:13:38Z</time>
      </trkpt>
      <trkpt lat="45.75406" lon="3.88474">
        <ele>907.700012</ele>
        <time>2017-05-27T08:13:40Z</time>
      </trkpt>
      <trkpt lat="45.75409" lon="3.88493">
        <ele>906.900024</ele>
        <time>2017-05-27T08:13:42Z</time>
      </trkpt>
      <trkpt lat="45.75413" lon="3.88513">
        <ele>905.900024</ele>
        <time>2017-05-27T08:13:44Z</time>
      </trkpt>
      <trkpt lat="45.75418" lon="3.88532">
        <ele>905.200012</ele>
        <time>2017-05-27T08:13:46Z</time>
      </trkpt>
      <trkpt lat="45.75422" lon="3.88551">
        <ele>904.700012</ele>
        <time>2017-05-27T08:13:48Z</time>
      </trkpt>
      <trkpt lat="45.75426" lon="3.88569">
        <ele>903.5</ele>
        <time>2017-05-27T08:13:50Z</time>
      </trkpt>
      <trkpt lat="45.75432" lon="3.88587">
        <ele>903.099976</ele>
        <time>2017-05-27T08:13:52Z</time>
      </trkpt>
      <trkpt lat="45.75439" lon="3.88607">
        <ele>902.700012</ele>
        <time>2017-05-27T08:13:54Z</time>
      </trkpt>
      <trkpt lat="45.75444" lon="3.88629">
        <ele>901.299988</ele>
        <time>2017-05-27T08:13:56Z</time>
      </trkpt>
      <trkpt lat="45.75449" lon="3.88648">
        <ele>900.099976</ele>
        <time>2017-05-27T08:13:58Z</time>
      </trkpt>
      <trkpt lat="45.75452" lon="3.88662">
        <ele>898.599976</ele>
        <time>2017-05-27T08:14:00Z</time>
      </trkpt>
      <trkpt lat="45.75453" lon="3.88676">
        <ele>897.099976</ele>
        <time>2017-05-27T08:14:03Z</time>
      </trkpt>
      <trkpt lat="45.75452" lon="3.88692">
        <ele>896</ele>
        <time>2017-05-27T08:14:06Z</time>
      </trkpt>
      <trkpt lat="45.75452" lon="3.8871">
        <ele>895.599976</ele>
        <time>2017-05-27T08:14:09Z</time>
      </trkpt>
      <trkpt lat="45.75451" lon="3.88723">
        <ele>895.299988</ele>
        <time>2017-05-27T08:14:11Z</time>
      </trkpt>
      <trkpt lat="45.7545" lon="3.88736">
        <ele>895.099976</ele>
        <time>2017-05-27T08:14:13Z</time>
      </trkpt>
      <trkpt lat="45.7545" lon="3.88754">
        <ele>894.799988</ele>
        <time>2017-05-27T08:14:16Z</time>
      </trkpt>
      <trkpt lat="45.75451" lon="3.88768">
        <ele>894.799988</ele>
        <time>2017-05-27T08:14:19Z</time>
      </trkpt>
      <trkpt lat="45.75453" lon="3.8878">
        <ele>894.799988</ele>
        <time>2017-05-27T08:19:40Z</time>
      </trkpt>
      <trkpt lat="45.75444" lon="3.88778">
        <ele>894.400024</ele>
        <time>2017-05-27T08:20:02Z</time>
      </trkpt>
      <trkpt lat="45.75435" lon="3.88775">
        <ele>894.200012</ele>
        <time>2017-05-27T08:20:07Z</time>
      </trkpt>
      <trkpt lat="45.75425" lon="3.88772">
        <ele>894.200012</ele>
        <time>2017-05-27T08:20:11Z</time>
      </trkpt>
      <trkpt lat="45.75416" lon="3.88768">
        <ele>894.099976</ele>
        <time>2017-05-27T08:20:14Z</time>
      </trkpt>
      <trkpt lat="45.75407" lon="3.88761">
        <ele>893.900024</ele>
        <time>2017-05-27T08:20:17Z</time>
      </trkpt>
      <trkpt lat="45.75395" lon="3.88751">
        <ele>893.400024</ele>
        <time>2017-05-27T08:20:20Z</time>
      </trkpt>
      <trkpt lat="45.75385" lon="3.88742">
        <ele>892.799988</ele>
        <time>2017-05-27T08:20:22Z</time>
      </trkpt>
      <trkpt lat="45.75373" lon="3.88732">
        <ele>892.200012</ele>
        <time>2017-05-27T08:20:24Z</time>
      </trkpt>
      <trkpt lat="45.75359" lon="3.88721">
        <ele>891.200012</ele>
        <time>2017-05-27T08:20:26Z</time>
      </trkpt>
      <trkpt lat="45.75351" lon="3.88715">
        <ele>890.799988</ele>
        <time>2017-05-27T08:20:27Z</time>
      </trkpt>
      <trkpt lat="45.75343" lon="3.88709">
        <ele>890</ele>
        <time>2017-05-27T08:20:28Z</time>
      </trkpt>
      <trkpt lat="45.75335" lon="3.88702">
        <ele>889.400024</ele>
        <time>2017-05-27T08:20:29Z</time>
      </trkpt>
      <trkpt lat="45.7532" lon="3.88689">
        <ele>888.099976</ele>
        <time>2017-05-27T08:20:31Z</time>
      </trkpt>
      <trkpt lat="45.75309" lon="3.88669">
        <ele>887</ele>
        <time>2017-05-27T08:20:33Z</time>
      </trkpt>
      <trkpt lat="45.75304" lon="3.88659">
        <ele>886.5</ele>
        <time>2017-05-27T08:20:34Z</time>
      </trkpt>
      <trkpt lat="45.75298" lon="3.88648">
        <ele>885.799988</ele>
        <time>2017-05-27T08:20:35Z</time>
      </trkpt>
      <trkpt lat="45.75292" lon="3.88638">
        <ele>885.200012</ele>
        <time>2017-05-27T08:20:36Z</time>
      </trkpt>
      <trkpt lat="45.75279" lon="3.88622">
        <ele>884.400024</ele>
        <time>2017-05-27T08:20:38Z</time>
      </trkpt>
      <trkpt lat="45.75265" lon="3.88609">
        <ele>883.400024</ele>
        <time>2017-05-27T08:20:40Z</time>
      </trkpt>
      <trkpt lat="45.75252" lon="3.88596">
        <ele>882.5</ele>
        <time>2017-05-27T08:20:42Z</time>
      </trkpt>
      <trkpt lat="45.75244" lon="3.88578">
        <ele>881.700012</ele>
        <time>2017-05-27T08:20:44Z</time>
      </trkpt>
      <trkpt lat="45.75237" lon="3.88556">
        <ele>880.599976</ele>
        <time>2017-05-27T08:20:46Z</time>
      </trkpt>
      <trkpt lat="45.75231" lon="3.88533">
        <ele>879.599976</ele>
        <time>2017-05-27T08:20:48Z</time>
      </trkpt>
      <trkpt lat="45.75227" lon="3.88508">
        <ele>878.5</ele>
        <time>2017-05-27T08:20:50Z</time>
      </trkpt>
      <trkpt lat="45.75225" lon="3.88495">
        <ele>878</ele>
        <time>2017-05-27T08:20:51Z</time>
      </trkpt>
      <trkpt lat="45.75223" lon="3.88481">
        <ele>877.5</ele>
        <time>2017-05-27T08:20:52Z</time>
      </trkpt>
      <trkpt lat="45.75221" lon="3.88468">
        <ele>876.900024</ele>
        <time>2017-05-27T08:20:53Z</time>
      </trkpt>
      <trkpt lat="45.75217" lon="3.88446">
        <ele>875.900024</ele>
        <time>2017-05-27T08:20:55Z</time>
      </trkpt>
      <trkpt lat="45.75212" lon="3.88428">
        <ele>874.400024</ele>
        <time>2017-05-27T08:20:57Z</time>
      </trkpt>
      <trkpt lat="45.75208" lon="3.88414">
        <ele>872.799988</ele>
        <time>2017-05-27T08:20:59Z</time>
      </trkpt>
      <trkpt lat="45.75203" lon="3.88399">
        <ele>871.400024</ele>
        <time>2017-05-27T08:21:01Z</time>
      </trkpt>
      <trkpt lat="45.752" lon="3.88385">
        <ele>870</ele>
        <time>2017-05-27T08:21:03Z</time>
      </trkpt>
      <trkpt lat="45.75197" lon="3.88369">
        <ele>868.099976</ele>
        <time>2017-05-27T08:21:06Z</time>
      </trkpt>
      <trkpt lat="45.75193" lon="3.88352">
        <ele>866.5</ele>
        <time>2017-05-27T08:21:09Z</time>
      </trkpt>
      <trkpt lat="45.75188" lon="3.88339">
        <ele>865.799988</ele>
        <time>2017-05-27T08:21:11Z</time>
      </trkpt>
      <trkpt lat="45.75183" lon="3.88325">
        <ele>865</ele>
        <time>2017-05-27T08:21:13Z</time>
      </trkpt>
      <trkpt lat="45.75176" lon="3.88309">
        <ele>864.200012</ele>
        <time>2017-05-27T08:21:15Z</time>
      </trkpt>
      <trkpt lat="45.75167" lon="3.88293">
        <ele>863.5</ele>
        <time>2017-05-27T08:21:17Z</time>
      </trkpt>
      <trkpt lat="45.75158" lon="3.88276">
        <ele>862.900024</ele>
        <time>2017-05-27T08:21:19Z</time>
      </trkpt>
      <trkpt lat="45.75148" lon="3.88258">
        <ele>862</ele>
        <time>2017-05-27T08:21:21Z</time>
      </trkpt>
      <trkpt lat="45.75138" lon="3.88239">
        <ele>861.099976</ele>
        <time>2017-05-27T08:21:23Z</time>
      </trkpt>
      <trkpt lat="45.75129" lon="3.88217">
        <ele>860.200012</ele>
        <time>2017-05-27T08:21:25Z</time>
      </trkpt>
      <trkpt lat="45.75124" lon="3.88206">
        <ele>859.599976</ele>
        <time>2017-05-27T08:21:26Z</time>
      </trkpt>
      <trkpt lat="45.7512" lon="3.88194">
        <ele>859</ele>
        <time>2017-05-27T08:21:27Z</time>
      </trkpt>
      <trkpt lat="45.75116" lon="3.88181">
        <ele>858.5</ele>
        <time>2017-05-27T08:21:28Z</time>
      </trkpt>
      <trkpt lat="45.75112" lon="3.88168">
        <ele>857.900024</ele>
        <time>2017-05-27T08:21:29Z</time>
      </trkpt>
      <trkpt lat="45.75108" lon="3.88154">
        <ele>857.400024</ele>
        <time>2017-05-27T08:21:30Z</time>
      </trkpt>
      <trkpt lat="45.75104" lon="3.8814">
        <ele>856.200012</ele>
        <time>2017-05-27T08:21:31Z</time>
      </trkpt>
      <trkpt lat="45.75099" lon="3.88127">
        <ele>855.5</ele>
        <time>2017-05-27T08:21:32Z</time>
      </trkpt>
      <trkpt lat="45.75094" lon="3.88114">
        <ele>855</ele>
        <time>2017-05-27T08:21:33Z</time>
      </trkpt>
      <trkpt lat="45.75088" lon="3.88102">
        <ele>854.5</ele>
        <time>2017-05-27T08:21:34Z</time>
      </trkpt>
      <trkpt lat="45.75083" lon="3.88091">
        <ele>854.200012</ele>
        <time>2017-05-27T08:21:35Z</time>
      </trkpt>
      <trkpt lat="45.75072" lon="3.88071">
        <ele>853.5</ele>
        <time>2017-05-27T08:21:37Z</time>
      </trkpt>
      <trkpt lat="45.75063" lon="3.88055">
        <ele>853.200012</ele>
        <time>2017-05-27T08:21:39Z</time>
      </trkpt>
      <trkpt lat="45.75054" lon="3.88044">
        <ele>853.299988</ele>
        <time>2017-05-27T08:21:41Z</time>
      </trkpt>
      <trkpt lat="45.75045" lon="3.88031">
        <ele>853.799988</ele>
        <time>2017-05-27T08:21:44Z</time>
      </trkpt>
      <trkpt lat="45.75037" lon="3.8802">
        <ele>854.400024</ele>
        <time>2017-05-27T08:21:47Z</time>
      </trkpt>
      <trkpt lat="45.75029" lon="3.8801">
        <ele>854.900024</ele>
        <time>2017-05-27T08:21:50Z</time>
      </trkpt>
      <trkpt lat="45.75021" lon="3.87999">
        <ele>855.799988</ele>
        <time>2017-05-27T08:21:54Z</time>
      </trkpt>
      <trkpt lat="45.75013" lon="3.87989">
        <ele>856.400024</ele>
        <time>2017-05-27T08:21:58Z</time>
      </trkpt>
      <trkpt lat="45.75004" lon="3.87978">
        <ele>856.799988</ele>
        <time>2017-05-27T08:22:02Z</time>
      </trkpt>
      <trkpt lat="45.74996" lon="3.87968">
        <ele>857</ele>
        <time>2017-05-27T08:22:06Z</time>
      </trkpt>
      <trkpt lat="45.74987" lon="3.87958">
        <ele>857.200012</ele>
        <time>2017-05-27T08:22:10Z</time>
      </trkpt>
      <trkpt lat="45.74978" lon="3.87947">
        <ele>857.799988</ele>
        <time>2017-05-27T08:22:14Z</time>
      </trkpt>
      <trkpt lat="45.74969" lon="3.87937">
        <ele>858.099976</ele>
        <time>2017-05-27T08:22:18Z</time>
      </trkpt>
      <trkpt lat="45.74961" lon="3.87927">
        <ele>858.400024</ele>
        <time>2017-05-27T08:22:22Z</time>
      </trkpt>
      <trkpt lat="45.74953" lon="3.87917">
        <ele>858.599976</ele>
        <time>2017-05-27T08:22:26Z</time>
      </trkpt>
      <trkpt lat="45.74945" lon="3.87908">
        <ele>859.200012</ele>
        <time>2017-05-27T08:22:30Z</time>
      </trkpt>
      <trkpt lat="45.74937" lon="3.87897">
        <ele>859.5</ele>
        <time>2017-05-27T08:22:34Z</time>
      </trkpt>
      <trkpt lat="45.74929" lon="3.87888">
        <ele>860.099976</ele>
        <time>2017-05-27T08:22:38Z</time>
      </trkpt>
      <trkpt lat="45.74921" lon="3.87878">
        <ele>860.5</ele>
        <time>2017-05-27T08:22:42Z</time>
      </trkpt>
      <trkpt lat="45.74913" lon="3.87869">
        <ele>860.900024</ele>
        <time>2017-05-27T08:22:46Z</time>
      </trkpt>
      <trkpt lat="45.74904" lon="3.87859">
        <ele>861.400024</ele>
        <time>2017-05-27T08:22:50Z</time>
      </trkpt>
      <trkpt lat="45.74893" lon="3.87854">
        <ele>861.900024</ele>
        <time>2017-05-27T08:22:54Z</time>
      </trkpt>
      <trkpt lat="45.74882" lon="3.87858">
        <ele>862.200012</ele>
        <time>2017-05-27T08:22:58Z</time>
      </trkpt>
      <trkpt lat="45.74874" lon="3.87867">
        <ele>862.299988</ele>
        <time>2017-05-27T08:23:01Z</time>
      </trkpt>
      <trkpt lat="45.74869" lon="3.87879">
        <ele>862.5</ele>
        <time>2017-05-27T08:23:04Z</time>
      </trkpt>
      <trkpt lat="45.74868" lon="3.87892">
        <ele>862.799988</ele>
        <time>2017-05-27T08:23:07Z</time>
      </trkpt>
      <trkpt lat="45.7487" lon="3.87907">
        <ele>863.099976</ele>
        <time>2017-05-27T08:23:11Z</time>
      </trkpt>
      <trkpt lat="45.74874" lon="3.8792">
        <ele>863.700012</ele>
        <time>2017-05-27T08:23:15Z</time>
      </trkpt>
      <trkpt lat="45.74873" lon="3.87933">
        <ele>864.400024</ele>
        <time>2017-05-27T08:23:19Z</time>
      </trkpt>
      <trkpt lat="45.74864" lon="3.87939">
        <ele>865.200012</ele>
        <time>2017-05-27T08:23:24Z</time>
      </trkpt>
      <trkpt lat="45.74855" lon="3.87932">
        <ele>866</ele>
        <time>2017-05-27T08:23:29Z</time>
      </trkpt>
      <trkpt lat="45.74847" lon="3.87924">
        <ele>866.799988</ele>
        <time>2017-05-27T08:23:34Z</time>
      </trkpt>
      <trkpt lat="45.7484" lon="3.87913">
        <ele>867.5</ele>
        <time>2017-05-27T08:23:40Z</time>
      </trkpt>
      <trkpt lat="45.74832" lon="3.87905">
        <ele>868</ele>
        <time>2017-05-27T08:23:45Z</time>
      </trkpt>
      <trkpt lat="45.74824" lon="3.87895">
        <ele>868.900024</ele>
        <time>2017-05-27T08:23:51Z</time>
      </trkpt>
      <trkpt lat="45.74817" lon="3.87887">
        <ele>869.400024</ele>
        <time>2017-05-27T08:23:56Z</time>
      </trkpt>
      <trkpt lat="45.74809" lon="3.87879">
        <ele>870.200012</ele>
        <time>2017-05-27T08:24:01Z</time>
      </trkpt>
      <trkpt lat="45.74801" lon="3.87871">
        <ele>871.200012</ele>
        <time>2017-05-27T08:24:06Z</time>
      </trkpt>
      <trkpt lat="45.74792" lon="3.87864">
        <ele>872</ele>
        <time>2017-05-27T08:24:11Z</time>
      </trkpt>
      <trkpt lat="45.74784" lon="3.8786">
        <ele>872.799988</ele>
        <time>2017-05-27T08:24:16Z</time>
      </trkpt>
      <trkpt lat="45.74775" lon="3.87855">
        <ele>873.200012</ele>
        <time>2017-05-27T08:24:21Z</time>
      </trkpt>
      <trkpt lat="45.74765" lon="3.87851">
        <ele>874</ele>
        <time>2017-05-27T08:24:26Z</time>
      </trkpt>
      <trkpt lat="45.74756" lon="3.87847">
        <ele>874.799988</ele>
        <time>2017-05-27T08:24:31Z</time>
      </trkpt>
      <trkpt lat="45.74747" lon="3.87843">
        <ele>875.5</ele>
        <time>2017-05-27T08:24:36Z</time>
      </trkpt>
      <trkpt lat="45.74739" lon="3.87838">
        <ele>876</ele>
        <time>2017-05-27T08:24:41Z</time>
      </trkpt>
      <trkpt lat="45.7473" lon="3.87834">
        <ele>876.599976</ele>
        <time>2017-05-27T08:24:46Z</time>
      </trkpt>
      <trkpt lat="45.74721" lon="3.87829">
        <ele>877.200012</ele>
        <time>2017-05-27T08:24:51Z</time>
      </trkpt>
      <trkpt lat="45.74711" lon="3.87823">
        <ele>878.099976</ele>
        <time>2017-05-27T08:24:57Z</time>
      </trkpt>
      <trkpt lat="45.74704" lon="3.87814">
        <ele>878.900024</ele>
        <time>2017-05-27T08:25:02Z</time>
      </trkpt>
      <trkpt lat="45.74702" lon="3.878">
        <ele>879.700012</ele>
        <time>2017-05-27T08:25:07Z</time>
      </trkpt>
      <trkpt lat="45.74705" lon="3.87786">
        <ele>880</ele>
        <time>2017-05-27T08:25:12Z</time>
      </trkpt>
      <trkpt lat="45.74713" lon="3.87776">
        <ele>880.400024</ele>
        <time>2017-05-27T08:25:17Z</time>
      </trkpt>
      <trkpt lat="45.74721" lon="3.87768">
        <ele>881</ele>
        <time>2017-05-27T08:25:22Z</time>
      </trkpt>
      <trkpt lat="45.7473" lon="3.87763">
        <ele>881.599976</ele>
        <time>2017-05-27T08:25:27Z</time>
      </trkpt>
      <trkpt lat="45.74739" lon="3.87762">
        <ele>882.200012</ele>
        <time>2017-05-27T08:25:32Z</time>
      </trkpt>
      <trkpt lat="45.74749" lon="3.87758">
        <ele>882.900024</ele>
        <time>2017-05-27T08:25:37Z</time>
      </trkpt>
      <trkpt lat="45.74758" lon="3.8775">
        <ele>883.400024</ele>
        <time>2017-05-27T08:25:42Z</time>
      </trkpt>
      <trkpt lat="45.74765" lon="3.87739">
        <ele>884.099976</ele>
        <time>2017-05-27T08:25:47Z</time>
      </trkpt>
      <trkpt lat="45.74771" lon="3.87728">
        <ele>884.599976</ele>
        <time>2017-05-27T08:25:53Z</time>
      </trkpt>
      <trkpt lat="45.74777" lon="3.87718">
        <ele>885</ele>
        <time>2017-05-27T08:25:58Z</time>
      </trkpt>
      <trkpt lat="45.74783" lon="3.87705">
        <ele>885.400024</ele>
        <time>2017-05-27T08:26:03Z</time>
      </trkpt>
      <trkpt lat="45.74788" lon="3.87692">
        <ele>886.099976</ele>
        <time>2017-05-27T08:26:08Z</time>
      </trkpt>
      <trkpt lat="45.74793" lon="3.87681">
        <ele>887</ele>
        <time>2017-05-27T08:26:13Z</time>
      </trkpt>
      <trkpt lat="45.74798" lon="3.87668">
        <ele>887.700012</ele>
        <time>2017-05-27T08:26:18Z</time>
      </trkpt>
      <trkpt lat="45.74799" lon="3.87655">
        <ele>888.299988</ele>
        <time>2017-05-27T08:26:23Z</time>
      </trkpt>
      <trkpt lat="45.74799" lon="3.87639">
        <ele>888.799988</ele>
        <time>2017-05-27T08:26:28Z</time>
      </trkpt>
      <trkpt lat="45.74798" lon="3.87624">
        <ele>889.400024</ele>
        <time>2017-05-27T08:26:33Z</time>
      </trkpt>
      <trkpt lat="45.748" lon="3.87611">
        <ele>890</ele>
        <time>2017-05-27T08:26:38Z</time>
      </trkpt>
      <trkpt lat="45.74803" lon="3.87596">
        <ele>891</ele>
        <time>2017-05-27T08:26:44Z</time>
      </trkpt>
      <trkpt lat="45.74806" lon="3.87584">
        <ele>891.900024</ele>
        <time>2017-05-27T08:26:49Z</time>
      </trkpt>
      <trkpt lat="45.74811" lon="3.87571">
        <ele>892.900024</ele>
        <time>2017-05-27T08:26:54Z</time>
      </trkpt>
      <trkpt lat="45.74819" lon="3.87559">
        <ele>893.5</ele>
        <time>2017-05-27T08:26:59Z</time>
      </trkpt>
      <trkpt lat="45.74827" lon="3.87551">
        <ele>894.099976</ele>
        <time>2017-05-27T08:27:03Z</time>
      </trkpt>
      <trkpt lat="45.74834" lon="3.87543">
        <ele>894.799988</ele>
        <time>2017-05-27T08:27:07Z</time>
      </trkpt>
      <trkpt lat="45.74844" lon="3.87536">
        <ele>895.200012</ele>
        <time>2017-05-27T08:27:13Z</time>
      </trkpt>
      <trkpt lat="45.74854" lon="3.87532">
        <ele>896.200012</ele>
        <time>2017-05-27T08:27:19Z</time>
      </trkpt>
      <trkpt lat="45.74864" lon="3.87532">
        <ele>897</ele>
        <time>2017-05-27T08:27:25Z</time>
      </trkpt>
      <trkpt lat="45.74874" lon="3.87534">
        <ele>897.799988</ele>
        <time>2017-05-27T08:27:30Z</time>
      </trkpt>
      <trkpt lat="45.74883" lon="3.87534">
        <ele>898.599976</ele>
        <time>2017-05-27T08:27:35Z</time>
      </trkpt>
      <trkpt lat="45.74893" lon="3.87537">
        <ele>899.299988</ele>
        <time>2017-05-27T08:27:40Z</time>
      </trkpt>
      <trkpt lat="45.74902" lon="3.87539">
        <ele>899.900024</ele>
        <time>2017-05-27T08:27:45Z</time>
      </trkpt>
      <trkpt lat="45.74912" lon="3.87545">
        <ele>900.299988</ele>
        <time>2017-05-27T08:27:49Z</time>
      </trkpt>
      <trkpt lat="45.74921" lon="3.8755">
        <ele>900.700012</ele>
        <time>2017-05-27T08:27:54Z</time>
      </trkpt>
      <trkpt lat="45.7493" lon="3.87556">
        <ele>901.299988</ele>
        <time>2017-05-27T08:27:58Z</time>
      </trkpt>
      <trkpt lat="45.74938" lon="3.87561">
        <ele>902.599976</ele>
        <time>2017-05-27T08:28:04Z</time>
      </trkpt>
      <trkpt lat="45.74947" lon="3.8757">
        <ele>903.700012</ele>
        <time>2017-05-27T08:28:10Z</time>
      </trkpt>
      <trkpt lat="45.74955" lon="3.87577">
        <ele>904.099976</ele>
        <time>2017-05-27T08:28:13Z</time>
      </trkpt>
      <trkpt lat="45.74964" lon="3.87584">
        <ele>904.599976</ele>
        <time>2017-05-27T08:28:17Z</time>
      </trkpt>
      <trkpt lat="45.74974" lon="3.8759">
        <ele>905.299988</ele>
        <time>2017-05-27T08:28:22Z</time>
      </trkpt>
      <trkpt lat="45.74984" lon="3.87595">
        <ele>906</ele>
        <time>2017-05-27T08:28:27Z</time>
      </trkpt>
      <trkpt lat="45.74994" lon="3.87601">
        <ele>906.700012</ele>
        <time>2017-05-27T08:28:32Z</time>
      </trkpt>
      <trkpt lat="45.75004" lon="3.87604">
        <ele>907.299988</ele>
        <time>2017-05-27T08:28:37Z</time>
      </trkpt>
      <trkpt lat="45.75014" lon="3.87606">
        <ele>908.099976</ele>
        <time>2017-05-27T08:28:43Z</time>
      </trkpt>
      <trkpt lat="45.75024" lon="3.87611">
        <ele>908.900024</ele>
        <time>2017-05-27T08:28:49Z</time>
      </trkpt>
      <trkpt lat="45.75035" lon="3.87613">
        <ele>909.5</ele>
        <time>2017-05-27T08:28:54Z</time>
      </trkpt>
      <trkpt lat="45.75046" lon="3.87609">
        <ele>910.299988</ele>
        <time>2017-05-27T08:28:58Z</time>
      </trkpt>
      <trkpt lat="45.75046" lon="3.87594">
        <ele>911.599976</ele>
        <time>2017-05-27T08:29:04Z</time>
      </trkpt>
      <trkpt lat="45.75038" lon="3.87586">
        <ele>912.700012</ele>
        <time>2017-05-27T08:29:09Z</time>
      </trkpt>
      <trkpt lat="45.75029" lon="3.87585">
        <ele>913.200012</ele>
        <time>2017-05-27T08:29:14Z</time>
      </trkpt>
      <trkpt lat="45.7502" lon="3.87576">
        <ele>913.700012</ele>
        <time>2017-05-27T08:29:18Z</time>
      </trkpt>
      <trkpt lat="45.75011" lon="3.87568">
        <ele>914.5</ele>
        <time>2017-05-27T08:29:23Z</time>
      </trkpt>
      <trkpt lat="45.75006" lon="3.87557">
        <ele>915.200012</ele>
        <time>2017-05-27T08:29:28Z</time>
      </trkpt>
      <trkpt lat="45.74999" lon="3.87545">
        <ele>915.700012</ele>
        <time>2017-05-27T08:29:34Z</time>
      </trkpt>
      <trkpt lat="45.74994" lon="3.87534">
        <ele>916.299988</ele>
        <time>2017-05-27T08:29:37Z</time>
      </trkpt>
      <trkpt lat="45.74989" lon="3.87521">
        <ele>916.900024</ele>
        <time>2017-05-27T08:29:41Z</time>
      </trkpt>
      <trkpt lat="45.74985" lon="3.8751">
        <ele>917.599976</ele>
        <time>2017-05-27T08:29:45Z</time>
      </trkpt>
      <trkpt lat="45.74981" lon="3.87496">
        <ele>918</ele>
        <time>2017-05-27T08:29:49Z</time>
      </trkpt>
      <trkpt lat="45.74976" lon="3.87485">
        <ele>918.799988</ele>
        <time>2017-05-27T08:29:53Z</time>
      </trkpt>
      <trkpt lat="45.7497" lon="3.87474">
        <ele>919.5</ele>
        <time>2017-05-27T08:29:57Z</time>
      </trkpt>
      <trkpt lat="45.74962" lon="3.87463">
        <ele>920.299988</ele>
        <time>2017-05-27T08:30:03Z</time>
      </trkpt>
      <trkpt lat="45.74954" lon="3.87456">
        <ele>921.200012</ele>
        <time>2017-05-27T08:30:09Z</time>
      </trkpt>
      <trkpt lat="45.74937" lon="3.87435">
        <ele>922.900024</ele>
        <time>2017-05-27T08:40:13Z</time>
      </trkpt>
      <trkpt lat="45.74928" lon="3.8743">
        <ele>923.5</ele>
        <time>2017-05-27T08:40:18Z</time>
      </trkpt>
      <trkpt lat="45.74918" lon="3.87425">
        <ele>924.200012</ele>
        <time>2017-05-27T08:40:23Z</time>
      </trkpt>
      <trkpt lat="45.74911" lon="3.87415">
        <ele>924.700012</ele>
        <time>2017-05-27T08:40:29Z</time>
      </trkpt>
      <trkpt lat="45.74903" lon="3.87406">
        <ele>925.5</ele>
        <time>2017-05-27T08:40:35Z</time>
      </trkpt>
      <trkpt lat="45.74895" lon="3.87397">
        <ele>926.200012</ele>
        <time>2017-05-27T08:40:41Z</time>
      </trkpt>
      <trkpt lat="45.74888" lon="3.87387">
        <ele>927.200012</ele>
        <time>2017-05-27T08:40:48Z</time>
      </trkpt>
      <trkpt lat="45.74879" lon="3.87381">
        <ele>928</ele>
        <time>2017-05-27T08:40:53Z</time>
      </trkpt>
      <trkpt lat="45.7487" lon="3.87374">
        <ele>928.400024</ele>
        <time>2017-05-27T08:40:59Z</time>
      </trkpt>
      <trkpt lat="45.74862" lon="3.87365">
        <ele>929.099976</ele>
        <time>2017-05-27T08:41:04Z</time>
      </trkpt>
      <trkpt lat="45.74854" lon="3.87359">
        <ele>930</ele>
        <time>2017-05-27T08:41:09Z</time>
      </trkpt>
      <trkpt lat="45.74846" lon="3.87351">
        <ele>930.700012</ele>
        <time>2017-05-27T08:41:14Z</time>
      </trkpt>
      <trkpt lat="45.74837" lon="3.87344">
        <ele>931.5</ele>
        <time>2017-05-27T08:41:19Z</time>
      </trkpt>
      <trkpt lat="45.74828" lon="3.8734">
        <ele>932.200012</ele>
        <time>2017-05-27T08:41:24Z</time>
      </trkpt>
      <trkpt lat="45.74817" lon="3.87334">
        <ele>932.900024</ele>
        <time>2017-05-27T08:41:29Z</time>
      </trkpt>
      <trkpt lat="45.74807" lon="3.87331">
        <ele>934</ele>
        <time>2017-05-27T08:41:35Z</time>
      </trkpt>
      <trkpt lat="45.74797" lon="3.87325">
        <ele>934.799988</ele>
        <time>2017-05-27T08:41:41Z</time>
      </trkpt>
      <trkpt lat="45.74788" lon="3.87321">
        <ele>935.400024</ele>
        <time>2017-05-27T08:41:46Z</time>
      </trkpt>
      <trkpt lat="45.74779" lon="3.87318">
        <ele>936.299988</ele>
        <time>2017-05-27T08:41:51Z</time>
      </trkpt>
      <trkpt lat="45.7477" lon="3.87314">
        <ele>937.299988</ele>
        <time>2017-05-27T08:41:56Z</time>
      </trkpt>
      <trkpt lat="45.7476" lon="3.87313">
        <ele>938</ele>
        <time>2017-05-27T08:42:01Z</time>
      </trkpt>
      <trkpt lat="45.74751" lon="3.87311">
        <ele>939</ele>
        <time>2017-05-27T08:42:06Z</time>
      </trkpt>
      <trkpt lat="45.74741" lon="3.87311">
        <ele>940</ele>
        <time>2017-05-27T08:42:12Z</time>
      </trkpt>
      <trkpt lat="45.7473" lon="3.87311">
        <ele>941.200012</ele>
        <time>2017-05-27T08:42:19Z</time>
      </trkpt>
      <trkpt lat="45.74721" lon="3.87312">
        <ele>941.900024</ele>
        <time>2017-05-27T08:42:24Z</time>
      </trkpt>
      <trkpt lat="45.7471" lon="3.87314">
        <ele>943</ele>
        <time>2017-05-27T08:42:31Z</time>
      </trkpt>
      <trkpt lat="45.747" lon="3.87317">
        <ele>943.799988</ele>
        <time>2017-05-27T08:42:36Z</time>
      </trkpt>
      <trkpt lat="45.74689" lon="3.8732">
        <ele>944.299988</ele>
        <time>2017-05-27T08:42:41Z</time>
      </trkpt>
      <trkpt lat="45.74678" lon="3.87322">
        <ele>945.200012</ele>
        <time>2017-05-27T08:42:47Z</time>
      </trkpt>
      <trkpt lat="45.74667" lon="3.87321">
        <ele>946.200012</ele>
        <time>2017-05-27T08:42:52Z</time>
      </trkpt>
      <trkpt lat="45.74658" lon="3.87317">
        <ele>947.200012</ele>
        <time>2017-05-27T08:42:58Z</time>
      </trkpt>
      <trkpt lat="45.74645" lon="3.87319">
        <ele>948</ele>
        <time>2017-05-27T08:43:03Z</time>
      </trkpt>
      <trkpt lat="45.74636" lon="3.87322">
        <ele>948.599976</ele>
        <time>2017-05-27T08:43:07Z</time>
      </trkpt>
      <trkpt lat="45.74627" lon="3.87324">
        <ele>949.5</ele>
        <time>2017-05-27T08:43:12Z</time>
      </trkpt>
      <trkpt lat="45.74617" lon="3.87327">
        <ele>950.200012</ele>
        <time>2017-05-27T08:43:18Z</time>
      </trkpt>
      <trkpt lat="45.74605" lon="3.87327">
        <ele>950.900024</ele>
        <time>2017-05-27T08:43:22Z</time>
      </trkpt>
      <trkpt lat="45.74596" lon="3.87333">
        <ele>952</ele>
        <time>2017-05-27T08:43:27Z</time>
      </trkpt>
      <trkpt lat="45.74588" lon="3.8734">
        <ele>952.900024</ele>
        <time>2017-05-27T08:43:32Z</time>
      </trkpt>
      <trkpt lat="45.74579" lon="3.87346">
        <ele>953.799988</ele>
        <time>2017-05-27T08:43:36Z</time>
      </trkpt>
      <trkpt lat="45.74568" lon="3.87348">
        <ele>954.700012</ele>
        <time>2017-05-27T08:43:41Z</time>
      </trkpt>
      <trkpt lat="45.74557" lon="3.87352">
        <ele>955.5</ele>
        <time>2017-05-27T08:43:46Z</time>
      </trkpt>
      <trkpt lat="45.74548" lon="3.87358">
        <ele>956.5</ele>
        <time>2017-05-27T08:43:51Z</time>
      </trkpt>
      <trkpt lat="45.74539" lon="3.87363">
        <ele>957.200012</ele>
        <time>2017-05-27T08:43:55Z</time>
      </trkpt>
      <trkpt lat="45.74528" lon="3.87367">
        <ele>957.900024</ele>
        <time>2017-05-27T08:44:00Z</time>
      </trkpt>
      <trkpt lat="45.74518" lon="3.87371">
        <ele>959</ele>
        <time>2017-05-27T08:44:06Z</time>
      </trkpt>
      <trkpt lat="45.74508" lon="3.87372">
        <ele>959.5</ele>
        <time>2017-05-27T08:44:10Z</time>
      </trkpt>
      <trkpt lat="45.74498" lon="3.87374">
        <ele>960.200012</ele>
        <time>2017-05-27T08:44:16Z</time>
      </trkpt>
      <trkpt lat="45.74488" lon="3.87376">
        <ele>961.099976</ele>
        <time>2017-05-27T08:44:22Z</time>
      </trkpt>
      <trkpt lat="45.74477" lon="3.87379">
        <ele>962</ele>
        <time>2017-05-27T08:44:28Z</time>
      </trkpt>
      <trkpt lat="45.74467" lon="3.87382">
        <ele>962.799988</ele>
        <time>2017-05-27T08:44:33Z</time>
      </trkpt>
      <trkpt lat="45.74457" lon="3.87387">
        <ele>963.599976</ele>
        <time>2017-05-27T08:44:38Z</time>
      </trkpt>
      <trkpt lat="45.74448" lon="3.87392">
        <ele>964.700012</ele>
        <time>2017-05-27T08:44:43Z</time>
      </trkpt>
      <trkpt lat="45.74438" lon="3.87397">
        <ele>965.599976</ele>
        <time>2017-05-27T08:44:49Z</time>
      </trkpt>
      <trkpt lat="45.74428" lon="3.87398">
        <ele>966.200012</ele>
        <time>2017-05-27T08:44:54Z</time>
      </trkpt>
      <trkpt lat="45.74418" lon="3.87399">
        <ele>967.099976</ele>
        <time>2017-05-27T08:44:59Z</time>
      </trkpt>
      <trkpt lat="45.74408" lon="3.87398">
        <ele>967.700012</ele>
        <time>2017-05-27T08:45:04Z</time>
      </trkpt>
      <trkpt lat="45.74399" lon="3.87398">
        <ele>968.400024</ele>
        <time>2017-05-27T08:45:08Z</time>
      </trkpt>
      <trkpt lat="45.74388" lon="3.87397">
        <ele>969.200012</ele>
        <time>2017-05-27T08:45:13Z</time>
      </trkpt>
      <trkpt lat="45.74377" lon="3.87401">
        <ele>970.200012</ele>
        <time>2017-05-27T08:45:18Z</time>
      </trkpt>
      <trkpt lat="45.74368" lon="3.87406">
        <ele>970.900024</ele>
        <time>2017-05-27T08:45:23Z</time>
      </trkpt>
      <trkpt lat="45.7436" lon="3.87413">
        <ele>971.700012</ele>
        <time>2017-05-27T08:45:28Z</time>
      </trkpt>
      <trkpt lat="45.74351" lon="3.87422">
        <ele>972.599976</ele>
        <time>2017-05-27T08:45:33Z</time>
      </trkpt>
      <trkpt lat="45.74344" lon="3.87429">
        <ele>973</ele>
        <time>2017-05-27T08:45:37Z</time>
      </trkpt>
      <trkpt lat="45.74336" lon="3.87437">
        <ele>973.599976</ele>
        <time>2017-05-27T08:45:41Z</time>
      </trkpt>
      <trkpt lat="45.74327" lon="3.87447">
        <ele>974.299988</ele>
        <time>2017-05-27T08:45:46Z</time>
      </trkpt>
      <trkpt lat="45.7432" lon="3.87455">
        <ele>974.900024</ele>
        <time>2017-05-27T08:45:50Z</time>
      </trkpt>
      <trkpt lat="45.74312" lon="3.87465">
        <ele>975.599976</ele>
        <time>2017-05-27T08:45:54Z</time>
      </trkpt>
      <trkpt lat="45.74304" lon="3.87476">
        <ele>976.400024</ele>
        <time>2017-05-27T08:45:59Z</time>
      </trkpt>
      <trkpt lat="45.74294" lon="3.87484">
        <ele>977.299988</ele>
        <time>2017-05-27T08:46:04Z</time>
      </trkpt>
      <trkpt lat="45.74286" lon="3.8749">
        <ele>977.900024</ele>
        <time>2017-05-27T08:46:08Z</time>
      </trkpt>
      <trkpt lat="45.74276" lon="3.87496">
        <ele>978.799988</ele>
        <time>2017-05-27T08:46:13Z</time>
      </trkpt>
      <trkpt lat="45.74267" lon="3.87504">
        <ele>979.700012</ele>
        <time>2017-05-27T08:46:18Z</time>
      </trkpt>
      <trkpt lat="45.74258" lon="3.87514">
        <ele>980.299988</ele>
        <time>2017-05-27T08:46:23Z</time>
      </trkpt>
      <trkpt lat="45.74251" lon="3.87524">
        <ele>981.200012</ele>
        <time>2017-05-27T08:46:28Z</time>
      </trkpt>
      <trkpt lat="45.74245" lon="3.87535">
        <ele>981.900024</ele>
        <time>2017-05-27T08:46:33Z</time>
      </trkpt>
      <trkpt lat="45.74238" lon="3.87545">
        <ele>982.700012</ele>
        <time>2017-05-27T08:46:37Z</time>
      </trkpt>
      <trkpt lat="45.7423" lon="3.87557">
        <ele>983.599976</ele>
        <time>2017-05-27T08:46:42Z</time>
      </trkpt>
      <trkpt lat="45.74222" lon="3.87569">
        <ele>984.700012</ele>
        <time>2017-05-27T08:46:47Z</time>
      </trkpt>
      <trkpt lat="45.74218" lon="3.87582">
        <ele>985.599976</ele>
        <time>2017-05-27T08:46:52Z</time>
      </trkpt>
      <trkpt lat="45.74211" lon="3.87591">
        <ele>986.299988</ele>
        <time>2017-05-27T08:46:56Z</time>
      </trkpt>
      <trkpt lat="45.74203" lon="3.87601">
        <ele>986.700012</ele>
        <time>2017-05-27T08:47:00Z</time>
      </trkpt>
      <trkpt lat="45.74197" lon="3.87613">
        <ele>987.599976</ele>
        <time>2017-05-27T08:47:05Z</time>
      </trkpt>
      <trkpt lat="45.7419" lon="3.87624">
        <ele>988.5</ele>
        <time>2017-05-27T08:47:10Z</time>
      </trkpt>
      <trkpt lat="45.74183" lon="3.87637">
        <ele>989.400024</ele>
        <time>2017-05-27T08:47:15Z</time>
      </trkpt>
      <trkpt lat="45.74176" lon="3.87647">
        <ele>990.200012</ele>
        <time>2017-05-27T08:47:19Z</time>
      </trkpt>
      <trkpt lat="45.74169" lon="3.87657">
        <ele>990.799988</ele>
        <time>2017-05-27T08:47:23Z</time>
      </trkpt>
      <trkpt lat="45.74162" lon="3.87668">
        <ele>991.700012</ele>
        <time>2017-05-27T08:47:28Z</time>
      </trkpt>
      <trkpt lat="45.74156" lon="3.87682">
        <ele>992.700012</ele>
        <time>2017-05-27T08:47:33Z</time>
      </trkpt>
      <trkpt lat="45.74151" lon="3.87696">
        <ele>993.400024</ele>
        <time>2017-05-27T08:47:37Z</time>
      </trkpt>
      <trkpt lat="45.74146" lon="3.87711">
        <ele>994.299988</ele>
        <time>2017-05-27T08:47:41Z</time>
      </trkpt>
      <trkpt lat="45.74144" lon="3.87725">
        <ele>995</ele>
        <time>2017-05-27T08:47:45Z</time>
      </trkpt>
      <trkpt lat="45.74143" lon="3.87739">
        <ele>995.700012</ele>
        <time>2017-05-27T08:47:49Z</time>
      </trkpt>
      <trkpt lat="45.74145" lon="3.87753">
        <ele>996.299988</ele>
        <time>2017-05-27T08:47:53Z</time>
      </trkpt>
      <trkpt lat="45.74149" lon="3.87766">
        <ele>996.900024</ele>
        <time>2017-05-27T08:47:57Z</time>
      </trkpt>
      <trkpt lat="45.74153" lon="3.87777">
        <ele>997.599976</ele>
        <time>2017-05-27T08:48:01Z</time>
      </trkpt>
      <trkpt lat="45.74159" lon="3.8779">
        <ele>998.299988</ele>
        <time>2017-05-27T08:48:06Z</time>
      </trkpt>
      <trkpt lat="45.74165" lon="3.87802">
        <ele>999.200012</ele>
        <time>2017-05-27T08:48:12Z</time>
      </trkpt>
      <trkpt lat="45.74169" lon="3.87815">
        <ele>1000</ele>
        <time>2017-05-27T08:48:18Z</time>
      </trkpt>
      <trkpt lat="45.74175" lon="3.87828">
        <ele>1000.799988</ele>
        <time>2017-05-27T08:48:23Z</time>
      </trkpt>
      <trkpt lat="45.74182" lon="3.87836">
        <ele>1001.299988</ele>
        <time>2017-05-27T08:48:26Z</time>
      </trkpt>
      <trkpt lat="45.74189" lon="3.87845">
        <ele>1001.900024</ele>
        <time>2017-05-27T08:48:30Z</time>
      </trkpt>
      <trkpt lat="45.74197" lon="3.87855">
        <ele>1002.700012</ele>
        <time>2017-05-27T08:48:34Z</time>
      </trkpt>
      <trkpt lat="45.74205" lon="3.87864">
        <ele>1003.299988</ele>
        <time>2017-05-27T08:48:38Z</time>
      </trkpt>
      <trkpt lat="45.74205" lon="3.8788">
        <ele>1004.200012</ele>
        <time>2017-05-27T08:48:43Z</time>
      </trkpt>
      <trkpt lat="45.74195" lon="3.87884">
        <ele>1005.299988</ele>
        <time>2017-05-27T08:48:49Z</time>
      </trkpt>
      <trkpt lat="45.74185" lon="3.87883">
        <ele>1006.599976</ele>
        <time>2017-05-27T08:48:54Z</time>
      </trkpt>
      <trkpt lat="45.74175" lon="3.8788">
        <ele>1007.5</ele>
        <time>2017-05-27T08:48:59Z</time>
      </trkpt>
      <trkpt lat="45.74164" lon="3.8788">
        <ele>1008.200012</ele>
        <time>2017-05-27T08:49:04Z</time>
      </trkpt>
      <trkpt lat="45.74154" lon="3.8788">
        <ele>1008.900024</ele>
        <time>2017-05-27T08:49:09Z</time>
      </trkpt>
      <trkpt lat="45.74145" lon="3.87878">
        <ele>1009.400024</ele>
        <time>2017-05-27T08:49:13Z</time>
      </trkpt>
      <trkpt lat="45.74136" lon="3.87877">
        <ele>1010.200012</ele>
        <time>2017-05-27T08:49:17Z</time>
      </trkpt>
      <trkpt lat="45.74126" lon="3.87874">
        <ele>1010.700012</ele>
        <time>2017-05-27T08:49:21Z</time>
      </trkpt>
      <trkpt lat="45.74116" lon="3.8787">
        <ele>1011.900024</ele>
        <time>2017-05-27T08:49:26Z</time>
      </trkpt>
      <trkpt lat="45.74107" lon="3.87869">
        <ele>1012.700012</ele>
        <time>2017-05-27T08:49:30Z</time>
      </trkpt>
      <trkpt lat="45.74095" lon="3.87867">
        <ele>1013.5</ele>
        <time>2017-05-27T08:49:35Z</time>
      </trkpt>
      <trkpt lat="45.74086" lon="3.87866">
        <ele>1014.299988</ele>
        <time>2017-05-27T08:49:40Z</time>
      </trkpt>
      <trkpt lat="45.74074" lon="3.87861">
        <ele>1014.599976</ele>
        <time>2017-05-27T08:49:44Z</time>
      </trkpt>
      <trkpt lat="45.74065" lon="3.87855">
        <ele>1015</ele>
        <time>2017-05-27T08:49:47Z</time>
      </trkpt>
      <trkpt lat="45.74057" lon="3.87849">
        <ele>1015.5</ele>
        <time>2017-05-27T08:49:50Z</time>
      </trkpt>
      <trkpt lat="45.74049" lon="3.87842">
        <ele>1015.900024</ele>
        <time>2017-05-27T08:49:53Z</time>
      </trkpt>
      <trkpt lat="45.74039" lon="3.87834">
        <ele>1016.299988</ele>
        <time>2017-05-27T08:49:57Z</time>
      </trkpt>
      <trkpt lat="45.74029" lon="3.87826">
        <ele>1016.700012</ele>
        <time>2017-05-27T08:50:01Z</time>
      </trkpt>
      <trkpt lat="45.74019" lon="3.87818">
        <ele>1017.299988</ele>
        <time>2017-05-27T08:50:05Z</time>
      </trkpt>
      <trkpt lat="45.7401" lon="3.87809">
        <ele>1018.400024</ele>
        <time>2017-05-27T08:50:10Z</time>
      </trkpt>
      <trkpt lat="45.74002" lon="3.87802">
        <ele>1019.200012</ele>
        <time>2017-05-27T08:50:14Z</time>
      </trkpt>
      <trkpt lat="45.73994" lon="3.87794">
        <ele>1020.299988</ele>
        <time>2017-05-27T08:50:19Z</time>
      </trkpt>
      <trkpt lat="45.73986" lon="3.87784">
        <ele>1021.799988</ele>
        <time>2017-05-27T08:50:24Z</time>
      </trkpt>
      <trkpt lat="45.73978" lon="3.87778">
        <ele>1023.099976</ele>
        <time>2017-05-27T08:50:28Z</time>
      </trkpt>
      <trkpt lat="45.7397" lon="3.8777">
        <ele>1024.199951</ele>
        <time>2017-05-27T08:50:32Z</time>
      </trkpt>
      <trkpt lat="45.73963" lon="3.87762">
        <ele>1025.199951</ele>
        <time>2017-05-27T08:50:36Z</time>
      </trkpt>
      <trkpt lat="45.73955" lon="3.87753">
        <ele>1026.099976</ele>
        <time>2017-05-27T08:50:40Z</time>
      </trkpt>
      <trkpt lat="45.73946" lon="3.87749">
        <ele>1027</ele>
        <time>2017-05-27T08:50:44Z</time>
      </trkpt>
      <trkpt lat="45.73939" lon="3.87754">
        <ele>982.860779</ele>
        <time>2017-05-27T08:50:49Z</time>
      </trkpt>
      <trkpt lat="45.73935" lon="3.87756">
        <ele>1028.300049</ele>
        <time>2017-05-27T08:52:40Z</time>
      </trkpt>
      <trkpt lat="45.73934" lon="3.87772">
        <ele>1028.5</ele>
        <time>2017-05-27T08:52:45Z</time>
      </trkpt>
      <trkpt lat="45.73933" lon="3.87786">
        <ele>1028.800049</ele>
        <time>2017-05-27T08:52:49Z</time>
      </trkpt>
      <trkpt lat="45.73934" lon="3.87801">
        <ele>1028.800049</ele>
        <time>2017-05-27T08:52:53Z</time>
      </trkpt>
      <trkpt lat="45.73935" lon="3.87814">
        <ele>1028.900024</ele>
        <time>2017-05-27T08:52:56Z</time>
      </trkpt>
      <trkpt lat="45.73937" lon="3.87829">
        <ele>1028.900024</ele>
        <time>2017-05-27T08:52:59Z</time>
      </trkpt>
      <trkpt lat="45.73941" lon="3.87847">
        <ele>1028.800049</ele>
        <time>2017-05-27T08:53:02Z</time>
      </trkpt>
      <trkpt lat="45.73945" lon="3.87859">
        <ele>1028.699951</ele>
        <time>2017-05-27T08:53:04Z</time>
      </trkpt>
      <trkpt lat="45.73949" lon="3.87871">
        <ele>1028.599976</ele>
        <time>2017-05-27T08:53:06Z</time>
      </trkpt>
      <trkpt lat="45.73956" lon="3.87887">
        <ele>1028.099976</ele>
        <time>2017-05-27T08:53:09Z</time>
      </trkpt>
      <trkpt lat="45.73964" lon="3.87899">
        <ele>1028.099976</ele>
        <time>2017-05-27T08:53:12Z</time>
      </trkpt>
      <trkpt lat="45.73972" lon="3.87909">
        <ele>1028.199951</ele>
        <time>2017-05-27T08:53:15Z</time>
      </trkpt>
      <trkpt lat="45.73979" lon="3.8792">
        <ele>1028.5</ele>
        <time>2017-05-27T08:53:18Z</time>
      </trkpt>
      <trkpt lat="45.73987" lon="3.8793">
        <ele>1029.300049</ele>
        <time>2017-05-27T08:53:22Z</time>
      </trkpt>
      <trkpt lat="45.73997" lon="3.87936">
        <ele>1030.5</ele>
        <time>2017-05-27T08:53:27Z</time>
      </trkpt>
      <trkpt lat="45.74006" lon="3.87944">
        <ele>1031.699951</ele>
        <time>2017-05-27T08:53:32Z</time>
      </trkpt>
      <trkpt lat="45.74015" lon="3.87951">
        <ele>1032.5</ele>
        <time>2017-05-27T08:53:36Z</time>
      </trkpt>
      <trkpt lat="45.74024" lon="3.87959">
        <ele>1033.199951</ele>
        <time>2017-05-27T08:53:40Z</time>
      </trkpt>
      <trkpt lat="45.74034" lon="3.87966">
        <ele>1034</ele>
        <time>2017-05-27T08:53:44Z</time>
      </trkpt>
      <trkpt lat="45.74043" lon="3.87972">
        <ele>1034.599976</ele>
        <time>2017-05-27T08:53:48Z</time>
      </trkpt>
      <trkpt lat="45.74052" lon="3.87981">
        <ele>1035.199951</ele>
        <time>2017-05-27T08:53:53Z</time>
      </trkpt>
      <trkpt lat="45.74063" lon="3.8799">
        <ele>1035.800049</ele>
        <time>2017-05-27T08:53:57Z</time>
      </trkpt>
      <trkpt lat="45.74071" lon="3.88001">
        <ele>1036.400024</ele>
        <time>2017-05-27T08:54:01Z</time>
      </trkpt>
      <trkpt lat="45.7408" lon="3.88011">
        <ele>1037.199951</ele>
        <time>2017-05-27T08:54:06Z</time>
      </trkpt>
      <trkpt lat="45.74088" lon="3.88022">
        <ele>1037.900024</ele>
        <time>2017-05-27T08:54:10Z</time>
      </trkpt>
      <trkpt lat="45.74097" lon="3.88034">
        <ele>1038.800049</ele>
        <time>2017-05-27T08:54:15Z</time>
      </trkpt>
      <trkpt lat="45.74105" lon="3.88044">
        <ele>1039.5</ele>
        <time>2017-05-27T08:54:19Z</time>
      </trkpt>
      <trkpt lat="45.74111" lon="3.88058">
        <ele>1040.199951</ele>
        <time>2017-05-27T08:54:23Z</time>
      </trkpt>
      <trkpt lat="45.74115" lon="3.88071">
        <ele>1041.099976</ele>
        <time>2017-05-27T08:54:28Z</time>
      </trkpt>
      <trkpt lat="45.74118" lon="3.88085">
        <ele>1042.099976</ele>
        <time>2017-05-27T08:54:33Z</time>
      </trkpt>
      <trkpt lat="45.74118" lon="3.88099">
        <ele>1042.900024</ele>
        <time>2017-05-27T08:54:37Z</time>
      </trkpt>
      <trkpt lat="45.74117" lon="3.88114">
        <ele>1043.900024</ele>
        <time>2017-05-27T08:54:42Z</time>
      </trkpt>
      <trkpt lat="45.74116" lon="3.88129">
        <ele>1044.699951</ele>
        <time>2017-05-27T08:54:46Z</time>
      </trkpt>
      <trkpt lat="45.74112" lon="3.88142">
        <ele>1045.300049</ele>
        <time>2017-05-27T08:54:50Z</time>
      </trkpt>
      <trkpt lat="45.74108" lon="3.88156">
        <ele>1046</ele>
        <time>2017-05-27T08:54:54Z</time>
      </trkpt>
      <trkpt lat="45.74102" lon="3.88168">
        <ele>1046.5</ele>
        <time>2017-05-27T08:54:58Z</time>
      </trkpt>
      <trkpt lat="45.74094" lon="3.88181">
        <ele>1047</ele>
        <time>2017-05-27T08:55:02Z</time>
      </trkpt>
      <trkpt lat="45.74088" lon="3.88191">
        <ele>1047.300049</ele>
        <time>2017-05-27T08:55:05Z</time>
      </trkpt>
      <trkpt lat="45.7408" lon="3.88201">
        <ele>1047.400024</ele>
        <time>2017-05-27T08:55:09Z</time>
      </trkpt>
      <trkpt lat="45.74073" lon="3.88214">
        <ele>1047.099976</ele>
        <time>2017-05-27T08:55:15Z</time>
      </trkpt>
      <trkpt lat="45.74069" lon="3.8823">
        <ele>1046.900024</ele>
        <time>2017-05-27T08:55:19Z</time>
      </trkpt>
      <trkpt lat="45.74065" lon="3.88241">
        <ele>1046.599976</ele>
        <time>2017-05-27T08:55:22Z</time>
      </trkpt>
      <trkpt lat="45.74061" lon="3.88255">
        <ele>1046.400024</ele>
        <time>2017-05-27T08:55:25Z</time>
      </trkpt>
      <trkpt lat="45.74054" lon="3.88269">
        <ele>1046</ele>
        <time>2017-05-27T08:55:28Z</time>
      </trkpt>
      <trkpt lat="45.74047" lon="3.88286">
        <ele>1045.599976</ele>
        <time>2017-05-27T08:55:31Z</time>
      </trkpt>
      <trkpt lat="45.74041" lon="3.883">
        <ele>1045.099976</ele>
        <time>2017-05-27T08:55:33Z</time>
      </trkpt>
      <trkpt lat="45.74038" lon="3.88313">
        <ele>1044.599976</ele>
        <time>2017-05-27T08:55:35Z</time>
      </trkpt>
      <trkpt lat="45.74031" lon="3.88327">
        <ele>1044.199951</ele>
        <time>2017-05-27T08:55:37Z</time>
      </trkpt>
      <trkpt lat="45.74024" lon="3.88345">
        <ele>1043.5</ele>
        <time>2017-05-27T08:55:39Z</time>
      </trkpt>
      <trkpt lat="45.74018" lon="3.8836">
        <ele>1043</ele>
        <time>2017-05-27T08:55:41Z</time>
      </trkpt>
      <trkpt lat="45.74012" lon="3.88373">
        <ele>1042.400024</ele>
        <time>2017-05-27T08:55:43Z</time>
      </trkpt>
      <trkpt lat="45.74007" lon="3.88388">
        <ele>1042.099976</ele>
        <time>2017-05-27T08:55:45Z</time>
      </trkpt>
      <trkpt lat="45.74001" lon="3.88398">
        <ele>1041.599976</ele>
        <time>2017-05-27T08:55:47Z</time>
      </trkpt>
      <trkpt lat="45.73995" lon="3.8841">
        <ele>1041.300049</ele>
        <time>2017-05-27T08:55:49Z</time>
      </trkpt>
      <trkpt lat="45.73987" lon="3.88424">
        <ele>1040.800049</ele>
        <time>2017-05-27T08:55:51Z</time>
      </trkpt>
      <trkpt lat="45.73977" lon="3.88438">
        <ele>1040.400024</ele>
        <time>2017-05-27T08:55:53Z</time>
      </trkpt>
      <trkpt lat="45.73968" lon="3.88452">
        <ele>1039.900024</ele>
        <time>2017-05-27T08:55:55Z</time>
      </trkpt>
      <trkpt lat="45.73959" lon="3.88466">
        <ele>1039.400024</ele>
        <time>2017-05-27T08:55:57Z</time>
      </trkpt>
      <trkpt lat="45.73949" lon="3.88482">
        <ele>1038.800049</ele>
        <time>2017-05-27T08:55:59Z</time>
      </trkpt>
      <trkpt lat="45.73939" lon="3.88498">
        <ele>1038.199951</ele>
        <time>2017-05-27T08:56:01Z</time>
      </trkpt>
      <trkpt lat="45.73929" lon="3.88517">
        <ele>1037.5</ele>
        <time>2017-05-27T08:56:03Z</time>
      </trkpt>
      <trkpt lat="45.73924" lon="3.88528">
        <ele>1037.099976</ele>
        <time>2017-05-27T08:56:04Z</time>
      </trkpt>
      <trkpt lat="45.7392" lon="3.8854">
        <ele>1036.599976</ele>
        <time>2017-05-27T08:56:05Z</time>
      </trkpt>
      <trkpt lat="45.73916" lon="3.88553">
        <ele>1036.099976</ele>
        <time>2017-05-27T08:56:06Z</time>
      </trkpt>
      <trkpt lat="45.73913" lon="3.88568">
        <ele>1035.5</ele>
        <time>2017-05-27T08:56:07Z</time>
      </trkpt>
      <trkpt lat="45.73909" lon="3.88582">
        <ele>1034.800049</ele>
        <time>2017-05-27T08:56:08Z</time>
      </trkpt>
      <trkpt lat="45.73906" lon="3.88598">
        <ele>1034.099976</ele>
        <time>2017-05-27T08:56:09Z</time>
      </trkpt>
      <trkpt lat="45.73902" lon="3.88616">
        <ele>1033.5</ele>
        <time>2017-05-27T08:56:10Z</time>
      </trkpt>
      <trkpt lat="45.73901" lon="3.88631">
        <ele>1032.900024</ele>
        <time>2017-05-27T08:56:11Z</time>
      </trkpt>
      <trkpt lat="45.73901" lon="3.88644">
        <ele>1032.099976</ele>
        <time>2017-05-27T08:56:12Z</time>
      </trkpt>
      <trkpt lat="45.73902" lon="3.88666">
        <ele>1031</ele>
        <time>2017-05-27T08:56:14Z</time>
      </trkpt>
      <trkpt lat="45.73911" lon="3.88681">
        <ele>1030.099976</ele>
        <time>2017-05-27T08:56:16Z</time>
      </trkpt>
      <trkpt lat="45.7392" lon="3.8869">
        <ele>1029.699951</ele>
        <time>2017-05-27T08:56:18Z</time>
      </trkpt>
      <trkpt lat="45.73931" lon="3.88696">
        <ele>1029.599976</ele>
        <time>2017-05-27T08:56:20Z</time>
      </trkpt>
      <trkpt lat="45.73941" lon="3.88703">
        <ele>1029.699951</ele>
        <time>2017-05-27T08:56:22Z</time>
      </trkpt>
      <trkpt lat="45.7395" lon="3.8871">
        <ele>1030.099976</ele>
        <time>2017-05-27T08:56:24Z</time>
      </trkpt>
      <trkpt lat="45.73959" lon="3.88717">
        <ele>1030.199951</ele>
        <time>2017-05-27T08:56:26Z</time>
      </trkpt>
      <trkpt lat="45.73967" lon="3.88725">
        <ele>1030.300049</ele>
        <time>2017-05-27T08:56:28Z</time>
      </trkpt>
      <trkpt lat="45.73976" lon="3.88737">
        <ele>1031.099976</ele>
        <time>2017-05-27T08:56:31Z</time>
      </trkpt>
      <trkpt lat="45.73985" lon="3.88748">
        <ele>1031.599976</ele>
        <time>2017-05-27T08:56:34Z</time>
      </trkpt>
      <trkpt lat="45.73992" lon="3.88759">
        <ele>1032.099976</ele>
        <time>2017-05-27T08:56:37Z</time>
      </trkpt>
      <trkpt lat="45.73999" lon="3.88773">
        <ele>1032.300049</ele>
        <time>2017-05-27T08:56:40Z</time>
      </trkpt>
      <trkpt lat="45.74006" lon="3.8879">
        <ele>1032.599976</ele>
        <time>2017-05-27T08:56:43Z</time>
      </trkpt>
      <trkpt lat="45.74012" lon="3.88807">
        <ele>1032.400024</ele>
        <time>2017-05-27T08:56:46Z</time>
      </trkpt>
      <trkpt lat="45.74015" lon="3.8882">
        <ele>1032.199951</ele>
        <time>2017-05-27T08:56:48Z</time>
      </trkpt>
      <trkpt lat="45.74019" lon="3.88832">
        <ele>1032.099976</ele>
        <time>2017-05-27T08:56:50Z</time>
      </trkpt>
      <trkpt lat="45.7402" lon="3.88849">
        <ele>1031.800049</ele>
        <time>2017-05-27T08:56:52Z</time>
      </trkpt>
      <trkpt lat="45.74023" lon="3.88864">
        <ele>1031.5</ele>
        <time>2017-05-27T08:56:54Z</time>
      </trkpt>
      <trkpt lat="45.74028" lon="3.88879">
        <ele>1031.300049</ele>
        <time>2017-05-27T08:56:56Z</time>
      </trkpt>
      <trkpt lat="45.74032" lon="3.88893">
        <ele>1031</ele>
        <time>2017-05-27T08:56:58Z</time>
      </trkpt>
      <trkpt lat="45.74035" lon="3.88908">
        <ele>1030.900024</ele>
        <time>2017-05-27T08:57:00Z</time>
      </trkpt>
      <trkpt lat="45.74037" lon="3.88922">
        <ele>1030.900024</ele>
        <time>2017-05-27T08:57:02Z</time>
      </trkpt>
      <trkpt lat="45.74039" lon="3.88941">
        <ele>1030.5</ele>
        <time>2017-05-27T08:57:05Z</time>
      </trkpt>
      <trkpt lat="45.74039" lon="3.88955">
        <ele>1030.300049</ele>
        <time>2017-05-27T08:57:07Z</time>
      </trkpt>
      <trkpt lat="45.74038" lon="3.88968">
        <ele>1029.900024</ele>
        <time>2017-05-27T08:57:09Z</time>
      </trkpt>
      <trkpt lat="45.74037" lon="3.88981">
        <ele>1029.5</ele>
        <time>2017-05-27T08:57:11Z</time>
      </trkpt>
      <trkpt lat="45.74035" lon="3.88995">
        <ele>1029.400024</ele>
        <time>2017-05-27T08:57:13Z</time>
      </trkpt>
      <trkpt lat="45.74034" lon="3.8901">
        <ele>1029.099976</ele>
        <time>2017-05-27T08:57:15Z</time>
      </trkpt>
      <trkpt lat="45.74033" lon="3.89025">
        <ele>1028.699951</ele>
        <time>2017-05-27T08:57:17Z</time>
      </trkpt>
      <trkpt lat="45.7403" lon="3.89044">
        <ele>1028.099976</ele>
        <time>2017-05-27T08:57:19Z</time>
      </trkpt>
      <trkpt lat="45.74028" lon="3.89064">
        <ele>1027.199951</ele>
        <time>2017-05-27T08:57:21Z</time>
      </trkpt>
      <trkpt lat="45.74025" lon="3.89084">
        <ele>1026.099976</ele>
        <time>2017-05-27T08:57:23Z</time>
      </trkpt>
      <trkpt lat="45.7402" lon="3.89105">
        <ele>1024.599976</ele>
        <time>2017-05-27T08:57:25Z</time>
      </trkpt>
      <trkpt lat="45.74014" lon="3.89125">
        <ele>1022.700012</ele>
        <time>2017-05-27T08:57:27Z</time>
      </trkpt>
      <trkpt lat="45.7401" lon="3.89143">
        <ele>1020.700012</ele>
        <time>2017-05-27T08:57:29Z</time>
      </trkpt>
      <trkpt lat="45.74007" lon="3.89161">
        <ele>1018.799988</ele>
        <time>2017-05-27T08:57:31Z</time>
      </trkpt>
      <trkpt lat="45.73999" lon="3.89182">
        <ele>1016.700012</ele>
        <time>2017-05-27T08:57:33Z</time>
      </trkpt>
      <trkpt lat="45.73993" lon="3.89203">
        <ele>1014.900024</ele>
        <time>2017-05-27T08:57:35Z</time>
      </trkpt>
      <trkpt lat="45.73987" lon="3.89225">
        <ele>1013.400024</ele>
        <time>2017-05-27T08:57:37Z</time>
      </trkpt>
      <trkpt lat="45.73982" lon="3.89244">
        <ele>1011.599976</ele>
        <time>2017-05-27T08:57:39Z</time>
      </trkpt>
      <trkpt lat="45.73977" lon="3.89256">
        <ele>1010.900024</ele>
        <time>2017-05-27T08:57:40Z</time>
      </trkpt>
      <trkpt lat="45.73966" lon="3.89281">
        <ele>1009.299988</ele>
        <time>2017-05-27T08:57:42Z</time>
      </trkpt>
      <trkpt lat="45.7396" lon="3.89293">
        <ele>1008.599976</ele>
        <time>2017-05-27T08:57:43Z</time>
      </trkpt>
      <trkpt lat="45.73955" lon="3.89304">
        <ele>1007.599976</ele>
        <time>2017-05-27T08:57:44Z</time>
      </trkpt>
      <trkpt lat="45.7395" lon="3.89316">
        <ele>1006.900024</ele>
        <time>2017-05-27T08:57:45Z</time>
      </trkpt>
      <trkpt lat="45.73944" lon="3.89327">
        <ele>1005.900024</ele>
        <time>2017-05-27T08:57:46Z</time>
      </trkpt>
      <trkpt lat="45.73938" lon="3.89339">
        <ele>1005.200012</ele>
        <time>2017-05-27T08:57:47Z</time>
      </trkpt>
      <trkpt lat="45.73932" lon="3.89351">
        <ele>1004.5</ele>
        <time>2017-05-27T08:57:48Z</time>
      </trkpt>
      <trkpt lat="45.73925" lon="3.8936">
        <ele>1003.900024</ele>
        <time>2017-05-27T08:57:49Z</time>
      </trkpt>
      <trkpt lat="45.7392" lon="3.89372">
        <ele>1003.400024</ele>
        <time>2017-05-27T08:57:50Z</time>
      </trkpt>
      <trkpt lat="45.73915" lon="3.89384">
        <ele>1002.700012</ele>
        <time>2017-05-27T08:57:51Z</time>
      </trkpt>
      <trkpt lat="45.73908" lon="3.89407">
        <ele>1001.700012</ele>
        <time>2017-05-27T08:57:53Z</time>
      </trkpt>
      <trkpt lat="45.73905" lon="3.8942">
        <ele>1001</ele>
        <time>2017-05-27T08:57:54Z</time>
      </trkpt>
      <trkpt lat="45.73902" lon="3.89433">
        <ele>1000.5</ele>
        <time>2017-05-27T08:57:55Z</time>
      </trkpt>
      <trkpt lat="45.739" lon="3.89446">
        <ele>1000.099976</ele>
        <time>2017-05-27T08:57:56Z</time>
      </trkpt>
      <trkpt lat="45.73898" lon="3.89458">
        <ele>999.5</ele>
        <time>2017-05-27T08:57:57Z</time>
      </trkpt>
      <trkpt lat="45.73896" lon="3.89471">
        <ele>999</ele>
        <time>2017-05-27T08:57:58Z</time>
      </trkpt>
      <trkpt lat="45.73895" lon="3.89496">
        <ele>997.900024</ele>
        <time>2017-05-27T08:58:00Z</time>
      </trkpt>
      <trkpt lat="45.73896" lon="3.89522">
        <ele>997.299988</ele>
        <time>2017-05-27T08:58:02Z</time>
      </trkpt>
      <trkpt lat="45.73896" lon="3.89537">
        <ele>996.799988</ele>
        <time>2017-05-27T08:58:03Z</time>
      </trkpt>
      <trkpt lat="45.73896" lon="3.8955">
        <ele>996.400024</ele>
        <time>2017-05-27T08:58:04Z</time>
      </trkpt>
      <trkpt lat="45.73897" lon="3.89574">
        <ele>995.299988</ele>
        <time>2017-05-27T08:58:06Z</time>
      </trkpt>
      <trkpt lat="45.73897" lon="3.89587">
        <ele>995</ele>
        <time>2017-05-27T08:58:07Z</time>
      </trkpt>
      <trkpt lat="45.73895" lon="3.89609">
        <ele>994</ele>
        <time>2017-05-27T08:58:09Z</time>
      </trkpt>
      <trkpt lat="45.73893" lon="3.89627">
        <ele>992.799988</ele>
        <time>2017-05-27T08:58:11Z</time>
      </trkpt>
      <trkpt lat="45.73892" lon="3.8964">
        <ele>991.400024</ele>
        <time>2017-05-27T08:58:13Z</time>
      </trkpt>
      <trkpt lat="45.73893" lon="3.89653">
        <ele>988.799988</ele>
        <time>2017-05-27T08:58:17Z</time>
      </trkpt>
      <trkpt lat="45.73884" lon="3.89655">
        <ele>986.599976</ele>
        <time>2017-05-27T09:00:31Z</time>
      </trkpt>
      <trkpt lat="45.73889" lon="3.89669">
        <ele>986.599976</ele>
        <time>2017-05-27T09:00:48Z</time>
      </trkpt>
      <trkpt lat="45.73893" lon="3.89681">
        <ele>986.5</ele>
        <time>2017-05-27T09:00:51Z</time>
      </trkpt>
      <trkpt lat="45.73899" lon="3.89696">
        <ele>986.400024</ele>
        <time>2017-05-27T09:00:54Z</time>
      </trkpt>
      <trkpt lat="45.73904" lon="3.89712">
        <ele>986.400024</ele>
        <time>2017-05-27T09:00:57Z</time>
      </trkpt>
      <trkpt lat="45.73909" lon="3.89727">
        <ele>986.400024</ele>
        <time>2017-05-27T09:01:00Z</time>
      </trkpt>
      <trkpt lat="45.73914" lon="3.89741">
        <ele>986.799988</ele>
        <time>2017-05-27T09:01:03Z</time>
      </trkpt>
      <trkpt lat="45.73917" lon="3.89753">
        <ele>987.200012</ele>
        <time>2017-05-27T09:01:06Z</time>
      </trkpt>
      <trkpt lat="45.73922" lon="3.89767">
        <ele>988.099976</ele>
        <time>2017-05-27T09:01:10Z</time>
      </trkpt>
      <trkpt lat="45.73923" lon="3.8978">
        <ele>989.200012</ele>
        <time>2017-05-27T09:01:15Z</time>
      </trkpt>
      <trkpt lat="45.73928" lon="3.89793">
        <ele>990</ele>
        <time>2017-05-27T09:01:19Z</time>
      </trkpt>
      <trkpt lat="45.73933" lon="3.89806">
        <ele>990.799988</ele>
        <time>2017-05-27T09:01:22Z</time>
      </trkpt>
      <trkpt lat="45.73937" lon="3.89821">
        <ele>991.299988</ele>
        <time>2017-05-27T09:01:26Z</time>
      </trkpt>
      <trkpt lat="45.7394" lon="3.89833">
        <ele>991.599976</ele>
        <time>2017-05-27T09:01:29Z</time>
      </trkpt>
      <trkpt lat="45.73945" lon="3.89846">
        <ele>992.099976</ele>
        <time>2017-05-27T09:01:33Z</time>
      </trkpt>
      <trkpt lat="45.73949" lon="3.89861">
        <ele>992.700012</ele>
        <time>2017-05-27T09:01:38Z</time>
      </trkpt>
      <trkpt lat="45.73955" lon="3.89874">
        <ele>993.700012</ele>
        <time>2017-05-27T09:01:43Z</time>
      </trkpt>
      <trkpt lat="45.73959" lon="3.89888">
        <ele>994.400024</ele>
        <time>2017-05-27T09:01:48Z</time>
      </trkpt>
      <trkpt lat="45.73964" lon="3.89899">
        <ele>994.799988</ele>
        <time>2017-05-27T09:01:52Z</time>
      </trkpt>
      <trkpt lat="45.7397" lon="3.89913">
        <ele>995.200012</ele>
        <time>2017-05-27T09:01:56Z</time>
      </trkpt>
      <trkpt lat="45.73975" lon="3.89925">
        <ele>995.299988</ele>
        <time>2017-05-27T09:01:59Z</time>
      </trkpt>
      <trkpt lat="45.7398" lon="3.89937">
        <ele>995.400024</ele>
        <time>2017-05-27T09:02:02Z</time>
      </trkpt>
      <trkpt lat="45.73987" lon="3.89952">
        <ele>995.400024</ele>
        <time>2017-05-27T09:02:05Z</time>
      </trkpt>
      <trkpt lat="45.73993" lon="3.89967">
        <ele>995.099976</ele>
        <time>2017-05-27T09:02:08Z</time>
      </trkpt>
      <trkpt lat="45.73998" lon="3.89978">
        <ele>995</ele>
        <time>2017-05-27T09:02:10Z</time>
      </trkpt>
      <trkpt lat="45.74002" lon="3.89991">
        <ele>994.799988</ele>
        <time>2017-05-27T09:02:12Z</time>
      </trkpt>
      <trkpt lat="45.74006" lon="3.90003">
        <ele>994.5</ele>
        <time>2017-05-27T09:02:14Z</time>
      </trkpt>
      <trkpt lat="45.74011" lon="3.90017">
        <ele>993.700012</ele>
        <time>2017-05-27T09:02:16Z</time>
      </trkpt>
      <trkpt lat="45.74018" lon="3.90031">
        <ele>993.200012</ele>
        <time>2017-05-27T09:02:18Z</time>
      </trkpt>
      <trkpt lat="45.74024" lon="3.90046">
        <ele>993.099976</ele>
        <time>2017-05-27T09:02:20Z</time>
      </trkpt>
      <trkpt lat="45.74029" lon="3.90061">
        <ele>992.900024</ele>
        <time>2017-05-27T09:02:22Z</time>
      </trkpt>
      <trkpt lat="45.74034" lon="3.90073">
        <ele>992.799988</ele>
        <time>2017-05-27T09:02:24Z</time>
      </trkpt>
      <trkpt lat="45.74038" lon="3.90086">
        <ele>992.799988</ele>
        <time>2017-05-27T09:02:26Z</time>
      </trkpt>
      <trkpt lat="45.74042" lon="3.90099">
        <ele>992.799988</ele>
        <time>2017-05-27T09:02:28Z</time>
      </trkpt>
      <trkpt lat="45.74048" lon="3.90115">
        <ele>992.799988</ele>
        <time>2017-05-27T09:02:31Z</time>
      </trkpt>
      <trkpt lat="45.74054" lon="3.9013">
        <ele>992.900024</ele>
        <time>2017-05-27T09:02:34Z</time>
      </trkpt>
      <trkpt lat="45.74059" lon="3.90144">
        <ele>992.700012</ele>
        <time>2017-05-27T09:02:37Z</time>
      </trkpt>
      <trkpt lat="45.74065" lon="3.90158">
        <ele>992.900024</ele>
        <time>2017-05-27T09:02:40Z</time>
      </trkpt>
      <trkpt lat="45.7407" lon="3.90174">
        <ele>993.099976</ele>
        <time>2017-05-27T09:02:43Z</time>
      </trkpt>
      <trkpt lat="45.74074" lon="3.90189">
        <ele>993.299988</ele>
        <time>2017-05-27T09:02:46Z</time>
      </trkpt>
      <trkpt lat="45.74082" lon="3.90204">
        <ele>993.5</ele>
        <time>2017-05-27T09:02:49Z</time>
      </trkpt>
      <trkpt lat="45.74091" lon="3.90219">
        <ele>993.599976</ele>
        <time>2017-05-27T09:02:52Z</time>
      </trkpt>
      <trkpt lat="45.74096" lon="3.90231">
        <ele>993.5</ele>
        <time>2017-05-27T09:02:54Z</time>
      </trkpt>
      <trkpt lat="45.741" lon="3.90245">
        <ele>993.099976</ele>
        <time>2017-05-27T09:02:56Z</time>
      </trkpt>
      <trkpt lat="45.74105" lon="3.90256">
        <ele>992.700012</ele>
        <time>2017-05-27T09:02:58Z</time>
      </trkpt>
      <trkpt lat="45.74112" lon="3.90267">
        <ele>991.700012</ele>
        <time>2017-05-27T09:03:00Z</time>
      </trkpt>
      <trkpt lat="45.74118" lon="3.90281">
        <ele>991.599976</ele>
        <time>2017-05-27T09:03:02Z</time>
      </trkpt>
      <trkpt lat="45.74124" lon="3.90294">
        <ele>991.5</ele>
        <time>2017-05-27T09:03:04Z</time>
      </trkpt>
      <trkpt lat="45.7413" lon="3.90307">
        <ele>991.099976</ele>
        <time>2017-05-27T09:03:06Z</time>
      </trkpt>
      <trkpt lat="45.74135" lon="3.90322">
        <ele>990.799988</ele>
        <time>2017-05-27T09:03:08Z</time>
      </trkpt>
      <trkpt lat="45.74139" lon="3.90336">
        <ele>990.299988</ele>
        <time>2017-05-27T09:03:10Z</time>
      </trkpt>
      <trkpt lat="45.74143" lon="3.9035">
        <ele>989.900024</ele>
        <time>2017-05-27T09:03:12Z</time>
      </trkpt>
      <trkpt lat="45.7415" lon="3.90366">
        <ele>989.599976</ele>
        <time>2017-05-27T09:03:14Z</time>
      </trkpt>
      <trkpt lat="45.74157" lon="3.90382">
        <ele>989.299988</ele>
        <time>2017-05-27T09:03:16Z</time>
      </trkpt>
      <trkpt lat="45.74166" lon="3.90395">
        <ele>988.799988</ele>
        <time>2017-05-27T09:03:18Z</time>
      </trkpt>
      <trkpt lat="45.74175" lon="3.90411">
        <ele>988.299988</ele>
        <time>2017-05-27T09:03:20Z</time>
      </trkpt>
      <trkpt lat="45.74183" lon="3.90426">
        <ele>988.099976</ele>
        <time>2017-05-27T09:03:22Z</time>
      </trkpt>
      <trkpt lat="45.74191" lon="3.90437">
        <ele>987.900024</ele>
        <time>2017-05-27T09:03:24Z</time>
      </trkpt>
      <trkpt lat="45.74201" lon="3.90449">
        <ele>988</ele>
        <time>2017-05-27T09:03:27Z</time>
      </trkpt>
      <trkpt lat="45.74209" lon="3.90458">
        <ele>988.200012</ele>
        <time>2017-05-27T09:03:29Z</time>
      </trkpt>
      <trkpt lat="45.74218" lon="3.90471">
        <ele>988.200012</ele>
        <time>2017-05-27T09:03:32Z</time>
      </trkpt>
      <trkpt lat="45.74225" lon="3.90483">
        <ele>988.200012</ele>
        <time>2017-05-27T09:03:35Z</time>
      </trkpt>
      <trkpt lat="45.74233" lon="3.90492">
        <ele>988.299988</ele>
        <time>2017-05-27T09:03:37Z</time>
      </trkpt>
      <trkpt lat="45.7424" lon="3.90503">
        <ele>988.200012</ele>
        <time>2017-05-27T09:03:39Z</time>
      </trkpt>
      <trkpt lat="45.74247" lon="3.90515">
        <ele>987.5</ele>
        <time>2017-05-27T09:03:41Z</time>
      </trkpt>
      <trkpt lat="45.74254" lon="3.90529">
        <ele>986.799988</ele>
        <time>2017-05-27T09:03:43Z</time>
      </trkpt>
      <trkpt lat="45.7426" lon="3.90544">
        <ele>985.700012</ele>
        <time>2017-05-27T09:03:45Z</time>
      </trkpt>
      <trkpt lat="45.74267" lon="3.90559">
        <ele>984.400024</ele>
        <time>2017-05-27T09:03:47Z</time>
      </trkpt>
      <trkpt lat="45.74272" lon="3.90573">
        <ele>982.900024</ele>
        <time>2017-05-27T09:03:49Z</time>
      </trkpt>
      <trkpt lat="45.74276" lon="3.90587">
        <ele>981.799988</ele>
        <time>2017-05-27T09:03:51Z</time>
      </trkpt>
      <trkpt lat="45.74279" lon="3.90602">
        <ele>980.200012</ele>
        <time>2017-05-27T09:03:53Z</time>
      </trkpt>
      <trkpt lat="45.74283" lon="3.90621">
        <ele>978.900024</ele>
        <time>2017-05-27T09:03:55Z</time>
      </trkpt>
      <trkpt lat="45.74287" lon="3.9064">
        <ele>976.900024</ele>
        <time>2017-05-27T09:03:57Z</time>
      </trkpt>
      <trkpt lat="45.74291" lon="3.90659">
        <ele>974.700012</ele>
        <time>2017-05-27T09:03:59Z</time>
      </trkpt>
      <trkpt lat="45.74294" lon="3.90679">
        <ele>971.799988</ele>
        <time>2017-05-27T09:04:01Z</time>
      </trkpt>
      <trkpt lat="45.74296" lon="3.90701">
        <ele>969.599976</ele>
        <time>2017-05-27T09:04:03Z</time>
      </trkpt>
      <trkpt lat="45.74296" lon="3.90721">
        <ele>966.900024</ele>
        <time>2017-05-27T09:04:05Z</time>
      </trkpt>
      <trkpt lat="45.743" lon="3.90745">
        <ele>963.900024</ele>
        <time>2017-05-27T09:04:07Z</time>
      </trkpt>
      <trkpt lat="45.74303" lon="3.90767">
        <ele>961</ele>
        <time>2017-05-27T09:04:09Z</time>
      </trkpt>
      <trkpt lat="45.74306" lon="3.90791">
        <ele>958</ele>
        <time>2017-05-27T09:04:11Z</time>
      </trkpt>
      <trkpt lat="45.74307" lon="3.90804">
        <ele>956.799988</ele>
        <time>2017-05-27T09:04:12Z</time>
      </trkpt>
      <trkpt lat="45.74308" lon="3.90818">
        <ele>955.099976</ele>
        <time>2017-05-27T09:04:13Z</time>
      </trkpt>
      <trkpt lat="45.74309" lon="3.90832">
        <ele>953.400024</ele>
        <time>2017-05-27T09:04:14Z</time>
      </trkpt>
      <trkpt lat="45.7431" lon="3.90846">
        <ele>951.599976</ele>
        <time>2017-05-27T09:04:15Z</time>
      </trkpt>
      <trkpt lat="45.7431" lon="3.90871">
        <ele>949</ele>
        <time>2017-05-27T09:04:17Z</time>
      </trkpt>
      <trkpt lat="45.74309" lon="3.90886">
        <ele>947.700012</ele>
        <time>2017-05-27T09:04:18Z</time>
      </trkpt>
      <trkpt lat="45.74307" lon="3.909">
        <ele>946.400024</ele>
        <time>2017-05-27T09:04:19Z</time>
      </trkpt>
      <trkpt lat="45.74305" lon="3.90913">
        <ele>945.099976</ele>
        <time>2017-05-27T09:04:20Z</time>
      </trkpt>
      <trkpt lat="45.74302" lon="3.90925">
        <ele>943.700012</ele>
        <time>2017-05-27T09:04:21Z</time>
      </trkpt>
      <trkpt lat="45.74298" lon="3.90939">
        <ele>942.5</ele>
        <time>2017-05-27T09:04:22Z</time>
      </trkpt>
      <trkpt lat="45.74295" lon="3.90952">
        <ele>941.099976</ele>
        <time>2017-05-27T09:04:23Z</time>
      </trkpt>
      <trkpt lat="45.74293" lon="3.90966">
        <ele>939.599976</ele>
        <time>2017-05-27T09:04:24Z</time>
      </trkpt>
      <trkpt lat="45.74292" lon="3.9099">
        <ele>937.099976</ele>
        <time>2017-05-27T09:04:26Z</time>
      </trkpt>
      <trkpt lat="45.74292" lon="3.91005">
        <ele>934.799988</ele>
        <time>2017-05-27T09:04:28Z</time>
      </trkpt>
      <trkpt lat="45.74297" lon="3.91021">
        <ele>927.200012</ele>
        <time>2017-05-27T09:05:03Z</time>
      </trkpt>
      <trkpt lat="45.74305" lon="3.91037">
        <ele>927.200012</ele>
        <time>2017-05-27T09:05:06Z</time>
      </trkpt>
      <trkpt lat="45.74312" lon="3.9105">
        <ele>927.200012</ele>
        <time>2017-05-27T09:05:08Z</time>
      </trkpt>
      <trkpt lat="45.7432" lon="3.91064">
        <ele>927.099976</ele>
        <time>2017-05-27T09:05:10Z</time>
      </trkpt>
      <trkpt lat="45.74328" lon="3.91081">
        <ele>927</ele>
        <time>2017-05-27T09:05:12Z</time>
      </trkpt>
      <trkpt lat="45.74334" lon="3.91101">
        <ele>926.799988</ele>
        <time>2017-05-27T09:05:14Z</time>
      </trkpt>
      <trkpt lat="45.74338" lon="3.91125">
        <ele>926.099976</ele>
        <time>2017-05-27T09:05:16Z</time>
      </trkpt>
      <trkpt lat="45.7434" lon="3.91137">
        <ele>925.599976</ele>
        <time>2017-05-27T09:05:17Z</time>
      </trkpt>
      <trkpt lat="45.74342" lon="3.91151">
        <ele>925.200012</ele>
        <time>2017-05-27T09:05:18Z</time>
      </trkpt>
      <trkpt lat="45.74345" lon="3.91164">
        <ele>924.599976</ele>
        <time>2017-05-27T09:05:19Z</time>
      </trkpt>
      <trkpt lat="45.74348" lon="3.91177">
        <ele>924.099976</ele>
        <time>2017-05-27T09:05:20Z</time>
      </trkpt>
      <trkpt lat="45.74354" lon="3.91189">
        <ele>923.599976</ele>
        <time>2017-05-27T09:05:21Z</time>
      </trkpt>
      <trkpt lat="45.74361" lon="3.912">
        <ele>923.099976</ele>
        <time>2017-05-27T09:05:22Z</time>
      </trkpt>
      <trkpt lat="45.74368" lon="3.91211">
        <ele>922.599976</ele>
        <time>2017-05-27T09:05:23Z</time>
      </trkpt>
      <trkpt lat="45.74376" lon="3.91222">
        <ele>921.900024</ele>
        <time>2017-05-27T09:05:24Z</time>
      </trkpt>
      <trkpt lat="45.74385" lon="3.91232">
        <ele>921</ele>
        <time>2017-05-27T09:05:25Z</time>
      </trkpt>
      <trkpt lat="45.74395" lon="3.91242">
        <ele>920.200012</ele>
        <time>2017-05-27T09:05:26Z</time>
      </trkpt>
      <trkpt lat="45.74404" lon="3.91252">
        <ele>919.299988</ele>
        <time>2017-05-27T09:05:27Z</time>
      </trkpt>
      <trkpt lat="45.74412" lon="3.91264">
        <ele>918.200012</ele>
        <time>2017-05-27T09:05:28Z</time>
      </trkpt>
      <trkpt lat="45.74418" lon="3.91277">
        <ele>917.099976</ele>
        <time>2017-05-27T09:05:29Z</time>
      </trkpt>
      <trkpt lat="45.74423" lon="3.91292">
        <ele>916.099976</ele>
        <time>2017-05-27T09:05:30Z</time>
      </trkpt>
      <trkpt lat="45.74428" lon="3.91307">
        <ele>915.200012</ele>
        <time>2017-05-27T09:05:31Z</time>
      </trkpt>
      <trkpt lat="45.74433" lon="3.91322">
        <ele>914.200012</ele>
        <time>2017-05-27T09:05:32Z</time>
      </trkpt>
      <trkpt lat="45.74438" lon="3.91337">
        <ele>913.5</ele>
        <time>2017-05-27T09:05:33Z</time>
      </trkpt>
      <trkpt lat="45.74443" lon="3.91351">
        <ele>912.700012</ele>
        <time>2017-05-27T09:05:34Z</time>
      </trkpt>
      <trkpt lat="45.7445" lon="3.91364">
        <ele>911.900024</ele>
        <time>2017-05-27T09:05:35Z</time>
      </trkpt>
      <trkpt lat="45.74458" lon="3.91376">
        <ele>911.099976</ele>
        <time>2017-05-27T09:05:36Z</time>
      </trkpt>
      <trkpt lat="45.74466" lon="3.91387">
        <ele>910.299988</ele>
        <time>2017-05-27T09:05:37Z</time>
      </trkpt>
      <trkpt lat="45.74475" lon="3.91398">
        <ele>909.599976</ele>
        <time>2017-05-27T09:05:38Z</time>
      </trkpt>
      <trkpt lat="45.74485" lon="3.91408">
        <ele>908.799988</ele>
        <time>2017-05-27T09:05:39Z</time>
      </trkpt>
      <trkpt lat="45.74495" lon="3.91418">
        <ele>907.900024</ele>
        <time>2017-05-27T09:05:40Z</time>
      </trkpt>
      <trkpt lat="45.74504" lon="3.9143">
        <ele>906.599976</ele>
        <time>2017-05-27T09:05:41Z</time>
      </trkpt>
      <trkpt lat="45.74522" lon="3.91454">
        <ele>903</ele>
        <time>2017-05-27T09:05:43Z</time>
      </trkpt>
      <trkpt lat="45.74549" lon="3.91494">
        <ele>901</ele>
        <time>2017-05-27T09:05:46Z</time>
      </trkpt>
      <trkpt lat="45.74557" lon="3.91507">
        <ele>900.099976</ele>
        <time>2017-05-27T09:05:47Z</time>
      </trkpt>
      <trkpt lat="45.74565" lon="3.9152">
        <ele>899.299988</ele>
        <time>2017-05-27T09:05:48Z</time>
      </trkpt>
      <trkpt lat="45.74573" lon="3.91533">
        <ele>898.299988</ele>
        <time>2017-05-27T09:05:49Z</time>
      </trkpt>
      <trkpt lat="45.7458" lon="3.91545">
        <ele>897.5</ele>
        <time>2017-05-27T09:05:50Z</time>
      </trkpt>
      <trkpt lat="45.74587" lon="3.91558">
        <ele>896.700012</ele>
        <time>2017-05-27T09:05:51Z</time>
      </trkpt>
      <trkpt lat="45.74593" lon="3.91571">
        <ele>895.900024</ele>
        <time>2017-05-27T09:05:52Z</time>
      </trkpt>
      <trkpt lat="45.74598" lon="3.91586">
        <ele>895.200012</ele>
        <time>2017-05-27T09:05:53Z</time>
      </trkpt>
      <trkpt lat="45.74603" lon="3.91601">
        <ele>894.400024</ele>
        <time>2017-05-27T09:05:54Z</time>
      </trkpt>
      <trkpt lat="45.74609" lon="3.91617">
        <ele>893.200012</ele>
        <time>2017-05-27T09:05:55Z</time>
      </trkpt>
      <trkpt lat="45.74615" lon="3.91633">
        <ele>892.099976</ele>
        <time>2017-05-27T09:05:56Z</time>
      </trkpt>
      <trkpt lat="45.74622" lon="3.91649">
        <ele>890.799988</ele>
        <time>2017-05-27T09:05:57Z</time>
      </trkpt>
      <trkpt lat="45.74629" lon="3.91664">
        <ele>889.599976</ele>
        <time>2017-05-27T09:05:58Z</time>
      </trkpt>
      <trkpt lat="45.74638" lon="3.91678">
        <ele>888.299988</ele>
        <time>2017-05-27T09:05:59Z</time>
      </trkpt>
      <trkpt lat="45.74647" lon="3.91691">
        <ele>886.900024</ele>
        <time>2017-05-27T09:06:00Z</time>
      </trkpt>
      <trkpt lat="45.74656" lon="3.91703">
        <ele>885.599976</ele>
        <time>2017-05-27T09:06:01Z</time>
      </trkpt>
      <trkpt lat="45.74666" lon="3.91714">
        <ele>884.400024</ele>
        <time>2017-05-27T09:06:02Z</time>
      </trkpt>
      <trkpt lat="45.74675" lon="3.91724">
        <ele>883.099976</ele>
        <time>2017-05-27T09:06:03Z</time>
      </trkpt>
      <trkpt lat="45.74683" lon="3.91733">
        <ele>881.700012</ele>
        <time>2017-05-27T09:06:04Z</time>
      </trkpt>
      <trkpt lat="45.74689" lon="3.91744">
        <ele>880</ele>
        <time>2017-05-27T09:06:05Z</time>
      </trkpt>
      <trkpt lat="45.74692" lon="3.91757">
        <ele>878.5</ele>
        <time>2017-05-27T09:06:06Z</time>
      </trkpt>
      <trkpt lat="45.74695" lon="3.9178">
        <ele>876.400024</ele>
        <time>2017-05-27T09:06:08Z</time>
      </trkpt>
      <trkpt lat="45.74691" lon="3.91799">
        <ele>874.599976</ele>
        <time>2017-05-27T09:06:10Z</time>
      </trkpt>
      <trkpt lat="45.74686" lon="3.9181">
        <ele>873.400024</ele>
        <time>2017-05-27T09:06:12Z</time>
      </trkpt>
      <trkpt lat="45.74677" lon="3.91816">
        <ele>871.400024</ele>
        <time>2017-05-27T09:06:17Z</time>
      </trkpt>
      <trkpt lat="45.74666" lon="3.91822">
        <ele>870</ele>
        <time>2017-05-27T09:06:21Z</time>
      </trkpt>
      <trkpt lat="45.74658" lon="3.91828">
        <ele>869.099976</ele>
        <time>2017-05-27T09:06:24Z</time>
      </trkpt>
      <trkpt lat="45.74649" lon="3.91836">
        <ele>867.900024</ele>
        <time>2017-05-27T09:06:28Z</time>
      </trkpt>
      <trkpt lat="45.7464" lon="3.91847">
        <ele>867</ele>
        <time>2017-05-27T09:06:34Z</time>
      </trkpt>
      <trkpt lat="45.74631" lon="3.91855">
        <ele>866.099976</ele>
        <time>2017-05-27T09:06:37Z</time>
      </trkpt>
      <trkpt lat="45.74621" lon="3.9186">
        <ele>865.200012</ele>
        <time>2017-05-27T09:06:40Z</time>
      </trkpt>
      <trkpt lat="45.74611" lon="3.91867">
        <ele>863.599976</ele>
        <time>2017-05-27T09:06:44Z</time>
      </trkpt>
      <trkpt lat="45.74601" lon="3.91874">
        <ele>861.400024</ele>
        <time>2017-05-27T09:06:48Z</time>
      </trkpt>
      <trkpt lat="45.74591" lon="3.91881">
        <ele>859</ele>
        <time>2017-05-27T09:06:53Z</time>
      </trkpt>
      <trkpt lat="45.74581" lon="3.91888">
        <ele>856.799988</ele>
        <time>2017-05-27T09:06:57Z</time>
      </trkpt>
      <trkpt lat="45.74568" lon="3.91885">
        <ele>854.799988</ele>
        <time>2017-05-27T09:07:00Z</time>
      </trkpt>
      <trkpt lat="45.74559" lon="3.91883">
        <ele>853.599976</ele>
        <time>2017-05-27T09:07:02Z</time>
      </trkpt>
      <trkpt lat="45.74547" lon="3.91881">
        <ele>852.5</ele>
        <time>2017-05-27T09:07:04Z</time>
      </trkpt>
      <trkpt lat="45.74533" lon="3.9188">
        <ele>851.200012</ele>
        <time>2017-05-27T09:07:06Z</time>
      </trkpt>
      <trkpt lat="45.74521" lon="3.91884">
        <ele>849.799988</ele>
        <time>2017-05-27T09:07:08Z</time>
      </trkpt>
      <trkpt lat="45.74513" lon="3.91897">
        <ele>848.599976</ele>
        <time>2017-05-27T09:07:10Z</time>
      </trkpt>
      <trkpt lat="45.7451" lon="3.9191">
        <ele>845.799988</ele>
        <time>2017-05-27T09:07:14Z</time>
      </trkpt>
      <trkpt lat="45.74508" lon="3.91927">
        <ele>844.099976</ele>
        <time>2017-05-27T09:07:18Z</time>
      </trkpt>
      <trkpt lat="45.74505" lon="3.91943">
        <ele>843.400024</ele>
        <time>2017-05-27T09:07:21Z</time>
      </trkpt>
      <trkpt lat="45.74499" lon="3.91954">
        <ele>843.099976</ele>
        <time>2017-05-27T09:07:23Z</time>
      </trkpt>
      <trkpt lat="45.74491" lon="3.91965">
        <ele>843</ele>
        <time>2017-05-27T09:07:25Z</time>
      </trkpt>
      <trkpt lat="45.74483" lon="3.91975">
        <ele>842.900024</ele>
        <time>2017-05-27T09:07:27Z</time>
      </trkpt>
      <trkpt lat="45.74475" lon="3.91981">
        <ele>843.099976</ele>
        <time>2017-05-27T09:07:29Z</time>
      </trkpt>
      <trkpt lat="45.74464" lon="3.91988">
        <ele>843.5</ele>
        <time>2017-05-27T09:07:32Z</time>
      </trkpt>
      <trkpt lat="45.74453" lon="3.91996">
        <ele>844</ele>
        <time>2017-05-27T09:07:35Z</time>
      </trkpt>
      <trkpt lat="45.74443" lon="3.92004">
        <ele>844.599976</ele>
        <time>2017-05-27T09:07:38Z</time>
      </trkpt>
      <trkpt lat="45.74433" lon="3.92012">
        <ele>845</ele>
        <time>2017-05-27T09:07:41Z</time>
      </trkpt>
      <trkpt lat="45.74423" lon="3.92019">
        <ele>845.599976</ele>
        <time>2017-05-27T09:07:44Z</time>
      </trkpt>
      <trkpt lat="45.74412" lon="3.92024">
        <ele>846.200012</ele>
        <time>2017-05-27T09:07:47Z</time>
      </trkpt>
      <trkpt lat="45.744" lon="3.92026">
        <ele>846.599976</ele>
        <time>2017-05-27T09:07:50Z</time>
      </trkpt>
      <trkpt lat="45.7439" lon="3.92026">
        <ele>847.099976</ele>
        <time>2017-05-27T09:07:53Z</time>
      </trkpt>
      <trkpt lat="45.74379" lon="3.92022">
        <ele>847.200012</ele>
        <time>2017-05-27T09:07:56Z</time>
      </trkpt>
      <trkpt lat="45.74369" lon="3.92019">
        <ele>847.200012</ele>
        <time>2017-05-27T09:07:59Z</time>
      </trkpt>
      <trkpt lat="45.74359" lon="3.9201">
        <ele>847.299988</ele>
        <time>2017-05-27T09:08:02Z</time>
      </trkpt>
      <trkpt lat="45.74351" lon="3.92">
        <ele>847.400024</ele>
        <time>2017-05-27T09:08:05Z</time>
      </trkpt>
      <trkpt lat="45.74341" lon="3.91995">
        <ele>847.799988</ele>
        <time>2017-05-27T09:08:08Z</time>
      </trkpt>
      <trkpt lat="45.74329" lon="3.91992">
        <ele>847.799988</ele>
        <time>2017-05-27T09:08:11Z</time>
      </trkpt>
      <trkpt lat="45.74319" lon="3.91991">
        <ele>847.599976</ele>
        <time>2017-05-27T09:08:13Z</time>
      </trkpt>
      <trkpt lat="45.74308" lon="3.9199">
        <ele>847.200012</ele>
        <time>2017-05-27T09:08:15Z</time>
      </trkpt>
      <trkpt lat="45.74295" lon="3.91988">
        <ele>846.599976</ele>
        <time>2017-05-27T09:08:17Z</time>
      </trkpt>
      <trkpt lat="45.7428" lon="3.91988">
        <ele>846.099976</ele>
        <time>2017-05-27T09:08:19Z</time>
      </trkpt>
      <trkpt lat="45.74263" lon="3.91991">
        <ele>845.099976</ele>
        <time>2017-05-27T09:08:21Z</time>
      </trkpt>
      <trkpt lat="45.74254" lon="3.91996">
        <ele>844.5</ele>
        <time>2017-05-27T09:08:22Z</time>
      </trkpt>
      <trkpt lat="45.74241" lon="3.9201">
        <ele>843</ele>
        <time>2017-05-27T09:08:24Z</time>
      </trkpt>
      <trkpt lat="45.74232" lon="3.9202">
        <ele>841</ele>
        <time>2017-05-27T09:08:26Z</time>
      </trkpt>
      <trkpt lat="45.74227" lon="3.92023">
        <ele>833.400024</ele>
        <time>2017-05-27T09:08:47Z</time>
      </trkpt>
      <trkpt lat="45.74222" lon="3.9201">
        <ele>834.299988</ele>
        <time>2017-05-27T09:08:51Z</time>
      </trkpt>
      <trkpt lat="45.74215" lon="3.92001">
        <ele>835.200012</ele>
        <time>2017-05-27T09:08:56Z</time>
      </trkpt>
      <trkpt lat="45.74208" lon="3.91992">
        <ele>835.900024</ele>
        <time>2017-05-27T09:09:01Z</time>
      </trkpt>
      <trkpt lat="45.742" lon="3.91985">
        <ele>836.400024</ele>
        <time>2017-05-27T09:09:06Z</time>
      </trkpt>
      <trkpt lat="45.74193" lon="3.91976">
        <ele>837.099976</ele>
        <time>2017-05-27T09:09:11Z</time>
      </trkpt>
      <trkpt lat="45.74184" lon="3.91969">
        <ele>838</ele>
        <time>2017-05-27T09:09:17Z</time>
      </trkpt>
      <trkpt lat="45.74174" lon="3.91964">
        <ele>839.099976</ele>
        <time>2017-05-27T09:09:23Z</time>
      </trkpt>
      <trkpt lat="45.74168" lon="3.91954">
        <ele>840.299988</ele>
        <time>2017-05-27T09:09:29Z</time>
      </trkpt>
      <trkpt lat="45.74163" lon="3.91941">
        <ele>841.200012</ele>
        <time>2017-05-27T09:09:35Z</time>
      </trkpt>
      <trkpt lat="45.74159" lon="3.9193">
        <ele>842.200012</ele>
        <time>2017-05-27T09:09:41Z</time>
      </trkpt>
      <trkpt lat="45.74154" lon="3.91918">
        <ele>843.200012</ele>
        <time>2017-05-27T09:09:47Z</time>
      </trkpt>
      <trkpt lat="45.74149" lon="3.91905">
        <ele>844.299988</ele>
        <time>2017-05-27T09:09:54Z</time>
      </trkpt>
      <trkpt lat="45.74145" lon="3.91893">
        <ele>845.299988</ele>
        <time>2017-05-27T09:09:59Z</time>
      </trkpt>
      <trkpt lat="45.74144" lon="3.91878">
        <ele>847</ele>
        <time>2017-05-27T09:10:05Z</time>
      </trkpt>
      <trkpt lat="45.74142" lon="3.91863">
        <ele>847.900024</ele>
        <time>2017-05-27T09:10:11Z</time>
      </trkpt>
      <trkpt lat="45.74141" lon="3.9185">
        <ele>848.900024</ele>
        <time>2017-05-27T09:10:16Z</time>
      </trkpt>
      <trkpt lat="45.74139" lon="3.91837">
        <ele>850</ele>
        <time>2017-05-27T09:10:22Z</time>
      </trkpt>
      <trkpt lat="45.74134" lon="3.91826">
        <ele>851.099976</ele>
        <time>2017-05-27T09:10:27Z</time>
      </trkpt>
      <trkpt lat="45.74128" lon="3.91815">
        <ele>851.900024</ele>
        <time>2017-05-27T09:10:32Z</time>
      </trkpt>
      <trkpt lat="45.7412" lon="3.91805">
        <ele>853.200012</ele>
        <time>2017-05-27T09:10:38Z</time>
      </trkpt>
      <trkpt lat="45.7411" lon="3.91798">
        <ele>854.299988</ele>
        <time>2017-05-27T09:10:44Z</time>
      </trkpt>
      <trkpt lat="45.74102" lon="3.91793">
        <ele>855.400024</ele>
        <time>2017-05-27T09:10:49Z</time>
      </trkpt>
      <trkpt lat="45.74093" lon="3.91786">
        <ele>856.5</ele>
        <time>2017-05-27T09:10:55Z</time>
      </trkpt>
      <trkpt lat="45.74084" lon="3.91781">
        <ele>857.400024</ele>
        <time>2017-05-27T09:11:00Z</time>
      </trkpt>
      <trkpt lat="45.74074" lon="3.91777">
        <ele>858.900024</ele>
        <time>2017-05-27T09:11:06Z</time>
      </trkpt>
      <trkpt lat="45.74064" lon="3.91771">
        <ele>860</ele>
        <time>2017-05-27T09:11:12Z</time>
      </trkpt>
      <trkpt lat="45.74056" lon="3.91766">
        <ele>861.200012</ele>
        <time>2017-05-27T09:11:17Z</time>
      </trkpt>
      <trkpt lat="45.74047" lon="3.91758">
        <ele>862.400024</ele>
        <time>2017-05-27T09:11:23Z</time>
      </trkpt>
      <trkpt lat="45.74038" lon="3.91751">
        <ele>863.5</ele>
        <time>2017-05-27T09:11:29Z</time>
      </trkpt>
      <trkpt lat="45.74029" lon="3.91743">
        <ele>864.799988</ele>
        <time>2017-05-27T09:11:35Z</time>
      </trkpt>
      <trkpt lat="45.74019" lon="3.91742">
        <ele>866.099976</ele>
        <time>2017-05-27T09:11:41Z</time>
      </trkpt>
      <trkpt lat="45.7401" lon="3.91749">
        <ele>867.200012</ele>
        <time>2017-05-27T09:11:46Z</time>
      </trkpt>
      <trkpt lat="45.74003" lon="3.91758">
        <ele>868</ele>
        <time>2017-05-27T09:11:51Z</time>
      </trkpt>
      <trkpt lat="45.73996" lon="3.91768">
        <ele>868.799988</ele>
        <time>2017-05-27T09:11:56Z</time>
      </trkpt>
      <trkpt lat="45.73989" lon="3.91776">
        <ele>869.5</ele>
        <time>2017-05-27T09:12:01Z</time>
      </trkpt>
      <trkpt lat="45.73981" lon="3.91783">
        <ele>870.599976</ele>
        <time>2017-05-27T09:12:07Z</time>
      </trkpt>
      <trkpt lat="45.73974" lon="3.91793">
        <ele>871.700012</ele>
        <time>2017-05-27T09:12:13Z</time>
      </trkpt>
      <trkpt lat="45.73968" lon="3.91803">
        <ele>873.299988</ele>
        <time>2017-05-27T09:12:19Z</time>
      </trkpt>
      <trkpt lat="45.73961" lon="3.91812">
        <ele>874.799988</ele>
        <time>2017-05-27T09:12:25Z</time>
      </trkpt>
      <trkpt lat="45.73952" lon="3.9182">
        <ele>876.200012</ele>
        <time>2017-05-27T09:12:30Z</time>
      </trkpt>
      <trkpt lat="45.73942" lon="3.91816">
        <ele>877.900024</ele>
        <time>2017-05-27T09:12:36Z</time>
      </trkpt>
      <trkpt lat="45.73938" lon="3.91804">
        <ele>879.5</ele>
        <time>2017-05-27T09:12:45Z</time>
      </trkpt>
      <trkpt lat="45.73938" lon="3.9179">
        <ele>881</ele>
        <time>2017-05-27T09:12:52Z</time>
      </trkpt>
      <trkpt lat="45.73936" lon="3.91777">
        <ele>882.299988</ele>
        <time>2017-05-27T09:12:58Z</time>
      </trkpt>
      <trkpt lat="45.73938" lon="3.91763">
        <ele>883.400024</ele>
        <time>2017-05-27T09:13:04Z</time>
      </trkpt>
      <trkpt lat="45.73939" lon="3.9175">
        <ele>884.599976</ele>
        <time>2017-05-27T09:13:10Z</time>
      </trkpt>
      <trkpt lat="45.73935" lon="3.91674">
        <ele>892.700012</ele>
        <time>2017-05-27T09:16:21Z</time>
      </trkpt>
      <trkpt lat="45.73931" lon="3.91661">
        <ele>893.400024</ele>
        <time>2017-05-27T09:16:27Z</time>
      </trkpt>
      <trkpt lat="45.73927" lon="3.91649">
        <ele>894.599976</ele>
        <time>2017-05-27T09:16:35Z</time>
      </trkpt>
      <trkpt lat="45.73926" lon="3.91636">
        <ele>895.5</ele>
        <time>2017-05-27T09:16:42Z</time>
      </trkpt>
      <trkpt lat="45.73924" lon="3.91622">
        <ele>896.5</ele>
        <time>2017-05-27T09:16:49Z</time>
      </trkpt>
      <trkpt lat="45.73922" lon="3.91609">
        <ele>898</ele>
        <time>2017-05-27T09:16:59Z</time>
      </trkpt>
      <trkpt lat="45.73919" lon="3.91596">
        <ele>899.5</ele>
        <time>2017-05-27T09:17:08Z</time>
      </trkpt>
      <trkpt lat="45.7392" lon="3.91581">
        <ele>900.700012</ele>
        <time>2017-05-27T09:17:16Z</time>
      </trkpt>
      <trkpt lat="45.73917" lon="3.91568">
        <ele>901.5</ele>
        <time>2017-05-27T09:17:22Z</time>
      </trkpt>
      <trkpt lat="45.73916" lon="3.91554">
        <ele>902.900024</ele>
        <time>2017-05-27T09:17:30Z</time>
      </trkpt>
      <trkpt lat="45.73915" lon="3.91539">
        <ele>904.099976</ele>
        <time>2017-05-27T09:17:37Z</time>
      </trkpt>
      <trkpt lat="45.73913" lon="3.91526">
        <ele>905.299988</ele>
        <time>2017-05-27T09:17:44Z</time>
      </trkpt>
      <trkpt lat="45.73911" lon="3.91513">
        <ele>906</ele>
        <time>2017-05-27T09:17:49Z</time>
      </trkpt>
      <trkpt lat="45.73907" lon="3.91501">
        <ele>906.799988</ele>
        <time>2017-05-27T09:17:55Z</time>
      </trkpt>
      <trkpt lat="45.73906" lon="3.91487">
        <ele>907.299988</ele>
        <time>2017-05-27T09:18:02Z</time>
      </trkpt>
      <trkpt lat="45.73909" lon="3.91475">
        <ele>907.799988</ele>
        <time>2017-05-27T09:18:20Z</time>
      </trkpt>
      <trkpt lat="45.73901" lon="3.91467">
        <ele>908.099976</ele>
        <time>2017-05-27T09:20:25Z</time>
      </trkpt>
      <trkpt lat="45.739" lon="3.91453">
        <ele>908.299988</ele>
        <time>2017-05-27T09:20:30Z</time>
      </trkpt>
      <trkpt lat="45.73898" lon="3.9144">
        <ele>908.400024</ele>
        <time>2017-05-27T09:20:34Z</time>
      </trkpt>
      <trkpt lat="45.73895" lon="3.91426">
        <ele>908.299988</ele>
        <time>2017-05-27T09:20:37Z</time>
      </trkpt>
      <trkpt lat="45.73893" lon="3.91409">
        <ele>908</ele>
        <time>2017-05-27T09:20:40Z</time>
      </trkpt>
      <trkpt lat="45.73891" lon="3.91396">
        <ele>907.900024</ele>
        <time>2017-05-27T09:20:42Z</time>
      </trkpt>
      <trkpt lat="45.73889" lon="3.91381">
        <ele>907.599976</ele>
        <time>2017-05-27T09:20:44Z</time>
      </trkpt>
      <trkpt lat="45.73887" lon="3.91365">
        <ele>907.200012</ele>
        <time>2017-05-27T09:20:46Z</time>
      </trkpt>
      <trkpt lat="45.73886" lon="3.91346">
        <ele>906.599976</ele>
        <time>2017-05-27T09:20:48Z</time>
      </trkpt>
      <trkpt lat="45.73885" lon="3.91326">
        <ele>906.099976</ele>
        <time>2017-05-27T09:20:50Z</time>
      </trkpt>
      <trkpt lat="45.73886" lon="3.91306">
        <ele>905.299988</ele>
        <time>2017-05-27T09:20:52Z</time>
      </trkpt>
      <trkpt lat="45.73886" lon="3.91286">
        <ele>904.299988</ele>
        <time>2017-05-27T09:20:54Z</time>
      </trkpt>
      <trkpt lat="45.73887" lon="3.91266">
        <ele>903.400024</ele>
        <time>2017-05-27T09:20:56Z</time>
      </trkpt>
      <trkpt lat="45.73887" lon="3.91244">
        <ele>902.400024</ele>
        <time>2017-05-27T09:20:58Z</time>
      </trkpt>
      <trkpt lat="45.73889" lon="3.91222">
        <ele>901.599976</ele>
        <time>2017-05-27T09:21:00Z</time>
      </trkpt>
      <trkpt lat="45.7389" lon="3.91198">
        <ele>900.400024</ele>
        <time>2017-05-27T09:21:02Z</time>
      </trkpt>
      <trkpt lat="45.73891" lon="3.91173">
        <ele>899</ele>
        <time>2017-05-27T09:21:04Z</time>
      </trkpt>
      <trkpt lat="45.73893" lon="3.91159">
        <ele>898.400024</ele>
        <time>2017-05-27T09:21:05Z</time>
      </trkpt>
      <trkpt lat="45.73894" lon="3.91145">
        <ele>897.5</ele>
        <time>2017-05-27T09:21:06Z</time>
      </trkpt>
      <trkpt lat="45.73894" lon="3.91131">
        <ele>896.5</ele>
        <time>2017-05-27T09:21:07Z</time>
      </trkpt>
      <trkpt lat="45.73892" lon="3.91107">
        <ele>895.599976</ele>
        <time>2017-05-27T09:21:09Z</time>
      </trkpt>
      <trkpt lat="45.73885" lon="3.91092">
        <ele>894.5</ele>
        <time>2017-05-27T09:21:11Z</time>
      </trkpt>
      <trkpt lat="45.73877" lon="3.91081">
        <ele>893.200012</ele>
        <time>2017-05-27T09:21:13Z</time>
      </trkpt>
      <trkpt lat="45.73871" lon="3.91071">
        <ele>892.799988</ele>
        <time>2017-05-27T09:21:15Z</time>
      </trkpt>
      <trkpt lat="45.73865" lon="3.91061">
        <ele>892.599976</ele>
        <time>2017-05-27T09:21:17Z</time>
      </trkpt>
      <trkpt lat="45.73857" lon="3.91047">
        <ele>892.099976</ele>
        <time>2017-05-27T09:21:20Z</time>
      </trkpt>
      <trkpt lat="45.73853" lon="3.91034">
        <ele>892.400024</ele>
        <time>2017-05-27T09:21:23Z</time>
      </trkpt>
      <trkpt lat="45.73848" lon="3.91019">
        <ele>893</ele>
        <time>2017-05-27T09:21:27Z</time>
      </trkpt>
      <trkpt lat="45.73844" lon="3.91005">
        <ele>894.200012</ele>
        <time>2017-05-27T09:21:33Z</time>
      </trkpt>
      <trkpt lat="45.73841" lon="3.9099">
        <ele>895.200012</ele>
        <time>2017-05-27T09:21:39Z</time>
      </trkpt>
      <trkpt lat="45.73839" lon="3.90977">
        <ele>896.900024</ele>
        <time>2017-05-27T09:21:47Z</time>
      </trkpt>
      <trkpt lat="45.73836" lon="3.90964">
        <ele>898.299988</ele>
        <time>2017-05-27T09:21:55Z</time>
      </trkpt>
      <trkpt lat="45.73833" lon="3.90951">
        <ele>899.200012</ele>
        <time>2017-05-27T09:22:02Z</time>
      </trkpt>
      <trkpt lat="45.73831" lon="3.90938">
        <ele>900</ele>
        <time>2017-05-27T09:22:10Z</time>
      </trkpt>
      <trkpt lat="45.73828" lon="3.90924">
        <ele>901.299988</ele>
        <time>2017-05-27T09:22:19Z</time>
      </trkpt>
      <trkpt lat="45.73826" lon="3.90911">
        <ele>902</ele>
        <time>2017-05-27T09:22:27Z</time>
      </trkpt>
      <trkpt lat="45.73823" lon="3.90898">
        <ele>903.099976</ele>
        <time>2017-05-27T09:22:35Z</time>
      </trkpt>
      <trkpt lat="45.73821" lon="3.90885">
        <ele>903.799988</ele>
        <time>2017-05-27T09:22:41Z</time>
      </trkpt>
      <trkpt lat="45.73819" lon="3.90871">
        <ele>904.5</ele>
        <time>2017-05-27T09:22:49Z</time>
      </trkpt>
      <trkpt lat="45.73819" lon="3.90858">
        <ele>905</ele>
        <time>2017-05-27T09:22:57Z</time>
      </trkpt>
      <trkpt lat="45.73818" lon="3.90843">
        <ele>905.900024</ele>
        <time>2017-05-27T09:23:05Z</time>
      </trkpt>
      <trkpt lat="45.73817" lon="3.9083">
        <ele>906.799988</ele>
        <time>2017-05-27T09:23:12Z</time>
      </trkpt>
      <trkpt lat="45.73816" lon="3.90816">
        <ele>907.700012</ele>
        <time>2017-05-27T09:23:20Z</time>
      </trkpt>
      <trkpt lat="45.73816" lon="3.90803">
        <ele>908.200012</ele>
        <time>2017-05-27T09:23:27Z</time>
      </trkpt>
      <trkpt lat="45.73815" lon="3.90788">
        <ele>908.900024</ele>
        <time>2017-05-27T09:23:34Z</time>
      </trkpt>
      <trkpt lat="45.73815" lon="3.90775">
        <ele>909.200012</ele>
        <time>2017-05-27T09:23:40Z</time>
      </trkpt>
      <trkpt lat="45.73814" lon="3.90761">
        <ele>910</ele>
        <time>2017-05-27T09:23:47Z</time>
      </trkpt>
      <trkpt lat="45.73812" lon="3.90747">
        <ele>910.700012</ele>
        <time>2017-05-27T09:23:54Z</time>
      </trkpt>
      <trkpt lat="45.73808" lon="3.90735">
        <ele>911</ele>
        <time>2017-05-27T09:24:01Z</time>
      </trkpt>
      <trkpt lat="45.73805" lon="3.90723">
        <ele>911.400024</ele>
        <time>2017-05-27T09:24:07Z</time>
      </trkpt>
      <trkpt lat="45.73801" lon="3.9071">
        <ele>912.099976</ele>
        <time>2017-05-27T09:24:14Z</time>
      </trkpt>
      <trkpt lat="45.73797" lon="3.90698">
        <ele>912.799988</ele>
        <time>2017-05-27T09:24:20Z</time>
      </trkpt>
      <trkpt lat="45.73794" lon="3.90684">
        <ele>913.599976</ele>
        <time>2017-05-27T09:24:27Z</time>
      </trkpt>
      <trkpt lat="45.7379" lon="3.90671">
        <ele>914.799988</ele>
        <time>2017-05-27T09:24:34Z</time>
      </trkpt>
      <trkpt lat="45.73787" lon="3.90658">
        <ele>915.599976</ele>
        <time>2017-05-27T09:24:41Z</time>
      </trkpt>
      <trkpt lat="45.73783" lon="3.90644">
        <ele>916.700012</ele>
        <time>2017-05-27T09:24:48Z</time>
      </trkpt>
      <trkpt lat="45.7378" lon="3.90631">
        <ele>917.599976</ele>
        <time>2017-05-27T09:24:55Z</time>
      </trkpt>
      <trkpt lat="45.73778" lon="3.90618">
        <ele>918.700012</ele>
        <time>2017-05-27T09:25:02Z</time>
      </trkpt>
      <trkpt lat="45.73776" lon="3.90605">
        <ele>920.099976</ele>
        <time>2017-05-27T09:25:10Z</time>
      </trkpt>
      <trkpt lat="45.73773" lon="3.90592">
        <ele>920.799988</ele>
        <time>2017-05-27T09:25:17Z</time>
      </trkpt>
      <trkpt lat="45.7377" lon="3.90579">
        <ele>921.700012</ele>
        <time>2017-05-27T09:25:24Z</time>
      </trkpt>
      <trkpt lat="45.73767" lon="3.90565">
        <ele>922.599976</ele>
        <time>2017-05-27T09:25:31Z</time>
      </trkpt>
      <trkpt lat="45.73764" lon="3.90552">
        <ele>923.5</ele>
        <time>2017-05-27T09:25:38Z</time>
      </trkpt>
      <trkpt lat="45.73761" lon="3.90538">
        <ele>924</ele>
        <time>2017-05-27T09:25:45Z</time>
      </trkpt>
      <trkpt lat="45.73757" lon="3.90524">
        <ele>925</ele>
        <time>2017-05-27T09:25:52Z</time>
      </trkpt>
      <trkpt lat="45.73754" lon="3.90511">
        <ele>925.900024</ele>
        <time>2017-05-27T09:25:59Z</time>
      </trkpt>
      <trkpt lat="45.73751" lon="3.90498">
        <ele>926.700012</ele>
        <time>2017-05-27T09:26:06Z</time>
      </trkpt>
      <trkpt lat="45.73748" lon="3.90485">
        <ele>927.599976</ele>
        <time>2017-05-27T09:26:13Z</time>
      </trkpt>
      <trkpt lat="45.73745" lon="3.90472">
        <ele>928.400024</ele>
        <time>2017-05-27T09:26:20Z</time>
      </trkpt>
      <trkpt lat="45.73741" lon="3.90459">
        <ele>929.299988</ele>
        <time>2017-05-27T09:26:27Z</time>
      </trkpt>
      <trkpt lat="45.73739" lon="3.90446">
        <ele>930.200012</ele>
        <time>2017-05-27T09:26:34Z</time>
      </trkpt>
      <trkpt lat="45.73736" lon="3.90433">
        <ele>931.299988</ele>
        <time>2017-05-27T09:26:41Z</time>
      </trkpt>
      <trkpt lat="45.73733" lon="3.9042">
        <ele>931.900024</ele>
        <time>2017-05-27T09:26:48Z</time>
      </trkpt>
      <trkpt lat="45.73729" lon="3.90408">
        <ele>933</ele>
        <time>2017-05-27T09:26:55Z</time>
      </trkpt>
      <trkpt lat="45.73726" lon="3.90396">
        <ele>933.5</ele>
        <time>2017-05-27T09:27:02Z</time>
      </trkpt>
      <trkpt lat="45.73722" lon="3.90383">
        <ele>934.299988</ele>
        <time>2017-05-27T09:27:09Z</time>
      </trkpt>
      <trkpt lat="45.73718" lon="3.90371">
        <ele>935.099976</ele>
        <time>2017-05-27T09:27:15Z</time>
      </trkpt>
      <trkpt lat="45.73714" lon="3.90359">
        <ele>935.900024</ele>
        <time>2017-05-27T09:27:21Z</time>
      </trkpt>
      <trkpt lat="45.7371" lon="3.90346">
        <ele>936.599976</ele>
        <time>2017-05-27T09:27:27Z</time>
      </trkpt>
      <trkpt lat="45.73707" lon="3.90333">
        <ele>937.200012</ele>
        <time>2017-05-27T09:27:33Z</time>
      </trkpt>
      <trkpt lat="45.73705" lon="3.90319">
        <ele>937.400024</ele>
        <time>2017-05-27T09:27:39Z</time>
      </trkpt>
      <trkpt lat="45.73704" lon="3.90305">
        <ele>937.799988</ele>
        <time>2017-05-27T09:27:45Z</time>
      </trkpt>
      <trkpt lat="45.73704" lon="3.90292">
        <ele>938.200012</ele>
        <time>2017-05-27T09:27:50Z</time>
      </trkpt>
      <trkpt lat="45.73706" lon="3.90278">
        <ele>938.599976</ele>
        <time>2017-05-27T09:27:55Z</time>
      </trkpt>
      <trkpt lat="45.73705" lon="3.90264">
        <ele>938.700012</ele>
        <time>2017-05-27T09:28:01Z</time>
      </trkpt>
      <trkpt lat="45.73704" lon="3.90251">
        <ele>939.099976</ele>
        <time>2017-05-27T09:29:48Z</time>
      </trkpt>
      <trkpt lat="45.73703" lon="3.90236">
        <ele>938.700012</ele>
        <time>2017-05-27T09:32:33Z</time>
      </trkpt>
      <trkpt lat="45.73702" lon="3.90223">
        <ele>938.700012</ele>
        <time>2017-05-27T09:32:36Z</time>
      </trkpt>
      <trkpt lat="45.737" lon="3.90207">
        <ele>938.5</ele>
        <time>2017-05-27T09:32:39Z</time>
      </trkpt>
      <trkpt lat="45.73699" lon="3.90187">
        <ele>938.200012</ele>
        <time>2017-05-27T09:32:42Z</time>
      </trkpt>
      <trkpt lat="45.73699" lon="3.90172">
        <ele>938</ele>
        <time>2017-05-27T09:32:44Z</time>
      </trkpt>
      <trkpt lat="45.73698" lon="3.90156">
        <ele>937.700012</ele>
        <time>2017-05-27T09:32:46Z</time>
      </trkpt>
      <trkpt lat="45.73697" lon="3.9014">
        <ele>937.299988</ele>
        <time>2017-05-27T09:32:48Z</time>
      </trkpt>
      <trkpt lat="45.73697" lon="3.90122">
        <ele>936.700012</ele>
        <time>2017-05-27T09:32:50Z</time>
      </trkpt>
      <trkpt lat="45.73697" lon="3.90105">
        <ele>936.400024</ele>
        <time>2017-05-27T09:32:52Z</time>
      </trkpt>
      <trkpt lat="45.73698" lon="3.90088">
        <ele>936</ele>
        <time>2017-05-27T09:32:54Z</time>
      </trkpt>
      <trkpt lat="45.73698" lon="3.9007">
        <ele>935.700012</ele>
        <time>2017-05-27T09:32:56Z</time>
      </trkpt>
      <trkpt lat="45.73698" lon="3.90052">
        <ele>935.599976</ele>
        <time>2017-05-27T09:32:58Z</time>
      </trkpt>
      <trkpt lat="45.73698" lon="3.90035">
        <ele>935.200012</ele>
        <time>2017-05-27T09:33:00Z</time>
      </trkpt>
      <trkpt lat="45.73697" lon="3.90016">
        <ele>934.799988</ele>
        <time>2017-05-27T09:33:02Z</time>
      </trkpt>
      <trkpt lat="45.73697" lon="3.89997">
        <ele>934.400024</ele>
        <time>2017-05-27T09:33:04Z</time>
      </trkpt>
      <trkpt lat="45.73697" lon="3.89977">
        <ele>934</ele>
        <time>2017-05-27T09:33:06Z</time>
      </trkpt>
      <trkpt lat="45.73696" lon="3.89957">
        <ele>933.700012</ele>
        <time>2017-05-27T09:33:08Z</time>
      </trkpt>
      <trkpt lat="45.73695" lon="3.89938">
        <ele>933</ele>
        <time>2017-05-27T09:33:10Z</time>
      </trkpt>
      <trkpt lat="45.73693" lon="3.89919">
        <ele>932.5</ele>
        <time>2017-05-27T09:33:12Z</time>
      </trkpt>
      <trkpt lat="45.73688" lon="3.89901">
        <ele>932.200012</ele>
        <time>2017-05-27T09:33:14Z</time>
      </trkpt>
      <trkpt lat="45.73681" lon="3.89888">
        <ele>932</ele>
        <time>2017-05-27T09:33:16Z</time>
      </trkpt>
      <trkpt lat="45.73675" lon="3.89878">
        <ele>931.900024</ele>
        <time>2017-05-27T09:33:18Z</time>
      </trkpt>
      <trkpt lat="45.73666" lon="3.89865">
        <ele>932</ele>
        <time>2017-05-27T09:33:21Z</time>
      </trkpt>
      <trkpt lat="45.73658" lon="3.8985">
        <ele>932.5</ele>
        <time>2017-05-27T09:33:24Z</time>
      </trkpt>
      <trkpt lat="45.73651" lon="3.89834">
        <ele>932.799988</ele>
        <time>2017-05-27T09:33:27Z</time>
      </trkpt>
      <trkpt lat="45.73645" lon="3.89818">
        <ele>932.700012</ele>
        <time>2017-05-27T09:33:30Z</time>
      </trkpt>
      <trkpt lat="45.7364" lon="3.898">
        <ele>932.599976</ele>
        <time>2017-05-27T09:33:33Z</time>
      </trkpt>
      <trkpt lat="45.73637" lon="3.89787">
        <ele>932.5</ele>
        <time>2017-05-27T09:33:35Z</time>
      </trkpt>
      <trkpt lat="45.73634" lon="3.89773">
        <ele>932.400024</ele>
        <time>2017-05-27T09:33:37Z</time>
      </trkpt>
      <trkpt lat="45.73631" lon="3.8976">
        <ele>932.299988</ele>
        <time>2017-05-27T09:33:39Z</time>
      </trkpt>
      <trkpt lat="45.73629" lon="3.89746">
        <ele>932.299988</ele>
        <time>2017-05-27T09:33:41Z</time>
      </trkpt>
      <trkpt lat="45.73626" lon="3.89729">
        <ele>932.799988</ele>
        <time>2017-05-27T09:33:44Z</time>
      </trkpt>
      <trkpt lat="45.73624" lon="3.89713">
        <ele>933.200012</ele>
        <time>2017-05-27T09:33:47Z</time>
      </trkpt>
      <trkpt lat="45.73622" lon="3.89697">
        <ele>933.900024</ele>
        <time>2017-05-27T09:33:50Z</time>
      </trkpt>
      <trkpt lat="45.73621" lon="3.8968">
        <ele>934.400024</ele>
        <time>2017-05-27T09:33:53Z</time>
      </trkpt>
      <trkpt lat="45.73618" lon="3.89662">
        <ele>934.5</ele>
        <time>2017-05-27T09:33:56Z</time>
      </trkpt>
      <trkpt lat="45.73616" lon="3.89649">
        <ele>934.5</ele>
        <time>2017-05-27T09:33:58Z</time>
      </trkpt>
      <trkpt lat="45.73614" lon="3.89636">
        <ele>934.5</ele>
        <time>2017-05-27T09:34:00Z</time>
      </trkpt>
      <trkpt lat="45.73612" lon="3.89623">
        <ele>934.400024</ele>
        <time>2017-05-27T09:34:02Z</time>
      </trkpt>
      <trkpt lat="45.73611" lon="3.89609">
        <ele>934.400024</ele>
        <time>2017-05-27T09:34:04Z</time>
      </trkpt>
      <trkpt lat="45.7361" lon="3.89596">
        <ele>934.299988</ele>
        <time>2017-05-27T09:34:06Z</time>
      </trkpt>
      <trkpt lat="45.73608" lon="3.89583">
        <ele>934.200012</ele>
        <time>2017-05-27T09:34:08Z</time>
      </trkpt>
      <trkpt lat="45.73607" lon="3.89569">
        <ele>934</ele>
        <time>2017-05-27T09:34:10Z</time>
      </trkpt>
      <trkpt lat="45.73606" lon="3.89555">
        <ele>933.900024</ele>
        <time>2017-05-27T09:34:12Z</time>
      </trkpt>
      <trkpt lat="45.73605" lon="3.89542">
        <ele>933.900024</ele>
        <time>2017-05-27T09:34:14Z</time>
      </trkpt>
      <trkpt lat="45.73603" lon="3.89524">
        <ele>933.900024</ele>
        <time>2017-05-27T09:34:17Z</time>
      </trkpt>
      <trkpt lat="45.73602" lon="3.89505">
        <ele>933.900024</ele>
        <time>2017-05-27T09:34:20Z</time>
      </trkpt>
      <trkpt lat="45.73601" lon="3.89488">
        <ele>934.099976</ele>
        <time>2017-05-27T09:34:23Z</time>
      </trkpt>
      <trkpt lat="45.73599" lon="3.89472">
        <ele>934.200012</ele>
        <time>2017-05-27T09:34:26Z</time>
      </trkpt>
      <trkpt lat="45.73596" lon="3.89456">
        <ele>934.299988</ele>
        <time>2017-05-27T09:34:29Z</time>
      </trkpt>
      <trkpt lat="45.73592" lon="3.8944">
        <ele>934.5</ele>
        <time>2017-05-27T09:34:32Z</time>
      </trkpt>
      <trkpt lat="45.73584" lon="3.89425">
        <ele>934.5</ele>
        <time>2017-05-27T09:34:35Z</time>
      </trkpt>
      <trkpt lat="45.73578" lon="3.89415">
        <ele>934.299988</ele>
        <time>2017-05-27T09:34:37Z</time>
      </trkpt>
      <trkpt lat="45.7357" lon="3.89406">
        <ele>934.099976</ele>
        <time>2017-05-27T09:34:39Z</time>
      </trkpt>
      <trkpt lat="45.73561" lon="3.89397">
        <ele>933.900024</ele>
        <time>2017-05-27T09:34:41Z</time>
      </trkpt>
      <trkpt lat="45.73554" lon="3.89389">
        <ele>933.900024</ele>
        <time>2017-05-27T09:34:43Z</time>
      </trkpt>
      <trkpt lat="45.73545" lon="3.89378">
        <ele>934.099976</ele>
        <time>2017-05-27T09:34:46Z</time>
      </trkpt>
      <trkpt lat="45.73537" lon="3.89367">
        <ele>934.200012</ele>
        <time>2017-05-27T09:34:49Z</time>
      </trkpt>
      <trkpt lat="45.73529" lon="3.89355">
        <ele>934.299988</ele>
        <time>2017-05-27T09:34:52Z</time>
      </trkpt>
      <trkpt lat="45.73521" lon="3.89341">
        <ele>934.299988</ele>
        <time>2017-05-27T09:34:55Z</time>
      </trkpt>
      <trkpt lat="45.73514" lon="3.89331">
        <ele>934.200012</ele>
        <time>2017-05-27T09:34:57Z</time>
      </trkpt>
      <trkpt lat="45.73506" lon="3.89321">
        <ele>934</ele>
        <time>2017-05-27T09:34:59Z</time>
      </trkpt>
      <trkpt lat="45.73499" lon="3.89309">
        <ele>933.799988</ele>
        <time>2017-05-27T09:35:01Z</time>
      </trkpt>
      <trkpt lat="45.73492" lon="3.89297">
        <ele>933.700012</ele>
        <time>2017-05-27T09:35:03Z</time>
      </trkpt>
      <trkpt lat="45.73486" lon="3.89285">
        <ele>933.299988</ele>
        <time>2017-05-27T09:35:05Z</time>
      </trkpt>
      <trkpt lat="45.7348" lon="3.89273">
        <ele>933.099976</ele>
        <time>2017-05-27T09:35:07Z</time>
      </trkpt>
      <trkpt lat="45.73476" lon="3.89261">
        <ele>932.900024</ele>
        <time>2017-05-27T09:35:09Z</time>
      </trkpt>
      <trkpt lat="45.73471" lon="3.89248">
        <ele>932.700012</ele>
        <time>2017-05-27T09:35:11Z</time>
      </trkpt>
      <trkpt lat="45.73467" lon="3.89234">
        <ele>932.700012</ele>
        <time>2017-05-27T09:35:13Z</time>
      </trkpt>
      <trkpt lat="45.73464" lon="3.89221">
        <ele>932.900024</ele>
        <time>2017-05-27T09:35:15Z</time>
      </trkpt>
      <trkpt lat="45.73459" lon="3.89203">
        <ele>933.299988</ele>
        <time>2017-05-27T09:35:18Z</time>
      </trkpt>
      <trkpt lat="45.73454" lon="3.89186">
        <ele>933.5</ele>
        <time>2017-05-27T09:35:21Z</time>
      </trkpt>
      <trkpt lat="45.7345" lon="3.89169">
        <ele>934</ele>
        <time>2017-05-27T09:35:24Z</time>
      </trkpt>
      <trkpt lat="45.73445" lon="3.89154">
        <ele>934.5</ele>
        <time>2017-05-27T09:35:27Z</time>
      </trkpt>
      <trkpt lat="45.73439" lon="3.89139">
        <ele>934.900024</ele>
        <time>2017-05-27T09:35:30Z</time>
      </trkpt>
      <trkpt lat="45.73433" lon="3.89125">
        <ele>935.200012</ele>
        <time>2017-05-27T09:35:33Z</time>
      </trkpt>
      <trkpt lat="45.73427" lon="3.89113">
        <ele>935.799988</ele>
        <time>2017-05-27T09:35:36Z</time>
      </trkpt>
      <trkpt lat="45.73421" lon="3.891">
        <ele>936.299988</ele>
        <time>2017-05-27T09:35:39Z</time>
      </trkpt>
      <trkpt lat="45.73415" lon="3.89088">
        <ele>936.799988</ele>
        <time>2017-05-27T09:35:42Z</time>
      </trkpt>
      <trkpt lat="45.7341" lon="3.89074">
        <ele>937.299988</ele>
        <time>2017-05-27T09:35:46Z</time>
      </trkpt>
      <trkpt lat="45.73403" lon="3.89061">
        <ele>937.799988</ele>
        <time>2017-05-27T09:35:50Z</time>
      </trkpt>
      <trkpt lat="45.73395" lon="3.89051">
        <ele>938</ele>
        <time>2017-05-27T09:35:53Z</time>
      </trkpt>
      <trkpt lat="45.73388" lon="3.89042">
        <ele>938.099976</ele>
        <time>2017-05-27T09:35:58Z</time>
      </trkpt>
      <trkpt lat="45.73384" lon="3.8903">
        <ele>938.099976</ele>
        <time>2017-05-27T09:36:03Z</time>
      </trkpt>
      <trkpt lat="45.73377" lon="3.8902">
        <ele>938.299988</ele>
        <time>2017-05-27T09:36:08Z</time>
      </trkpt>
      <trkpt lat="45.7337" lon="3.89011">
        <ele>938.200012</ele>
        <time>2017-05-27T09:36:12Z</time>
      </trkpt>
      <trkpt lat="45.73362" lon="3.89002">
        <ele>938.099976</ele>
        <time>2017-05-27T09:36:16Z</time>
      </trkpt>
      <trkpt lat="45.73355" lon="3.88991">
        <ele>938.099976</ele>
        <time>2017-05-27T09:36:20Z</time>
      </trkpt>
      <trkpt lat="45.73352" lon="3.88979">
        <ele>938.099976</ele>
        <time>2017-05-27T09:36:24Z</time>
      </trkpt>
      <trkpt lat="45.73349" lon="3.88964">
        <ele>938.099976</ele>
        <time>2017-05-27T09:36:29Z</time>
      </trkpt>
      <trkpt lat="45.73345" lon="3.88948">
        <ele>938</ele>
        <time>2017-05-27T09:36:33Z</time>
      </trkpt>
      <trkpt lat="45.73344" lon="3.88933">
        <ele>938</ele>
        <time>2017-05-27T09:36:36Z</time>
      </trkpt>
      <trkpt lat="45.73343" lon="3.88918">
        <ele>938.200012</ele>
        <time>2017-05-27T09:36:39Z</time>
      </trkpt>
      <trkpt lat="45.73342" lon="3.88904">
        <ele>938.099976</ele>
        <time>2017-05-27T09:36:42Z</time>
      </trkpt>
      <trkpt lat="45.73342" lon="3.88891">
        <ele>938.400024</ele>
        <time>2017-05-27T09:36:45Z</time>
      </trkpt>
      <trkpt lat="45.73344" lon="3.88878">
        <ele>938.700012</ele>
        <time>2017-05-27T09:36:49Z</time>
      </trkpt>
      <trkpt lat="45.73354" lon="3.88876">
        <ele>939.200012</ele>
        <time>2017-05-27T09:36:54Z</time>
      </trkpt>
      <trkpt lat="45.73363" lon="3.88879">
        <ele>940.299988</ele>
        <time>2017-05-27T09:36:59Z</time>
      </trkpt>
      <trkpt lat="45.73372" lon="3.88878">
        <ele>941.700012</ele>
        <time>2017-05-27T09:37:05Z</time>
      </trkpt>
      <trkpt lat="45.73381" lon="3.88874">
        <ele>942.400024</ele>
        <time>2017-05-27T09:37:10Z</time>
      </trkpt>
      <trkpt lat="45.7339" lon="3.88866">
        <ele>943.900024</ele>
        <time>2017-05-27T09:37:17Z</time>
      </trkpt>
      <trkpt lat="45.73398" lon="3.88861">
        <ele>944.5</ele>
        <time>2017-05-27T09:37:22Z</time>
      </trkpt>
      <trkpt lat="45.73407" lon="3.88854">
        <ele>945.5</ele>
        <time>2017-05-27T09:37:28Z</time>
      </trkpt>
      <trkpt lat="45.73416" lon="3.88847">
        <ele>946.5</ele>
        <time>2017-05-27T09:37:34Z</time>
      </trkpt>
      <trkpt lat="45.73424" lon="3.88842">
        <ele>947.099976</ele>
        <time>2017-05-27T09:37:39Z</time>
      </trkpt>
      <trkpt lat="45.73432" lon="3.88832">
        <ele>948</ele>
        <time>2017-05-27T09:37:45Z</time>
      </trkpt>
      <trkpt lat="45.73438" lon="3.8882">
        <ele>948.400024</ele>
        <time>2017-05-27T09:37:50Z</time>
      </trkpt>
      <trkpt lat="45.73443" lon="3.88808">
        <ele>948.900024</ele>
        <time>2017-05-27T09:37:55Z</time>
      </trkpt>
      <trkpt lat="45.73448" lon="3.88796">
        <ele>949.900024</ele>
        <time>2017-05-27T09:38:00Z</time>
      </trkpt>
      <trkpt lat="45.73451" lon="3.88784">
        <ele>950.599976</ele>
        <time>2017-05-27T09:38:05Z</time>
      </trkpt>
      <trkpt lat="45.73454" lon="3.88769">
        <ele>951.200012</ele>
        <time>2017-05-27T09:38:10Z</time>
      </trkpt>
      <trkpt lat="45.73457" lon="3.88754">
        <ele>951.700012</ele>
        <time>2017-05-27T09:38:15Z</time>
      </trkpt>
      <trkpt lat="45.7346" lon="3.88741">
        <ele>952.400024</ele>
        <time>2017-05-27T09:38:20Z</time>
      </trkpt>
      <trkpt lat="45.73464" lon="3.88728">
        <ele>953</ele>
        <time>2017-05-27T09:38:25Z</time>
      </trkpt>
      <trkpt lat="45.73467" lon="3.88715">
        <ele>953.799988</ele>
        <time>2017-05-27T09:38:30Z</time>
      </trkpt>
      <trkpt lat="45.73471" lon="3.88702">
        <ele>954.299988</ele>
        <time>2017-05-27T09:38:35Z</time>
      </trkpt>
      <trkpt lat="45.73475" lon="3.8869">
        <ele>954.900024</ele>
        <time>2017-05-27T09:38:40Z</time>
      </trkpt>
      <trkpt lat="45.73479" lon="3.88677">
        <ele>955.5</ele>
        <time>2017-05-27T09:38:45Z</time>
      </trkpt>
      <trkpt lat="45.73484" lon="3.88665">
        <ele>956.299988</ele>
        <time>2017-05-27T09:38:50Z</time>
      </trkpt>
      <trkpt lat="45.73488" lon="3.88652">
        <ele>956.900024</ele>
        <time>2017-05-27T09:38:55Z</time>
      </trkpt>
      <trkpt lat="45.73494" lon="3.8864">
        <ele>957.799988</ele>
        <time>2017-05-27T09:39:01Z</time>
      </trkpt>
      <trkpt lat="45.735" lon="3.88629">
        <ele>958.700012</ele>
        <time>2017-05-27T09:39:06Z</time>
      </trkpt>
      <trkpt lat="45.73505" lon="3.88616">
        <ele>959.900024</ele>
        <time>2017-05-27T09:39:12Z</time>
      </trkpt>
      <trkpt lat="45.7351" lon="3.88604">
        <ele>960.799988</ele>
        <time>2017-05-27T09:39:17Z</time>
      </trkpt>
      <trkpt lat="45.73515" lon="3.88594">
        <ele>961.299988</ele>
        <time>2017-05-27T09:39:22Z</time>
      </trkpt>
      <trkpt lat="45.7352" lon="3.88583">
        <ele>962.099976</ele>
        <time>2017-05-27T09:39:27Z</time>
      </trkpt>
      <trkpt lat="45.73525" lon="3.88571">
        <ele>962.799988</ele>
        <time>2017-05-27T09:39:32Z</time>
      </trkpt>
      <trkpt lat="45.7353" lon="3.88558">
        <ele>963.200012</ele>
        <time>2017-05-27T09:39:37Z</time>
      </trkpt>
      <trkpt lat="45.73534" lon="3.88544">
        <ele>963.599976</ele>
        <time>2017-05-27T09:39:42Z</time>
      </trkpt>
      <trkpt lat="45.73538" lon="3.8853">
        <ele>964.299988</ele>
        <time>2017-05-27T09:39:47Z</time>
      </trkpt>
      <trkpt lat="45.73541" lon="3.88517">
        <ele>964.799988</ele>
        <time>2017-05-27T09:39:52Z</time>
      </trkpt>
      <trkpt lat="45.73545" lon="3.88502">
        <ele>965.299988</ele>
        <time>2017-05-27T09:39:57Z</time>
      </trkpt>
      <trkpt lat="45.73548" lon="3.88487">
        <ele>965.900024</ele>
        <time>2017-05-27T09:40:02Z</time>
      </trkpt>
      <trkpt lat="45.7355" lon="3.88473">
        <ele>966.599976</ele>
        <time>2017-05-27T09:40:07Z</time>
      </trkpt>
      <trkpt lat="45.73551" lon="3.88459">
        <ele>967.400024</ele>
        <time>2017-05-27T09:40:12Z</time>
      </trkpt>
      <trkpt lat="45.73552" lon="3.88445">
        <ele>968.099976</ele>
        <time>2017-05-27T09:40:17Z</time>
      </trkpt>
      <trkpt lat="45.73554" lon="3.88431">
        <ele>968.700012</ele>
        <time>2017-05-27T09:40:22Z</time>
      </trkpt>
      <trkpt lat="45.73555" lon="3.88417">
        <ele>969.599976</ele>
        <time>2017-05-27T09:40:27Z</time>
      </trkpt>
      <trkpt lat="45.73556" lon="3.88403">
        <ele>970.400024</ele>
        <time>2017-05-27T09:40:32Z</time>
      </trkpt>
      <trkpt lat="45.73557" lon="3.8839">
        <ele>971.299988</ele>
        <time>2017-05-27T09:40:37Z</time>
      </trkpt>
      <trkpt lat="45.7356" lon="3.88377">
        <ele>972.299988</ele>
        <time>2017-05-27T09:40:42Z</time>
      </trkpt>
      <trkpt lat="45.73562" lon="3.88363">
        <ele>973.900024</ele>
        <time>2017-05-27T09:41:34Z</time>
      </trkpt>
      <trkpt lat="45.73566" lon="3.88352">
        <ele>974.5</ele>
        <time>2017-05-27T09:41:40Z</time>
      </trkpt>
      <trkpt lat="45.7357" lon="3.88338">
        <ele>974.900024</ele>
        <time>2017-05-27T09:41:45Z</time>
      </trkpt>
      <trkpt lat="45.73576" lon="3.88325">
        <ele>975.900024</ele>
        <time>2017-05-27T09:41:50Z</time>
      </trkpt>
      <trkpt lat="45.73581" lon="3.88312">
        <ele>977</ele>
        <time>2017-05-27T09:41:55Z</time>
      </trkpt>
      <trkpt lat="45.73587" lon="3.88302">
        <ele>977.799988</ele>
        <time>2017-05-27T09:42:00Z</time>
      </trkpt>
      <trkpt lat="45.73592" lon="3.8829">
        <ele>978.599976</ele>
        <time>2017-05-27T09:42:05Z</time>
      </trkpt>
      <trkpt lat="45.73597" lon="3.88279">
        <ele>979.299988</ele>
        <time>2017-05-27T09:42:10Z</time>
      </trkpt>
      <trkpt lat="45.73604" lon="3.8827">
        <ele>980.099976</ele>
        <time>2017-05-27T09:42:15Z</time>
      </trkpt>
      <trkpt lat="45.73612" lon="3.8826">
        <ele>981</ele>
        <time>2017-05-27T09:42:21Z</time>
      </trkpt>
      <trkpt lat="45.73619" lon="3.8825">
        <ele>981.900024</ele>
        <time>2017-05-27T09:42:26Z</time>
      </trkpt>
      <trkpt lat="45.73626" lon="3.8824">
        <ele>982.599976</ele>
        <time>2017-05-27T09:42:31Z</time>
      </trkpt>
      <trkpt lat="45.73633" lon="3.8823">
        <ele>983.700012</ele>
        <time>2017-05-27T09:42:36Z</time>
      </trkpt>
      <trkpt lat="45.73639" lon="3.8822">
        <ele>984.700012</ele>
        <time>2017-05-27T09:42:41Z</time>
      </trkpt>
      <trkpt lat="45.73646" lon="3.88211">
        <ele>985.400024</ele>
        <time>2017-05-27T09:42:46Z</time>
      </trkpt>
      <trkpt lat="45.73653" lon="3.882">
        <ele>986</ele>
        <time>2017-05-27T09:42:51Z</time>
      </trkpt>
      <trkpt lat="45.7366" lon="3.88193">
        <ele>987.099976</ele>
        <time>2017-05-27T09:42:56Z</time>
      </trkpt>
      <trkpt lat="45.73667" lon="3.88184">
        <ele>988.200012</ele>
        <time>2017-05-27T09:43:01Z</time>
      </trkpt>
      <trkpt lat="45.73675" lon="3.88177">
        <ele>989.5</ele>
        <time>2017-05-27T09:43:07Z</time>
      </trkpt>
      <trkpt lat="45.73682" lon="3.88169">
        <ele>990.599976</ele>
        <time>2017-05-27T09:43:13Z</time>
      </trkpt>
      <trkpt lat="45.7369" lon="3.88161">
        <ele>991.5</ele>
        <time>2017-05-27T09:43:19Z</time>
      </trkpt>
      <trkpt lat="45.73694" lon="3.8815">
        <ele>992.5</ele>
        <time>2017-05-27T09:43:25Z</time>
      </trkpt>
      <trkpt lat="45.73699" lon="3.88138">
        <ele>993.799988</ele>
        <time>2017-05-27T09:43:31Z</time>
      </trkpt>
      <trkpt lat="45.73706" lon="3.88125">
        <ele>994.599976</ele>
        <time>2017-05-27T09:43:36Z</time>
      </trkpt>
      <trkpt lat="45.73712" lon="3.88114">
        <ele>995.400024</ele>
        <time>2017-05-27T09:43:41Z</time>
      </trkpt>
      <trkpt lat="45.73717" lon="3.88102">
        <ele>996.400024</ele>
        <time>2017-05-27T09:43:47Z</time>
      </trkpt>
      <trkpt lat="45.73721" lon="3.8809">
        <ele>997.299988</ele>
        <time>2017-05-27T09:43:52Z</time>
      </trkpt>
      <trkpt lat="45.73725" lon="3.88078">
        <ele>998.599976</ele>
        <time>2017-05-27T09:43:58Z</time>
      </trkpt>
      <trkpt lat="45.7373" lon="3.88066">
        <ele>999.5</ele>
        <time>2017-05-27T09:44:03Z</time>
      </trkpt>
      <trkpt lat="45.73736" lon="3.88055">
        <ele>1000.400024</ele>
        <time>2017-05-27T09:44:08Z</time>
      </trkpt>
      <trkpt lat="45.73745" lon="3.88042">
        <ele>1001.099976</ele>
        <time>2017-05-27T09:44:13Z</time>
      </trkpt>
      <trkpt lat="45.73751" lon="3.88029">
        <ele>1001.799988</ele>
        <time>2017-05-27T09:44:18Z</time>
      </trkpt>
      <trkpt lat="45.73757" lon="3.88017">
        <ele>1002.400024</ele>
        <time>2017-05-27T09:44:22Z</time>
      </trkpt>
      <trkpt lat="45.73761" lon="3.88003">
        <ele>1003.099976</ele>
        <time>2017-05-27T09:44:27Z</time>
      </trkpt>
      <trkpt lat="45.73764" lon="3.8799">
        <ele>1003.900024</ele>
        <time>2017-05-27T09:44:31Z</time>
      </trkpt>
      <trkpt lat="45.7377" lon="3.87979">
        <ele>1004.400024</ele>
        <time>2017-05-27T09:44:34Z</time>
      </trkpt>
      <trkpt lat="45.73775" lon="3.87965">
        <ele>1005.099976</ele>
        <time>2017-05-27T09:44:39Z</time>
      </trkpt>
      <trkpt lat="45.73779" lon="3.87953">
        <ele>1005.5</ele>
        <time>2017-05-27T09:44:43Z</time>
      </trkpt>
      <trkpt lat="45.73786" lon="3.87941">
        <ele>1006.200012</ele>
        <time>2017-05-27T09:44:47Z</time>
      </trkpt>
      <trkpt lat="45.73792" lon="3.87927">
        <ele>1006.900024</ele>
        <time>2017-05-27T09:44:52Z</time>
      </trkpt>
      <trkpt lat="45.73799" lon="3.87917">
        <ele>1007.400024</ele>
        <time>2017-05-27T09:44:55Z</time>
      </trkpt>
      <trkpt lat="45.73805" lon="3.87905">
        <ele>1008</ele>
        <time>2017-05-27T09:44:59Z</time>
      </trkpt>
      <trkpt lat="45.7381" lon="3.87892">
        <ele>1008.799988</ele>
        <time>2017-05-27T09:45:03Z</time>
      </trkpt>
      <trkpt lat="45.73814" lon="3.87878">
        <ele>1009.400024</ele>
        <time>2017-05-27T09:45:06Z</time>
      </trkpt>
      <trkpt lat="45.7382" lon="3.87868">
        <ele>1010.099976</ele>
        <time>2017-05-27T09:45:10Z</time>
      </trkpt>
      <trkpt lat="45.73827" lon="3.87857">
        <ele>1011</ele>
        <time>2017-05-27T09:45:15Z</time>
      </trkpt>
      <trkpt lat="45.73832" lon="3.87845">
        <ele>1011.799988</ele>
        <time>2017-05-27T09:45:20Z</time>
      </trkpt>
      <trkpt lat="45.73839" lon="3.87833">
        <ele>1012.700012</ele>
        <time>2017-05-27T09:45:25Z</time>
      </trkpt>
      <trkpt lat="45.73844" lon="3.87822">
        <ele>1013.599976</ele>
        <time>2017-05-27T09:45:29Z</time>
      </trkpt>
      <trkpt lat="45.7385" lon="3.87809">
        <ele>1014.799988</ele>
        <time>2017-05-27T09:45:34Z</time>
      </trkpt>
      <trkpt lat="45.73855" lon="3.87798">
        <ele>1015.799988</ele>
        <time>2017-05-27T09:45:39Z</time>
      </trkpt>
      <trkpt lat="45.7386" lon="3.87785">
        <ele>1016.799988</ele>
        <time>2017-05-27T09:45:45Z</time>
      </trkpt>
      <trkpt lat="45.73865" lon="3.87774">
        <ele>1017.799988</ele>
        <time>2017-05-27T09:45:50Z</time>
      </trkpt>
      <trkpt lat="45.73869" lon="3.87762">
        <ele>1018.799988</ele>
        <time>2017-05-27T09:45:55Z</time>
      </trkpt>
      <trkpt lat="45.73874" lon="3.87749">
        <ele>1020.400024</ele>
        <time>2017-05-27T09:46:01Z</time>
      </trkpt>
      <trkpt lat="45.7388" lon="3.87738">
        <ele>1021.200012</ele>
        <time>2017-05-27T09:46:06Z</time>
      </trkpt>
      <trkpt lat="45.73888" lon="3.87731">
        <ele>1022.400024</ele>
        <time>2017-05-27T09:46:12Z</time>
      </trkpt>
      <trkpt lat="45.73898" lon="3.87732">
        <ele>1024</ele>
        <time>2017-05-27T09:46:19Z</time>
      </trkpt>
      <trkpt lat="45.73908" lon="3.87734">
        <ele>1024.900024</ele>
        <time>2017-05-27T09:46:25Z</time>
      </trkpt>
      <trkpt lat="45.73924" lon="3.87735">
        <ele>984.910583</ele>
        <time>2017-05-27T09:47:31Z</time>
      </trkpt>
      <trkpt lat="45.73929" lon="3.87735">
        <ele>984.443115</ele>
        <time>2017-05-27T09:47:34Z</time>
      </trkpt>
      <trkpt lat="45.73931" lon="3.87729">
        <ele>984.418213</ele>
        <time>2017-05-27T09:51:23Z</time>
      </trkpt>
      <trkpt lat="45.73934" lon="3.8772">
        <ele>1027.599976</ele>
        <time>2017-05-27T09:51:30Z</time>
      </trkpt>
      <trkpt lat="45.73935" lon="3.87707">
        <ele>1027.5</ele>
        <time>2017-05-27T09:51:35Z</time>
      </trkpt>
      <trkpt lat="45.73937" lon="3.87692">
        <ele>1027.599976</ele>
        <time>2017-05-27T09:51:41Z</time>
      </trkpt>
      <trkpt lat="45.73938" lon="3.87678">
        <ele>1027.800049</ele>
        <time>2017-05-27T09:51:48Z</time>
      </trkpt>
      <trkpt lat="45.73941" lon="3.87664">
        <ele>1028.800049</ele>
        <time>2017-05-27T09:51:56Z</time>
      </trkpt>
      <trkpt lat="45.73944" lon="3.8765">
        <ele>1029.300049</ele>
        <time>2017-05-27T09:52:03Z</time>
      </trkpt>
      <trkpt lat="45.73949" lon="3.87638">
        <ele>1030</ele>
        <time>2017-05-27T09:52:08Z</time>
      </trkpt>
      <trkpt lat="45.73953" lon="3.87624">
        <ele>1030.900024</ele>
        <time>2017-05-27T09:52:14Z</time>
      </trkpt>
      <trkpt lat="45.73959" lon="3.87614">
        <ele>1031.599976</ele>
        <time>2017-05-27T09:52:18Z</time>
      </trkpt>
      <trkpt lat="45.73963" lon="3.87603">
        <ele>1032.5</ele>
        <time>2017-05-27T09:52:23Z</time>
      </trkpt>
      <trkpt lat="45.7397" lon="3.87592">
        <ele>1033.300049</ele>
        <time>2017-05-27T09:52:28Z</time>
      </trkpt>
      <trkpt lat="45.73976" lon="3.87581">
        <ele>1034.199951</ele>
        <time>2017-05-27T09:52:32Z</time>
      </trkpt>
      <trkpt lat="45.7398" lon="3.87568">
        <ele>1035.099976</ele>
        <time>2017-05-27T09:52:37Z</time>
      </trkpt>
      <trkpt lat="45.73985" lon="3.87555">
        <ele>1036.099976</ele>
        <time>2017-05-27T09:52:42Z</time>
      </trkpt>
      <trkpt lat="45.73986" lon="3.87542">
        <ele>1036.900024</ele>
        <time>2017-05-27T09:53:06Z</time>
      </trkpt>
      <trkpt lat="45.73993" lon="3.87533">
        <ele>1037</ele>
        <time>2017-05-27T09:54:05Z</time>
      </trkpt>
      <trkpt lat="45.73995" lon="3.8752">
        <ele>1037.300049</ele>
        <time>2017-05-27T09:54:10Z</time>
      </trkpt>
      <trkpt lat="45.73998" lon="3.87504">
        <ele>1037.5</ele>
        <time>2017-05-27T09:54:14Z</time>
      </trkpt>
      <trkpt lat="45.74001" lon="3.8749">
        <ele>1037.599976</ele>
        <time>2017-05-27T09:54:17Z</time>
      </trkpt>
      <trkpt lat="45.74004" lon="3.87476">
        <ele>1037.5</ele>
        <time>2017-05-27T09:54:20Z</time>
      </trkpt>
      <trkpt lat="45.74007" lon="3.87463">
        <ele>1037.5</ele>
        <time>2017-05-27T09:54:23Z</time>
      </trkpt>
      <trkpt lat="45.74009" lon="3.8745">
        <ele>1037.400024</ele>
        <time>2017-05-27T09:54:26Z</time>
      </trkpt>
      <trkpt lat="45.74011" lon="3.87437">
        <ele>1037.400024</ele>
        <time>2017-05-27T09:54:30Z</time>
      </trkpt>
      <trkpt lat="45.74013" lon="3.87424">
        <ele>1036.900024</ele>
        <time>2017-05-27T09:54:36Z</time>
      </trkpt>
      <trkpt lat="45.7402" lon="3.87406">
        <ele>1039.599976</ele>
        <time>2017-05-27T11:11:51Z</time>
      </trkpt>
      <trkpt lat="45.74026" lon="3.87396">
        <ele>1039</ele>
        <time>2017-05-27T11:11:54Z</time>
      </trkpt>
      <trkpt lat="45.74032" lon="3.87384">
        <ele>1038.699951</ele>
        <time>2017-05-27T11:11:59Z</time>
      </trkpt>
      <trkpt lat="45.74038" lon="3.87371">
        <ele>1038.599976</ele>
        <time>2017-05-27T11:12:04Z</time>
      </trkpt>
      <trkpt lat="45.74043" lon="3.87358">
        <ele>1038.5</ele>
        <time>2017-05-27T11:12:08Z</time>
      </trkpt>
      <trkpt lat="45.74049" lon="3.87344">
        <ele>1038.199951</ele>
        <time>2017-05-27T11:12:12Z</time>
      </trkpt>
      <trkpt lat="45.74056" lon="3.87331">
        <ele>1038.300049</ele>
        <time>2017-05-27T11:12:16Z</time>
      </trkpt>
      <trkpt lat="45.74063" lon="3.87318">
        <ele>1038.400024</ele>
        <time>2017-05-27T11:12:20Z</time>
      </trkpt>
      <trkpt lat="45.74065" lon="3.87305">
        <ele>1038.5</ele>
        <time>2017-05-27T11:12:24Z</time>
      </trkpt>
      <trkpt lat="45.74057" lon="3.87297">
        <ele>1038.900024</ele>
        <time>2017-05-27T11:12:29Z</time>
      </trkpt>
      <trkpt lat="45.74047" lon="3.87299">
        <ele>1039.400024</ele>
        <time>2017-05-27T11:12:34Z</time>
      </trkpt>
      <trkpt lat="45.74037" lon="3.87304">
        <ele>1040</ele>
        <time>2017-05-27T11:12:39Z</time>
      </trkpt>
      <trkpt lat="45.74027" lon="3.87306">
        <ele>1040.199951</ele>
        <time>2017-05-27T11:12:43Z</time>
      </trkpt>
      <trkpt lat="45.74016" lon="3.87307">
        <ele>1040.599976</ele>
        <time>2017-05-27T11:12:47Z</time>
      </trkpt>
      <trkpt lat="45.74005" lon="3.87309">
        <ele>1041.099976</ele>
        <time>2017-05-27T11:12:51Z</time>
      </trkpt>
      <trkpt lat="45.73994" lon="3.87309">
        <ele>1041.199951</ele>
        <time>2017-05-27T11:12:55Z</time>
      </trkpt>
      <trkpt lat="45.73983" lon="3.87304">
        <ele>1041.800049</ele>
        <time>2017-05-27T11:12:59Z</time>
      </trkpt>
      <trkpt lat="45.73972" lon="3.87301">
        <ele>1042.300049</ele>
        <time>2017-05-27T11:13:02Z</time>
      </trkpt>
      <trkpt lat="45.73961" lon="3.87298">
        <ele>1042.400024</ele>
        <time>2017-05-27T11:13:05Z</time>
      </trkpt>
      <trkpt lat="45.73948" lon="3.8729">
        <ele>1041.5</ele>
        <time>2017-05-27T11:13:08Z</time>
      </trkpt>
      <trkpt lat="45.73939" lon="3.87284">
        <ele>1041.099976</ele>
        <time>2017-05-27T11:13:10Z</time>
      </trkpt>
      <trkpt lat="45.7393" lon="3.87276">
        <ele>1040.800049</ele>
        <time>2017-05-27T11:13:12Z</time>
      </trkpt>
      <trkpt lat="45.73918" lon="3.87268">
        <ele>1040.099976</ele>
        <time>2017-05-27T11:13:14Z</time>
      </trkpt>
      <trkpt lat="45.73906" lon="3.87259">
        <ele>1039.599976</ele>
        <time>2017-05-27T11:13:16Z</time>
      </trkpt>
      <trkpt lat="45.73895" lon="3.87247">
        <ele>1038.800049</ele>
        <time>2017-05-27T11:13:18Z</time>
      </trkpt>
      <trkpt lat="45.73887" lon="3.87231">
        <ele>1037.900024</ele>
        <time>2017-05-27T11:13:20Z</time>
      </trkpt>
      <trkpt lat="45.73878" lon="3.87216">
        <ele>1037.099976</ele>
        <time>2017-05-27T11:13:22Z</time>
      </trkpt>
      <trkpt lat="45.73871" lon="3.87202">
        <ele>1036.599976</ele>
        <time>2017-05-27T11:13:24Z</time>
      </trkpt>
      <trkpt lat="45.73863" lon="3.87189">
        <ele>1036.5</ele>
        <time>2017-05-27T11:13:27Z</time>
      </trkpt>
      <trkpt lat="45.73854" lon="3.87182">
        <ele>1036.900024</ele>
        <time>2017-05-27T11:13:30Z</time>
      </trkpt>
      <trkpt lat="45.73846" lon="3.87176">
        <ele>1037.400024</ele>
        <time>2017-05-27T11:13:34Z</time>
      </trkpt>
      <trkpt lat="45.73837" lon="3.87167">
        <ele>1038</ele>
        <time>2017-05-27T11:13:39Z</time>
      </trkpt>
      <trkpt lat="45.73831" lon="3.87157">
        <ele>1039.099976</ele>
        <time>2017-05-27T11:13:44Z</time>
      </trkpt>
      <trkpt lat="45.73827" lon="3.87145">
        <ele>1040.300049</ele>
        <time>2017-05-27T11:13:49Z</time>
      </trkpt>
      <trkpt lat="45.73825" lon="3.87132">
        <ele>1041.800049</ele>
        <time>2017-05-27T11:13:54Z</time>
      </trkpt>
      <trkpt lat="45.73823" lon="3.87117">
        <ele>1043</ele>
        <time>2017-05-27T11:14:00Z</time>
      </trkpt>
      <trkpt lat="45.73821" lon="3.87103">
        <ele>1044.599976</ele>
        <time>2017-05-27T11:14:06Z</time>
      </trkpt>
      <trkpt lat="45.73819" lon="3.87088">
        <ele>1046</ele>
        <time>2017-05-27T11:14:12Z</time>
      </trkpt>
      <trkpt lat="45.73817" lon="3.87074">
        <ele>1047.199951</ele>
        <time>2017-05-27T11:14:18Z</time>
      </trkpt>
      <trkpt lat="45.73816" lon="3.87059">
        <ele>1048.300049</ele>
        <time>2017-05-27T11:14:24Z</time>
      </trkpt>
      <trkpt lat="45.73815" lon="3.87046">
        <ele>1049.300049</ele>
        <time>2017-05-27T11:14:29Z</time>
      </trkpt>
      <trkpt lat="45.73815" lon="3.87031">
        <ele>1050.199951</ele>
        <time>2017-05-27T11:14:35Z</time>
      </trkpt>
      <trkpt lat="45.73816" lon="3.87018">
        <ele>1051</ele>
        <time>2017-05-27T11:14:40Z</time>
      </trkpt>
      <trkpt lat="45.73816" lon="3.87003">
        <ele>1051.800049</ele>
        <time>2017-05-27T11:14:45Z</time>
      </trkpt>
      <trkpt lat="45.73816" lon="3.8699">
        <ele>1052.400024</ele>
        <time>2017-05-27T11:14:49Z</time>
      </trkpt>
      <trkpt lat="45.73815" lon="3.86977">
        <ele>1052.800049</ele>
        <time>2017-05-27T11:14:53Z</time>
      </trkpt>
      <trkpt lat="45.73814" lon="3.86961">
        <ele>1053.199951</ele>
        <time>2017-05-27T11:14:58Z</time>
      </trkpt>
      <trkpt lat="45.73811" lon="3.86946">
        <ele>1053.599976</ele>
        <time>2017-05-27T11:15:03Z</time>
      </trkpt>
      <trkpt lat="45.73809" lon="3.86933">
        <ele>1054.099976</ele>
        <time>2017-05-27T11:15:07Z</time>
      </trkpt>
      <trkpt lat="45.73806" lon="3.86918">
        <ele>1055</ele>
        <time>2017-05-27T11:15:12Z</time>
      </trkpt>
      <trkpt lat="45.73804" lon="3.86905">
        <ele>1055.5</ele>
        <time>2017-05-27T11:15:16Z</time>
      </trkpt>
      <trkpt lat="45.73801" lon="3.86893">
        <ele>1055.900024</ele>
        <time>2017-05-27T11:15:20Z</time>
      </trkpt>
      <trkpt lat="45.73799" lon="3.8688">
        <ele>1056.400024</ele>
        <time>2017-05-27T11:15:24Z</time>
      </trkpt>
      <trkpt lat="45.73797" lon="3.86864">
        <ele>1057</ele>
        <time>2017-05-27T11:15:29Z</time>
      </trkpt>
      <trkpt lat="45.73795" lon="3.86848">
        <ele>1057.599976</ele>
        <time>2017-05-27T11:15:34Z</time>
      </trkpt>
      <trkpt lat="45.73794" lon="3.86836">
        <ele>1058.300049</ele>
        <time>2017-05-27T11:15:38Z</time>
      </trkpt>
      <trkpt lat="45.73792" lon="3.86822">
        <ele>1059</ele>
        <time>2017-05-27T11:15:42Z</time>
      </trkpt>
      <trkpt lat="45.7379" lon="3.86809">
        <ele>1059.400024</ele>
        <time>2017-05-27T11:15:46Z</time>
      </trkpt>
      <trkpt lat="45.73787" lon="3.86797">
        <ele>1059.800049</ele>
        <time>2017-05-27T11:15:50Z</time>
      </trkpt>
      <trkpt lat="45.73784" lon="3.86784">
        <ele>1060.5</ele>
        <time>2017-05-27T11:15:54Z</time>
      </trkpt>
      <trkpt lat="45.73782" lon="3.86771">
        <ele>1060.699951</ele>
        <time>2017-05-27T11:15:58Z</time>
      </trkpt>
      <trkpt lat="45.7378" lon="3.86758">
        <ele>1061.300049</ele>
        <time>2017-05-27T11:16:02Z</time>
      </trkpt>
      <trkpt lat="45.73778" lon="3.86743">
        <ele>1062.099976</ele>
        <time>2017-05-27T11:16:07Z</time>
      </trkpt>
      <trkpt lat="45.73775" lon="3.86728">
        <ele>1063</ele>
        <time>2017-05-27T11:16:12Z</time>
      </trkpt>
      <trkpt lat="45.73773" lon="3.86713">
        <ele>1063.599976</ele>
        <time>2017-05-27T11:16:17Z</time>
      </trkpt>
      <trkpt lat="45.73772" lon="3.86698">
        <ele>1064.400024</ele>
        <time>2017-05-27T11:16:22Z</time>
      </trkpt>
      <trkpt lat="45.73769" lon="3.86684">
        <ele>1065.300049</ele>
        <time>2017-05-27T11:16:27Z</time>
      </trkpt>
      <trkpt lat="45.73767" lon="3.8667">
        <ele>1066.5</ele>
        <time>2017-05-27T11:16:32Z</time>
      </trkpt>
      <trkpt lat="45.73765" lon="3.86657">
        <ele>1067.800049</ele>
        <time>2017-05-27T11:16:37Z</time>
      </trkpt>
      <trkpt lat="45.73762" lon="3.86644">
        <ele>1069.300049</ele>
        <time>2017-05-27T11:16:42Z</time>
      </trkpt>
      <trkpt lat="45.73759" lon="3.8663">
        <ele>1070.400024</ele>
        <time>2017-05-27T11:16:47Z</time>
      </trkpt>
      <trkpt lat="45.73757" lon="3.86616">
        <ele>1071.900024</ele>
        <time>2017-05-27T11:16:52Z</time>
      </trkpt>
      <trkpt lat="45.73755" lon="3.86602">
        <ele>1073.099976</ele>
        <time>2017-05-27T11:16:57Z</time>
      </trkpt>
      <trkpt lat="45.73753" lon="3.86587">
        <ele>1074</ele>
        <time>2017-05-27T11:17:02Z</time>
      </trkpt>
      <trkpt lat="45.73752" lon="3.86571">
        <ele>1074.599976</ele>
        <time>2017-05-27T11:17:07Z</time>
      </trkpt>
      <trkpt lat="45.73749" lon="3.86556">
        <ele>1074.800049</ele>
        <time>2017-05-27T11:17:12Z</time>
      </trkpt>
      <trkpt lat="45.73746" lon="3.86543">
        <ele>1075.300049</ele>
        <time>2017-05-27T11:17:16Z</time>
      </trkpt>
      <trkpt lat="45.73743" lon="3.86528">
        <ele>1076</ele>
        <time>2017-05-27T11:17:21Z</time>
      </trkpt>
      <trkpt lat="45.7374" lon="3.86513">
        <ele>1076.900024</ele>
        <time>2017-05-27T11:17:26Z</time>
      </trkpt>
      <trkpt lat="45.73739" lon="3.86499">
        <ele>1077.900024</ele>
        <time>2017-05-27T11:17:31Z</time>
      </trkpt>
      <trkpt lat="45.73737" lon="3.86486">
        <ele>1078.5</ele>
        <time>2017-05-27T11:17:35Z</time>
      </trkpt>
      <trkpt lat="45.73738" lon="3.86471">
        <ele>1079.5</ele>
        <time>2017-05-27T11:17:40Z</time>
      </trkpt>
      <trkpt lat="45.73738" lon="3.86458">
        <ele>1080.300049</ele>
        <time>2017-05-27T11:17:44Z</time>
      </trkpt>
      <trkpt lat="45.73738" lon="3.86444">
        <ele>1081.5</ele>
        <time>2017-05-27T11:17:50Z</time>
      </trkpt>
      <trkpt lat="45.73738" lon="3.8643">
        <ele>1082.5</ele>
        <time>2017-05-27T11:17:55Z</time>
      </trkpt>
      <trkpt lat="45.73738" lon="3.86416">
        <ele>1083.900024</ele>
        <time>2017-05-27T11:18:01Z</time>
      </trkpt>
      <trkpt lat="45.73738" lon="3.86402">
        <ele>1085.400024</ele>
        <time>2017-05-27T11:18:06Z</time>
      </trkpt>
      <trkpt lat="45.7374" lon="3.86387">
        <ele>1086.400024</ele>
        <time>2017-05-27T11:18:10Z</time>
      </trkpt>
      <trkpt lat="45.7374" lon="3.86373">
        <ele>1087.099976</ele>
        <time>2017-05-27T11:18:14Z</time>
      </trkpt>
      <trkpt lat="45.73742" lon="3.86359">
        <ele>1087.699951</ele>
        <time>2017-05-27T11:18:19Z</time>
      </trkpt>
      <trkpt lat="45.73743" lon="3.86346">
        <ele>1088.099976</ele>
        <time>2017-05-27T11:18:25Z</time>
      </trkpt>
      <trkpt lat="45.73743" lon="3.86333">
        <ele>1088.300049</ele>
        <time>2017-05-27T11:18:32Z</time>
      </trkpt>
      <trkpt lat="45.73742" lon="3.8632">
        <ele>1088.300049</ele>
        <time>2017-05-27T11:21:11Z</time>
      </trkpt>
      <trkpt lat="45.73745" lon="3.86306">
        <ele>1088.5</ele>
        <time>2017-05-27T11:21:17Z</time>
      </trkpt>
      <trkpt lat="45.73746" lon="3.86293">
        <ele>1088.699951</ele>
        <time>2017-05-27T11:21:21Z</time>
      </trkpt>
      <trkpt lat="45.73749" lon="3.86277">
        <ele>1088.900024</ele>
        <time>2017-05-27T11:21:26Z</time>
      </trkpt>
      <trkpt lat="45.73751" lon="3.86264">
        <ele>1089.199951</ele>
        <time>2017-05-27T11:21:30Z</time>
      </trkpt>
      <trkpt lat="45.73753" lon="3.86251">
        <ele>1089.300049</ele>
        <time>2017-05-27T11:21:34Z</time>
      </trkpt>
      <trkpt lat="45.73758" lon="3.86237">
        <ele>1089.599976</ele>
        <time>2017-05-27T11:21:38Z</time>
      </trkpt>
      <trkpt lat="45.73762" lon="3.86221">
        <ele>1090.099976</ele>
        <time>2017-05-27T11:21:42Z</time>
      </trkpt>
      <trkpt lat="45.73764" lon="3.86205">
        <ele>1090.599976</ele>
        <time>2017-05-27T11:21:46Z</time>
      </trkpt>
      <trkpt lat="45.73769" lon="3.86192">
        <ele>1091</ele>
        <time>2017-05-27T11:21:50Z</time>
      </trkpt>
      <trkpt lat="45.73773" lon="3.86179">
        <ele>1091.400024</ele>
        <time>2017-05-27T11:21:54Z</time>
      </trkpt>
      <trkpt lat="45.73779" lon="3.86164">
        <ele>1091.599976</ele>
        <time>2017-05-27T11:21:58Z</time>
      </trkpt>
      <trkpt lat="45.73782" lon="3.86152">
        <ele>1091.699951</ele>
        <time>2017-05-27T11:22:01Z</time>
      </trkpt>
      <trkpt lat="45.73786" lon="3.8614">
        <ele>1091.900024</ele>
        <time>2017-05-27T11:22:04Z</time>
      </trkpt>
      <trkpt lat="45.7379" lon="3.86128">
        <ele>1092.300049</ele>
        <time>2017-05-27T11:22:08Z</time>
      </trkpt>
      <trkpt lat="45.73794" lon="3.86115">
        <ele>1092.5</ele>
        <time>2017-05-27T11:22:11Z</time>
      </trkpt>
      <trkpt lat="45.73798" lon="3.86102">
        <ele>1092.900024</ele>
        <time>2017-05-27T11:22:14Z</time>
      </trkpt>
      <trkpt lat="45.73801" lon="3.86088">
        <ele>1093</ele>
        <time>2017-05-27T11:22:17Z</time>
      </trkpt>
      <trkpt lat="45.73804" lon="3.86071">
        <ele>1093</ele>
        <time>2017-05-27T11:22:20Z</time>
      </trkpt>
      <trkpt lat="45.73808" lon="3.86057">
        <ele>1092.900024</ele>
        <time>2017-05-27T11:22:23Z</time>
      </trkpt>
      <trkpt lat="45.73812" lon="3.86043">
        <ele>1093</ele>
        <time>2017-05-27T11:22:26Z</time>
      </trkpt>
      <trkpt lat="45.73817" lon="3.86029">
        <ele>1093.199951</ele>
        <time>2017-05-27T11:22:29Z</time>
      </trkpt>
      <trkpt lat="45.73821" lon="3.86013">
        <ele>1093.5</ele>
        <time>2017-05-27T11:22:32Z</time>
      </trkpt>
      <trkpt lat="45.73825" lon="3.85996">
        <ele>1093.800049</ele>
        <time>2017-05-27T11:22:35Z</time>
      </trkpt>
      <trkpt lat="45.7383" lon="3.85977">
        <ele>1093.800049</ele>
        <time>2017-05-27T11:22:38Z</time>
      </trkpt>
      <trkpt lat="45.73836" lon="3.85963">
        <ele>1093.5</ele>
        <time>2017-05-27T11:22:40Z</time>
      </trkpt>
      <trkpt lat="45.73844" lon="3.85948">
        <ele>1093.099976</ele>
        <time>2017-05-27T11:22:42Z</time>
      </trkpt>
      <trkpt lat="45.7385" lon="3.85938">
        <ele>1092.699951</ele>
        <time>2017-05-27T11:22:44Z</time>
      </trkpt>
      <trkpt lat="45.73857" lon="3.85926">
        <ele>1092.599976</ele>
        <time>2017-05-27T11:22:47Z</time>
      </trkpt>
      <trkpt lat="45.73863" lon="3.85915">
        <ele>1092.400024</ele>
        <time>2017-05-27T11:22:50Z</time>
      </trkpt>
      <trkpt lat="45.73867" lon="3.85903">
        <ele>1092.5</ele>
        <time>2017-05-27T11:22:53Z</time>
      </trkpt>
      <trkpt lat="45.73869" lon="3.8589">
        <ele>1092.400024</ele>
        <time>2017-05-27T11:22:56Z</time>
      </trkpt>
      <trkpt lat="45.73868" lon="3.85875">
        <ele>1092.599976</ele>
        <time>2017-05-27T11:23:00Z</time>
      </trkpt>
      <trkpt lat="45.7386" lon="3.85863">
        <ele>1092.599976</ele>
        <time>2017-05-27T11:23:04Z</time>
      </trkpt>
      <trkpt lat="45.73851" lon="3.85855">
        <ele>1092.800049</ele>
        <time>2017-05-27T11:23:08Z</time>
      </trkpt>
      <trkpt lat="45.73844" lon="3.85845">
        <ele>1093.099976</ele>
        <time>2017-05-27T11:23:12Z</time>
      </trkpt>
      <trkpt lat="45.73836" lon="3.85836">
        <ele>1093.5</ele>
        <time>2017-05-27T11:23:16Z</time>
      </trkpt>
      <trkpt lat="45.73828" lon="3.85826">
        <ele>1093.699951</ele>
        <time>2017-05-27T11:23:20Z</time>
      </trkpt>
      <trkpt lat="45.7382" lon="3.85816">
        <ele>1094</ele>
        <time>2017-05-27T11:23:24Z</time>
      </trkpt>
      <trkpt lat="45.73812" lon="3.85804">
        <ele>1094.199951</ele>
        <time>2017-05-27T11:23:28Z</time>
      </trkpt>
      <trkpt lat="45.73805" lon="3.85793">
        <ele>1094.199951</ele>
        <time>2017-05-27T11:23:32Z</time>
      </trkpt>
      <trkpt lat="45.73798" lon="3.85781">
        <ele>1094.199951</ele>
        <time>2017-05-27T11:23:36Z</time>
      </trkpt>
      <trkpt lat="45.73791" lon="3.85768">
        <ele>1094</ele>
        <time>2017-05-27T11:23:40Z</time>
      </trkpt>
      <trkpt lat="45.73783" lon="3.85758">
        <ele>1093.800049</ele>
        <time>2017-05-27T11:23:44Z</time>
      </trkpt>
      <trkpt lat="45.73777" lon="3.85747">
        <ele>1094.099976</ele>
        <time>2017-05-27T11:23:48Z</time>
      </trkpt>
      <trkpt lat="45.7377" lon="3.85738">
        <ele>1094.300049</ele>
        <time>2017-05-27T11:23:52Z</time>
      </trkpt>
      <trkpt lat="45.73762" lon="3.85727">
        <ele>1095.099976</ele>
        <time>2017-05-27T11:23:57Z</time>
      </trkpt>
      <trkpt lat="45.73755" lon="3.85716">
        <ele>1095.5</ele>
        <time>2017-05-27T11:24:01Z</time>
      </trkpt>
      <trkpt lat="45.73748" lon="3.85705">
        <ele>1095.900024</ele>
        <time>2017-05-27T11:24:05Z</time>
      </trkpt>
      <trkpt lat="45.73742" lon="3.85695">
        <ele>1096.5</ele>
        <time>2017-05-27T11:24:09Z</time>
      </trkpt>
      <trkpt lat="45.73735" lon="3.85682">
        <ele>1097.099976</ele>
        <time>2017-05-27T11:24:14Z</time>
      </trkpt>
      <trkpt lat="45.7373" lon="3.85672">
        <ele>1097.5</ele>
        <time>2017-05-27T11:24:18Z</time>
      </trkpt>
      <trkpt lat="45.73724" lon="3.85661">
        <ele>1097.599976</ele>
        <time>2017-05-27T11:24:22Z</time>
      </trkpt>
      <trkpt lat="45.73716" lon="3.85652">
        <ele>1097.699951</ele>
        <time>2017-05-27T11:24:26Z</time>
      </trkpt>
      <trkpt lat="45.73708" lon="3.85643">
        <ele>1098</ele>
        <time>2017-05-27T11:24:30Z</time>
      </trkpt>
      <trkpt lat="45.73701" lon="3.85633">
        <ele>1098.300049</ele>
        <time>2017-05-27T11:24:34Z</time>
      </trkpt>
      <trkpt lat="45.73694" lon="3.85625">
        <ele>1098.5</ele>
        <time>2017-05-27T11:24:37Z</time>
      </trkpt>
      <trkpt lat="45.73685" lon="3.85615">
        <ele>1098.699951</ele>
        <time>2017-05-27T11:24:41Z</time>
      </trkpt>
      <trkpt lat="45.73676" lon="3.85606">
        <ele>1099</ele>
        <time>2017-05-27T11:24:45Z</time>
      </trkpt>
      <trkpt lat="45.73667" lon="3.85597">
        <ele>1099.199951</ele>
        <time>2017-05-27T11:24:49Z</time>
      </trkpt>
      <trkpt lat="45.73658" lon="3.85588">
        <ele>1100</ele>
        <time>2017-05-27T11:24:54Z</time>
      </trkpt>
      <trkpt lat="45.73649" lon="3.85579">
        <ele>1100.699951</ele>
        <time>2017-05-27T11:24:59Z</time>
      </trkpt>
      <trkpt lat="45.73641" lon="3.8557">
        <ele>1101.5</ele>
        <time>2017-05-27T11:25:04Z</time>
      </trkpt>
      <trkpt lat="45.73633" lon="3.8556">
        <ele>1102.199951</ele>
        <time>2017-05-27T11:25:09Z</time>
      </trkpt>
      <trkpt lat="45.73626" lon="3.85549">
        <ele>1102.5</ele>
        <time>2017-05-27T11:25:14Z</time>
      </trkpt>
      <trkpt lat="45.7362" lon="3.85536">
        <ele>1103.199951</ele>
        <time>2017-05-27T11:25:20Z</time>
      </trkpt>
      <trkpt lat="45.73619" lon="3.85522">
        <ele>1103.900024</ele>
        <time>2017-05-27T11:25:27Z</time>
      </trkpt>
      <trkpt lat="45.73615" lon="3.8551">
        <ele>1104.800049</ele>
        <time>2017-05-27T11:25:33Z</time>
      </trkpt>
      <trkpt lat="45.73607" lon="3.85499">
        <ele>1105.699951</ele>
        <time>2017-05-27T11:25:38Z</time>
      </trkpt>
      <trkpt lat="45.73598" lon="3.85492">
        <ele>1106.300049</ele>
        <time>2017-05-27T11:25:42Z</time>
      </trkpt>
      <trkpt lat="45.7359" lon="3.85483">
        <ele>1106.599976</ele>
        <time>2017-05-27T11:25:46Z</time>
      </trkpt>
      <trkpt lat="45.73582" lon="3.85475">
        <ele>1107</ele>
        <time>2017-05-27T11:25:50Z</time>
      </trkpt>
      <trkpt lat="45.73573" lon="3.85468">
        <ele>1107</ele>
        <time>2017-05-27T11:25:54Z</time>
      </trkpt>
      <trkpt lat="45.73561" lon="3.85469">
        <ele>1107.099976</ele>
        <time>2017-05-27T11:25:58Z</time>
      </trkpt>
      <trkpt lat="45.73552" lon="3.85473">
        <ele>1107.099976</ele>
        <time>2017-05-27T11:26:01Z</time>
      </trkpt>
      <trkpt lat="45.73541" lon="3.85473">
        <ele>1106.599976</ele>
        <time>2017-05-27T11:26:04Z</time>
      </trkpt>
      <trkpt lat="45.73532" lon="3.85473">
        <ele>1105.900024</ele>
        <time>2017-05-27T11:26:06Z</time>
      </trkpt>
      <trkpt lat="45.73523" lon="3.85474">
        <ele>1105.5</ele>
        <time>2017-05-27T11:26:08Z</time>
      </trkpt>
      <trkpt lat="45.73509" lon="3.85482">
        <ele>1104.800049</ele>
        <time>2017-05-27T11:26:11Z</time>
      </trkpt>
      <trkpt lat="45.73499" lon="3.8549">
        <ele>1104.699951</ele>
        <time>2017-05-27T11:26:13Z</time>
      </trkpt>
      <trkpt lat="45.73489" lon="3.85496">
        <ele>1104.5</ele>
        <time>2017-05-27T11:26:15Z</time>
      </trkpt>
      <trkpt lat="45.73477" lon="3.85498">
        <ele>1104.199951</ele>
        <time>2017-05-27T11:26:17Z</time>
      </trkpt>
      <trkpt lat="45.73464" lon="3.85498">
        <ele>1103.800049</ele>
        <time>2017-05-27T11:26:19Z</time>
      </trkpt>
      <trkpt lat="45.73453" lon="3.855">
        <ele>1103.400024</ele>
        <time>2017-05-27T11:26:21Z</time>
      </trkpt>
      <trkpt lat="45.73441" lon="3.85506">
        <ele>1101.900024</ele>
        <time>2017-05-27T11:26:23Z</time>
      </trkpt>
      <trkpt lat="45.73428" lon="3.85514">
        <ele>1101</ele>
        <time>2017-05-27T11:26:25Z</time>
      </trkpt>
      <trkpt lat="45.73423" lon="3.85525">
        <ele>1100.699951</ele>
        <time>2017-05-27T11:26:26Z</time>
      </trkpt>
      <trkpt lat="45.73409" lon="3.85537">
        <ele>1100.400024</ele>
        <time>2017-05-27T11:26:28Z</time>
      </trkpt>
      <trkpt lat="45.73399" lon="3.85549">
        <ele>1100.099976</ele>
        <time>2017-05-27T11:26:30Z</time>
      </trkpt>
      <trkpt lat="45.73387" lon="3.8556">
        <ele>1099.900024</ele>
        <time>2017-05-27T11:26:32Z</time>
      </trkpt>
      <trkpt lat="45.73378" lon="3.85566">
        <ele>1099.900024</ele>
        <time>2017-05-27T11:26:34Z</time>
      </trkpt>
      <trkpt lat="45.73369" lon="3.85572">
        <ele>1100</ele>
        <time>2017-05-27T11:26:36Z</time>
      </trkpt>
      <trkpt lat="45.73353" lon="3.85584">
        <ele>1100.300049</ele>
        <time>2017-05-27T11:26:39Z</time>
      </trkpt>
      <trkpt lat="45.73342" lon="3.85592">
        <ele>1100.5</ele>
        <time>2017-05-27T11:26:42Z</time>
      </trkpt>
      <trkpt lat="45.73332" lon="3.85599">
        <ele>1100.900024</ele>
        <time>2017-05-27T11:26:45Z</time>
      </trkpt>
      <trkpt lat="45.73323" lon="3.85605">
        <ele>1101.199951</ele>
        <time>2017-05-27T11:26:47Z</time>
      </trkpt>
      <trkpt lat="45.73313" lon="3.85614">
        <ele>1101.400024</ele>
        <time>2017-05-27T11:26:49Z</time>
      </trkpt>
      <trkpt lat="45.73304" lon="3.85621">
        <ele>1101.599976</ele>
        <time>2017-05-27T11:26:51Z</time>
      </trkpt>
      <trkpt lat="45.73296" lon="3.85628">
        <ele>1101.800049</ele>
        <time>2017-05-27T11:26:53Z</time>
      </trkpt>
      <trkpt lat="45.73287" lon="3.85633">
        <ele>1102.099976</ele>
        <time>2017-05-27T11:26:55Z</time>
      </trkpt>
      <trkpt lat="45.73279" lon="3.85638">
        <ele>1102.199951</ele>
        <time>2017-05-27T11:26:57Z</time>
      </trkpt>
      <trkpt lat="45.7327" lon="3.85643">
        <ele>1102.199951</ele>
        <time>2017-05-27T11:26:59Z</time>
      </trkpt>
      <trkpt lat="45.7326" lon="3.85647">
        <ele>1102.199951</ele>
        <time>2017-05-27T11:27:01Z</time>
      </trkpt>
      <trkpt lat="45.73248" lon="3.85651">
        <ele>1102.199951</ele>
        <time>2017-05-27T11:27:04Z</time>
      </trkpt>
      <trkpt lat="45.73237" lon="3.85656">
        <ele>1102</ele>
        <time>2017-05-27T11:27:07Z</time>
      </trkpt>
      <trkpt lat="45.73227" lon="3.85659">
        <ele>1102.400024</ele>
        <time>2017-05-27T11:27:11Z</time>
      </trkpt>
      <trkpt lat="45.73215" lon="3.85658">
        <ele>1102.900024</ele>
        <time>2017-05-27T11:27:14Z</time>
      </trkpt>
      <trkpt lat="45.73206" lon="3.8566">
        <ele>1103.5</ele>
        <time>2017-05-27T11:27:18Z</time>
      </trkpt>
      <trkpt lat="45.73195" lon="3.85663">
        <ele>1104.099976</ele>
        <time>2017-05-27T11:27:21Z</time>
      </trkpt>
      <trkpt lat="45.73185" lon="3.85665">
        <ele>1104.800049</ele>
        <time>2017-05-27T11:27:26Z</time>
      </trkpt>
      <trkpt lat="45.73175" lon="3.85667">
        <ele>1105.800049</ele>
        <time>2017-05-27T11:27:30Z</time>
      </trkpt>
      <trkpt lat="45.73163" lon="3.85668">
        <ele>1106.699951</ele>
        <time>2017-05-27T11:27:34Z</time>
      </trkpt>
      <trkpt lat="45.73153" lon="3.8567">
        <ele>1107.400024</ele>
        <time>2017-05-27T11:27:38Z</time>
      </trkpt>
      <trkpt lat="45.73141" lon="3.85672">
        <ele>1108</ele>
        <time>2017-05-27T11:27:42Z</time>
      </trkpt>
      <trkpt lat="45.73132" lon="3.85674">
        <ele>1108.400024</ele>
        <time>2017-05-27T11:27:45Z</time>
      </trkpt>
      <trkpt lat="45.73122" lon="3.85675">
        <ele>1108.900024</ele>
        <time>2017-05-27T11:27:50Z</time>
      </trkpt>
      <trkpt lat="45.73111" lon="3.85676">
        <ele>1109.300049</ele>
        <time>2017-05-27T11:27:54Z</time>
      </trkpt>
      <trkpt lat="45.73101" lon="3.85678">
        <ele>1109.5</ele>
        <time>2017-05-27T11:27:57Z</time>
      </trkpt>
      <trkpt lat="45.73092" lon="3.85679">
        <ele>1109.400024</ele>
        <time>2017-05-27T11:28:00Z</time>
      </trkpt>
      <trkpt lat="45.73082" lon="3.8568">
        <ele>1109.199951</ele>
        <time>2017-05-27T11:28:03Z</time>
      </trkpt>
      <trkpt lat="45.7307" lon="3.8568">
        <ele>1109.099976</ele>
        <time>2017-05-27T11:28:06Z</time>
      </trkpt>
      <trkpt lat="45.7306" lon="3.85683">
        <ele>1109</ele>
        <time>2017-05-27T11:28:09Z</time>
      </trkpt>
      <trkpt lat="45.73047" lon="3.85686">
        <ele>1108.800049</ele>
        <time>2017-05-27T11:28:12Z</time>
      </trkpt>
      <trkpt lat="45.73037" lon="3.85687">
        <ele>1108.599976</ele>
        <time>2017-05-27T11:28:14Z</time>
      </trkpt>
      <trkpt lat="45.73024" lon="3.8569">
        <ele>1107.900024</ele>
        <time>2017-05-27T11:28:17Z</time>
      </trkpt>
      <trkpt lat="45.73014" lon="3.85689">
        <ele>1107.300049</ele>
        <time>2017-05-27T11:28:19Z</time>
      </trkpt>
      <trkpt lat="45.73" lon="3.85688">
        <ele>1106.699951</ele>
        <time>2017-05-27T11:28:21Z</time>
      </trkpt>
      <trkpt lat="45.72984" lon="3.85688">
        <ele>1106.099976</ele>
        <time>2017-05-27T11:28:23Z</time>
      </trkpt>
      <trkpt lat="45.7297" lon="3.85692">
        <ele>1105.699951</ele>
        <time>2017-05-27T11:28:25Z</time>
      </trkpt>
      <trkpt lat="45.72959" lon="3.85701">
        <ele>1105.300049</ele>
        <time>2017-05-27T11:28:27Z</time>
      </trkpt>
      <trkpt lat="45.72952" lon="3.85711">
        <ele>1105.099976</ele>
        <time>2017-05-27T11:28:29Z</time>
      </trkpt>
      <trkpt lat="45.72943" lon="3.8572">
        <ele>1105</ele>
        <time>2017-05-27T11:28:31Z</time>
      </trkpt>
      <trkpt lat="45.72934" lon="3.85728">
        <ele>1105.099976</ele>
        <time>2017-05-27T11:28:33Z</time>
      </trkpt>
      <trkpt lat="45.72925" lon="3.85738">
        <ele>1105.400024</ele>
        <time>2017-05-27T11:28:36Z</time>
      </trkpt>
      <trkpt lat="45.72915" lon="3.85744">
        <ele>1105.699951</ele>
        <time>2017-05-27T11:28:39Z</time>
      </trkpt>
      <trkpt lat="45.72906" lon="3.8575">
        <ele>1105.900024</ele>
        <time>2017-05-27T11:28:42Z</time>
      </trkpt>
      <trkpt lat="45.72898" lon="3.85758">
        <ele>1106</ele>
        <time>2017-05-27T11:28:45Z</time>
      </trkpt>
      <trkpt lat="45.72888" lon="3.85768">
        <ele>1106.199951</ele>
        <time>2017-05-27T11:28:48Z</time>
      </trkpt>
      <trkpt lat="45.7288" lon="3.85776">
        <ele>1106.400024</ele>
        <time>2017-05-27T11:28:50Z</time>
      </trkpt>
      <trkpt lat="45.7287" lon="3.85787">
        <ele>1106.199951</ele>
        <time>2017-05-27T11:28:53Z</time>
      </trkpt>
      <trkpt lat="45.7286" lon="3.85798">
        <ele>1106</ele>
        <time>2017-05-27T11:28:56Z</time>
      </trkpt>
      <trkpt lat="45.72851" lon="3.85806">
        <ele>1105.900024</ele>
        <time>2017-05-27T11:28:58Z</time>
      </trkpt>
      <trkpt lat="45.72843" lon="3.85813">
        <ele>1105.699951</ele>
        <time>2017-05-27T11:29:00Z</time>
      </trkpt>
      <trkpt lat="45.72835" lon="3.85819">
        <ele>1105.400024</ele>
        <time>2017-05-27T11:29:02Z</time>
      </trkpt>
      <trkpt lat="45.72825" lon="3.85826">
        <ele>1104.800049</ele>
        <time>2017-05-27T11:29:04Z</time>
      </trkpt>
      <trkpt lat="45.72814" lon="3.85831">
        <ele>1104.400024</ele>
        <time>2017-05-27T11:29:06Z</time>
      </trkpt>
      <trkpt lat="45.72801" lon="3.85836">
        <ele>1104.099976</ele>
        <time>2017-05-27T11:29:08Z</time>
      </trkpt>
      <trkpt lat="45.72787" lon="3.85842">
        <ele>1103.199951</ele>
        <time>2017-05-27T11:29:10Z</time>
      </trkpt>
      <trkpt lat="45.72772" lon="3.85849">
        <ele>1102.599976</ele>
        <time>2017-05-27T11:29:12Z</time>
      </trkpt>
      <trkpt lat="45.72757" lon="3.85854">
        <ele>1101.699951</ele>
        <time>2017-05-27T11:29:14Z</time>
      </trkpt>
      <trkpt lat="45.72748" lon="3.85859">
        <ele>1101.400024</ele>
        <time>2017-05-27T11:29:15Z</time>
      </trkpt>
      <trkpt lat="45.72739" lon="3.85863">
        <ele>1100.800049</ele>
        <time>2017-05-27T11:29:16Z</time>
      </trkpt>
      <trkpt lat="45.72731" lon="3.85867">
        <ele>1100.5</ele>
        <time>2017-05-27T11:29:17Z</time>
      </trkpt>
      <trkpt lat="45.72714" lon="3.85872">
        <ele>1099.5</ele>
        <time>2017-05-27T11:29:19Z</time>
      </trkpt>
      <trkpt lat="45.72697" lon="3.85876">
        <ele>1098.5</ele>
        <time>2017-05-27T11:29:21Z</time>
      </trkpt>
      <trkpt lat="45.72682" lon="3.8588">
        <ele>1097.300049</ele>
        <time>2017-05-27T11:29:23Z</time>
      </trkpt>
      <trkpt lat="45.72669" lon="3.85883">
        <ele>1096.300049</ele>
        <time>2017-05-27T11:29:25Z</time>
      </trkpt>
      <trkpt lat="45.72654" lon="3.85886">
        <ele>1095.599976</ele>
        <time>2017-05-27T11:29:27Z</time>
      </trkpt>
      <trkpt lat="45.72639" lon="3.85889">
        <ele>1094.900024</ele>
        <time>2017-05-27T11:29:29Z</time>
      </trkpt>
      <trkpt lat="45.72625" lon="3.85894">
        <ele>1094.400024</ele>
        <time>2017-05-27T11:29:31Z</time>
      </trkpt>
      <trkpt lat="45.72612" lon="3.85898">
        <ele>1093.800049</ele>
        <time>2017-05-27T11:29:33Z</time>
      </trkpt>
      <trkpt lat="45.72598" lon="3.85903">
        <ele>1093.300049</ele>
        <time>2017-05-27T11:29:35Z</time>
      </trkpt>
      <trkpt lat="45.72583" lon="3.85907">
        <ele>1092.800049</ele>
        <time>2017-05-27T11:29:37Z</time>
      </trkpt>
      <trkpt lat="45.72568" lon="3.85909">
        <ele>1092.300049</ele>
        <time>2017-05-27T11:29:39Z</time>
      </trkpt>
      <trkpt lat="45.72552" lon="3.8591">
        <ele>1091.599976</ele>
        <time>2017-05-27T11:29:41Z</time>
      </trkpt>
      <trkpt lat="45.72536" lon="3.85909">
        <ele>1090.800049</ele>
        <time>2017-05-27T11:29:43Z</time>
      </trkpt>
      <trkpt lat="45.7252" lon="3.85906">
        <ele>1090.199951</ele>
        <time>2017-05-27T11:29:45Z</time>
      </trkpt>
      <trkpt lat="45.72503" lon="3.85902">
        <ele>1089.5</ele>
        <time>2017-05-27T11:29:47Z</time>
      </trkpt>
      <trkpt lat="45.72487" lon="3.85898">
        <ele>1088.699951</ele>
        <time>2017-05-27T11:29:49Z</time>
      </trkpt>
      <trkpt lat="45.72472" lon="3.85893">
        <ele>1087.800049</ele>
        <time>2017-05-27T11:29:51Z</time>
      </trkpt>
      <trkpt lat="45.72462" lon="3.85887">
        <ele>1087</ele>
        <time>2017-05-27T11:29:53Z</time>
      </trkpt>
      <trkpt lat="45.72459" lon="3.85875">
        <ele>1086</ele>
        <time>2017-05-27T11:29:56Z</time>
      </trkpt>
      <trkpt lat="45.72465" lon="3.85865">
        <ele>1085.5</ele>
        <time>2017-05-27T11:30:01Z</time>
      </trkpt>
      <trkpt lat="45.72472" lon="3.85853">
        <ele>1086.300049</ele>
        <time>2017-05-27T11:30:07Z</time>
      </trkpt>
      <trkpt lat="45.72479" lon="3.85842">
        <ele>1087.699951</ele>
        <time>2017-05-27T11:30:13Z</time>
      </trkpt>
      <trkpt lat="45.72486" lon="3.85832">
        <ele>1089</ele>
        <time>2017-05-27T11:30:19Z</time>
      </trkpt>
      <trkpt lat="45.72494" lon="3.85826">
        <ele>1090.5</ele>
        <time>2017-05-27T11:30:25Z</time>
      </trkpt>
      <trkpt lat="45.72504" lon="3.85823">
        <ele>1092.199951</ele>
        <time>2017-05-27T11:30:32Z</time>
      </trkpt>
      <trkpt lat="45.72514" lon="3.85819">
        <ele>1094</ele>
        <time>2017-05-27T11:30:40Z</time>
      </trkpt>
      <trkpt lat="45.72524" lon="3.85815">
        <ele>1095.800049</ele>
        <time>2017-05-27T11:30:48Z</time>
      </trkpt>
      <trkpt lat="45.72533" lon="3.8581">
        <ele>1097</ele>
        <time>2017-05-27T11:30:55Z</time>
      </trkpt>
      <trkpt lat="45.72542" lon="3.85806">
        <ele>1098.5</ele>
        <time>2017-05-27T11:31:02Z</time>
      </trkpt>
      <trkpt lat="45.72552" lon="3.85802">
        <ele>1100</ele>
        <time>2017-05-27T11:31:09Z</time>
      </trkpt>
      <trkpt lat="45.72561" lon="3.85799">
        <ele>1101.5</ele>
        <time>2017-05-27T11:31:16Z</time>
      </trkpt>
      <trkpt lat="45.72571" lon="3.85795">
        <ele>1103.300049</ele>
        <time>2017-05-27T11:31:23Z</time>
      </trkpt>
      <trkpt lat="45.7258" lon="3.85791">
        <ele>1104.900024</ele>
        <time>2017-05-27T11:31:30Z</time>
      </trkpt>
      <trkpt lat="45.72589" lon="3.85786">
        <ele>1106</ele>
        <time>2017-05-27T11:31:37Z</time>
      </trkpt>
      <trkpt lat="45.72598" lon="3.85781">
        <ele>1107.800049</ele>
        <time>2017-05-27T11:31:44Z</time>
      </trkpt>
      <trkpt lat="45.72606" lon="3.85775">
        <ele>1109.300049</ele>
        <time>2017-05-27T11:31:51Z</time>
      </trkpt>
      <trkpt lat="45.72615" lon="3.85769">
        <ele>1111.099976</ele>
        <time>2017-05-27T11:32:00Z</time>
      </trkpt>
      <trkpt lat="45.72623" lon="3.85761">
        <ele>1113</ele>
        <time>2017-05-27T11:32:07Z</time>
      </trkpt>
      <trkpt lat="45.72631" lon="3.85755">
        <ele>1113.900024</ele>
        <time>2017-05-27T11:32:12Z</time>
      </trkpt>
      <trkpt lat="45.7264" lon="3.85749">
        <ele>1115.300049</ele>
        <time>2017-05-27T11:32:18Z</time>
      </trkpt>
      <trkpt lat="45.72648" lon="3.85742">
        <ele>1117</ele>
        <time>2017-05-27T11:32:25Z</time>
      </trkpt>
      <trkpt lat="45.72658" lon="3.85736">
        <ele>1118</ele>
        <time>2017-05-27T11:32:31Z</time>
      </trkpt>
      <trkpt lat="45.72667" lon="3.8573">
        <ele>1118.800049</ele>
        <time>2017-05-27T11:32:36Z</time>
      </trkpt>
      <trkpt lat="45.72676" lon="3.85727">
        <ele>1119.699951</ele>
        <time>2017-05-27T11:32:41Z</time>
      </trkpt>
      <trkpt lat="45.72685" lon="3.85724">
        <ele>1120.5</ele>
        <time>2017-05-27T11:32:46Z</time>
      </trkpt>
      <trkpt lat="45.72694" lon="3.85719">
        <ele>1121.099976</ele>
        <time>2017-05-27T11:32:50Z</time>
      </trkpt>
      <trkpt lat="45.72704" lon="3.85716">
        <ele>1121.900024</ele>
        <time>2017-05-27T11:32:55Z</time>
      </trkpt>
      <trkpt lat="45.72713" lon="3.8571">
        <ele>1122.599976</ele>
        <time>2017-05-27T11:33:00Z</time>
      </trkpt>
      <trkpt lat="45.72722" lon="3.85705">
        <ele>1123.199951</ele>
        <time>2017-05-27T11:33:04Z</time>
      </trkpt>
      <trkpt lat="45.72731" lon="3.857">
        <ele>1123.699951</ele>
        <time>2017-05-27T11:33:08Z</time>
      </trkpt>
      <trkpt lat="45.72741" lon="3.85695">
        <ele>1124.5</ele>
        <time>2017-05-27T11:33:13Z</time>
      </trkpt>
      <trkpt lat="45.72751" lon="3.8569">
        <ele>1125.199951</ele>
        <time>2017-05-27T11:33:17Z</time>
      </trkpt>
      <trkpt lat="45.7276" lon="3.85687">
        <ele>1125.800049</ele>
        <time>2017-05-27T11:33:21Z</time>
      </trkpt>
      <trkpt lat="45.72771" lon="3.85681">
        <ele>1126.699951</ele>
        <time>2017-05-27T11:33:25Z</time>
      </trkpt>
      <trkpt lat="45.72781" lon="3.85674">
        <ele>1127.800049</ele>
        <time>2017-05-27T11:33:30Z</time>
      </trkpt>
      <trkpt lat="45.7279" lon="3.85669">
        <ele>1128.5</ele>
        <time>2017-05-27T11:33:34Z</time>
      </trkpt>
      <trkpt lat="45.72799" lon="3.85659">
        <ele>1129.699951</ele>
        <time>2017-05-27T11:33:39Z</time>
      </trkpt>
      <trkpt lat="45.72806" lon="3.8565">
        <ele>1130.400024</ele>
        <time>2017-05-27T11:33:43Z</time>
      </trkpt>
      <trkpt lat="45.72814" lon="3.85642">
        <ele>1131</ele>
        <time>2017-05-27T11:33:46Z</time>
      </trkpt>
      <trkpt lat="45.72821" lon="3.85634">
        <ele>1131.5</ele>
        <time>2017-05-27T11:33:49Z</time>
      </trkpt>
      <trkpt lat="45.72829" lon="3.85625">
        <ele>1131.900024</ele>
        <time>2017-05-27T11:33:52Z</time>
      </trkpt>
      <trkpt lat="45.72836" lon="3.85614">
        <ele>1132.900024</ele>
        <time>2017-05-27T11:33:56Z</time>
      </trkpt>
      <trkpt lat="45.72842" lon="3.85604">
        <ele>1133.400024</ele>
        <time>2017-05-27T11:34:00Z</time>
      </trkpt>
      <trkpt lat="45.72848" lon="3.85594">
        <ele>1133.900024</ele>
        <time>2017-05-27T11:34:04Z</time>
      </trkpt>
      <trkpt lat="45.72856" lon="3.85582">
        <ele>1134.300049</ele>
        <time>2017-05-27T11:34:08Z</time>
      </trkpt>
      <trkpt lat="45.72864" lon="3.85571">
        <ele>1135</ele>
        <time>2017-05-27T11:34:12Z</time>
      </trkpt>
      <trkpt lat="45.72873" lon="3.85561">
        <ele>1135.599976</ele>
        <time>2017-05-27T11:34:16Z</time>
      </trkpt>
      <trkpt lat="45.72879" lon="3.8555">
        <ele>1136.199951</ele>
        <time>2017-05-27T11:34:19Z</time>
      </trkpt>
      <trkpt lat="45.72886" lon="3.85538">
        <ele>1136.599976</ele>
        <time>2017-05-27T11:34:22Z</time>
      </trkpt>
      <trkpt lat="45.72894" lon="3.85525">
        <ele>1137</ele>
        <time>2017-05-27T11:34:25Z</time>
      </trkpt>
      <trkpt lat="45.729" lon="3.85512">
        <ele>1137.300049</ele>
        <time>2017-05-27T11:34:28Z</time>
      </trkpt>
      <trkpt lat="45.72908" lon="3.855">
        <ele>1138</ele>
        <time>2017-05-27T11:34:32Z</time>
      </trkpt>
      <trkpt lat="45.72912" lon="3.85485">
        <ele>1138.800049</ele>
        <time>2017-05-27T11:34:36Z</time>
      </trkpt>
      <trkpt lat="45.72916" lon="3.85471">
        <ele>1139.599976</ele>
        <time>2017-05-27T11:34:40Z</time>
      </trkpt>
      <trkpt lat="45.72922" lon="3.85459">
        <ele>1140.199951</ele>
        <time>2017-05-27T11:34:44Z</time>
      </trkpt>
      <trkpt lat="45.72928" lon="3.85448">
        <ele>1140.599976</ele>
        <time>2017-05-27T11:34:47Z</time>
      </trkpt>
      <trkpt lat="45.72934" lon="3.85439">
        <ele>1140.800049</ele>
        <time>2017-05-27T11:34:50Z</time>
      </trkpt>
      <trkpt lat="45.72941" lon="3.85429">
        <ele>1141.400024</ele>
        <time>2017-05-27T11:34:53Z</time>
      </trkpt>
      <trkpt lat="45.72948" lon="3.85422">
        <ele>1142.099976</ele>
        <time>2017-05-27T11:34:56Z</time>
      </trkpt>
      <trkpt lat="45.72958" lon="3.85414">
        <ele>1143.099976</ele>
        <time>2017-05-27T11:35:00Z</time>
      </trkpt>
      <trkpt lat="45.72968" lon="3.85411">
        <ele>1144</ele>
        <time>2017-05-27T11:35:04Z</time>
      </trkpt>
      <trkpt lat="45.72978" lon="3.85412">
        <ele>1144.699951</ele>
        <time>2017-05-27T11:35:08Z</time>
      </trkpt>
      <trkpt lat="45.72988" lon="3.85412">
        <ele>1145.199951</ele>
        <time>2017-05-27T11:35:11Z</time>
      </trkpt>
      <trkpt lat="45.72998" lon="3.85411">
        <ele>1145.400024</ele>
        <time>2017-05-27T11:35:14Z</time>
      </trkpt>
      <trkpt lat="45.73008" lon="3.85412">
        <ele>1146</ele>
        <time>2017-05-27T11:35:17Z</time>
      </trkpt>
      <trkpt lat="45.73019" lon="3.85411">
        <ele>1146.900024</ele>
        <time>2017-05-27T11:35:20Z</time>
      </trkpt>
      <trkpt lat="45.73031" lon="3.8541">
        <ele>1147.599976</ele>
        <time>2017-05-27T11:35:23Z</time>
      </trkpt>
      <trkpt lat="45.73042" lon="3.85409">
        <ele>1148.699951</ele>
        <time>2017-05-27T11:35:27Z</time>
      </trkpt>
      <trkpt lat="45.73053" lon="3.85408">
        <ele>1149.599976</ele>
        <time>2017-05-27T11:35:30Z</time>
      </trkpt>
      <trkpt lat="45.73064" lon="3.85407">
        <ele>1151</ele>
        <time>2017-05-27T11:35:34Z</time>
      </trkpt>
      <trkpt lat="45.73075" lon="3.85405">
        <ele>1151.800049</ele>
        <time>2017-05-27T11:35:37Z</time>
      </trkpt>
      <trkpt lat="45.73087" lon="3.85401">
        <ele>1152.400024</ele>
        <time>2017-05-27T11:35:40Z</time>
      </trkpt>
      <trkpt lat="45.73098" lon="3.85397">
        <ele>1153</ele>
        <time>2017-05-27T11:35:43Z</time>
      </trkpt>
      <trkpt lat="45.73107" lon="3.85393">
        <ele>1153.300049</ele>
        <time>2017-05-27T11:35:46Z</time>
      </trkpt>
      <trkpt lat="45.73117" lon="3.85389">
        <ele>1153.699951</ele>
        <time>2017-05-27T11:35:49Z</time>
      </trkpt>
      <trkpt lat="45.73128" lon="3.85385">
        <ele>1154.300049</ele>
        <time>2017-05-27T11:35:52Z</time>
      </trkpt>
      <trkpt lat="45.73137" lon="3.8538">
        <ele>1154.699951</ele>
        <time>2017-05-27T11:35:55Z</time>
      </trkpt>
      <trkpt lat="45.73146" lon="3.85374">
        <ele>1155</ele>
        <time>2017-05-27T11:35:58Z</time>
      </trkpt>
      <trkpt lat="45.73154" lon="3.85366">
        <ele>1155.5</ele>
        <time>2017-05-27T11:36:01Z</time>
      </trkpt>
      <trkpt lat="45.73161" lon="3.85357">
        <ele>1155.900024</ele>
        <time>2017-05-27T11:36:04Z</time>
      </trkpt>
      <trkpt lat="45.73168" lon="3.85349">
        <ele>1156.5</ele>
        <time>2017-05-27T11:36:07Z</time>
      </trkpt>
      <trkpt lat="45.73176" lon="3.85338">
        <ele>1157.300049</ele>
        <time>2017-05-27T11:36:11Z</time>
      </trkpt>
      <trkpt lat="45.73185" lon="3.85326">
        <ele>1158.199951</ele>
        <time>2017-05-27T11:36:15Z</time>
      </trkpt>
      <trkpt lat="45.73191" lon="3.85317">
        <ele>1158.699951</ele>
        <time>2017-05-27T11:36:18Z</time>
      </trkpt>
      <trkpt lat="45.732" lon="3.85305">
        <ele>1159.5</ele>
        <time>2017-05-27T11:36:22Z</time>
      </trkpt>
      <trkpt lat="45.73206" lon="3.85295">
        <ele>1160.199951</ele>
        <time>2017-05-27T11:36:25Z</time>
      </trkpt>
      <trkpt lat="45.73213" lon="3.85286">
        <ele>1160.900024</ele>
        <time>2017-05-27T11:36:28Z</time>
      </trkpt>
      <trkpt lat="45.7322" lon="3.85277">
        <ele>1161.5</ele>
        <time>2017-05-27T11:36:31Z</time>
      </trkpt>
      <trkpt lat="45.73227" lon="3.85268">
        <ele>1161.900024</ele>
        <time>2017-05-27T11:36:34Z</time>
      </trkpt>
      <trkpt lat="45.73234" lon="3.85259">
        <ele>1162.699951</ele>
        <time>2017-05-27T11:36:37Z</time>
      </trkpt>
      <trkpt lat="45.73241" lon="3.8525">
        <ele>1163.400024</ele>
        <time>2017-05-27T11:36:40Z</time>
      </trkpt>
      <trkpt lat="45.73251" lon="3.85239">
        <ele>1164.300049</ele>
        <time>2017-05-27T11:36:44Z</time>
      </trkpt>
      <trkpt lat="45.73258" lon="3.85231">
        <ele>1165.400024</ele>
        <time>2017-05-27T11:36:48Z</time>
      </trkpt>
      <trkpt lat="45.73265" lon="3.85224">
        <ele>1166.900024</ele>
        <time>2017-05-27T11:36:53Z</time>
      </trkpt>
      <trkpt lat="45.73275" lon="3.85216">
        <ele>1167.699951</ele>
        <time>2017-05-27T11:36:57Z</time>
      </trkpt>
      <trkpt lat="45.73284" lon="3.85211">
        <ele>1168.5</ele>
        <time>2017-05-27T11:37:01Z</time>
      </trkpt>
      <trkpt lat="45.73293" lon="3.85207">
        <ele>1169.300049</ele>
        <time>2017-05-27T11:37:05Z</time>
      </trkpt>
      <trkpt lat="45.73304" lon="3.85204">
        <ele>1170.199951</ele>
        <time>2017-05-27T11:37:10Z</time>
      </trkpt>
      <trkpt lat="45.73314" lon="3.85203">
        <ele>1171.099976</ele>
        <time>2017-05-27T11:37:14Z</time>
      </trkpt>
      <trkpt lat="45.73326" lon="3.85204">
        <ele>1171.599976</ele>
        <time>2017-05-27T11:37:18Z</time>
      </trkpt>
      <trkpt lat="45.73339" lon="3.85203">
        <ele>1171.699951</ele>
        <time>2017-05-27T11:37:20Z</time>
      </trkpt>
      <trkpt lat="45.73352" lon="3.85201">
        <ele>1172.099976</ele>
        <time>2017-05-27T11:37:23Z</time>
      </trkpt>
      <trkpt lat="45.73362" lon="3.852">
        <ele>1172.599976</ele>
        <time>2017-05-27T11:37:26Z</time>
      </trkpt>
      <trkpt lat="45.73371" lon="3.85198">
        <ele>1173.099976</ele>
        <time>2017-05-27T11:37:29Z</time>
      </trkpt>
      <trkpt lat="45.7338" lon="3.85196">
        <ele>1173.599976</ele>
        <time>2017-05-27T11:37:32Z</time>
      </trkpt>
      <trkpt lat="45.73389" lon="3.8519">
        <ele>1174.199951</ele>
        <time>2017-05-27T11:37:35Z</time>
      </trkpt>
      <trkpt lat="45.73401" lon="3.85183">
        <ele>1174.599976</ele>
        <time>2017-05-27T11:37:39Z</time>
      </trkpt>
      <trkpt lat="45.73416" lon="3.85178">
        <ele>1174.800049</ele>
        <time>2017-05-27T11:37:41Z</time>
      </trkpt>
      <trkpt lat="45.73428" lon="3.85175">
        <ele>1175.300049</ele>
        <time>2017-05-27T11:37:43Z</time>
      </trkpt>
      <trkpt lat="45.73441" lon="3.85172">
        <ele>1175.699951</ele>
        <time>2017-05-27T11:37:45Z</time>
      </trkpt>
      <trkpt lat="45.73451" lon="3.85171">
        <ele>1176</ele>
        <time>2017-05-27T11:37:47Z</time>
      </trkpt>
      <trkpt lat="45.7346" lon="3.85171">
        <ele>1176.199951</ele>
        <time>2017-05-27T11:37:49Z</time>
      </trkpt>
      <trkpt lat="45.73473" lon="3.85172">
        <ele>1177</ele>
        <time>2017-05-27T11:37:52Z</time>
      </trkpt>
      <trkpt lat="45.73484" lon="3.85169">
        <ele>1177.099976</ele>
        <time>2017-05-27T11:37:55Z</time>
      </trkpt>
      <trkpt lat="45.73493" lon="3.85168">
        <ele>1177</ele>
        <time>2017-05-27T11:38:35Z</time>
      </trkpt>
      <trkpt lat="45.73502" lon="3.85164">
        <ele>1177.199951</ele>
        <time>2017-05-27T11:42:05Z</time>
      </trkpt>
      <trkpt lat="45.73511" lon="3.85169">
        <ele>1176.800049</ele>
        <time>2017-05-27T11:47:06Z</time>
      </trkpt>
      <trkpt lat="45.73521" lon="3.8517">
        <ele>1176.900024</ele>
        <time>2017-05-27T11:47:09Z</time>
      </trkpt>
      <trkpt lat="45.73532" lon="3.85171">
        <ele>1176.300049</ele>
        <time>2017-05-27T11:47:12Z</time>
      </trkpt>
      <trkpt lat="45.73543" lon="3.85171">
        <ele>1176.5</ele>
        <time>2017-05-27T11:47:15Z</time>
      </trkpt>
      <trkpt lat="45.73555" lon="3.85172">
        <ele>1176.5</ele>
        <time>2017-05-27T11:47:18Z</time>
      </trkpt>
      <trkpt lat="45.73566" lon="3.85175">
        <ele>1176.400024</ele>
        <time>2017-05-27T11:47:21Z</time>
      </trkpt>
      <trkpt lat="45.73576" lon="3.85177">
        <ele>1176.199951</ele>
        <time>2017-05-27T11:47:24Z</time>
      </trkpt>
      <trkpt lat="45.73585" lon="3.8518">
        <ele>1176</ele>
        <time>2017-05-27T11:47:27Z</time>
      </trkpt>
      <trkpt lat="45.73597" lon="3.85182">
        <ele>1175.800049</ele>
        <time>2017-05-27T11:47:30Z</time>
      </trkpt>
      <trkpt lat="45.73609" lon="3.85186">
        <ele>1175.5</ele>
        <time>2017-05-27T11:47:33Z</time>
      </trkpt>
      <trkpt lat="45.73619" lon="3.8519">
        <ele>1175.300049</ele>
        <time>2017-05-27T11:47:36Z</time>
      </trkpt>
      <trkpt lat="45.7363" lon="3.85193">
        <ele>1174.900024</ele>
        <time>2017-05-27T11:47:39Z</time>
      </trkpt>
      <trkpt lat="45.73641" lon="3.85197">
        <ele>1174.5</ele>
        <time>2017-05-27T11:47:41Z</time>
      </trkpt>
      <trkpt lat="45.73652" lon="3.85201">
        <ele>1174.199951</ele>
        <time>2017-05-27T11:47:43Z</time>
      </trkpt>
      <trkpt lat="45.73662" lon="3.85204">
        <ele>1174</ele>
        <time>2017-05-27T11:47:45Z</time>
      </trkpt>
      <trkpt lat="45.73672" lon="3.85209">
        <ele>1173.800049</ele>
        <time>2017-05-27T11:47:47Z</time>
      </trkpt>
      <trkpt lat="45.73682" lon="3.85213">
        <ele>1173.699951</ele>
        <time>2017-05-27T11:47:49Z</time>
      </trkpt>
      <trkpt lat="45.73692" lon="3.8522">
        <ele>1173.599976</ele>
        <time>2017-05-27T11:47:51Z</time>
      </trkpt>
      <trkpt lat="45.73701" lon="3.85227">
        <ele>1173.400024</ele>
        <time>2017-05-27T11:47:53Z</time>
      </trkpt>
      <trkpt lat="45.73712" lon="3.85235">
        <ele>1173.199951</ele>
        <time>2017-05-27T11:47:56Z</time>
      </trkpt>
      <trkpt lat="45.7372" lon="3.85242">
        <ele>1173.099976</ele>
        <time>2017-05-27T11:47:58Z</time>
      </trkpt>
      <trkpt lat="45.73731" lon="3.85252">
        <ele>1172.699951</ele>
        <time>2017-05-27T11:48:01Z</time>
      </trkpt>
      <trkpt lat="45.73739" lon="3.85261">
        <ele>1172.199951</ele>
        <time>2017-05-27T11:48:03Z</time>
      </trkpt>
      <trkpt lat="45.73752" lon="3.85268">
        <ele>1171.400024</ele>
        <time>2017-05-27T11:48:05Z</time>
      </trkpt>
      <trkpt lat="45.73762" lon="3.85274">
        <ele>1170.900024</ele>
        <time>2017-05-27T11:48:06Z</time>
      </trkpt>
      <trkpt lat="45.73774" lon="3.85279">
        <ele>1170</ele>
        <time>2017-05-27T11:48:08Z</time>
      </trkpt>
      <trkpt lat="45.73787" lon="3.85277">
        <ele>1169.199951</ele>
        <time>2017-05-27T11:48:10Z</time>
      </trkpt>
      <trkpt lat="45.73801" lon="3.85268">
        <ele>1168.300049</ele>
        <time>2017-05-27T11:48:12Z</time>
      </trkpt>
      <trkpt lat="45.73813" lon="3.85258">
        <ele>1167.699951</ele>
        <time>2017-05-27T11:48:14Z</time>
      </trkpt>
      <trkpt lat="45.73828" lon="3.85247">
        <ele>1167</ele>
        <time>2017-05-27T11:48:16Z</time>
      </trkpt>
      <trkpt lat="45.73841" lon="3.85234">
        <ele>1166.199951</ele>
        <time>2017-05-27T11:48:18Z</time>
      </trkpt>
      <trkpt lat="45.73856" lon="3.8522">
        <ele>1165.199951</ele>
        <time>2017-05-27T11:48:20Z</time>
      </trkpt>
      <trkpt lat="45.73866" lon="3.85213">
        <ele>1163.900024</ele>
        <time>2017-05-27T11:48:21Z</time>
      </trkpt>
      <trkpt lat="45.73876" lon="3.85205">
        <ele>1163.800049</ele>
        <time>2017-05-27T11:48:22Z</time>
      </trkpt>
      <trkpt lat="45.73883" lon="3.85198">
        <ele>1163.800049</ele>
        <time>2017-05-27T11:48:23Z</time>
      </trkpt>
      <trkpt lat="45.73894" lon="3.85182">
        <ele>1163.300049</ele>
        <time>2017-05-27T11:48:25Z</time>
      </trkpt>
      <trkpt lat="45.73899" lon="3.85169">
        <ele>1162.800049</ele>
        <time>2017-05-27T11:48:27Z</time>
      </trkpt>
      <trkpt lat="45.73901" lon="3.85153">
        <ele>1162.5</ele>
        <time>2017-05-27T11:48:29Z</time>
      </trkpt>
      <trkpt lat="45.739" lon="3.85138">
        <ele>1162.699951</ele>
        <time>2017-05-27T11:48:31Z</time>
      </trkpt>
      <trkpt lat="45.73901" lon="3.85123">
        <ele>1162.900024</ele>
        <time>2017-05-27T11:48:34Z</time>
      </trkpt>
      <trkpt lat="45.73904" lon="3.85107">
        <ele>1163.699951</ele>
        <time>2017-05-27T11:48:37Z</time>
      </trkpt>
      <trkpt lat="45.73907" lon="3.8509">
        <ele>1164.300049</ele>
        <time>2017-05-27T11:48:40Z</time>
      </trkpt>
      <trkpt lat="45.7391" lon="3.85075">
        <ele>1164.800049</ele>
        <time>2017-05-27T11:48:43Z</time>
      </trkpt>
      <trkpt lat="45.73911" lon="3.85058">
        <ele>1165.400024</ele>
        <time>2017-05-27T11:48:46Z</time>
      </trkpt>
      <trkpt lat="45.73913" lon="3.85044">
        <ele>1166.099976</ele>
        <time>2017-05-27T11:48:49Z</time>
      </trkpt>
      <trkpt lat="45.73914" lon="3.85028">
        <ele>1167.199951</ele>
        <time>2017-05-27T11:48:53Z</time>
      </trkpt>
      <trkpt lat="45.73914" lon="3.85012">
        <ele>1168.099976</ele>
        <time>2017-05-27T11:48:57Z</time>
      </trkpt>
      <trkpt lat="45.73913" lon="3.84998">
        <ele>1169.099976</ele>
        <time>2017-05-27T11:49:03Z</time>
      </trkpt>
      <trkpt lat="45.73911" lon="3.84983">
        <ele>1170</ele>
        <time>2017-05-27T11:49:09Z</time>
      </trkpt>
      <trkpt lat="45.7391" lon="3.84969">
        <ele>1171.199951</ele>
        <time>2017-05-27T11:49:17Z</time>
      </trkpt>
      <trkpt lat="45.73909" lon="3.84956">
        <ele>1171.800049</ele>
        <time>2017-05-27T11:49:23Z</time>
      </trkpt>
      <trkpt lat="45.73907" lon="3.84942">
        <ele>1172.800049</ele>
        <time>2017-05-27T11:49:30Z</time>
      </trkpt>
      <trkpt lat="45.73906" lon="3.84927">
        <ele>1173.400024</ele>
        <time>2017-05-27T11:49:36Z</time>
      </trkpt>
      <trkpt lat="45.73903" lon="3.84913">
        <ele>1174</ele>
        <time>2017-05-27T11:49:42Z</time>
      </trkpt>
      <trkpt lat="45.73902" lon="3.84897">
        <ele>1174.699951</ele>
        <time>2017-05-27T11:49:47Z</time>
      </trkpt>
      <trkpt lat="45.73901" lon="3.84883">
        <ele>1175</ele>
        <time>2017-05-27T11:49:52Z</time>
      </trkpt>
      <trkpt lat="45.73901" lon="3.84866">
        <ele>1175.199951</ele>
        <time>2017-05-27T11:49:57Z</time>
      </trkpt>
      <trkpt lat="45.73901" lon="3.84849">
        <ele>1175</ele>
        <time>2017-05-27T11:50:01Z</time>
      </trkpt>
      <trkpt lat="45.73899" lon="3.84835">
        <ele>1174.900024</ele>
        <time>2017-05-27T11:50:04Z</time>
      </trkpt>
      <trkpt lat="45.73897" lon="3.8482">
        <ele>1174.800049</ele>
        <time>2017-05-27T11:50:07Z</time>
      </trkpt>
      <trkpt lat="45.73893" lon="3.84806">
        <ele>1174.699951</ele>
        <time>2017-05-27T11:50:10Z</time>
      </trkpt>
      <trkpt lat="45.73887" lon="3.84793">
        <ele>1174.699951</ele>
        <time>2017-05-27T11:50:13Z</time>
      </trkpt>
      <trkpt lat="45.73881" lon="3.84781">
        <ele>1174.5</ele>
        <time>2017-05-27T11:50:16Z</time>
      </trkpt>
      <trkpt lat="45.73876" lon="3.8477">
        <ele>1174.599976</ele>
        <time>2017-05-27T11:50:19Z</time>
      </trkpt>
      <trkpt lat="45.7387" lon="3.84759">
        <ele>1174.400024</ele>
        <time>2017-05-27T11:50:22Z</time>
      </trkpt>
      <trkpt lat="45.73865" lon="3.84746">
        <ele>1174.599976</ele>
        <time>2017-05-27T11:50:26Z</time>
      </trkpt>
      <trkpt lat="45.73858" lon="3.84733">
        <ele>1174.599976</ele>
        <time>2017-05-27T11:50:30Z</time>
      </trkpt>
      <trkpt lat="45.73852" lon="3.84722">
        <ele>1174.599976</ele>
        <time>2017-05-27T11:50:33Z</time>
      </trkpt>
      <trkpt lat="45.73845" lon="3.8471">
        <ele>1174.5</ele>
        <time>2017-05-27T11:50:37Z</time>
      </trkpt>
      <trkpt lat="45.73838" lon="3.84696">
        <ele>1174.5</ele>
        <time>2017-05-27T11:50:41Z</time>
      </trkpt>
      <trkpt lat="45.73834" lon="3.84681">
        <ele>1174.5</ele>
        <time>2017-05-27T11:50:44Z</time>
      </trkpt>
      <trkpt lat="45.73829" lon="3.84667">
        <ele>1174.300049</ele>
        <time>2017-05-27T11:50:47Z</time>
      </trkpt>
      <trkpt lat="45.73825" lon="3.84653">
        <ele>1174.400024</ele>
        <time>2017-05-27T11:50:50Z</time>
      </trkpt>
      <trkpt lat="45.73821" lon="3.8464">
        <ele>1174.300049</ele>
        <time>2017-05-27T11:50:53Z</time>
      </trkpt>
      <trkpt lat="45.73817" lon="3.84624">
        <ele>1174.5</ele>
        <time>2017-05-27T11:50:56Z</time>
      </trkpt>
      <trkpt lat="45.73814" lon="3.8461">
        <ele>1174.699951</ele>
        <time>2017-05-27T11:50:58Z</time>
      </trkpt>
      <trkpt lat="45.73811" lon="3.84596">
        <ele>1174.699951</ele>
        <time>2017-05-27T11:51:01Z</time>
      </trkpt>
      <trkpt lat="45.73808" lon="3.84582">
        <ele>1174.699951</ele>
        <time>2017-05-27T11:51:04Z</time>
      </trkpt>
      <trkpt lat="45.73808" lon="3.84566">
        <ele>1174.800049</ele>
        <time>2017-05-27T11:51:08Z</time>
      </trkpt>
      <trkpt lat="45.73807" lon="3.84551">
        <ele>1174.800049</ele>
        <time>2017-05-27T11:51:11Z</time>
      </trkpt>
      <trkpt lat="45.73806" lon="3.84535">
        <ele>1174.900024</ele>
        <time>2017-05-27T11:51:14Z</time>
      </trkpt>
      <trkpt lat="45.73806" lon="3.8452">
        <ele>1174.900024</ele>
        <time>2017-05-27T11:51:17Z</time>
      </trkpt>
      <trkpt lat="45.73806" lon="3.84505">
        <ele>1175</ele>
        <time>2017-05-27T11:51:20Z</time>
      </trkpt>
      <trkpt lat="45.73806" lon="3.84489">
        <ele>1175.199951</ele>
        <time>2017-05-27T11:51:23Z</time>
      </trkpt>
      <trkpt lat="45.73806" lon="3.84474">
        <ele>1175.400024</ele>
        <time>2017-05-27T11:51:26Z</time>
      </trkpt>
      <trkpt lat="45.73805" lon="3.84456">
        <ele>1175.400024</ele>
        <time>2017-05-27T11:51:29Z</time>
      </trkpt>
      <trkpt lat="45.73805" lon="3.84442">
        <ele>1175.400024</ele>
        <time>2017-05-27T11:51:32Z</time>
      </trkpt>
      <trkpt lat="45.73804" lon="3.84428">
        <ele>1175.5</ele>
        <time>2017-05-27T11:51:35Z</time>
      </trkpt>
      <trkpt lat="45.73802" lon="3.84414">
        <ele>1175.699951</ele>
        <time>2017-05-27T11:51:38Z</time>
      </trkpt>
      <trkpt lat="45.73801" lon="3.844">
        <ele>1175.900024</ele>
        <time>2017-05-27T11:51:41Z</time>
      </trkpt>
      <trkpt lat="45.738" lon="3.84383">
        <ele>1176.400024</ele>
        <time>2017-05-27T11:51:45Z</time>
      </trkpt>
      <trkpt lat="45.73799" lon="3.84369">
        <ele>1176.599976</ele>
        <time>2017-05-27T11:51:48Z</time>
      </trkpt>
      <trkpt lat="45.73798" lon="3.84356">
        <ele>1177.099976</ele>
        <time>2017-05-27T11:51:51Z</time>
      </trkpt>
      <trkpt lat="45.73797" lon="3.84339">
        <ele>1177.900024</ele>
        <time>2017-05-27T11:51:55Z</time>
      </trkpt>
      <trkpt lat="45.73798" lon="3.84326">
        <ele>1178.599976</ele>
        <time>2017-05-27T11:51:58Z</time>
      </trkpt>
      <trkpt lat="45.73801" lon="3.84311">
        <ele>1178.800049</ele>
        <time>2017-05-27T11:52:01Z</time>
      </trkpt>
      <trkpt lat="45.73804" lon="3.84298">
        <ele>1179.199951</ele>
        <time>2017-05-27T11:52:04Z</time>
      </trkpt>
      <trkpt lat="45.73808" lon="3.84286">
        <ele>1179.800049</ele>
        <time>2017-05-27T11:52:07Z</time>
      </trkpt>
      <trkpt lat="45.7381" lon="3.84272">
        <ele>1180.199951</ele>
        <time>2017-05-27T11:52:10Z</time>
      </trkpt>
      <trkpt lat="45.73813" lon="3.8426">
        <ele>1180.5</ele>
        <time>2017-05-27T11:52:13Z</time>
      </trkpt>
      <trkpt lat="45.73816" lon="3.84246">
        <ele>1180.900024</ele>
        <time>2017-05-27T11:52:16Z</time>
      </trkpt>
      <trkpt lat="45.7382" lon="3.84231">
        <ele>1181.300049</ele>
        <time>2017-05-27T11:52:20Z</time>
      </trkpt>
      <trkpt lat="45.73824" lon="3.84215">
        <ele>1181.699951</ele>
        <time>2017-05-27T11:52:24Z</time>
      </trkpt>
      <trkpt lat="45.73828" lon="3.84204">
        <ele>1182.199951</ele>
        <time>2017-05-27T11:52:27Z</time>
      </trkpt>
      <trkpt lat="45.73833" lon="3.84191">
        <ele>1182.400024</ele>
        <time>2017-05-27T11:52:30Z</time>
      </trkpt>
      <trkpt lat="45.73839" lon="3.84177">
        <ele>1182.599976</ele>
        <time>2017-05-27T11:52:33Z</time>
      </trkpt>
      <trkpt lat="45.73845" lon="3.84166">
        <ele>1183.199951</ele>
        <time>2017-05-27T11:52:36Z</time>
      </trkpt>
      <trkpt lat="45.7385" lon="3.84153">
        <ele>1183.599976</ele>
        <time>2017-05-27T11:52:39Z</time>
      </trkpt>
      <trkpt lat="45.73855" lon="3.84142">
        <ele>1184</ele>
        <time>2017-05-27T11:52:42Z</time>
      </trkpt>
      <trkpt lat="45.73861" lon="3.8413">
        <ele>1184.300049</ele>
        <time>2017-05-27T11:52:45Z</time>
      </trkpt>
      <trkpt lat="45.73866" lon="3.84117">
        <ele>1184.5</ele>
        <time>2017-05-27T11:52:48Z</time>
      </trkpt>
      <trkpt lat="45.73872" lon="3.84105">
        <ele>1184.900024</ele>
        <time>2017-05-27T11:52:51Z</time>
      </trkpt>
      <trkpt lat="45.73877" lon="3.84091">
        <ele>1185.199951</ele>
        <time>2017-05-27T11:52:54Z</time>
      </trkpt>
      <trkpt lat="45.73883" lon="3.8408">
        <ele>1185.599976</ele>
        <time>2017-05-27T11:52:57Z</time>
      </trkpt>
      <trkpt lat="45.73888" lon="3.84068">
        <ele>1186.199951</ele>
        <time>2017-05-27T11:53:00Z</time>
      </trkpt>
      <trkpt lat="45.73893" lon="3.84054">
        <ele>1186.699951</ele>
        <time>2017-05-27T11:53:03Z</time>
      </trkpt>
      <trkpt lat="45.73899" lon="3.84041">
        <ele>1186.699951</ele>
        <time>2017-05-27T11:53:06Z</time>
      </trkpt>
      <trkpt lat="45.73903" lon="3.84027">
        <ele>1186.800049</ele>
        <time>2017-05-27T11:53:09Z</time>
      </trkpt>
      <trkpt lat="45.73907" lon="3.84011">
        <ele>1187.099976</ele>
        <time>2017-05-27T11:53:12Z</time>
      </trkpt>
      <trkpt lat="45.73911" lon="3.83996">
        <ele>1187.199951</ele>
        <time>2017-05-27T11:53:15Z</time>
      </trkpt>
      <trkpt lat="45.73914" lon="3.83983">
        <ele>1187.400024</ele>
        <time>2017-05-27T11:53:18Z</time>
      </trkpt>
      <trkpt lat="45.73917" lon="3.8397">
        <ele>1187.5</ele>
        <time>2017-05-27T11:53:21Z</time>
      </trkpt>
      <trkpt lat="45.73919" lon="3.83957">
        <ele>1187.900024</ele>
        <time>2017-05-27T11:53:24Z</time>
      </trkpt>
      <trkpt lat="45.73921" lon="3.83943">
        <ele>1188</ele>
        <time>2017-05-27T11:53:28Z</time>
      </trkpt>
      <trkpt lat="45.73923" lon="3.8393">
        <ele>1188.199951</ele>
        <time>2017-05-27T11:53:32Z</time>
      </trkpt>
      <trkpt lat="45.73925" lon="3.83916">
        <ele>1188.599976</ele>
        <time>2017-05-27T11:53:39Z</time>
      </trkpt>
      <trkpt lat="45.73926" lon="3.83901">
        <ele>1188.699951</ele>
        <time>2017-05-27T11:53:44Z</time>
      </trkpt>
      <trkpt lat="45.73929" lon="3.83887">
        <ele>1189.099976</ele>
        <time>2017-05-27T11:53:49Z</time>
      </trkpt>
      <trkpt lat="45.73931" lon="3.83872">
        <ele>1189.199951</ele>
        <time>2017-05-27T11:53:54Z</time>
      </trkpt>
      <trkpt lat="45.73933" lon="3.83858">
        <ele>1189.5</ele>
        <time>2017-05-27T11:53:58Z</time>
      </trkpt>
      <trkpt lat="45.73935" lon="3.83845">
        <ele>1189.699951</ele>
        <time>2017-05-27T11:54:02Z</time>
      </trkpt>
      <trkpt lat="45.73937" lon="3.83831">
        <ele>1189.800049</ele>
        <time>2017-05-27T11:54:06Z</time>
      </trkpt>
      <trkpt lat="45.73939" lon="3.83818">
        <ele>1189.800049</ele>
        <time>2017-05-27T11:54:10Z</time>
      </trkpt>
      <trkpt lat="45.73942" lon="3.83805">
        <ele>1190.099976</ele>
        <time>2017-05-27T11:54:14Z</time>
      </trkpt>
      <trkpt lat="45.73944" lon="3.83791">
        <ele>1190.099976</ele>
        <time>2017-05-27T11:54:18Z</time>
      </trkpt>
      <trkpt lat="45.73947" lon="3.83778">
        <ele>1189.900024</ele>
        <time>2017-05-27T11:54:23Z</time>
      </trkpt>
      <trkpt lat="45.73951" lon="3.83765">
        <ele>1190.099976</ele>
        <time>2017-05-27T11:54:27Z</time>
      </trkpt>
      <trkpt lat="45.73954" lon="3.83751">
        <ele>1190</ele>
        <time>2017-05-27T11:54:31Z</time>
      </trkpt>
      <trkpt lat="45.73958" lon="3.83737">
        <ele>1190.099976</ele>
        <time>2017-05-27T11:54:35Z</time>
      </trkpt>
      <trkpt lat="45.73962" lon="3.83724">
        <ele>1190.199951</ele>
        <time>2017-05-27T11:54:39Z</time>
      </trkpt>
      <trkpt lat="45.73967" lon="3.8371">
        <ele>1190.300049</ele>
        <time>2017-05-27T11:54:43Z</time>
      </trkpt>
      <trkpt lat="45.73972" lon="3.83696">
        <ele>1190.5</ele>
        <time>2017-05-27T11:54:47Z</time>
      </trkpt>
      <trkpt lat="45.73978" lon="3.83681">
        <ele>1190.5</ele>
        <time>2017-05-27T11:54:51Z</time>
      </trkpt>
      <trkpt lat="45.73983" lon="3.83667">
        <ele>1190.800049</ele>
        <time>2017-05-27T11:54:55Z</time>
      </trkpt>
      <trkpt lat="45.73989" lon="3.83654">
        <ele>1190.699951</ele>
        <time>2017-05-27T11:54:59Z</time>
      </trkpt>
      <trkpt lat="45.73995" lon="3.83642">
        <ele>1191</ele>
        <time>2017-05-27T11:55:03Z</time>
      </trkpt>
      <trkpt lat="45.74001" lon="3.83629">
        <ele>1191.099976</ele>
        <time>2017-05-27T11:55:07Z</time>
      </trkpt>
      <trkpt lat="45.74006" lon="3.83616">
        <ele>1191.300049</ele>
        <time>2017-05-27T11:55:11Z</time>
      </trkpt>
      <trkpt lat="45.74011" lon="3.83604">
        <ele>1191.800049</ele>
        <time>2017-05-27T11:55:15Z</time>
      </trkpt>
      <trkpt lat="45.74016" lon="3.83593">
        <ele>1192.099976</ele>
        <time>2017-05-27T11:55:19Z</time>
      </trkpt>
      <trkpt lat="45.7402" lon="3.8358">
        <ele>1192.5</ele>
        <time>2017-05-27T11:55:23Z</time>
      </trkpt>
      <trkpt lat="45.74024" lon="3.83568">
        <ele>1192.699951</ele>
        <time>2017-05-27T11:55:27Z</time>
      </trkpt>
      <trkpt lat="45.74027" lon="3.83555">
        <ele>1192.900024</ele>
        <time>2017-05-27T11:55:31Z</time>
      </trkpt>
      <trkpt lat="45.74031" lon="3.8354">
        <ele>1193</ele>
        <time>2017-05-27T11:55:35Z</time>
      </trkpt>
      <trkpt lat="45.74035" lon="3.83523">
        <ele>1193.199951</ele>
        <time>2017-05-27T11:55:39Z</time>
      </trkpt>
      <trkpt lat="45.74038" lon="3.83511">
        <ele>1193.400024</ele>
        <time>2017-05-27T11:55:42Z</time>
      </trkpt>
      <trkpt lat="45.74041" lon="3.83499">
        <ele>1193.400024</ele>
        <time>2017-05-27T11:55:45Z</time>
      </trkpt>
      <trkpt lat="45.74046" lon="3.83484">
        <ele>1193.199951</ele>
        <time>2017-05-27T11:55:49Z</time>
      </trkpt>
      <trkpt lat="45.7405" lon="3.83471">
        <ele>1193.599976</ele>
        <time>2017-05-27T11:55:53Z</time>
      </trkpt>
      <trkpt lat="45.74054" lon="3.8346">
        <ele>1193.800049</ele>
        <time>2017-05-27T11:55:57Z</time>
      </trkpt>
      <trkpt lat="45.74058" lon="3.83448">
        <ele>1193.900024</ele>
        <time>2017-05-27T11:56:01Z</time>
      </trkpt>
      <trkpt lat="45.74064" lon="3.83434">
        <ele>1194</ele>
        <time>2017-05-27T11:56:06Z</time>
      </trkpt>
      <trkpt lat="45.74066" lon="3.8342">
        <ele>1166.82605</ele>
        <time>2017-05-27T11:56:12Z</time>
      </trkpt>
      <trkpt lat="45.74069" lon="3.8341">
        <ele>1167.343872</ele>
        <time>2017-05-27T11:57:22Z</time>
      </trkpt>
      <trkpt lat="45.74071" lon="3.83397">
        <ele>1193.800049</ele>
        <time>2017-05-27T11:57:36Z</time>
      </trkpt>
      <trkpt lat="45.74068" lon="3.8338">
        <ele>1193.599976</ele>
        <time>2017-05-27T11:57:40Z</time>
      </trkpt>
      <trkpt lat="45.74065" lon="3.83366">
        <ele>1193.400024</ele>
        <time>2017-05-27T11:57:43Z</time>
      </trkpt>
      <trkpt lat="45.74064" lon="3.83347">
        <ele>1193.099976</ele>
        <time>2017-05-27T11:57:46Z</time>
      </trkpt>
      <trkpt lat="45.74063" lon="3.83334">
        <ele>1192.800049</ele>
        <time>2017-05-27T11:57:48Z</time>
      </trkpt>
      <trkpt lat="45.74062" lon="3.83321">
        <ele>1192.5</ele>
        <time>2017-05-27T11:57:50Z</time>
      </trkpt>
      <trkpt lat="45.7406" lon="3.83305">
        <ele>1192.400024</ele>
        <time>2017-05-27T11:57:52Z</time>
      </trkpt>
      <trkpt lat="45.74058" lon="3.8329">
        <ele>1191.900024</ele>
        <time>2017-05-27T11:57:54Z</time>
      </trkpt>
      <trkpt lat="45.74056" lon="3.83273">
        <ele>1191.699951</ele>
        <time>2017-05-27T11:57:56Z</time>
      </trkpt>
      <trkpt lat="45.74055" lon="3.83256">
        <ele>1191.300049</ele>
        <time>2017-05-27T11:57:58Z</time>
      </trkpt>
      <trkpt lat="45.74053" lon="3.83239">
        <ele>1191</ele>
        <time>2017-05-27T11:58:00Z</time>
      </trkpt>
      <trkpt lat="45.74051" lon="3.83221">
        <ele>1190.099976</ele>
        <time>2017-05-27T11:58:02Z</time>
      </trkpt>
      <trkpt lat="45.74049" lon="3.83203">
        <ele>1189.599976</ele>
        <time>2017-05-27T11:58:04Z</time>
      </trkpt>
      <trkpt lat="45.74047" lon="3.83184">
        <ele>1189</ele>
        <time>2017-05-27T11:58:06Z</time>
      </trkpt>
      <trkpt lat="45.74046" lon="3.83166">
        <ele>1188.400024</ele>
        <time>2017-05-27T11:58:08Z</time>
      </trkpt>
      <trkpt lat="45.74044" lon="3.83146">
        <ele>1188</ele>
        <time>2017-05-27T11:58:10Z</time>
      </trkpt>
      <trkpt lat="45.74043" lon="3.83128">
        <ele>1187.400024</ele>
        <time>2017-05-27T11:58:12Z</time>
      </trkpt>
      <trkpt lat="45.74043" lon="3.8311">
        <ele>1186.800049</ele>
        <time>2017-05-27T11:58:14Z</time>
      </trkpt>
      <trkpt lat="45.74043" lon="3.83091">
        <ele>1186</ele>
        <time>2017-05-27T11:58:16Z</time>
      </trkpt>
      <trkpt lat="45.74044" lon="3.83073">
        <ele>1185.099976</ele>
        <time>2017-05-27T11:58:18Z</time>
      </trkpt>
      <trkpt lat="45.74045" lon="3.83055">
        <ele>1184.599976</ele>
        <time>2017-05-27T11:58:20Z</time>
      </trkpt>
      <trkpt lat="45.74046" lon="3.83037">
        <ele>1183.699951</ele>
        <time>2017-05-27T11:58:22Z</time>
      </trkpt>
      <trkpt lat="45.74045" lon="3.8302">
        <ele>1183.099976</ele>
        <time>2017-05-27T11:58:24Z</time>
      </trkpt>
      <trkpt lat="45.74041" lon="3.83006">
        <ele>1182.400024</ele>
        <time>2017-05-27T11:58:26Z</time>
      </trkpt>
      <trkpt lat="45.74033" lon="3.82994">
        <ele>1181.900024</ele>
        <time>2017-05-27T11:58:28Z</time>
      </trkpt>
      <trkpt lat="45.74024" lon="3.82985">
        <ele>1181.300049</ele>
        <time>2017-05-27T11:58:30Z</time>
      </trkpt>
      <trkpt lat="45.74017" lon="3.82973">
        <ele>1180.300049</ele>
        <time>2017-05-27T11:58:33Z</time>
      </trkpt>
      <trkpt lat="45.74012" lon="3.82959">
        <ele>1179.5</ele>
        <time>2017-05-27T11:58:36Z</time>
      </trkpt>
      <trkpt lat="45.7401" lon="3.82943">
        <ele>1179</ele>
        <time>2017-05-27T11:58:39Z</time>
      </trkpt>
      <trkpt lat="45.74007" lon="3.8293">
        <ele>1178.699951</ele>
        <time>2017-05-27T11:58:44Z</time>
      </trkpt>
      <trkpt lat="45.74002" lon="3.82919">
        <ele>1179.400024</ele>
        <time>2017-05-27T11:58:49Z</time>
      </trkpt>
      <trkpt lat="45.73998" lon="3.82906">
        <ele>1180.5</ele>
        <time>2017-05-27T11:58:56Z</time>
      </trkpt>
      <trkpt lat="45.73993" lon="3.82895">
        <ele>1181.400024</ele>
        <time>2017-05-27T11:59:03Z</time>
      </trkpt>
      <trkpt lat="45.73988" lon="3.82884">
        <ele>1182.699951</ele>
        <time>2017-05-27T11:59:13Z</time>
      </trkpt>
      <trkpt lat="45.73983" lon="3.82872">
        <ele>1183.5</ele>
        <time>2017-05-27T11:59:20Z</time>
      </trkpt>
      <trkpt lat="45.73976" lon="3.82863">
        <ele>1184.5</ele>
        <time>2017-05-27T11:59:28Z</time>
      </trkpt>
      <trkpt lat="45.7397" lon="3.82853">
        <ele>1185.400024</ele>
        <time>2017-05-27T11:59:37Z</time>
      </trkpt>
      <trkpt lat="45.73965" lon="3.82841">
        <ele>1186</ele>
        <time>2017-05-27T11:59:43Z</time>
      </trkpt>
      <trkpt lat="45.73961" lon="3.82829">
        <ele>1186.800049</ele>
        <time>2017-05-27T11:59:50Z</time>
      </trkpt>
      <trkpt lat="45.73955" lon="3.82817">
        <ele>1187.400024</ele>
        <time>2017-05-27T11:59:57Z</time>
      </trkpt>
      <trkpt lat="45.73952" lon="3.82803">
        <ele>1188.300049</ele>
        <time>2017-05-27T12:00:05Z</time>
      </trkpt>
      <trkpt lat="45.73949" lon="3.82791">
        <ele>1189.199951</ele>
        <time>2017-05-27T12:00:12Z</time>
      </trkpt>
      <trkpt lat="45.73946" lon="3.82778">
        <ele>1190.199951</ele>
        <time>2017-05-27T12:00:20Z</time>
      </trkpt>
      <trkpt lat="45.73944" lon="3.82765">
        <ele>1190.900024</ele>
        <time>2017-05-27T12:00:28Z</time>
      </trkpt>
      <trkpt lat="45.73941" lon="3.82751">
        <ele>1191.400024</ele>
        <time>2017-05-27T12:00:35Z</time>
      </trkpt>
      <trkpt lat="45.73938" lon="3.82739">
        <ele>1191.800049</ele>
        <time>2017-05-27T12:00:41Z</time>
      </trkpt>
      <trkpt lat="45.73934" lon="3.82727">
        <ele>1192.099976</ele>
        <time>2017-05-27T12:00:46Z</time>
      </trkpt>
      <trkpt lat="45.73931" lon="3.82714">
        <ele>1192.300049</ele>
        <time>2017-05-27T12:00:52Z</time>
      </trkpt>
      <trkpt lat="45.73926" lon="3.82701">
        <ele>1192.599976</ele>
        <time>2017-05-27T12:00:58Z</time>
      </trkpt>
      <trkpt lat="45.73922" lon="3.82687">
        <ele>1193.099976</ele>
        <time>2017-05-27T12:01:04Z</time>
      </trkpt>
      <trkpt lat="45.73919" lon="3.82675">
        <ele>1193.300049</ele>
        <time>2017-05-27T12:01:09Z</time>
      </trkpt>
      <trkpt lat="45.73917" lon="3.82662">
        <ele>1193.800049</ele>
        <time>2017-05-27T12:01:14Z</time>
      </trkpt>
      <trkpt lat="45.73916" lon="3.82646">
        <ele>1194</ele>
        <time>2017-05-27T12:01:20Z</time>
      </trkpt>
      <trkpt lat="45.73914" lon="3.8263">
        <ele>1194.599976</ele>
        <time>2017-05-27T12:01:26Z</time>
      </trkpt>
      <trkpt lat="45.73913" lon="3.82616">
        <ele>1194.800049</ele>
        <time>2017-05-27T12:01:30Z</time>
      </trkpt>
      <trkpt lat="45.73914" lon="3.82601">
        <ele>1195.199951</ele>
        <time>2017-05-27T12:01:34Z</time>
      </trkpt>
      <trkpt lat="45.73913" lon="3.82586">
        <ele>1195.300049</ele>
        <time>2017-05-27T12:01:38Z</time>
      </trkpt>
      <trkpt lat="45.73911" lon="3.82571">
        <ele>1195.099976</ele>
        <time>2017-05-27T12:01:42Z</time>
      </trkpt>
      <trkpt lat="45.7391" lon="3.82554">
        <ele>1194.900024</ele>
        <time>2017-05-27T12:01:46Z</time>
      </trkpt>
      <trkpt lat="45.73911" lon="3.82538">
        <ele>1194.800049</ele>
        <time>2017-05-27T12:01:49Z</time>
      </trkpt>
      <trkpt lat="45.73913" lon="3.8252">
        <ele>1194.699951</ele>
        <time>2017-05-27T12:01:52Z</time>
      </trkpt>
      <trkpt lat="45.73915" lon="3.82502">
        <ele>1194.199951</ele>
        <time>2017-05-27T12:01:55Z</time>
      </trkpt>
      <trkpt lat="45.73916" lon="3.82489">
        <ele>1193.800049</ele>
        <time>2017-05-27T12:01:57Z</time>
      </trkpt>
      <trkpt lat="45.73918" lon="3.82474">
        <ele>1193.5</ele>
        <time>2017-05-27T12:01:59Z</time>
      </trkpt>
      <trkpt lat="45.73921" lon="3.8246">
        <ele>1193.099976</ele>
        <time>2017-05-27T12:02:01Z</time>
      </trkpt>
      <trkpt lat="45.73922" lon="3.82444">
        <ele>1192.800049</ele>
        <time>2017-05-27T12:02:03Z</time>
      </trkpt>
      <trkpt lat="45.73925" lon="3.82427">
        <ele>1192.400024</ele>
        <time>2017-05-27T12:02:05Z</time>
      </trkpt>
      <trkpt lat="45.73927" lon="3.82408">
        <ele>1191.699951</ele>
        <time>2017-05-27T12:02:07Z</time>
      </trkpt>
      <trkpt lat="45.7393" lon="3.82388">
        <ele>1190.800049</ele>
        <time>2017-05-27T12:02:09Z</time>
      </trkpt>
      <trkpt lat="45.73933" lon="3.82369">
        <ele>1190.099976</ele>
        <time>2017-05-27T12:02:11Z</time>
      </trkpt>
      <trkpt lat="45.73938" lon="3.82348">
        <ele>1189.5</ele>
        <time>2017-05-27T12:02:13Z</time>
      </trkpt>
      <trkpt lat="45.73942" lon="3.82325">
        <ele>1188.400024</ele>
        <time>2017-05-27T12:02:15Z</time>
      </trkpt>
      <trkpt lat="45.73947" lon="3.82303">
        <ele>1187.300049</ele>
        <time>2017-05-27T12:02:17Z</time>
      </trkpt>
      <trkpt lat="45.73953" lon="3.82281">
        <ele>1186.5</ele>
        <time>2017-05-27T12:02:19Z</time>
      </trkpt>
      <trkpt lat="45.73959" lon="3.82259">
        <ele>1185.400024</ele>
        <time>2017-05-27T12:02:21Z</time>
      </trkpt>
      <trkpt lat="45.73965" lon="3.82238">
        <ele>1184</ele>
        <time>2017-05-27T12:02:23Z</time>
      </trkpt>
      <trkpt lat="45.73972" lon="3.82217">
        <ele>1183</ele>
        <time>2017-05-27T12:02:25Z</time>
      </trkpt>
      <trkpt lat="45.7398" lon="3.82195">
        <ele>1181.5</ele>
        <time>2017-05-27T12:02:27Z</time>
      </trkpt>
      <trkpt lat="45.73988" lon="3.82173">
        <ele>1180.5</ele>
        <time>2017-05-27T12:02:29Z</time>
      </trkpt>
      <trkpt lat="45.73994" lon="3.82149">
        <ele>1179.400024</ele>
        <time>2017-05-27T12:02:31Z</time>
      </trkpt>
      <trkpt lat="45.74001" lon="3.82126">
        <ele>1178.199951</ele>
        <time>2017-05-27T12:02:33Z</time>
      </trkpt>
      <trkpt lat="45.74007" lon="3.82105">
        <ele>1176.800049</ele>
        <time>2017-05-27T12:02:35Z</time>
      </trkpt>
      <trkpt lat="45.74011" lon="3.82084">
        <ele>1175.400024</ele>
        <time>2017-05-27T12:02:37Z</time>
      </trkpt>
      <trkpt lat="45.74014" lon="3.82062">
        <ele>1173.800049</ele>
        <time>2017-05-27T12:02:39Z</time>
      </trkpt>
      <trkpt lat="45.74015" lon="3.82041">
        <ele>1172</ele>
        <time>2017-05-27T12:02:41Z</time>
      </trkpt>
      <trkpt lat="45.74014" lon="3.82022">
        <ele>1170.199951</ele>
        <time>2017-05-27T12:02:43Z</time>
      </trkpt>
      <trkpt lat="45.74015" lon="3.82004">
        <ele>1168.5</ele>
        <time>2017-05-27T12:02:45Z</time>
      </trkpt>
      <trkpt lat="45.74019" lon="3.81986">
        <ele>1166.900024</ele>
        <time>2017-05-27T12:02:47Z</time>
      </trkpt>
      <trkpt lat="45.74021" lon="3.81971">
        <ele>1164.099976</ele>
        <time>2017-05-27T12:02:50Z</time>
      </trkpt>
      <trkpt lat="45.74022" lon="3.81957">
        <ele>1162</ele>
        <time>2017-05-27T12:02:55Z</time>
      </trkpt>
      <trkpt lat="45.74024" lon="3.81944">
        <ele>1160.699951</ele>
        <time>2017-05-27T12:03:23Z</time>
      </trkpt>
      <trkpt lat="45.74028" lon="3.81927">
        <ele>1160.199951</ele>
        <time>2017-05-27T12:06:36Z</time>
      </trkpt>
      <trkpt lat="45.74032" lon="3.81912">
        <ele>1159.400024</ele>
        <time>2017-05-27T12:06:38Z</time>
      </trkpt>
      <trkpt lat="45.74036" lon="3.81896">
        <ele>1158.900024</ele>
        <time>2017-05-27T12:06:40Z</time>
      </trkpt>
      <trkpt lat="45.74039" lon="3.81879">
        <ele>1158.099976</ele>
        <time>2017-05-27T12:06:42Z</time>
      </trkpt>
      <trkpt lat="45.74042" lon="3.81863">
        <ele>1157.300049</ele>
        <time>2017-05-27T12:06:44Z</time>
      </trkpt>
      <trkpt lat="45.74046" lon="3.81846">
        <ele>1157</ele>
        <time>2017-05-27T12:06:46Z</time>
      </trkpt>
      <trkpt lat="45.74049" lon="3.81829">
        <ele>1156.699951</ele>
        <time>2017-05-27T12:06:48Z</time>
      </trkpt>
      <trkpt lat="45.74052" lon="3.81813">
        <ele>1156.599976</ele>
        <time>2017-05-27T12:06:50Z</time>
      </trkpt>
      <trkpt lat="45.74054" lon="3.81797">
        <ele>1156.199951</ele>
        <time>2017-05-27T12:06:52Z</time>
      </trkpt>
      <trkpt lat="45.74053" lon="3.8178">
        <ele>1156</ele>
        <time>2017-05-27T12:06:54Z</time>
      </trkpt>
      <trkpt lat="45.74052" lon="3.81761">
        <ele>1155.699951</ele>
        <time>2017-05-27T12:06:56Z</time>
      </trkpt>
      <trkpt lat="45.74051" lon="3.81741">
        <ele>1155.099976</ele>
        <time>2017-05-27T12:06:58Z</time>
      </trkpt>
      <trkpt lat="45.74051" lon="3.81721">
        <ele>1154.300049</ele>
        <time>2017-05-27T12:07:00Z</time>
      </trkpt>
      <trkpt lat="45.7405" lon="3.81699">
        <ele>1153.699951</ele>
        <time>2017-05-27T12:07:02Z</time>
      </trkpt>
      <trkpt lat="45.7405" lon="3.81678">
        <ele>1153.099976</ele>
        <time>2017-05-27T12:07:04Z</time>
      </trkpt>
      <trkpt lat="45.74047" lon="3.81659">
        <ele>1152.699951</ele>
        <time>2017-05-27T12:07:06Z</time>
      </trkpt>
      <trkpt lat="45.74045" lon="3.81637">
        <ele>1151.900024</ele>
        <time>2017-05-27T12:07:08Z</time>
      </trkpt>
      <trkpt lat="45.74043" lon="3.81617">
        <ele>1151.5</ele>
        <time>2017-05-27T12:07:10Z</time>
      </trkpt>
      <trkpt lat="45.7404" lon="3.81595">
        <ele>1150.699951</ele>
        <time>2017-05-27T12:07:12Z</time>
      </trkpt>
      <trkpt lat="45.74038" lon="3.81573">
        <ele>1149.800049</ele>
        <time>2017-05-27T12:07:14Z</time>
      </trkpt>
      <trkpt lat="45.74037" lon="3.8155">
        <ele>1149.099976</ele>
        <time>2017-05-27T12:07:16Z</time>
      </trkpt>
      <trkpt lat="45.74037" lon="3.81531">
        <ele>1148.5</ele>
        <time>2017-05-27T12:07:18Z</time>
      </trkpt>
      <trkpt lat="45.74034" lon="3.81512">
        <ele>1148.099976</ele>
        <time>2017-05-27T12:07:20Z</time>
      </trkpt>
      <trkpt lat="45.74033" lon="3.81494">
        <ele>1147.800049</ele>
        <time>2017-05-27T12:07:22Z</time>
      </trkpt>
      <trkpt lat="45.74033" lon="3.81475">
        <ele>1147.300049</ele>
        <time>2017-05-27T12:07:24Z</time>
      </trkpt>
      <trkpt lat="45.74031" lon="3.81454">
        <ele>1146.900024</ele>
        <time>2017-05-27T12:07:26Z</time>
      </trkpt>
      <trkpt lat="45.74029" lon="3.81434">
        <ele>1146.199951</ele>
        <time>2017-05-27T12:07:28Z</time>
      </trkpt>
      <trkpt lat="45.74027" lon="3.81416">
        <ele>1145.699951</ele>
        <time>2017-05-27T12:07:30Z</time>
      </trkpt>
      <trkpt lat="45.74023" lon="3.81399">
        <ele>1145.199951</ele>
        <time>2017-05-27T12:07:32Z</time>
      </trkpt>
      <trkpt lat="45.74017" lon="3.81383">
        <ele>1144.5</ele>
        <time>2017-05-27T12:07:34Z</time>
      </trkpt>
      <trkpt lat="45.74009" lon="3.81371">
        <ele>1143.800049</ele>
        <time>2017-05-27T12:07:36Z</time>
      </trkpt>
      <trkpt lat="45.74" lon="3.81363">
        <ele>1142.599976</ele>
        <time>2017-05-27T12:07:38Z</time>
      </trkpt>
      <trkpt lat="45.7399" lon="3.81355">
        <ele>1141.900024</ele>
        <time>2017-05-27T12:07:40Z</time>
      </trkpt>
      <trkpt lat="45.73982" lon="3.81348">
        <ele>1141.199951</ele>
        <time>2017-05-27T12:07:42Z</time>
      </trkpt>
      <trkpt lat="45.73974" lon="3.81335">
        <ele>1140.099976</ele>
        <time>2017-05-27T12:07:45Z</time>
      </trkpt>
      <trkpt lat="45.73974" lon="3.81319">
        <ele>1138.5</ele>
        <time>2017-05-27T12:07:50Z</time>
      </trkpt>
      <trkpt lat="45.73977" lon="3.81305">
        <ele>1137.599976</ele>
        <time>2017-05-27T12:07:53Z</time>
      </trkpt>
      <trkpt lat="45.73984" lon="3.8129">
        <ele>1137.099976</ele>
        <time>2017-05-27T12:07:56Z</time>
      </trkpt>
      <trkpt lat="45.73992" lon="3.81282">
        <ele>1136.800049</ele>
        <time>2017-05-27T12:07:58Z</time>
      </trkpt>
      <trkpt lat="45.74001" lon="3.81274">
        <ele>1136.300049</ele>
        <time>2017-05-27T12:08:00Z</time>
      </trkpt>
      <trkpt lat="45.74012" lon="3.81266">
        <ele>1135.699951</ele>
        <time>2017-05-27T12:08:02Z</time>
      </trkpt>
      <trkpt lat="45.74022" lon="3.81255">
        <ele>1135</ele>
        <time>2017-05-27T12:08:04Z</time>
      </trkpt>
      <trkpt lat="45.74031" lon="3.8124">
        <ele>1134.199951</ele>
        <time>2017-05-27T12:08:06Z</time>
      </trkpt>
      <trkpt lat="45.74037" lon="3.81224">
        <ele>1133.699951</ele>
        <time>2017-05-27T12:08:08Z</time>
      </trkpt>
      <trkpt lat="45.74038" lon="3.81208">
        <ele>1133.199951</ele>
        <time>2017-05-27T12:08:10Z</time>
      </trkpt>
      <trkpt lat="45.74037" lon="3.81194">
        <ele>1132.900024</ele>
        <time>2017-05-27T12:08:12Z</time>
      </trkpt>
      <trkpt lat="45.74034" lon="3.81181">
        <ele>1132.599976</ele>
        <time>2017-05-27T12:08:14Z</time>
      </trkpt>
      <trkpt lat="45.74028" lon="3.81164">
        <ele>1132.400024</ele>
        <time>2017-05-27T12:08:17Z</time>
      </trkpt>
      <trkpt lat="45.74022" lon="3.81153">
        <ele>1132.599976</ele>
        <time>2017-05-27T12:08:19Z</time>
      </trkpt>
      <trkpt lat="45.74015" lon="3.81143">
        <ele>1132.5</ele>
        <time>2017-05-27T12:08:21Z</time>
      </trkpt>
      <trkpt lat="45.74008" lon="3.81134">
        <ele>1132.699951</ele>
        <time>2017-05-27T12:08:23Z</time>
      </trkpt>
      <trkpt lat="45.74" lon="3.81126">
        <ele>1132.800049</ele>
        <time>2017-05-27T12:08:25Z</time>
      </trkpt>
      <trkpt lat="45.7399" lon="3.81117">
        <ele>1133.5</ele>
        <time>2017-05-27T12:08:28Z</time>
      </trkpt>
      <trkpt lat="45.73983" lon="3.81108">
        <ele>1134.5</ele>
        <time>2017-05-27T12:08:32Z</time>
      </trkpt>
      <trkpt lat="45.7398" lon="3.81095">
        <ele>1134.900024</ele>
        <time>2017-05-27T12:08:38Z</time>
      </trkpt>
      <trkpt lat="45.73976" lon="3.8108">
        <ele>1135.599976</ele>
        <time>2017-05-27T12:08:43Z</time>
      </trkpt>
      <trkpt lat="45.73971" lon="3.81067">
        <ele>1136.5</ele>
        <time>2017-05-27T12:08:48Z</time>
      </trkpt>
      <trkpt lat="45.73967" lon="3.81053">
        <ele>1137.300049</ele>
        <time>2017-05-27T12:08:53Z</time>
      </trkpt>
      <trkpt lat="45.73963" lon="3.81041">
        <ele>1138</ele>
        <time>2017-05-27T12:08:58Z</time>
      </trkpt>
      <trkpt lat="45.73959" lon="3.81027">
        <ele>1138.800049</ele>
        <time>2017-05-27T12:09:04Z</time>
      </trkpt>
      <trkpt lat="45.73955" lon="3.81014">
        <ele>1139.699951</ele>
        <time>2017-05-27T12:09:09Z</time>
      </trkpt>
      <trkpt lat="45.73952" lon="3.81">
        <ele>1140.099976</ele>
        <time>2017-05-27T12:09:14Z</time>
      </trkpt>
      <trkpt lat="45.7395" lon="3.80986">
        <ele>1140.900024</ele>
        <time>2017-05-27T12:09:20Z</time>
      </trkpt>
      <trkpt lat="45.73948" lon="3.80973">
        <ele>1141.400024</ele>
        <time>2017-05-27T12:09:25Z</time>
      </trkpt>
      <trkpt lat="45.73947" lon="3.80957">
        <ele>1141.900024</ele>
        <time>2017-05-27T12:09:30Z</time>
      </trkpt>
      <trkpt lat="45.73947" lon="3.80943">
        <ele>1142.5</ele>
        <time>2017-05-27T12:09:34Z</time>
      </trkpt>
      <trkpt lat="45.73946" lon="3.80928">
        <ele>1143.699951</ele>
        <time>2017-05-27T12:09:39Z</time>
      </trkpt>
      <trkpt lat="45.73946" lon="3.80913">
        <ele>1144.599976</ele>
        <time>2017-05-27T12:09:44Z</time>
      </trkpt>
      <trkpt lat="45.73946" lon="3.80899">
        <ele>1145.900024</ele>
        <time>2017-05-27T12:09:49Z</time>
      </trkpt>
      <trkpt lat="45.73948" lon="3.80885">
        <ele>1146.800049</ele>
        <time>2017-05-27T12:09:53Z</time>
      </trkpt>
      <trkpt lat="45.73949" lon="3.80871">
        <ele>1147.300049</ele>
        <time>2017-05-27T12:09:58Z</time>
      </trkpt>
      <trkpt lat="45.73949" lon="3.80857">
        <ele>1147.800049</ele>
        <time>2017-05-27T12:10:03Z</time>
      </trkpt>
      <trkpt lat="45.73949" lon="3.80842">
        <ele>1148.199951</ele>
        <time>2017-05-27T12:10:08Z</time>
      </trkpt>
      <trkpt lat="45.73949" lon="3.80828">
        <ele>1148.400024</ele>
        <time>2017-05-27T12:10:13Z</time>
      </trkpt>
      <trkpt lat="45.7395" lon="3.80813">
        <ele>1148.400024</ele>
        <time>2017-05-27T12:10:17Z</time>
      </trkpt>
      <trkpt lat="45.73951" lon="3.80797">
        <ele>1148.599976</ele>
        <time>2017-05-27T12:10:22Z</time>
      </trkpt>
      <trkpt lat="45.73951" lon="3.80784">
        <ele>1148.699951</ele>
        <time>2017-05-27T12:10:26Z</time>
      </trkpt>
      <trkpt lat="45.73953" lon="3.80768">
        <ele>1149.199951</ele>
        <time>2017-05-27T12:10:31Z</time>
      </trkpt>
      <trkpt lat="45.73955" lon="3.80756">
        <ele>1149.5</ele>
        <time>2017-05-27T12:10:35Z</time>
      </trkpt>
      <trkpt lat="45.73958" lon="3.80743">
        <ele>1149.900024</ele>
        <time>2017-05-27T12:10:39Z</time>
      </trkpt>
      <trkpt lat="45.73961" lon="3.8073">
        <ele>1150.099976</ele>
        <time>2017-05-27T12:10:43Z</time>
      </trkpt>
      <trkpt lat="45.73966" lon="3.80716">
        <ele>1150.599976</ele>
        <time>2017-05-27T12:10:48Z</time>
      </trkpt>
      <trkpt lat="45.7397" lon="3.80703">
        <ele>1151.199951</ele>
        <time>2017-05-27T12:10:53Z</time>
      </trkpt>
      <trkpt lat="45.73973" lon="3.8069">
        <ele>1152.099976</ele>
        <time>2017-05-27T12:10:58Z</time>
      </trkpt>
      <trkpt lat="45.73975" lon="3.80676">
        <ele>1152.699951</ele>
        <time>2017-05-27T12:11:03Z</time>
      </trkpt>
      <trkpt lat="45.73977" lon="3.80662">
        <ele>1153.199951</ele>
        <time>2017-05-27T12:11:09Z</time>
      </trkpt>
      <trkpt lat="45.73976" lon="3.80648">
        <ele>1154.400024</ele>
        <time>2017-05-27T12:12:47Z</time>
      </trkpt>
      <trkpt lat="45.7398" lon="3.80634">
        <ele>1154.699951</ele>
        <time>2017-05-27T12:12:53Z</time>
      </trkpt>
      <trkpt lat="45.73982" lon="3.80619">
        <ele>1154.800049</ele>
        <time>2017-05-27T12:12:57Z</time>
      </trkpt>
      <trkpt lat="45.73985" lon="3.80605">
        <ele>1154.800049</ele>
        <time>2017-05-27T12:13:00Z</time>
      </trkpt>
      <trkpt lat="45.73988" lon="3.8059">
        <ele>1154.699951</ele>
        <time>2017-05-27T12:13:03Z</time>
      </trkpt>
      <trkpt lat="45.7399" lon="3.80572">
        <ele>1154.699951</ele>
        <time>2017-05-27T12:13:06Z</time>
      </trkpt>
      <trkpt lat="45.73992" lon="3.80556">
        <ele>1154.5</ele>
        <time>2017-05-27T12:13:09Z</time>
      </trkpt>
      <trkpt lat="45.73995" lon="3.80537">
        <ele>1154.5</ele>
        <time>2017-05-27T12:13:12Z</time>
      </trkpt>
      <trkpt lat="45.73997" lon="3.80522">
        <ele>1154.599976</ele>
        <time>2017-05-27T12:13:15Z</time>
      </trkpt>
      <trkpt lat="45.74002" lon="3.8051">
        <ele>1155.199951</ele>
        <time>2017-05-27T12:13:20Z</time>
      </trkpt>
      <trkpt lat="45.73999" lon="3.80495">
        <ele>1154.699951</ele>
        <time>2017-05-27T12:18:06Z</time>
      </trkpt>
      <trkpt lat="45.73999" lon="3.80479">
        <ele>1154.699951</ele>
        <time>2017-05-27T12:18:09Z</time>
      </trkpt>
      <trkpt lat="45.74" lon="3.80465">
        <ele>1154.599976</ele>
        <time>2017-05-27T12:18:11Z</time>
      </trkpt>
      <trkpt lat="45.74" lon="3.80449">
        <ele>1154.199951</ele>
        <time>2017-05-27T12:18:13Z</time>
      </trkpt>
      <trkpt lat="45.74" lon="3.80435">
        <ele>1154</ele>
        <time>2017-05-27T12:18:15Z</time>
      </trkpt>
      <trkpt lat="45.74" lon="3.80422">
        <ele>1153.900024</ele>
        <time>2017-05-27T12:18:17Z</time>
      </trkpt>
      <trkpt lat="45.73997" lon="3.80408">
        <ele>1153.900024</ele>
        <time>2017-05-27T12:18:19Z</time>
      </trkpt>
      <trkpt lat="45.73994" lon="3.80394">
        <ele>1153.800049</ele>
        <time>2017-05-27T12:18:21Z</time>
      </trkpt>
      <trkpt lat="45.73987" lon="3.80383">
        <ele>1153.699951</ele>
        <time>2017-05-27T12:18:23Z</time>
      </trkpt>
      <trkpt lat="45.73978" lon="3.80376">
        <ele>1153.5</ele>
        <time>2017-05-27T12:18:25Z</time>
      </trkpt>
      <trkpt lat="45.73968" lon="3.80373">
        <ele>1153.300049</ele>
        <time>2017-05-27T12:18:27Z</time>
      </trkpt>
      <trkpt lat="45.73956" lon="3.80372">
        <ele>1153.199951</ele>
        <time>2017-05-27T12:18:30Z</time>
      </trkpt>
      <trkpt lat="45.73946" lon="3.80375">
        <ele>1153.199951</ele>
        <time>2017-05-27T12:18:33Z</time>
      </trkpt>
      <trkpt lat="45.73936" lon="3.80378">
        <ele>1153.699951</ele>
        <time>2017-05-27T12:18:37Z</time>
      </trkpt>
      <trkpt lat="45.73926" lon="3.80382">
        <ele>1154.900024</ele>
        <time>2017-05-27T12:18:42Z</time>
      </trkpt>
      <trkpt lat="45.73916" lon="3.80385">
        <ele>1156.5</ele>
        <time>2017-05-27T12:18:48Z</time>
      </trkpt>
      <trkpt lat="45.73907" lon="3.80381">
        <ele>1157.800049</ele>
        <time>2017-05-27T12:18:53Z</time>
      </trkpt>
      <trkpt lat="45.739" lon="3.80372">
        <ele>1158.5</ele>
        <time>2017-05-27T12:18:58Z</time>
      </trkpt>
      <trkpt lat="45.73895" lon="3.8036">
        <ele>1159.099976</ele>
        <time>2017-05-27T12:19:03Z</time>
      </trkpt>
      <trkpt lat="45.73891" lon="3.80346">
        <ele>1159.400024</ele>
        <time>2017-05-27T12:19:09Z</time>
      </trkpt>
      <trkpt lat="45.73887" lon="3.80333">
        <ele>1159.800049</ele>
        <time>2017-05-27T12:19:14Z</time>
      </trkpt>
      <trkpt lat="45.73882" lon="3.80322">
        <ele>1160.199951</ele>
        <time>2017-05-27T12:19:19Z</time>
      </trkpt>
      <trkpt lat="45.73879" lon="3.8031">
        <ele>1160.400024</ele>
        <time>2017-05-27T12:19:23Z</time>
      </trkpt>
      <trkpt lat="45.73879" lon="3.80295">
        <ele>1160.400024</ele>
        <time>2017-05-27T12:19:27Z</time>
      </trkpt>
      <trkpt lat="45.73879" lon="3.8028">
        <ele>1160.5</ele>
        <time>2017-05-27T12:19:31Z</time>
      </trkpt>
      <trkpt lat="45.73881" lon="3.80266">
        <ele>1160.5</ele>
        <time>2017-05-27T12:19:35Z</time>
      </trkpt>
      <trkpt lat="45.73883" lon="3.80251">
        <ele>1160.599976</ele>
        <time>2017-05-27T12:19:39Z</time>
      </trkpt>
      <trkpt lat="45.73886" lon="3.80235">
        <ele>1160.599976</ele>
        <time>2017-05-27T12:19:43Z</time>
      </trkpt>
      <trkpt lat="45.73889" lon="3.80221">
        <ele>1160.099976</ele>
        <time>2017-05-27T12:19:47Z</time>
      </trkpt>
      <trkpt lat="45.7389" lon="3.80204">
        <ele>1160</ele>
        <time>2017-05-27T12:19:50Z</time>
      </trkpt>
      <trkpt lat="45.73892" lon="3.80187">
        <ele>1159.5</ele>
        <time>2017-05-27T12:19:53Z</time>
      </trkpt>
      <trkpt lat="45.73896" lon="3.80175">
        <ele>1159.400024</ele>
        <time>2017-05-27T12:19:55Z</time>
      </trkpt>
      <trkpt lat="45.73895" lon="3.80161">
        <ele>1159.199951</ele>
        <time>2017-05-27T12:19:58Z</time>
      </trkpt>
      <trkpt lat="45.73893" lon="3.80147">
        <ele>1159.300049</ele>
        <time>2017-05-27T12:20:01Z</time>
      </trkpt>
      <trkpt lat="45.73891" lon="3.80132">
        <ele>1159.199951</ele>
        <time>2017-05-27T12:20:04Z</time>
      </trkpt>
      <trkpt lat="45.7389" lon="3.80115">
        <ele>1159</ele>
        <time>2017-05-27T12:20:06Z</time>
      </trkpt>
      <trkpt lat="45.73889" lon="3.80102">
        <ele>1158.800049</ele>
        <time>2017-05-27T12:20:08Z</time>
      </trkpt>
      <trkpt lat="45.73887" lon="3.80085">
        <ele>1158.599976</ele>
        <time>2017-05-27T12:20:11Z</time>
      </trkpt>
      <trkpt lat="45.73886" lon="3.80067">
        <ele>1157.800049</ele>
        <time>2017-05-27T12:20:14Z</time>
      </trkpt>
      <trkpt lat="45.73886" lon="3.80053">
        <ele>1157.800049</ele>
        <time>2017-05-27T12:20:16Z</time>
      </trkpt>
      <trkpt lat="45.73886" lon="3.80034">
        <ele>1157.400024</ele>
        <time>2017-05-27T12:20:19Z</time>
      </trkpt>
      <trkpt lat="45.73887" lon="3.80019">
        <ele>1157.300049</ele>
        <time>2017-05-27T12:20:21Z</time>
      </trkpt>
      <trkpt lat="45.73886" lon="3.80004">
        <ele>1157.300049</ele>
        <time>2017-05-27T12:20:23Z</time>
      </trkpt>
      <trkpt lat="45.73887" lon="3.79988">
        <ele>1157.300049</ele>
        <time>2017-05-27T12:20:25Z</time>
      </trkpt>
      <trkpt lat="45.73887" lon="3.79974">
        <ele>1157.099976</ele>
        <time>2017-05-27T12:20:27Z</time>
      </trkpt>
      <trkpt lat="45.73888" lon="3.79961">
        <ele>1156.900024</ele>
        <time>2017-05-27T12:20:29Z</time>
      </trkpt>
      <trkpt lat="45.7389" lon="3.79945">
        <ele>1156.800049</ele>
        <time>2017-05-27T12:20:31Z</time>
      </trkpt>
      <trkpt lat="45.73893" lon="3.79925">
        <ele>1157</ele>
        <time>2017-05-27T12:20:33Z</time>
      </trkpt>
      <trkpt lat="45.73896" lon="3.7991">
        <ele>1156.900024</ele>
        <time>2017-05-27T12:20:35Z</time>
      </trkpt>
      <trkpt lat="45.739" lon="3.79896">
        <ele>1156.699951</ele>
        <time>2017-05-27T12:20:37Z</time>
      </trkpt>
      <trkpt lat="45.73903" lon="3.79883">
        <ele>1156.800049</ele>
        <time>2017-05-27T12:20:39Z</time>
      </trkpt>
      <trkpt lat="45.73908" lon="3.7987">
        <ele>1156.800049</ele>
        <time>2017-05-27T12:20:41Z</time>
      </trkpt>
      <trkpt lat="45.73912" lon="3.79858">
        <ele>1156.599976</ele>
        <time>2017-05-27T12:20:43Z</time>
      </trkpt>
      <trkpt lat="45.73917" lon="3.79844">
        <ele>1156.699951</ele>
        <time>2017-05-27T12:20:45Z</time>
      </trkpt>
      <trkpt lat="45.73921" lon="3.79832">
        <ele>1156.5</ele>
        <time>2017-05-27T12:20:47Z</time>
      </trkpt>
      <trkpt lat="45.73925" lon="3.79821">
        <ele>1156.800049</ele>
        <time>2017-05-27T12:20:49Z</time>
      </trkpt>
      <trkpt lat="45.7393" lon="3.79808">
        <ele>1157</ele>
        <time>2017-05-27T12:20:51Z</time>
      </trkpt>
      <trkpt lat="45.73935" lon="3.79794">
        <ele>1157</ele>
        <time>2017-05-27T12:20:53Z</time>
      </trkpt>
      <trkpt lat="45.73939" lon="3.79782">
        <ele>1157.199951</ele>
        <time>2017-05-27T12:20:55Z</time>
      </trkpt>
      <trkpt lat="45.73943" lon="3.7977">
        <ele>1157.400024</ele>
        <time>2017-05-27T12:20:57Z</time>
      </trkpt>
      <trkpt lat="45.73949" lon="3.79753">
        <ele>1157.699951</ele>
        <time>2017-05-27T12:21:00Z</time>
      </trkpt>
      <trkpt lat="45.73956" lon="3.79737">
        <ele>1157.900024</ele>
        <time>2017-05-27T12:21:03Z</time>
      </trkpt>
      <trkpt lat="45.7396" lon="3.79725">
        <ele>1157.900024</ele>
        <time>2017-05-27T12:21:05Z</time>
      </trkpt>
      <trkpt lat="45.73965" lon="3.79709">
        <ele>1158</ele>
        <time>2017-05-27T12:21:08Z</time>
      </trkpt>
      <trkpt lat="45.73971" lon="3.79693">
        <ele>1158.5</ele>
        <time>2017-05-27T12:21:11Z</time>
      </trkpt>
      <trkpt lat="45.73976" lon="3.79677">
        <ele>1158.599976</ele>
        <time>2017-05-27T12:21:14Z</time>
      </trkpt>
      <trkpt lat="45.73982" lon="3.79662">
        <ele>1158.800049</ele>
        <time>2017-05-27T12:21:17Z</time>
      </trkpt>
      <trkpt lat="45.73987" lon="3.79647">
        <ele>1159.199951</ele>
        <time>2017-05-27T12:21:20Z</time>
      </trkpt>
      <trkpt lat="45.73993" lon="3.79631">
        <ele>1159.599976</ele>
        <time>2017-05-27T12:21:23Z</time>
      </trkpt>
      <trkpt lat="45.73998" lon="3.79616">
        <ele>1159.900024</ele>
        <time>2017-05-27T12:21:26Z</time>
      </trkpt>
      <trkpt lat="45.74005" lon="3.796">
        <ele>1160</ele>
        <time>2017-05-27T12:21:29Z</time>
      </trkpt>
      <trkpt lat="45.74011" lon="3.79586">
        <ele>1160.300049</ele>
        <time>2017-05-27T12:21:32Z</time>
      </trkpt>
      <trkpt lat="45.74018" lon="3.79573">
        <ele>1160.5</ele>
        <time>2017-05-27T12:21:35Z</time>
      </trkpt>
      <trkpt lat="45.74022" lon="3.7956">
        <ele>1160.599976</ele>
        <time>2017-05-27T12:21:37Z</time>
      </trkpt>
      <trkpt lat="45.7402" lon="3.79546">
        <ele>1160.800049</ele>
        <time>2017-05-27T12:21:40Z</time>
      </trkpt>
      <trkpt lat="45.74015" lon="3.79531">
        <ele>1160.800049</ele>
        <time>2017-05-27T12:21:43Z</time>
      </trkpt>
      <trkpt lat="45.74009" lon="3.79517">
        <ele>1161.599976</ele>
        <time>2017-05-27T12:21:46Z</time>
      </trkpt>
      <trkpt lat="45.74005" lon="3.79504">
        <ele>1162.699951</ele>
        <time>2017-05-27T12:21:49Z</time>
      </trkpt>
      <trkpt lat="45.74002" lon="3.79489">
        <ele>1163.5</ele>
        <time>2017-05-27T12:21:52Z</time>
      </trkpt>
      <trkpt lat="45.73999" lon="3.79472">
        <ele>1164.300049</ele>
        <time>2017-05-27T12:21:55Z</time>
      </trkpt>
      <trkpt lat="45.73997" lon="3.79456">
        <ele>1164.699951</ele>
        <time>2017-05-27T12:21:58Z</time>
      </trkpt>
      <trkpt lat="45.73996" lon="3.79441">
        <ele>1164.900024</ele>
        <time>2017-05-27T12:22:01Z</time>
      </trkpt>
      <trkpt lat="45.73995" lon="3.79425">
        <ele>1165.099976</ele>
        <time>2017-05-27T12:22:04Z</time>
      </trkpt>
      <trkpt lat="45.73994" lon="3.79408">
        <ele>1165.5</ele>
        <time>2017-05-27T12:22:07Z</time>
      </trkpt>
      <trkpt lat="45.73992" lon="3.79393">
        <ele>1165.5</ele>
        <time>2017-05-27T12:22:10Z</time>
      </trkpt>
      <trkpt lat="45.73991" lon="3.79375">
        <ele>1165.5</ele>
        <time>2017-05-27T12:22:13Z</time>
      </trkpt>
      <trkpt lat="45.73988" lon="3.79362">
        <ele>1165.300049</ele>
        <time>2017-05-27T12:22:16Z</time>
      </trkpt>
      <trkpt lat="45.7398" lon="3.79347">
        <ele>1165.400024</ele>
        <time>2017-05-27T12:22:20Z</time>
      </trkpt>
      <trkpt lat="45.73971" lon="3.79339">
        <ele>1165.599976</ele>
        <time>2017-05-27T12:22:23Z</time>
      </trkpt>
      <trkpt lat="45.7396" lon="3.79342">
        <ele>1166.400024</ele>
        <time>2017-05-27T12:22:27Z</time>
      </trkpt>
      <trkpt lat="45.73951" lon="3.79349">
        <ele>1167.5</ele>
        <time>2017-05-27T12:22:31Z</time>
      </trkpt>
      <trkpt lat="45.73942" lon="3.79358">
        <ele>1168.699951</ele>
        <time>2017-05-27T12:22:35Z</time>
      </trkpt>
      <trkpt lat="45.73931" lon="3.79366">
        <ele>1169.599976</ele>
        <time>2017-05-27T12:22:39Z</time>
      </trkpt>
      <trkpt lat="45.73921" lon="3.79371">
        <ele>1170</ele>
        <time>2017-05-27T12:22:43Z</time>
      </trkpt>
      <trkpt lat="45.7391" lon="3.79376">
        <ele>1170.199951</ele>
        <time>2017-05-27T12:22:47Z</time>
      </trkpt>
      <trkpt lat="45.73899" lon="3.7938">
        <ele>1170.5</ele>
        <time>2017-05-27T12:22:51Z</time>
      </trkpt>
      <trkpt lat="45.7389" lon="3.79384">
        <ele>1170.599976</ele>
        <time>2017-05-27T12:22:55Z</time>
      </trkpt>
      <trkpt lat="45.7388" lon="3.79386">
        <ele>1171.199951</ele>
        <time>2017-05-27T12:22:59Z</time>
      </trkpt>
      <trkpt lat="45.7387" lon="3.79385">
        <ele>1171.900024</ele>
        <time>2017-05-27T12:23:03Z</time>
      </trkpt>
      <trkpt lat="45.73859" lon="3.79385">
        <ele>1172.599976</ele>
        <time>2017-05-27T12:23:07Z</time>
      </trkpt>
      <trkpt lat="45.7385" lon="3.79381">
        <ele>1173.300049</ele>
        <time>2017-05-27T12:23:11Z</time>
      </trkpt>
      <trkpt lat="45.7384" lon="3.7938">
        <ele>1173.900024</ele>
        <time>2017-05-27T12:23:15Z</time>
      </trkpt>
      <trkpt lat="45.73829" lon="3.79375">
        <ele>1174.5</ele>
        <time>2017-05-27T12:23:19Z</time>
      </trkpt>
      <trkpt lat="45.7382" lon="3.79366">
        <ele>1174.900024</ele>
        <time>2017-05-27T12:23:23Z</time>
      </trkpt>
      <trkpt lat="45.73809" lon="3.79361">
        <ele>1175.300049</ele>
        <time>2017-05-27T12:23:27Z</time>
      </trkpt>
      <trkpt lat="45.73799" lon="3.79354">
        <ele>1176</ele>
        <time>2017-05-27T12:23:31Z</time>
      </trkpt>
      <trkpt lat="45.73788" lon="3.79347">
        <ele>1176.599976</ele>
        <time>2017-05-27T12:23:35Z</time>
      </trkpt>
      <trkpt lat="45.73778" lon="3.79344">
        <ele>1176.800049</ele>
        <time>2017-05-27T12:23:38Z</time>
      </trkpt>
      <trkpt lat="45.73768" lon="3.79339">
        <ele>1176.800049</ele>
        <time>2017-05-27T12:23:41Z</time>
      </trkpt>
      <trkpt lat="45.73758" lon="3.79331">
        <ele>1177.199951</ele>
        <time>2017-05-27T12:23:44Z</time>
      </trkpt>
      <trkpt lat="45.73749" lon="3.79321">
        <ele>1177.099976</ele>
        <time>2017-05-27T12:23:47Z</time>
      </trkpt>
      <trkpt lat="45.73738" lon="3.7931">
        <ele>1176.800049</ele>
        <time>2017-05-27T12:23:50Z</time>
      </trkpt>
      <trkpt lat="45.73727" lon="3.79302">
        <ele>1176.599976</ele>
        <time>2017-05-27T12:23:53Z</time>
      </trkpt>
      <trkpt lat="45.73717" lon="3.79292">
        <ele>1176.199951</ele>
        <time>2017-05-27T12:23:56Z</time>
      </trkpt>
      <trkpt lat="45.73708" lon="3.79284">
        <ele>1176.199951</ele>
        <time>2017-05-27T12:23:59Z</time>
      </trkpt>
      <trkpt lat="45.73698" lon="3.79275">
        <ele>1176</ele>
        <time>2017-05-27T12:24:02Z</time>
      </trkpt>
      <trkpt lat="45.73691" lon="3.79266">
        <ele>1176.099976</ele>
        <time>2017-05-27T12:24:05Z</time>
      </trkpt>
      <trkpt lat="45.73683" lon="3.79257">
        <ele>1176.400024</ele>
        <time>2017-05-27T12:24:08Z</time>
      </trkpt>
      <trkpt lat="45.73675" lon="3.7925">
        <ele>1176.599976</ele>
        <time>2017-05-27T12:24:11Z</time>
      </trkpt>
      <trkpt lat="45.73668" lon="3.7924">
        <ele>1176.699951</ele>
        <time>2017-05-27T12:24:14Z</time>
      </trkpt>
      <trkpt lat="45.73662" lon="3.79227">
        <ele>1176.699951</ele>
        <time>2017-05-27T12:24:17Z</time>
      </trkpt>
      <trkpt lat="45.73657" lon="3.79214">
        <ele>1176.699951</ele>
        <time>2017-05-27T12:24:20Z</time>
      </trkpt>
      <trkpt lat="45.73652" lon="3.79202">
        <ele>1176.5</ele>
        <time>2017-05-27T12:24:23Z</time>
      </trkpt>
      <trkpt lat="45.73647" lon="3.7919">
        <ele>1176.5</ele>
        <time>2017-05-27T12:24:26Z</time>
      </trkpt>
      <trkpt lat="45.73643" lon="3.79175">
        <ele>1176.5</ele>
        <time>2017-05-27T12:24:30Z</time>
      </trkpt>
      <trkpt lat="45.73641" lon="3.79162">
        <ele>1176.699951</ele>
        <time>2017-05-27T12:24:33Z</time>
      </trkpt>
      <trkpt lat="45.73639" lon="3.79149">
        <ele>1176.699951</ele>
        <time>2017-05-27T12:24:36Z</time>
      </trkpt>
      <trkpt lat="45.73638" lon="3.79135">
        <ele>1176.800049</ele>
        <time>2017-05-27T12:24:39Z</time>
      </trkpt>
      <trkpt lat="45.73638" lon="3.7912">
        <ele>1176.900024</ele>
        <time>2017-05-27T12:24:42Z</time>
      </trkpt>
      <trkpt lat="45.73637" lon="3.79107">
        <ele>1177.199951</ele>
        <time>2017-05-27T12:24:45Z</time>
      </trkpt>
      <trkpt lat="45.73637" lon="3.79093">
        <ele>1177.5</ele>
        <time>2017-05-27T12:24:48Z</time>
      </trkpt>
      <trkpt lat="45.73637" lon="3.79077">
        <ele>1177.699951</ele>
        <time>2017-05-27T12:24:51Z</time>
      </trkpt>
      <trkpt lat="45.73636" lon="3.79062">
        <ele>1177.699951</ele>
        <time>2017-05-27T12:24:54Z</time>
      </trkpt>
      <trkpt lat="45.73636" lon="3.79045">
        <ele>1177.699951</ele>
        <time>2017-05-27T12:24:57Z</time>
      </trkpt>
      <trkpt lat="45.73636" lon="3.79028">
        <ele>1177.400024</ele>
        <time>2017-05-27T12:25:00Z</time>
      </trkpt>
      <trkpt lat="45.73636" lon="3.7901">
        <ele>1177.099976</ele>
        <time>2017-05-27T12:25:03Z</time>
      </trkpt>
      <trkpt lat="45.73636" lon="3.7899">
        <ele>1176.699951</ele>
        <time>2017-05-27T12:25:06Z</time>
      </trkpt>
      <trkpt lat="45.73636" lon="3.78975">
        <ele>1176.400024</ele>
        <time>2017-05-27T12:25:08Z</time>
      </trkpt>
      <trkpt lat="45.73634" lon="3.78959">
        <ele>1176.099976</ele>
        <time>2017-05-27T12:25:10Z</time>
      </trkpt>
      <trkpt lat="45.73627" lon="3.78944">
        <ele>1175.599976</ele>
        <time>2017-05-27T12:25:12Z</time>
      </trkpt>
      <trkpt lat="45.73616" lon="3.78932">
        <ele>1174.900024</ele>
        <time>2017-05-27T12:25:14Z</time>
      </trkpt>
      <trkpt lat="45.73606" lon="3.78923">
        <ele>1174.300049</ele>
        <time>2017-05-27T12:25:16Z</time>
      </trkpt>
      <trkpt lat="45.73595" lon="3.78916">
        <ele>1173.800049</ele>
        <time>2017-05-27T12:25:18Z</time>
      </trkpt>
      <trkpt lat="45.73586" lon="3.78908">
        <ele>1173.699951</ele>
        <time>2017-05-27T12:25:21Z</time>
      </trkpt>
      <trkpt lat="45.73578" lon="3.78903">
        <ele>1174.300049</ele>
        <time>2017-05-27T12:25:25Z</time>
      </trkpt>
      <trkpt lat="45.73569" lon="3.78898">
        <ele>1175.400024</ele>
        <time>2017-05-27T12:25:30Z</time>
      </trkpt>
      <trkpt lat="45.73561" lon="3.78891">
        <ele>1176.400024</ele>
        <time>2017-05-27T12:25:35Z</time>
      </trkpt>
      <trkpt lat="45.73552" lon="3.78884">
        <ele>1177.900024</ele>
        <time>2017-05-27T12:25:41Z</time>
      </trkpt>
      <trkpt lat="45.73544" lon="3.78878">
        <ele>1179.599976</ele>
        <time>2017-05-27T12:25:47Z</time>
      </trkpt>
      <trkpt lat="45.73536" lon="3.78872">
        <ele>1181.300049</ele>
        <time>2017-05-27T12:25:53Z</time>
      </trkpt>
      <trkpt lat="45.73527" lon="3.78865">
        <ele>1182.900024</ele>
        <time>2017-05-27T12:26:00Z</time>
      </trkpt>
      <trkpt lat="45.73518" lon="3.78857">
        <ele>1184.599976</ele>
        <time>2017-05-27T12:26:07Z</time>
      </trkpt>
      <trkpt lat="45.73509" lon="3.78851">
        <ele>1186</ele>
        <time>2017-05-27T12:26:14Z</time>
      </trkpt>
      <trkpt lat="45.73501" lon="3.78845">
        <ele>1187.300049</ele>
        <time>2017-05-27T12:26:20Z</time>
      </trkpt>
      <trkpt lat="45.73491" lon="3.78838">
        <ele>1189</ele>
        <time>2017-05-27T12:26:27Z</time>
      </trkpt>
      <trkpt lat="45.73483" lon="3.78832">
        <ele>1190.400024</ele>
        <time>2017-05-27T12:26:33Z</time>
      </trkpt>
      <trkpt lat="45.73473" lon="3.78826">
        <ele>1192.199951</ele>
        <time>2017-05-27T12:26:39Z</time>
      </trkpt>
      <trkpt lat="45.73464" lon="3.78824">
        <ele>1193.900024</ele>
        <time>2017-05-27T12:26:44Z</time>
      </trkpt>
      <trkpt lat="45.73454" lon="3.78819">
        <ele>1195.599976</ele>
        <time>2017-05-27T12:26:50Z</time>
      </trkpt>
      <trkpt lat="45.73445" lon="3.78819">
        <ele>1196.800049</ele>
        <time>2017-05-27T12:26:56Z</time>
      </trkpt>
      <trkpt lat="45.73435" lon="3.78822">
        <ele>1197.699951</ele>
        <time>2017-05-27T12:27:02Z</time>
      </trkpt>
      <trkpt lat="45.73426" lon="3.7883">
        <ele>1198.199951</ele>
        <time>2017-05-27T12:27:07Z</time>
      </trkpt>
      <trkpt lat="45.73418" lon="3.78837">
        <ele>1199.099976</ele>
        <time>2017-05-27T12:27:12Z</time>
      </trkpt>
      <trkpt lat="45.7341" lon="3.78847">
        <ele>1200.5</ele>
        <time>2017-05-27T12:27:18Z</time>
      </trkpt>
      <trkpt lat="45.73402" lon="3.78854">
        <ele>1201.699951</ele>
        <time>2017-05-27T12:27:23Z</time>
      </trkpt>
      <trkpt lat="45.73394" lon="3.7886">
        <ele>1202.900024</ele>
        <time>2017-05-27T12:27:28Z</time>
      </trkpt>
      <trkpt lat="45.73386" lon="3.78869">
        <ele>1204.199951</ele>
        <time>2017-05-27T12:27:33Z</time>
      </trkpt>
      <trkpt lat="45.73378" lon="3.78879">
        <ele>1205.400024</ele>
        <time>2017-05-27T12:27:38Z</time>
      </trkpt>
      <trkpt lat="45.73371" lon="3.78891">
        <ele>1206.300049</ele>
        <time>2017-05-27T12:27:42Z</time>
      </trkpt>
      <trkpt lat="45.73364" lon="3.78902">
        <ele>1206.800049</ele>
        <time>2017-05-27T12:27:46Z</time>
      </trkpt>
      <trkpt lat="45.73359" lon="3.78913">
        <ele>1207.199951</ele>
        <time>2017-05-27T12:27:49Z</time>
      </trkpt>
      <trkpt lat="45.73353" lon="3.78926">
        <ele>1207.900024</ele>
        <time>2017-05-27T12:27:53Z</time>
      </trkpt>
      <trkpt lat="45.73345" lon="3.78938">
        <ele>1208.400024</ele>
        <time>2017-05-27T12:27:57Z</time>
      </trkpt>
      <trkpt lat="45.73339" lon="3.78948">
        <ele>1208.900024</ele>
        <time>2017-05-27T12:28:00Z</time>
      </trkpt>
      <trkpt lat="45.73333" lon="3.78958">
        <ele>1209.5</ele>
        <time>2017-05-27T12:28:04Z</time>
      </trkpt>
      <trkpt lat="45.73324" lon="3.78969">
        <ele>1210.400024</ele>
        <time>2017-05-27T12:28:08Z</time>
      </trkpt>
      <trkpt lat="45.7332" lon="3.78981">
        <ele>1211.300049</ele>
        <time>2017-05-27T12:28:12Z</time>
      </trkpt>
      <trkpt lat="45.73315" lon="3.78992">
        <ele>1212.199951</ele>
        <time>2017-05-27T12:28:15Z</time>
      </trkpt>
      <trkpt lat="45.7331" lon="3.79007">
        <ele>1213.300049</ele>
        <time>2017-05-27T12:28:18Z</time>
      </trkpt>
      <trkpt lat="45.73305" lon="3.79022">
        <ele>1214.300049</ele>
        <time>2017-05-27T12:28:22Z</time>
      </trkpt>
      <trkpt lat="45.73305" lon="3.79038">
        <ele>1215.199951</ele>
        <time>2017-05-27T12:28:26Z</time>
      </trkpt>
      <trkpt lat="45.73304" lon="3.79053">
        <ele>1215.800049</ele>
        <time>2017-05-27T12:28:29Z</time>
      </trkpt>
      <trkpt lat="45.73301" lon="3.79066">
        <ele>1216.300049</ele>
        <time>2017-05-27T12:28:32Z</time>
      </trkpt>
      <trkpt lat="45.733" lon="3.79081">
        <ele>1217</ele>
        <time>2017-05-27T12:28:36Z</time>
      </trkpt>
      <trkpt lat="45.73298" lon="3.79096">
        <ele>1217.800049</ele>
        <time>2017-05-27T12:28:41Z</time>
      </trkpt>
      <trkpt lat="45.73295" lon="3.79111">
        <ele>1219</ele>
        <time>2017-05-27T12:28:46Z</time>
      </trkpt>
      <trkpt lat="45.73292" lon="3.79125">
        <ele>1220.199951</ele>
        <time>2017-05-27T12:28:51Z</time>
      </trkpt>
      <trkpt lat="45.73288" lon="3.7914">
        <ele>1221.599976</ele>
        <time>2017-05-27T12:28:56Z</time>
      </trkpt>
      <trkpt lat="45.73285" lon="3.79153">
        <ele>1222.5</ele>
        <time>2017-05-27T12:29:00Z</time>
      </trkpt>
      <trkpt lat="45.73277" lon="3.79163">
        <ele>1223.5</ele>
        <time>2017-05-27T12:29:04Z</time>
      </trkpt>
      <trkpt lat="45.7327" lon="3.79153">
        <ele>1225.199951</ele>
        <time>2017-05-27T12:29:13Z</time>
      </trkpt>
      <trkpt lat="45.73267" lon="3.79141">
        <ele>1225.699951</ele>
        <time>2017-05-27T12:29:19Z</time>
      </trkpt>
      <trkpt lat="45.73268" lon="3.79137">
        <ele>1226.800049</ele>
        <time>2017-05-27T12:35:16Z</time>
      </trkpt>
      <trkpt lat="45.7326" lon="3.79127">
        <ele>1227.400024</ele>
        <time>2017-05-27T12:35:25Z</time>
      </trkpt>
      <trkpt lat="45.73253" lon="3.79118">
        <ele>1227.800049</ele>
        <time>2017-05-27T12:35:31Z</time>
      </trkpt>
      <trkpt lat="45.73247" lon="3.79106">
        <ele>1228.5</ele>
        <time>2017-05-27T12:35:38Z</time>
      </trkpt>
      <trkpt lat="45.73242" lon="3.79094">
        <ele>1229.400024</ele>
        <time>2017-05-27T12:35:44Z</time>
      </trkpt>
      <trkpt lat="45.73236" lon="3.79083">
        <ele>1230.599976</ele>
        <time>2017-05-27T12:35:51Z</time>
      </trkpt>
      <trkpt lat="45.73231" lon="3.79071">
        <ele>1231.900024</ele>
        <time>2017-05-27T12:35:56Z</time>
      </trkpt>
      <trkpt lat="45.73231" lon="3.79058">
        <ele>1232.900024</ele>
        <time>2017-05-27T12:36:01Z</time>
      </trkpt>
      <trkpt lat="45.7323" lon="3.79045">
        <ele>1233.900024</ele>
        <time>2017-05-27T12:36:06Z</time>
      </trkpt>
      <trkpt lat="45.73227" lon="3.79032">
        <ele>1235.099976</ele>
        <time>2017-05-27T12:36:12Z</time>
      </trkpt>
      <trkpt lat="45.73223" lon="3.7902">
        <ele>1237</ele>
        <time>2017-05-27T12:36:20Z</time>
      </trkpt>
      <trkpt lat="45.73226" lon="3.79005">
        <ele>1238.599976</ele>
        <time>2017-05-27T12:36:26Z</time>
      </trkpt>
      <trkpt lat="45.73227" lon="3.78991">
        <ele>1239.5</ele>
        <time>2017-05-27T12:36:30Z</time>
      </trkpt>
      <trkpt lat="45.73228" lon="3.78978">
        <ele>1241.099976</ele>
        <time>2017-05-27T12:36:36Z</time>
      </trkpt>
      <trkpt lat="45.73228" lon="3.78963">
        <ele>1242.599976</ele>
        <time>2017-05-27T12:36:42Z</time>
      </trkpt>
      <trkpt lat="45.73228" lon="3.78949">
        <ele>1244.099976</ele>
        <time>2017-05-27T12:36:48Z</time>
      </trkpt>
      <trkpt lat="45.73227" lon="3.78935">
        <ele>1245.300049</ele>
        <time>2017-05-27T12:36:55Z</time>
      </trkpt>
      <trkpt lat="45.73229" lon="3.78921">
        <ele>1246.599976</ele>
        <time>2017-05-27T12:37:01Z</time>
      </trkpt>
      <trkpt lat="45.73232" lon="3.78909">
        <ele>1247.300049</ele>
        <time>2017-05-27T12:37:06Z</time>
      </trkpt>
      <trkpt lat="45.73234" lon="3.78894">
        <ele>1248.099976</ele>
        <time>2017-05-27T12:37:11Z</time>
      </trkpt>
      <trkpt lat="45.73239" lon="3.78878">
        <ele>1248.599976</ele>
        <time>2017-05-27T12:37:15Z</time>
      </trkpt>
      <trkpt lat="45.73237" lon="3.78865">
        <ele>1249.199951</ele>
        <time>2017-05-27T12:37:19Z</time>
      </trkpt>
      <trkpt lat="45.73239" lon="3.78849">
        <ele>1249.800049</ele>
        <time>2017-05-27T12:37:23Z</time>
      </trkpt>
      <trkpt lat="45.73239" lon="3.78833">
        <ele>1250.599976</ele>
        <time>2017-05-27T12:37:27Z</time>
      </trkpt>
      <trkpt lat="45.73243" lon="3.78817">
        <ele>1250.699951</ele>
        <time>2017-05-27T12:37:31Z</time>
      </trkpt>
      <trkpt lat="45.73248" lon="3.78804">
        <ele>1251</ele>
        <time>2017-05-27T12:37:34Z</time>
      </trkpt>
      <trkpt lat="45.73252" lon="3.78791">
        <ele>1251.199951</ele>
        <time>2017-05-27T12:37:37Z</time>
      </trkpt>
      <trkpt lat="45.73259" lon="3.78779">
        <ele>1251.5</ele>
        <time>2017-05-27T12:37:40Z</time>
      </trkpt>
      <trkpt lat="45.73266" lon="3.78764">
        <ele>1251.300049</ele>
        <time>2017-05-27T12:37:43Z</time>
      </trkpt>
      <trkpt lat="45.73271" lon="3.78752">
        <ele>1251.199951</ele>
        <time>2017-05-27T12:37:45Z</time>
      </trkpt>
      <trkpt lat="45.73276" lon="3.78737">
        <ele>1250.900024</ele>
        <time>2017-05-27T12:37:48Z</time>
      </trkpt>
      <trkpt lat="45.73275" lon="3.78722">
        <ele>1250.800049</ele>
        <time>2017-05-27T12:37:51Z</time>
      </trkpt>
      <trkpt lat="45.73276" lon="3.78708">
        <ele>1250.599976</ele>
        <time>2017-05-27T12:37:54Z</time>
      </trkpt>
      <trkpt lat="45.73277" lon="3.78695">
        <ele>1250.699951</ele>
        <time>2017-05-27T12:37:57Z</time>
      </trkpt>
      <trkpt lat="45.7328" lon="3.78679">
        <ele>1250.699951</ele>
        <time>2017-05-27T12:38:00Z</time>
      </trkpt>
      <trkpt lat="45.73283" lon="3.78663">
        <ele>1251.400024</ele>
        <time>2017-05-27T12:38:03Z</time>
      </trkpt>
      <trkpt lat="45.7329" lon="3.78645">
        <ele>1251.900024</ele>
        <time>2017-05-27T12:38:06Z</time>
      </trkpt>
      <trkpt lat="45.73294" lon="3.78634">
        <ele>1252</ele>
        <time>2017-05-27T12:38:08Z</time>
      </trkpt>
      <trkpt lat="45.73303" lon="3.7862">
        <ele>1252.400024</ele>
        <time>2017-05-27T12:38:11Z</time>
      </trkpt>
      <trkpt lat="45.73312" lon="3.78611">
        <ele>1253</ele>
        <time>2017-05-27T12:38:14Z</time>
      </trkpt>
      <trkpt lat="45.7332" lon="3.78606">
        <ele>1253.400024</ele>
        <time>2017-05-27T12:38:17Z</time>
      </trkpt>
      <trkpt lat="45.73329" lon="3.78602">
        <ele>1254.199951</ele>
        <time>2017-05-27T12:38:20Z</time>
      </trkpt>
      <trkpt lat="45.73339" lon="3.78592">
        <ele>1254.599976</ele>
        <time>2017-05-27T12:38:23Z</time>
      </trkpt>
      <trkpt lat="45.73348" lon="3.78581">
        <ele>1255.199951</ele>
        <time>2017-05-27T12:38:26Z</time>
      </trkpt>
      <trkpt lat="45.73356" lon="3.78567">
        <ele>1256.199951</ele>
        <time>2017-05-27T12:38:30Z</time>
      </trkpt>
      <trkpt lat="45.73362" lon="3.78556">
        <ele>1256.900024</ele>
        <time>2017-05-27T12:38:33Z</time>
      </trkpt>
      <trkpt lat="45.73368" lon="3.78542">
        <ele>1257.5</ele>
        <time>2017-05-27T12:38:36Z</time>
      </trkpt>
      <trkpt lat="45.73372" lon="3.78529">
        <ele>1258.300049</ele>
        <time>2017-05-27T12:38:39Z</time>
      </trkpt>
      <trkpt lat="45.73378" lon="3.78517">
        <ele>1258.900024</ele>
        <time>2017-05-27T12:38:42Z</time>
      </trkpt>
      <trkpt lat="45.73384" lon="3.78503">
        <ele>1259.400024</ele>
        <time>2017-05-27T12:38:45Z</time>
      </trkpt>
      <trkpt lat="45.73392" lon="3.78491">
        <ele>1259.699951</ele>
        <time>2017-05-27T12:38:48Z</time>
      </trkpt>
      <trkpt lat="45.734" lon="3.78477">
        <ele>1259.900024</ele>
        <time>2017-05-27T12:38:51Z</time>
      </trkpt>
      <trkpt lat="45.73407" lon="3.78462">
        <ele>1260.099976</ele>
        <time>2017-05-27T12:38:54Z</time>
      </trkpt>
      <trkpt lat="45.73413" lon="3.78447">
        <ele>1260.300049</ele>
        <time>2017-05-27T12:38:57Z</time>
      </trkpt>
      <trkpt lat="45.73416" lon="3.78433">
        <ele>1260.599976</ele>
        <time>2017-05-27T12:39:00Z</time>
      </trkpt>
      <trkpt lat="45.7342" lon="3.7842">
        <ele>1261</ele>
        <time>2017-05-27T12:39:03Z</time>
      </trkpt>
      <trkpt lat="45.73424" lon="3.78408">
        <ele>1261.199951</ele>
        <time>2017-05-27T12:39:05Z</time>
      </trkpt>
      <trkpt lat="45.7343" lon="3.78391">
        <ele>1261.599976</ele>
        <time>2017-05-27T12:39:08Z</time>
      </trkpt>
      <trkpt lat="45.73435" lon="3.78372">
        <ele>1262.300049</ele>
        <time>2017-05-27T12:39:11Z</time>
      </trkpt>
      <trkpt lat="45.73442" lon="3.78356">
        <ele>1262.099976</ele>
        <time>2017-05-27T12:39:14Z</time>
      </trkpt>
      <trkpt lat="45.73446" lon="3.78343">
        <ele>1262</ele>
        <time>2017-05-27T12:39:16Z</time>
      </trkpt>
      <trkpt lat="45.73452" lon="3.78328">
        <ele>1262</ele>
        <time>2017-05-27T12:39:18Z</time>
      </trkpt>
      <trkpt lat="45.7346" lon="3.78312">
        <ele>1261.699951</ele>
        <time>2017-05-27T12:39:20Z</time>
      </trkpt>
      <trkpt lat="45.73466" lon="3.78296">
        <ele>1261.400024</ele>
        <time>2017-05-27T12:39:22Z</time>
      </trkpt>
      <trkpt lat="45.73472" lon="3.78279">
        <ele>1260.900024</ele>
        <time>2017-05-27T12:39:24Z</time>
      </trkpt>
      <trkpt lat="45.73477" lon="3.78262">
        <ele>1260.699951</ele>
        <time>2017-05-27T12:39:26Z</time>
      </trkpt>
      <trkpt lat="45.73482" lon="3.78244">
        <ele>1260.400024</ele>
        <time>2017-05-27T12:39:28Z</time>
      </trkpt>
      <trkpt lat="45.73484" lon="3.7823">
        <ele>1260.099976</ele>
        <time>2017-05-27T12:39:30Z</time>
      </trkpt>
      <trkpt lat="45.73488" lon="3.78215">
        <ele>1259.900024</ele>
        <time>2017-05-27T12:39:32Z</time>
      </trkpt>
      <trkpt lat="45.73494" lon="3.78203">
        <ele>1260</ele>
        <time>2017-05-27T12:39:34Z</time>
      </trkpt>
      <trkpt lat="45.73499" lon="3.7819">
        <ele>1260.099976</ele>
        <time>2017-05-27T12:39:36Z</time>
      </trkpt>
      <trkpt lat="45.73504" lon="3.78178">
        <ele>1260.199951</ele>
        <time>2017-05-27T12:39:38Z</time>
      </trkpt>
      <trkpt lat="45.7351" lon="3.78168">
        <ele>1260.599976</ele>
        <time>2017-05-27T12:39:40Z</time>
      </trkpt>
      <trkpt lat="45.73515" lon="3.78157">
        <ele>1260.900024</ele>
        <time>2017-05-27T12:39:42Z</time>
      </trkpt>
      <trkpt lat="45.7352" lon="3.78146">
        <ele>1261.300049</ele>
        <time>2017-05-27T12:39:44Z</time>
      </trkpt>
      <trkpt lat="45.73527" lon="3.78136">
        <ele>1261.900024</ele>
        <time>2017-05-27T12:39:46Z</time>
      </trkpt>
      <trkpt lat="45.73534" lon="3.78127">
        <ele>1262.5</ele>
        <time>2017-05-27T12:39:48Z</time>
      </trkpt>
      <trkpt lat="45.73548" lon="3.7812">
        <ele>1263.099976</ele>
        <time>2017-05-27T12:39:51Z</time>
      </trkpt>
      <trkpt lat="45.73556" lon="3.78114">
        <ele>1263.099976</ele>
        <time>2017-05-27T12:39:53Z</time>
      </trkpt>
      <trkpt lat="45.7357" lon="3.78112">
        <ele>1263.199951</ele>
        <time>2017-05-27T12:39:55Z</time>
      </trkpt>
      <trkpt lat="45.73581" lon="3.78113">
        <ele>1263.199951</ele>
        <time>2017-05-27T12:39:57Z</time>
      </trkpt>
      <trkpt lat="45.73597" lon="3.78113">
        <ele>1263.099976</ele>
        <time>2017-05-27T12:39:59Z</time>
      </trkpt>
      <trkpt lat="45.73613" lon="3.78109">
        <ele>1262.900024</ele>
        <time>2017-05-27T12:40:01Z</time>
      </trkpt>
      <trkpt lat="45.73629" lon="3.7811">
        <ele>1261.900024</ele>
        <time>2017-05-27T12:40:03Z</time>
      </trkpt>
      <trkpt lat="45.73646" lon="3.78113">
        <ele>1261.300049</ele>
        <time>2017-05-27T12:40:05Z</time>
      </trkpt>
      <trkpt lat="45.73663" lon="3.78117">
        <ele>1260.699951</ele>
        <time>2017-05-27T12:40:07Z</time>
      </trkpt>
      <trkpt lat="45.7368" lon="3.78123">
        <ele>1260.300049</ele>
        <time>2017-05-27T12:40:09Z</time>
      </trkpt>
      <trkpt lat="45.73689" lon="3.78124">
        <ele>1260.400024</ele>
        <time>2017-05-27T12:40:10Z</time>
      </trkpt>
      <trkpt lat="45.73705" lon="3.78129">
        <ele>1260.099976</ele>
        <time>2017-05-27T12:40:12Z</time>
      </trkpt>
      <trkpt lat="45.7372" lon="3.78133">
        <ele>1260.199951</ele>
        <time>2017-05-27T12:40:14Z</time>
      </trkpt>
      <trkpt lat="45.73735" lon="3.78135">
        <ele>1260.300049</ele>
        <time>2017-05-27T12:40:16Z</time>
      </trkpt>
      <trkpt lat="45.73747" lon="3.78139">
        <ele>1260.5</ele>
        <time>2017-05-27T12:40:18Z</time>
      </trkpt>
      <trkpt lat="45.7376" lon="3.78139">
        <ele>1261</ele>
        <time>2017-05-27T12:40:20Z</time>
      </trkpt>
      <trkpt lat="45.73771" lon="3.78142">
        <ele>1261.5</ele>
        <time>2017-05-27T12:40:22Z</time>
      </trkpt>
      <trkpt lat="45.73781" lon="3.78144">
        <ele>1262</ele>
        <time>2017-05-27T12:40:24Z</time>
      </trkpt>
      <trkpt lat="45.73791" lon="3.78143">
        <ele>1262.300049</ele>
        <time>2017-05-27T12:40:26Z</time>
      </trkpt>
      <trkpt lat="45.738" lon="3.78142">
        <ele>1262.900024</ele>
        <time>2017-05-27T12:40:28Z</time>
      </trkpt>
      <trkpt lat="45.73811" lon="3.78144">
        <ele>1263.599976</ele>
        <time>2017-05-27T12:40:31Z</time>
      </trkpt>
      <trkpt lat="45.7382" lon="3.78146">
        <ele>1264.400024</ele>
        <time>2017-05-27T12:40:34Z</time>
      </trkpt>
      <trkpt lat="45.7383" lon="3.78146">
        <ele>1265.199951</ele>
        <time>2017-05-27T12:40:37Z</time>
      </trkpt>
      <trkpt lat="45.73839" lon="3.78145">
        <ele>1266</ele>
        <time>2017-05-27T12:40:40Z</time>
      </trkpt>
      <trkpt lat="45.73849" lon="3.78143">
        <ele>1267.099976</ele>
        <time>2017-05-27T12:40:43Z</time>
      </trkpt>
      <trkpt lat="45.73858" lon="3.78144">
        <ele>1268.400024</ele>
        <time>2017-05-27T12:40:47Z</time>
      </trkpt>
      <trkpt lat="45.73868" lon="3.78144">
        <ele>1269.5</ele>
        <time>2017-05-27T12:40:51Z</time>
      </trkpt>
      <trkpt lat="45.73877" lon="3.78145">
        <ele>1270.800049</ele>
        <time>2017-05-27T12:40:55Z</time>
      </trkpt>
      <trkpt lat="45.73889" lon="3.78141">
        <ele>1271.900024</ele>
        <time>2017-05-27T12:40:59Z</time>
      </trkpt>
      <trkpt lat="45.73899" lon="3.7814">
        <ele>1273.199951</ele>
        <time>2017-05-27T12:41:03Z</time>
      </trkpt>
      <trkpt lat="45.73908" lon="3.78136">
        <ele>1274.199951</ele>
        <time>2017-05-27T12:41:07Z</time>
      </trkpt>
      <trkpt lat="45.73919" lon="3.78132">
        <ele>1275.199951</ele>
        <time>2017-05-27T12:41:11Z</time>
      </trkpt>
      <trkpt lat="45.73929" lon="3.7813">
        <ele>1275.800049</ele>
        <time>2017-05-27T12:41:14Z</time>
      </trkpt>
      <trkpt lat="45.73939" lon="3.78127">
        <ele>1276.199951</ele>
        <time>2017-05-27T12:41:17Z</time>
      </trkpt>
      <trkpt lat="45.73949" lon="3.78123">
        <ele>1276.800049</ele>
        <time>2017-05-27T12:41:20Z</time>
      </trkpt>
      <trkpt lat="45.73961" lon="3.78118">
        <ele>1277.199951</ele>
        <time>2017-05-27T12:41:23Z</time>
      </trkpt>
      <trkpt lat="45.73971" lon="3.78114">
        <ele>1277.699951</ele>
        <time>2017-05-27T12:41:26Z</time>
      </trkpt>
      <trkpt lat="45.7398" lon="3.78112">
        <ele>1278.300049</ele>
        <time>2017-05-27T12:41:29Z</time>
      </trkpt>
      <trkpt lat="45.7399" lon="3.78113">
        <ele>1278.800049</ele>
        <time>2017-05-27T12:41:32Z</time>
      </trkpt>
      <trkpt lat="45.74002" lon="3.78112">
        <ele>1279.300049</ele>
        <time>2017-05-27T12:41:35Z</time>
      </trkpt>
      <trkpt lat="45.74014" lon="3.78111">
        <ele>1279.699951</ele>
        <time>2017-05-27T12:41:38Z</time>
      </trkpt>
      <trkpt lat="45.74026" lon="3.78108">
        <ele>1279.900024</ele>
        <time>2017-05-27T12:41:41Z</time>
      </trkpt>
      <trkpt lat="45.74036" lon="3.78104">
        <ele>1280.300049</ele>
        <time>2017-05-27T12:41:44Z</time>
      </trkpt>
      <trkpt lat="45.74048" lon="3.781">
        <ele>1280.599976</ele>
        <time>2017-05-27T12:41:47Z</time>
      </trkpt>
      <trkpt lat="45.74058" lon="3.78097">
        <ele>1280.800049</ele>
        <time>2017-05-27T12:41:49Z</time>
      </trkpt>
      <trkpt lat="45.74067" lon="3.78095">
        <ele>1281</ele>
        <time>2017-05-27T12:41:51Z</time>
      </trkpt>
      <trkpt lat="45.74079" lon="3.78096">
        <ele>1281.300049</ele>
        <time>2017-05-27T12:41:54Z</time>
      </trkpt>
      <trkpt lat="45.74088" lon="3.78095">
        <ele>1281.400024</ele>
        <time>2017-05-27T12:41:56Z</time>
      </trkpt>
      <trkpt lat="45.741" lon="3.78092">
        <ele>1281.5</ele>
        <time>2017-05-27T12:41:58Z</time>
      </trkpt>
      <trkpt lat="45.74109" lon="3.7809">
        <ele>1281.300049</ele>
        <time>2017-05-27T12:42:00Z</time>
      </trkpt>
      <trkpt lat="45.74119" lon="3.78085">
        <ele>1281.300049</ele>
        <time>2017-05-27T12:42:02Z</time>
      </trkpt>
      <trkpt lat="45.74129" lon="3.78078">
        <ele>1281.5</ele>
        <time>2017-05-27T12:42:04Z</time>
      </trkpt>
      <trkpt lat="45.74139" lon="3.78071">
        <ele>1281.699951</ele>
        <time>2017-05-27T12:42:06Z</time>
      </trkpt>
      <trkpt lat="45.7415" lon="3.78065">
        <ele>1281.800049</ele>
        <time>2017-05-27T12:42:08Z</time>
      </trkpt>
      <trkpt lat="45.74163" lon="3.78058">
        <ele>1282</ele>
        <time>2017-05-27T12:42:11Z</time>
      </trkpt>
      <trkpt lat="45.74176" lon="3.78047">
        <ele>1282</ele>
        <time>2017-05-27T12:42:13Z</time>
      </trkpt>
      <trkpt lat="45.74188" lon="3.78035">
        <ele>1282.099976</ele>
        <time>2017-05-27T12:42:15Z</time>
      </trkpt>
      <trkpt lat="45.74198" lon="3.78021">
        <ele>1282.400024</ele>
        <time>2017-05-27T12:42:17Z</time>
      </trkpt>
      <trkpt lat="45.74207" lon="3.7801">
        <ele>1282.5</ele>
        <time>2017-05-27T12:42:19Z</time>
      </trkpt>
      <trkpt lat="45.74216" lon="3.78">
        <ele>1282.5</ele>
        <time>2017-05-27T12:42:21Z</time>
      </trkpt>
      <trkpt lat="45.74225" lon="3.7799">
        <ele>1282.300049</ele>
        <time>2017-05-27T12:42:23Z</time>
      </trkpt>
      <trkpt lat="45.74233" lon="3.77981">
        <ele>1282.099976</ele>
        <time>2017-05-27T12:42:25Z</time>
      </trkpt>
      <trkpt lat="45.74242" lon="3.77972">
        <ele>1281.699951</ele>
        <time>2017-05-27T12:42:27Z</time>
      </trkpt>
      <trkpt lat="45.74249" lon="3.77945">
        <ele>1281.099976</ele>
        <time>2017-05-27T12:59:43Z</time>
      </trkpt>
      <trkpt lat="45.74258" lon="3.77948">
        <ele>1280.800049</ele>
        <time>2017-05-27T12:59:47Z</time>
      </trkpt>
      <trkpt lat="45.74267" lon="3.7794">
        <ele>1280.5</ele>
        <time>2017-05-27T12:59:50Z</time>
      </trkpt>
      <trkpt lat="45.74277" lon="3.77927">
        <ele>1280.300049</ele>
        <time>2017-05-27T12:59:53Z</time>
      </trkpt>
      <trkpt lat="45.74287" lon="3.77921">
        <ele>1280</ele>
        <time>2017-05-27T12:59:55Z</time>
      </trkpt>
      <trkpt lat="45.74298" lon="3.77928">
        <ele>1279.5</ele>
        <time>2017-05-27T12:59:57Z</time>
      </trkpt>
      <trkpt lat="45.74303" lon="3.7794">
        <ele>1279</ele>
        <time>2017-05-27T12:59:59Z</time>
      </trkpt>
      <trkpt lat="45.74307" lon="3.77955">
        <ele>1278.699951</ele>
        <time>2017-05-27T13:00:02Z</time>
      </trkpt>
      <trkpt lat="45.7431" lon="3.77968">
        <ele>1279</ele>
        <time>2017-05-27T13:00:05Z</time>
      </trkpt>
      <trkpt lat="45.74313" lon="3.7798">
        <ele>1279.300049</ele>
        <time>2017-05-27T13:00:08Z</time>
      </trkpt>
      <trkpt lat="45.74318" lon="3.77995">
        <ele>1279.800049</ele>
        <time>2017-05-27T13:00:12Z</time>
      </trkpt>
      <trkpt lat="45.74326" lon="3.78007">
        <ele>1280.599976</ele>
        <time>2017-05-27T13:00:16Z</time>
      </trkpt>
      <trkpt lat="45.74336" lon="3.78014">
        <ele>1281.599976</ele>
        <time>2017-05-27T13:00:21Z</time>
      </trkpt>
      <trkpt lat="45.74345" lon="3.7802">
        <ele>1282.400024</ele>
        <time>2017-05-27T13:00:26Z</time>
      </trkpt>
      <trkpt lat="45.74352" lon="3.7803">
        <ele>1283.099976</ele>
        <time>2017-05-27T13:00:30Z</time>
      </trkpt>
      <trkpt lat="45.74358" lon="3.78044">
        <ele>1284.199951</ele>
        <time>2017-05-27T13:00:35Z</time>
      </trkpt>
      <trkpt lat="45.74362" lon="3.78056">
        <ele>1285.400024</ele>
        <time>2017-05-27T13:00:40Z</time>
      </trkpt>
      <trkpt lat="45.74367" lon="3.78068">
        <ele>1286.699951</ele>
        <time>2017-05-27T13:00:45Z</time>
      </trkpt>
      <trkpt lat="45.74375" lon="3.78077">
        <ele>1287.699951</ele>
        <time>2017-05-27T13:00:50Z</time>
      </trkpt>
      <trkpt lat="45.74382" lon="3.78084">
        <ele>1288.699951</ele>
        <time>2017-05-27T13:00:55Z</time>
      </trkpt>
      <trkpt lat="45.7439" lon="3.78094">
        <ele>1289.800049</ele>
        <time>2017-05-27T13:01:01Z</time>
      </trkpt>
      <trkpt lat="45.74398" lon="3.78103">
        <ele>1290.900024</ele>
        <time>2017-05-27T13:01:07Z</time>
      </trkpt>
      <trkpt lat="45.74405" lon="3.78111">
        <ele>1291.800049</ele>
        <time>2017-05-27T13:01:12Z</time>
      </trkpt>
      <trkpt lat="45.74414" lon="3.78114">
        <ele>1292.599976</ele>
        <time>2017-05-27T13:01:17Z</time>
      </trkpt>
      <trkpt lat="45.74423" lon="3.78108">
        <ele>1293.5</ele>
        <time>2017-05-27T13:01:22Z</time>
      </trkpt>
      <trkpt lat="45.7443" lon="3.78099">
        <ele>1294</ele>
        <time>2017-05-27T13:01:27Z</time>
      </trkpt>
      <trkpt lat="45.74438" lon="3.78092">
        <ele>1294.5</ele>
        <time>2017-05-27T13:01:34Z</time>
      </trkpt>
      <trkpt lat="45.74446" lon="3.78085">
        <ele>1294.699951</ele>
        <time>2017-05-27T13:01:40Z</time>
      </trkpt>
      <trkpt lat="45.74457" lon="3.78081">
        <ele>1294.599976</ele>
        <time>2017-05-27T13:01:45Z</time>
      </trkpt>
      <trkpt lat="45.74465" lon="3.78077">
        <ele>1295.099976</ele>
        <time>2017-05-27T13:01:49Z</time>
      </trkpt>
      <trkpt lat="45.74475" lon="3.7807">
        <ele>1295.599976</ele>
        <time>2017-05-27T13:01:53Z</time>
      </trkpt>
      <trkpt lat="45.74485" lon="3.78066">
        <ele>1295.5</ele>
        <time>2017-05-27T13:01:56Z</time>
      </trkpt>
      <trkpt lat="45.74497" lon="3.78065">
        <ele>1295.199951</ele>
        <time>2017-05-27T13:01:59Z</time>
      </trkpt>
      <trkpt lat="45.74507" lon="3.78066">
        <ele>1294.900024</ele>
        <time>2017-05-27T13:02:01Z</time>
      </trkpt>
      <trkpt lat="45.74517" lon="3.78067">
        <ele>1294.5</ele>
        <time>2017-05-27T13:02:03Z</time>
      </trkpt>
      <trkpt lat="45.74527" lon="3.78068">
        <ele>1294.099976</ele>
        <time>2017-05-27T13:02:05Z</time>
      </trkpt>
      <trkpt lat="45.74537" lon="3.78069">
        <ele>1293.699951</ele>
        <time>2017-05-27T13:02:07Z</time>
      </trkpt>
      <trkpt lat="45.74548" lon="3.78069">
        <ele>1292.800049</ele>
        <time>2017-05-27T13:02:09Z</time>
      </trkpt>
      <trkpt lat="45.74558" lon="3.78069">
        <ele>1292.199951</ele>
        <time>2017-05-27T13:02:11Z</time>
      </trkpt>
      <trkpt lat="45.7457" lon="3.7807">
        <ele>1291.5</ele>
        <time>2017-05-27T13:02:14Z</time>
      </trkpt>
      <trkpt lat="45.74578" lon="3.78076">
        <ele>1290.599976</ele>
        <time>2017-05-27T13:02:17Z</time>
      </trkpt>
      <trkpt lat="45.74587" lon="3.78087">
        <ele>1290.400024</ele>
        <time>2017-05-27T13:02:21Z</time>
      </trkpt>
      <trkpt lat="45.74594" lon="3.78096">
        <ele>1290.800049</ele>
        <time>2017-05-27T13:02:25Z</time>
      </trkpt>
      <trkpt lat="45.74601" lon="3.78106">
        <ele>1291.599976</ele>
        <time>2017-05-27T13:02:29Z</time>
      </trkpt>
      <trkpt lat="45.7461" lon="3.78114">
        <ele>1292.199951</ele>
        <time>2017-05-27T13:02:33Z</time>
      </trkpt>
      <trkpt lat="45.74618" lon="3.78123">
        <ele>1292.800049</ele>
        <time>2017-05-27T13:02:37Z</time>
      </trkpt>
      <trkpt lat="45.74628" lon="3.7813">
        <ele>1293.5</ele>
        <time>2017-05-27T13:02:41Z</time>
      </trkpt>
      <trkpt lat="45.74639" lon="3.78135">
        <ele>1293.900024</ele>
        <time>2017-05-27T13:02:45Z</time>
      </trkpt>
      <trkpt lat="45.74649" lon="3.78142">
        <ele>1294.199951</ele>
        <time>2017-05-27T13:02:49Z</time>
      </trkpt>
      <trkpt lat="45.74659" lon="3.78146">
        <ele>1294.599976</ele>
        <time>2017-05-27T13:02:53Z</time>
      </trkpt>
      <trkpt lat="45.7467" lon="3.78143">
        <ele>1294.900024</ele>
        <time>2017-05-27T13:02:57Z</time>
      </trkpt>
      <trkpt lat="45.74676" lon="3.78134">
        <ele>1294.599976</ele>
        <time>2017-05-27T13:03:01Z</time>
      </trkpt>
      <trkpt lat="45.74686" lon="3.78128">
        <ele>1294</ele>
        <time>2017-05-27T13:03:05Z</time>
      </trkpt>
      <trkpt lat="45.74693" lon="3.78117">
        <ele>1292.400024</ele>
        <time>2017-05-27T13:03:09Z</time>
      </trkpt>
      <trkpt lat="45.747" lon="3.78108">
        <ele>1291.199951</ele>
        <time>2017-05-27T13:03:12Z</time>
      </trkpt>
      <trkpt lat="45.74706" lon="3.78096">
        <ele>1289.699951</ele>
        <time>2017-05-27T13:03:16Z</time>
      </trkpt>
      <trkpt lat="45.74715" lon="3.78087">
        <ele>1287.900024</ele>
        <time>2017-05-27T13:03:20Z</time>
      </trkpt>
      <trkpt lat="45.74723" lon="3.78079">
        <ele>1286.5</ele>
        <time>2017-05-27T13:03:23Z</time>
      </trkpt>
      <trkpt lat="45.7473" lon="3.78068">
        <ele>1284.400024</ele>
        <time>2017-05-27T13:03:27Z</time>
      </trkpt>
      <trkpt lat="45.74737" lon="3.7806">
        <ele>1281.400024</ele>
        <time>2017-05-27T13:03:34Z</time>
      </trkpt>
      <trkpt lat="45.74745" lon="3.78051">
        <ele>1279.400024</ele>
        <time>2017-05-27T13:03:39Z</time>
      </trkpt>
      <trkpt lat="45.74757" lon="3.78049">
        <ele>1277.300049</ele>
        <time>2017-05-27T13:03:46Z</time>
      </trkpt>
      <trkpt lat="45.74767" lon="3.78045">
        <ele>1276.599976</ele>
        <time>2017-05-27T13:03:49Z</time>
      </trkpt>
      <trkpt lat="45.74776" lon="3.78044">
        <ele>1275.400024</ele>
        <time>2017-05-27T13:03:52Z</time>
      </trkpt>
      <trkpt lat="45.74786" lon="3.78042">
        <ele>1274.199951</ele>
        <time>2017-05-27T13:03:55Z</time>
      </trkpt>
      <trkpt lat="45.74795" lon="3.78031">
        <ele>1271.800049</ele>
        <time>2017-05-27T13:03:59Z</time>
      </trkpt>
      <trkpt lat="45.74799" lon="3.7802">
        <ele>1269</ele>
        <time>2017-05-27T13:04:04Z</time>
      </trkpt>
      <trkpt lat="45.74803" lon="3.78007">
        <ele>1266.199951</ele>
        <time>2017-05-27T13:04:12Z</time>
      </trkpt>
      <trkpt lat="45.7481" lon="3.77998">
        <ele>1263.599976</ele>
        <time>2017-05-27T13:04:20Z</time>
      </trkpt>
      <trkpt lat="45.74818" lon="3.7799">
        <ele>1262.099976</ele>
        <time>2017-05-27T13:04:42Z</time>
      </trkpt>
      <trkpt lat="45.74827" lon="3.77982">
        <ele>1259.800049</ele>
        <time>2017-05-27T13:04:55Z</time>
      </trkpt>
      <trkpt lat="45.74837" lon="3.7798">
        <ele>1258.199951</ele>
        <time>2017-05-27T13:05:00Z</time>
      </trkpt>
      <trkpt lat="45.74848" lon="3.77979">
        <ele>1257.199951</ele>
        <time>2017-05-27T13:05:03Z</time>
      </trkpt>
      <trkpt lat="45.74857" lon="3.7798">
        <ele>1255.699951</ele>
        <time>2017-05-27T13:05:07Z</time>
      </trkpt>
      <trkpt lat="45.74868" lon="3.77975">
        <ele>1253.900024</ele>
        <time>2017-05-27T13:05:12Z</time>
      </trkpt>
      <trkpt lat="45.74878" lon="3.77972">
        <ele>1252.800049</ele>
        <time>2017-05-27T13:05:15Z</time>
      </trkpt>
      <trkpt lat="45.74888" lon="3.7797">
        <ele>1251.099976</ele>
        <time>2017-05-27T13:05:19Z</time>
      </trkpt>
      <trkpt lat="45.74897" lon="3.77971">
        <ele>1248.800049</ele>
        <time>2017-05-27T13:05:24Z</time>
      </trkpt>
      <trkpt lat="45.74906" lon="3.77965">
        <ele>1246.599976</ele>
        <time>2017-05-27T13:05:36Z</time>
      </trkpt>
      <trkpt lat="45.74916" lon="3.77959">
        <ele>1245</ele>
        <time>2017-05-27T13:05:43Z</time>
      </trkpt>
      <trkpt lat="45.74927" lon="3.77958">
        <ele>1243.599976</ele>
        <time>2017-05-27T13:05:48Z</time>
      </trkpt>
      <trkpt lat="45.74933" lon="3.77968">
        <ele>1242.300049</ele>
        <time>2017-05-27T13:05:53Z</time>
      </trkpt>
      <trkpt lat="45.74942" lon="3.77978">
        <ele>1242</ele>
        <time>2017-05-27T13:06:01Z</time>
      </trkpt>
      <trkpt lat="45.74947" lon="3.7799">
        <ele>1241.800049</ele>
        <time>2017-05-27T13:06:05Z</time>
      </trkpt>
      <trkpt lat="45.74953" lon="3.78">
        <ele>1241.599976</ele>
        <time>2017-05-27T13:06:09Z</time>
      </trkpt>
      <trkpt lat="45.74959" lon="3.78015">
        <ele>1241.5</ele>
        <time>2017-05-27T13:06:13Z</time>
      </trkpt>
      <trkpt lat="45.74969" lon="3.78028">
        <ele>1240.900024</ele>
        <time>2017-05-27T13:06:17Z</time>
      </trkpt>
      <trkpt lat="45.74977" lon="3.7804">
        <ele>1240.900024</ele>
        <time>2017-05-27T13:06:20Z</time>
      </trkpt>
      <trkpt lat="45.74985" lon="3.78051">
        <ele>1239.900024</ele>
        <time>2017-05-27T13:06:23Z</time>
      </trkpt>
      <trkpt lat="45.74992" lon="3.7806">
        <ele>1239.400024</ele>
        <time>2017-05-27T13:06:26Z</time>
      </trkpt>
      <trkpt lat="45.75001" lon="3.78067">
        <ele>1239.099976</ele>
        <time>2017-05-27T13:06:28Z</time>
      </trkpt>
      <trkpt lat="45.75012" lon="3.78073">
        <ele>1238.400024</ele>
        <time>2017-05-27T13:06:30Z</time>
      </trkpt>
      <trkpt lat="45.75024" lon="3.78081">
        <ele>1237.300049</ele>
        <time>2017-05-27T13:06:33Z</time>
      </trkpt>
      <trkpt lat="45.75034" lon="3.78079">
        <ele>1236.599976</ele>
        <time>2017-05-27T13:06:35Z</time>
      </trkpt>
      <trkpt lat="45.75047" lon="3.78077">
        <ele>1236</ele>
        <time>2017-05-27T13:06:37Z</time>
      </trkpt>
      <trkpt lat="45.7506" lon="3.78072">
        <ele>1234.699951</ele>
        <time>2017-05-27T13:06:40Z</time>
      </trkpt>
      <trkpt lat="45.75072" lon="3.78075">
        <ele>1234</ele>
        <time>2017-05-27T13:06:42Z</time>
      </trkpt>
      <trkpt lat="45.75086" lon="3.78073">
        <ele>1233.300049</ele>
        <time>2017-05-27T13:06:44Z</time>
      </trkpt>
      <trkpt lat="45.75098" lon="3.78067">
        <ele>1232.599976</ele>
        <time>2017-05-27T13:06:46Z</time>
      </trkpt>
      <trkpt lat="45.75107" lon="3.78061">
        <ele>1231.800049</ele>
        <time>2017-05-27T13:06:48Z</time>
      </trkpt>
      <trkpt lat="45.75117" lon="3.78057">
        <ele>1231.099976</ele>
        <time>2017-05-27T13:06:50Z</time>
      </trkpt>
      <trkpt lat="45.75129" lon="3.78051">
        <ele>1229.900024</ele>
        <time>2017-05-27T13:06:53Z</time>
      </trkpt>
      <trkpt lat="45.7514" lon="3.78047">
        <ele>1229.300049</ele>
        <time>2017-05-27T13:06:57Z</time>
      </trkpt>
      <trkpt lat="45.75151" lon="3.78042">
        <ele>1229.300049</ele>
        <time>2017-05-27T13:07:01Z</time>
      </trkpt>
      <trkpt lat="45.7516" lon="3.78035">
        <ele>1229.400024</ele>
        <time>2017-05-27T13:07:05Z</time>
      </trkpt>
      <trkpt lat="45.75169" lon="3.78027">
        <ele>1229.400024</ele>
        <time>2017-05-27T13:07:08Z</time>
      </trkpt>
      <trkpt lat="45.75177" lon="3.78017">
        <ele>1229.599976</ele>
        <time>2017-05-27T13:07:11Z</time>
      </trkpt>
      <trkpt lat="45.75184" lon="3.78007">
        <ele>1229.900024</ele>
        <time>2017-05-27T13:07:14Z</time>
      </trkpt>
      <trkpt lat="45.75191" lon="3.77995">
        <ele>1230.300049</ele>
        <time>2017-05-27T13:07:17Z</time>
      </trkpt>
      <trkpt lat="45.75197" lon="3.77982">
        <ele>1230.599976</ele>
        <time>2017-05-27T13:07:20Z</time>
      </trkpt>
      <trkpt lat="45.75202" lon="3.77967">
        <ele>1230.699951</ele>
        <time>2017-05-27T13:07:23Z</time>
      </trkpt>
      <trkpt lat="45.7521" lon="3.77954">
        <ele>1230.800049</ele>
        <time>2017-05-27T13:07:26Z</time>
      </trkpt>
      <trkpt lat="45.75219" lon="3.77942">
        <ele>1231.099976</ele>
        <time>2017-05-27T13:07:29Z</time>
      </trkpt>
      <trkpt lat="45.75226" lon="3.77929">
        <ele>1231.099976</ele>
        <time>2017-05-27T13:07:32Z</time>
      </trkpt>
      <trkpt lat="45.75231" lon="3.77914">
        <ele>1231.099976</ele>
        <time>2017-05-27T13:07:35Z</time>
      </trkpt>
      <trkpt lat="45.75234" lon="3.77901">
        <ele>1231</ele>
        <time>2017-05-27T13:07:37Z</time>
      </trkpt>
      <trkpt lat="45.75239" lon="3.77886">
        <ele>1230.699951</ele>
        <time>2017-05-27T13:07:39Z</time>
      </trkpt>
      <trkpt lat="45.75245" lon="3.77872">
        <ele>1230.5</ele>
        <time>2017-05-27T13:07:41Z</time>
      </trkpt>
      <trkpt lat="45.75254" lon="3.77859">
        <ele>1229.900024</ele>
        <time>2017-05-27T13:07:43Z</time>
      </trkpt>
      <trkpt lat="45.75263" lon="3.77849">
        <ele>1229.599976</ele>
        <time>2017-05-27T13:07:45Z</time>
      </trkpt>
      <trkpt lat="45.75274" lon="3.77843">
        <ele>1228.599976</ele>
        <time>2017-05-27T13:07:47Z</time>
      </trkpt>
      <trkpt lat="45.75284" lon="3.77838">
        <ele>1228.599976</ele>
        <time>2017-05-27T13:07:49Z</time>
      </trkpt>
      <trkpt lat="45.75295" lon="3.77835">
        <ele>1228.599976</ele>
        <time>2017-05-27T13:07:51Z</time>
      </trkpt>
      <trkpt lat="45.75304" lon="3.77832">
        <ele>1228.400024</ele>
        <time>2017-05-27T13:07:53Z</time>
      </trkpt>
      <trkpt lat="45.75314" lon="3.7783">
        <ele>1228.5</ele>
        <time>2017-05-27T13:07:56Z</time>
      </trkpt>
      <trkpt lat="45.75324" lon="3.77829">
        <ele>1228.5</ele>
        <time>2017-05-27T13:07:58Z</time>
      </trkpt>
      <trkpt lat="45.75334" lon="3.77827">
        <ele>1228.400024</ele>
        <time>2017-05-27T13:08:00Z</time>
      </trkpt>
      <trkpt lat="45.75344" lon="3.77826">
        <ele>1228.599976</ele>
        <time>2017-05-27T13:08:02Z</time>
      </trkpt>
      <trkpt lat="45.75358" lon="3.77824">
        <ele>1228.400024</ele>
        <time>2017-05-27T13:08:05Z</time>
      </trkpt>
      <trkpt lat="45.75368" lon="3.77826">
        <ele>1228.5</ele>
        <time>2017-05-27T13:08:08Z</time>
      </trkpt>
      <trkpt lat="45.75379" lon="3.77829">
        <ele>1228.400024</ele>
        <time>2017-05-27T13:08:11Z</time>
      </trkpt>
      <trkpt lat="45.75388" lon="3.77833">
        <ele>1228.5</ele>
        <time>2017-05-27T13:08:13Z</time>
      </trkpt>
      <trkpt lat="45.75401" lon="3.77839">
        <ele>1228.400024</ele>
        <time>2017-05-27T13:08:16Z</time>
      </trkpt>
      <trkpt lat="45.75415" lon="3.7784">
        <ele>1228.400024</ele>
        <time>2017-05-27T13:08:19Z</time>
      </trkpt>
      <trkpt lat="45.75428" lon="3.77841">
        <ele>1228</ele>
        <time>2017-05-27T13:08:22Z</time>
      </trkpt>
      <trkpt lat="45.75439" lon="3.77837">
        <ele>1227.699951</ele>
        <time>2017-05-27T13:08:24Z</time>
      </trkpt>
      <trkpt lat="45.75449" lon="3.7783">
        <ele>1227.599976</ele>
        <time>2017-05-27T13:08:26Z</time>
      </trkpt>
      <trkpt lat="45.75457" lon="3.77822">
        <ele>1227.699951</ele>
        <time>2017-05-27T13:08:28Z</time>
      </trkpt>
      <trkpt lat="45.75467" lon="3.77812">
        <ele>1227.900024</ele>
        <time>2017-05-27T13:08:30Z</time>
      </trkpt>
      <trkpt lat="45.75476" lon="3.77802">
        <ele>1228.099976</ele>
        <time>2017-05-27T13:08:32Z</time>
      </trkpt>
      <trkpt lat="45.75484" lon="3.77793">
        <ele>1228.300049</ele>
        <time>2017-05-27T13:08:34Z</time>
      </trkpt>
      <trkpt lat="45.75494" lon="3.77781">
        <ele>1228</ele>
        <time>2017-05-27T13:08:37Z</time>
      </trkpt>
      <trkpt lat="45.75503" lon="3.77769">
        <ele>1228.5</ele>
        <time>2017-05-27T13:08:40Z</time>
      </trkpt>
      <trkpt lat="45.75512" lon="3.77757">
        <ele>1229.099976</ele>
        <time>2017-05-27T13:08:43Z</time>
      </trkpt>
      <trkpt lat="45.75519" lon="3.77747">
        <ele>1229.800049</ele>
        <time>2017-05-27T13:08:46Z</time>
      </trkpt>
      <trkpt lat="45.75525" lon="3.77737">
        <ele>1230.199951</ele>
        <time>2017-05-27T13:08:49Z</time>
      </trkpt>
      <trkpt lat="45.75535" lon="3.77727">
        <ele>1230.800049</ele>
        <time>2017-05-27T13:08:53Z</time>
      </trkpt>
      <trkpt lat="45.75545" lon="3.7772">
        <ele>1231.300049</ele>
        <time>2017-05-27T13:08:57Z</time>
      </trkpt>
      <trkpt lat="45.75555" lon="3.77718">
        <ele>1232.199951</ele>
        <time>2017-05-27T13:09:01Z</time>
      </trkpt>
      <trkpt lat="45.75566" lon="3.7772">
        <ele>1233.199951</ele>
        <time>2017-05-27T13:09:06Z</time>
      </trkpt>
      <trkpt lat="45.75575" lon="3.77725">
        <ele>1233.599976</ele>
        <time>2017-05-27T13:09:10Z</time>
      </trkpt>
      <trkpt lat="45.75587" lon="3.77728">
        <ele>1234</ele>
        <time>2017-05-27T13:09:14Z</time>
      </trkpt>
      <trkpt lat="45.75598" lon="3.77729">
        <ele>1234.099976</ele>
        <time>2017-05-27T13:09:18Z</time>
      </trkpt>
      <trkpt lat="45.75608" lon="3.77731">
        <ele>1234.400024</ele>
        <time>2017-05-27T13:09:21Z</time>
      </trkpt>
      <trkpt lat="45.75619" lon="3.77734">
        <ele>1234.900024</ele>
        <time>2017-05-27T13:09:24Z</time>
      </trkpt>
      <trkpt lat="45.75628" lon="3.77738">
        <ele>1235.199951</ele>
        <time>2017-05-27T13:09:27Z</time>
      </trkpt>
      <trkpt lat="45.75637" lon="3.77741">
        <ele>1235.300049</ele>
        <time>2017-05-27T13:09:29Z</time>
      </trkpt>
      <trkpt lat="45.7565" lon="3.77745">
        <ele>1235</ele>
        <time>2017-05-27T13:09:32Z</time>
      </trkpt>
      <trkpt lat="45.75659" lon="3.77746">
        <ele>1235</ele>
        <time>2017-05-27T13:09:34Z</time>
      </trkpt>
      <trkpt lat="45.75669" lon="3.77747">
        <ele>1235</ele>
        <time>2017-05-27T13:09:36Z</time>
      </trkpt>
      <trkpt lat="45.75681" lon="3.77747">
        <ele>1234.900024</ele>
        <time>2017-05-27T13:09:39Z</time>
      </trkpt>
      <trkpt lat="45.75694" lon="3.77747">
        <ele>1234.300049</ele>
        <time>2017-05-27T13:09:42Z</time>
      </trkpt>
      <trkpt lat="45.75708" lon="3.77747">
        <ele>1233.900024</ele>
        <time>2017-05-27T13:09:45Z</time>
      </trkpt>
      <trkpt lat="45.75717" lon="3.77748">
        <ele>1233.699951</ele>
        <time>2017-05-27T13:09:47Z</time>
      </trkpt>
      <trkpt lat="45.75727" lon="3.77748">
        <ele>1233.400024</ele>
        <time>2017-05-27T13:09:49Z</time>
      </trkpt>
      <trkpt lat="45.75738" lon="3.77748">
        <ele>1232.800049</ele>
        <time>2017-05-27T13:09:51Z</time>
      </trkpt>
      <trkpt lat="45.75748" lon="3.77749">
        <ele>1232.400024</ele>
        <time>2017-05-27T13:09:53Z</time>
      </trkpt>
      <trkpt lat="45.75763" lon="3.77751">
        <ele>1232.199951</ele>
        <time>2017-05-27T13:09:56Z</time>
      </trkpt>
      <trkpt lat="45.75774" lon="3.77755">
        <ele>1231.800049</ele>
        <time>2017-05-27T13:09:58Z</time>
      </trkpt>
      <trkpt lat="45.75784" lon="3.7776">
        <ele>1231.5</ele>
        <time>2017-05-27T13:10:00Z</time>
      </trkpt>
      <trkpt lat="45.75792" lon="3.77766">
        <ele>1230.800049</ele>
        <time>2017-05-27T13:10:02Z</time>
      </trkpt>
      <trkpt lat="45.75801" lon="3.77772">
        <ele>1230.400024</ele>
        <time>2017-05-27T13:10:04Z</time>
      </trkpt>
      <trkpt lat="45.75811" lon="3.77776">
        <ele>1230.099976</ele>
        <time>2017-05-27T13:10:06Z</time>
      </trkpt>
      <trkpt lat="45.7582" lon="3.77778">
        <ele>1230</ele>
        <time>2017-05-27T13:10:08Z</time>
      </trkpt>
      <trkpt lat="45.75829" lon="3.77781">
        <ele>1229.900024</ele>
        <time>2017-05-27T13:10:10Z</time>
      </trkpt>
      <trkpt lat="45.75842" lon="3.77788">
        <ele>1229.800049</ele>
        <time>2017-05-27T13:10:13Z</time>
      </trkpt>
      <trkpt lat="45.75855" lon="3.77797">
        <ele>1229.5</ele>
        <time>2017-05-27T13:10:16Z</time>
      </trkpt>
      <trkpt lat="45.75864" lon="3.77802">
        <ele>1229.5</ele>
        <time>2017-05-27T13:10:18Z</time>
      </trkpt>
      <trkpt lat="45.75875" lon="3.77805">
        <ele>1229.300049</ele>
        <time>2017-05-27T13:10:20Z</time>
      </trkpt>
      <trkpt lat="45.75884" lon="3.77809">
        <ele>1229.099976</ele>
        <time>2017-05-27T13:10:22Z</time>
      </trkpt>
      <trkpt lat="45.75894" lon="3.77813">
        <ele>1228.800049</ele>
        <time>2017-05-27T13:10:25Z</time>
      </trkpt>
      <trkpt lat="45.75905" lon="3.7782">
        <ele>1228.5</ele>
        <time>2017-05-27T13:10:27Z</time>
      </trkpt>
      <trkpt lat="45.75916" lon="3.77827">
        <ele>1228.199951</ele>
        <time>2017-05-27T13:10:29Z</time>
      </trkpt>
      <trkpt lat="45.75925" lon="3.77835">
        <ele>1227.400024</ele>
        <time>2017-05-27T13:10:31Z</time>
      </trkpt>
      <trkpt lat="45.75934" lon="3.77843">
        <ele>1226.800049</ele>
        <time>2017-05-27T13:10:33Z</time>
      </trkpt>
      <trkpt lat="45.75943" lon="3.77848">
        <ele>1226.5</ele>
        <time>2017-05-27T13:10:35Z</time>
      </trkpt>
      <trkpt lat="45.75953" lon="3.77852">
        <ele>1226.199951</ele>
        <time>2017-05-27T13:10:37Z</time>
      </trkpt>
      <trkpt lat="45.75962" lon="3.77856">
        <ele>1225.900024</ele>
        <time>2017-05-27T13:10:39Z</time>
      </trkpt>
      <trkpt lat="45.75972" lon="3.77859">
        <ele>1225.599976</ele>
        <time>2017-05-27T13:10:41Z</time>
      </trkpt>
      <trkpt lat="45.75982" lon="3.77862">
        <ele>1225.599976</ele>
        <time>2017-05-27T13:10:43Z</time>
      </trkpt>
      <trkpt lat="45.75994" lon="3.77865">
        <ele>1225.599976</ele>
        <time>2017-05-27T13:10:45Z</time>
      </trkpt>
      <trkpt lat="45.76005" lon="3.77867">
        <ele>1225.300049</ele>
        <time>2017-05-27T13:10:47Z</time>
      </trkpt>
      <trkpt lat="45.76019" lon="3.77872">
        <ele>1223.800049</ele>
        <time>2017-05-27T13:10:50Z</time>
      </trkpt>
      <trkpt lat="45.76031" lon="3.77876">
        <ele>1222.900024</ele>
        <time>2017-05-27T13:10:52Z</time>
      </trkpt>
      <trkpt lat="45.7604" lon="3.77878">
        <ele>1222.099976</ele>
        <time>2017-05-27T13:10:54Z</time>
      </trkpt>
      <trkpt lat="45.76052" lon="3.77883">
        <ele>1221.199951</ele>
        <time>2017-05-27T13:10:56Z</time>
      </trkpt>
      <trkpt lat="45.76066" lon="3.77887">
        <ele>1220.300049</ele>
        <time>2017-05-27T13:10:58Z</time>
      </trkpt>
      <trkpt lat="45.7608" lon="3.7789">
        <ele>1218.900024</ele>
        <time>2017-05-27T13:11:00Z</time>
      </trkpt>
      <trkpt lat="45.76095" lon="3.77889">
        <ele>1218</ele>
        <time>2017-05-27T13:11:03Z</time>
      </trkpt>
      <trkpt lat="45.76108" lon="3.77884">
        <ele>1217.900024</ele>
        <time>2017-05-27T13:11:05Z</time>
      </trkpt>
      <trkpt lat="45.76121" lon="3.77879">
        <ele>1217.5</ele>
        <time>2017-05-27T13:11:07Z</time>
      </trkpt>
      <trkpt lat="45.76133" lon="3.77876">
        <ele>1217.300049</ele>
        <time>2017-05-27T13:11:09Z</time>
      </trkpt>
      <trkpt lat="45.76143" lon="3.7787">
        <ele>1217.300049</ele>
        <time>2017-05-27T13:11:11Z</time>
      </trkpt>
      <trkpt lat="45.76152" lon="3.77865">
        <ele>1217.199951</ele>
        <time>2017-05-27T13:11:13Z</time>
      </trkpt>
      <trkpt lat="45.76162" lon="3.77859">
        <ele>1217.400024</ele>
        <time>2017-05-27T13:11:15Z</time>
      </trkpt>
      <trkpt lat="45.76175" lon="3.77855">
        <ele>1217.400024</ele>
        <time>2017-05-27T13:11:17Z</time>
      </trkpt>
      <trkpt lat="45.76183" lon="3.77849">
        <ele>1217.599976</ele>
        <time>2017-05-27T13:11:19Z</time>
      </trkpt>
      <trkpt lat="45.76193" lon="3.77841">
        <ele>1217.699951</ele>
        <time>2017-05-27T13:11:21Z</time>
      </trkpt>
      <trkpt lat="45.76205" lon="3.77833">
        <ele>1218</ele>
        <time>2017-05-27T13:11:23Z</time>
      </trkpt>
      <trkpt lat="45.76214" lon="3.77823">
        <ele>1218.199951</ele>
        <time>2017-05-27T13:11:25Z</time>
      </trkpt>
      <trkpt lat="45.76223" lon="3.77813">
        <ele>1218.400024</ele>
        <time>2017-05-27T13:11:27Z</time>
      </trkpt>
      <trkpt lat="45.76232" lon="3.77805">
        <ele>1218.699951</ele>
        <time>2017-05-27T13:11:29Z</time>
      </trkpt>
      <trkpt lat="45.76238" lon="3.77796">
        <ele>1219</ele>
        <time>2017-05-27T13:11:31Z</time>
      </trkpt>
      <trkpt lat="45.76249" lon="3.77789">
        <ele>1219.199951</ele>
        <time>2017-05-27T13:11:33Z</time>
      </trkpt>
      <trkpt lat="45.76257" lon="3.77782">
        <ele>1219.5</ele>
        <time>2017-05-27T13:11:35Z</time>
      </trkpt>
      <trkpt lat="45.76267" lon="3.77774">
        <ele>1219.699951</ele>
        <time>2017-05-27T13:11:37Z</time>
      </trkpt>
      <trkpt lat="45.76274" lon="3.77765">
        <ele>1220.099976</ele>
        <time>2017-05-27T13:11:39Z</time>
      </trkpt>
      <trkpt lat="45.7628" lon="3.77755">
        <ele>1220.400024</ele>
        <time>2017-05-27T13:11:41Z</time>
      </trkpt>
      <trkpt lat="45.76284" lon="3.77738">
        <ele>1220.800049</ele>
        <time>2017-05-27T13:11:44Z</time>
      </trkpt>
      <trkpt lat="45.76285" lon="3.77722">
        <ele>1221.599976</ele>
        <time>2017-05-27T13:11:47Z</time>
      </trkpt>
      <trkpt lat="45.76286" lon="3.77708">
        <ele>1222.400024</ele>
        <time>2017-05-27T13:11:50Z</time>
      </trkpt>
      <trkpt lat="45.76286" lon="3.77693">
        <ele>1222.900024</ele>
        <time>2017-05-27T13:11:53Z</time>
      </trkpt>
      <trkpt lat="45.76287" lon="3.77678">
        <ele>1223.5</ele>
        <time>2017-05-27T13:11:56Z</time>
      </trkpt>
      <trkpt lat="45.76287" lon="3.77663">
        <ele>1223.800049</ele>
        <time>2017-05-27T13:11:59Z</time>
      </trkpt>
      <trkpt lat="45.76288" lon="3.77646">
        <ele>1223.800049</ele>
        <time>2017-05-27T13:12:02Z</time>
      </trkpt>
      <trkpt lat="45.76288" lon="3.77629">
        <ele>1223.800049</ele>
        <time>2017-05-27T13:12:05Z</time>
      </trkpt>
      <trkpt lat="45.76286" lon="3.77611">
        <ele>1223.699951</ele>
        <time>2017-05-27T13:12:08Z</time>
      </trkpt>
      <trkpt lat="45.76285" lon="3.77593">
        <ele>1223.699951</ele>
        <time>2017-05-27T13:12:11Z</time>
      </trkpt>
      <trkpt lat="45.76284" lon="3.77575">
        <ele>1223.199951</ele>
        <time>2017-05-27T13:12:14Z</time>
      </trkpt>
      <trkpt lat="45.76283" lon="3.77562">
        <ele>1223.199951</ele>
        <time>2017-05-27T13:12:16Z</time>
      </trkpt>
      <trkpt lat="45.76282" lon="3.77549">
        <ele>1223</ele>
        <time>2017-05-27T13:12:18Z</time>
      </trkpt>
      <trkpt lat="45.76282" lon="3.7753">
        <ele>1222.800049</ele>
        <time>2017-05-27T13:12:21Z</time>
      </trkpt>
      <trkpt lat="45.76281" lon="3.77512">
        <ele>1222.400024</ele>
        <time>2017-05-27T13:12:24Z</time>
      </trkpt>
      <trkpt lat="45.7628" lon="3.77493">
        <ele>1222.400024</ele>
        <time>2017-05-27T13:12:27Z</time>
      </trkpt>
      <trkpt lat="45.7628" lon="3.77474">
        <ele>1222.400024</ele>
        <time>2017-05-27T13:12:30Z</time>
      </trkpt>
      <trkpt lat="45.76282" lon="3.77461">
        <ele>1222.099976</ele>
        <time>2017-05-27T13:12:32Z</time>
      </trkpt>
      <trkpt lat="45.76284" lon="3.77448">
        <ele>1221.5</ele>
        <time>2017-05-27T13:12:34Z</time>
      </trkpt>
      <trkpt lat="45.76289" lon="3.77437">
        <ele>1221.300049</ele>
        <time>2017-05-27T13:12:36Z</time>
      </trkpt>
      <trkpt lat="45.76297" lon="3.77422">
        <ele>1220.5</ele>
        <time>2017-05-27T13:12:39Z</time>
      </trkpt>
      <trkpt lat="45.76305" lon="3.77409">
        <ele>1220.099976</ele>
        <time>2017-05-27T13:12:42Z</time>
      </trkpt>
      <trkpt lat="45.76313" lon="3.77399">
        <ele>1219.099976</ele>
        <time>2017-05-27T13:12:45Z</time>
      </trkpt>
      <trkpt lat="45.76321" lon="3.77389">
        <ele>1218.699951</ele>
        <time>2017-05-27T13:12:48Z</time>
      </trkpt>
      <trkpt lat="45.76331" lon="3.77379">
        <ele>1218.400024</ele>
        <time>2017-05-27T13:12:51Z</time>
      </trkpt>
      <trkpt lat="45.76338" lon="3.77369">
        <ele>1218.699951</ele>
        <time>2017-05-27T13:12:54Z</time>
      </trkpt>
      <trkpt lat="45.76346" lon="3.77357">
        <ele>1219.300049</ele>
        <time>2017-05-27T13:12:57Z</time>
      </trkpt>
      <trkpt lat="45.76356" lon="3.77346">
        <ele>1219.900024</ele>
        <time>2017-05-27T13:13:00Z</time>
      </trkpt>
      <trkpt lat="45.76365" lon="3.77335">
        <ele>1220.300049</ele>
        <time>2017-05-27T13:13:03Z</time>
      </trkpt>
      <trkpt lat="45.76375" lon="3.77322">
        <ele>1220.900024</ele>
        <time>2017-05-27T13:13:06Z</time>
      </trkpt>
      <trkpt lat="45.76381" lon="3.77312">
        <ele>1221</ele>
        <time>2017-05-27T13:13:08Z</time>
      </trkpt>
      <trkpt lat="45.76389" lon="3.77298">
        <ele>1221.199951</ele>
        <time>2017-05-27T13:13:11Z</time>
      </trkpt>
      <trkpt lat="45.76396" lon="3.77285">
        <ele>1221.199951</ele>
        <time>2017-05-27T13:13:14Z</time>
      </trkpt>
      <trkpt lat="45.76405" lon="3.77287">
        <ele>1220.900024</ele>
        <time>2017-05-27T13:13:20Z</time>
      </trkpt>
      <trkpt lat="45.7641" lon="3.77299">
        <ele>1220.800049</ele>
        <time>2017-05-27T13:13:23Z</time>
      </trkpt>
      <trkpt lat="45.76418" lon="3.77312">
        <ele>1220.300049</ele>
        <time>2017-05-27T13:13:26Z</time>
      </trkpt>
      <trkpt lat="45.76424" lon="3.77322">
        <ele>1219.599976</ele>
        <time>2017-05-27T13:13:29Z</time>
      </trkpt>
      <trkpt lat="45.76427" lon="3.77335">
        <ele>1218.400024</ele>
        <time>2017-05-27T13:13:34Z</time>
      </trkpt>
      <trkpt lat="45.76433" lon="3.77347">
        <ele>1217.300049</ele>
        <time>2017-05-27T13:13:38Z</time>
      </trkpt>
      <trkpt lat="45.76436" lon="3.77362">
        <ele>1215.5</ele>
        <time>2017-05-27T13:13:43Z</time>
      </trkpt>
      <trkpt lat="45.76443" lon="3.7737">
        <ele>1213.900024</ele>
        <time>2017-05-27T13:13:47Z</time>
      </trkpt>
      <trkpt lat="45.76453" lon="3.77377">
        <ele>1212.199951</ele>
        <time>2017-05-27T13:13:51Z</time>
      </trkpt>
      <trkpt lat="45.76464" lon="3.77382">
        <ele>1209.599976</ele>
        <time>2017-05-27T13:13:55Z</time>
      </trkpt>
      <trkpt lat="45.76472" lon="3.77389">
        <ele>1205.900024</ele>
        <time>2017-05-27T13:14:00Z</time>
      </trkpt>
      <trkpt lat="45.76479" lon="3.77399">
        <ele>1204</ele>
        <time>2017-05-27T13:14:04Z</time>
      </trkpt>
      <trkpt lat="45.76485" lon="3.7741">
        <ele>1202.099976</ele>
        <time>2017-05-27T13:14:07Z</time>
      </trkpt>
      <trkpt lat="45.76489" lon="3.77423">
        <ele>1199</ele>
        <time>2017-05-27T13:14:10Z</time>
      </trkpt>
      <trkpt lat="45.7649" lon="3.77438">
        <ele>1198.199951</ele>
        <time>2017-05-27T13:14:13Z</time>
      </trkpt>
      <trkpt lat="45.76491" lon="3.77453">
        <ele>1196.099976</ele>
        <time>2017-05-27T13:14:16Z</time>
      </trkpt>
      <trkpt lat="45.76493" lon="3.77468">
        <ele>1194.099976</ele>
        <time>2017-05-27T13:14:19Z</time>
      </trkpt>
      <trkpt lat="45.76498" lon="3.7748">
        <ele>1192.900024</ele>
        <time>2017-05-27T13:14:21Z</time>
      </trkpt>
      <trkpt lat="45.765" lon="3.77493">
        <ele>1191.300049</ele>
        <time>2017-05-27T13:14:23Z</time>
      </trkpt>
      <trkpt lat="45.76502" lon="3.77507">
        <ele>1189.5</ele>
        <time>2017-05-27T13:14:25Z</time>
      </trkpt>
      <trkpt lat="45.76499" lon="3.77525">
        <ele>1187.400024</ele>
        <time>2017-05-27T13:14:28Z</time>
      </trkpt>
      <trkpt lat="45.76495" lon="3.77541">
        <ele>1185</ele>
        <time>2017-05-27T13:14:31Z</time>
      </trkpt>
      <trkpt lat="45.76494" lon="3.77558">
        <ele>1183</ele>
        <time>2017-05-27T13:14:34Z</time>
      </trkpt>
      <trkpt lat="45.76493" lon="3.77572">
        <ele>1180.199951</ele>
        <time>2017-05-27T13:14:37Z</time>
      </trkpt>
      <trkpt lat="45.76492" lon="3.77587">
        <ele>1178</ele>
        <time>2017-05-27T13:14:40Z</time>
      </trkpt>
      <trkpt lat="45.76498" lon="3.77597">
        <ele>1175.800049</ele>
        <time>2017-05-27T13:14:43Z</time>
      </trkpt>
      <trkpt lat="45.76509" lon="3.7761">
        <ele>1173.300049</ele>
        <time>2017-05-27T13:14:46Z</time>
      </trkpt>
      <trkpt lat="45.76513" lon="3.77623">
        <ele>1170.599976</ele>
        <time>2017-05-27T13:14:49Z</time>
      </trkpt>
      <trkpt lat="45.76518" lon="3.7764">
        <ele>1167</ele>
        <time>2017-05-27T13:14:52Z</time>
      </trkpt>
      <trkpt lat="45.76526" lon="3.77659">
        <ele>1166.199951</ele>
        <time>2017-05-27T13:14:55Z</time>
      </trkpt>
      <trkpt lat="45.76526" lon="3.77674">
        <ele>1164.900024</ele>
        <time>2017-05-27T13:14:57Z</time>
      </trkpt>
      <trkpt lat="45.76523" lon="3.7769">
        <ele>1164</ele>
        <time>2017-05-27T13:14:59Z</time>
      </trkpt>
      <trkpt lat="45.76521" lon="3.77704">
        <ele>1163.099976</ele>
        <time>2017-05-27T13:15:01Z</time>
      </trkpt>
      <trkpt lat="45.76521" lon="3.77723">
        <ele>1162.5</ele>
        <time>2017-05-27T13:15:03Z</time>
      </trkpt>
      <trkpt lat="45.76518" lon="3.77743">
        <ele>1162.199951</ele>
        <time>2017-05-27T13:15:05Z</time>
      </trkpt>
      <trkpt lat="45.76516" lon="3.77761">
        <ele>1161.900024</ele>
        <time>2017-05-27T13:15:07Z</time>
      </trkpt>
      <trkpt lat="45.76513" lon="3.77781">
        <ele>1161.699951</ele>
        <time>2017-05-27T13:15:09Z</time>
      </trkpt>
      <trkpt lat="45.76513" lon="3.77801">
        <ele>1161.5</ele>
        <time>2017-05-27T13:15:11Z</time>
      </trkpt>
      <trkpt lat="45.76511" lon="3.7782">
        <ele>1161</ele>
        <time>2017-05-27T13:15:13Z</time>
      </trkpt>
      <trkpt lat="45.76508" lon="3.77847">
        <ele>1161.099976</ele>
        <time>2017-05-27T13:15:16Z</time>
      </trkpt>
      <trkpt lat="45.76511" lon="3.77864">
        <ele>1161</ele>
        <time>2017-05-27T13:15:18Z</time>
      </trkpt>
      <trkpt lat="45.7651" lon="3.77882">
        <ele>1160.800049</ele>
        <time>2017-05-27T13:15:20Z</time>
      </trkpt>
      <trkpt lat="45.76514" lon="3.77901">
        <ele>1160.400024</ele>
        <time>2017-05-27T13:15:22Z</time>
      </trkpt>
      <trkpt lat="45.76519" lon="3.77919">
        <ele>1159</ele>
        <time>2017-05-27T13:15:24Z</time>
      </trkpt>
      <trkpt lat="45.76522" lon="3.77955">
        <ele>1158</ele>
        <time>2017-05-27T13:15:28Z</time>
      </trkpt>
      <trkpt lat="45.76523" lon="3.77982">
        <ele>1158.199951</ele>
        <time>2017-05-27T13:15:31Z</time>
      </trkpt>
      <trkpt lat="45.7652" lon="3.77998">
        <ele>1157.699951</ele>
        <time>2017-05-27T13:15:33Z</time>
      </trkpt>
      <trkpt lat="45.76521" lon="3.78014">
        <ele>1156.599976</ele>
        <time>2017-05-27T13:15:35Z</time>
      </trkpt>
      <trkpt lat="45.76517" lon="3.78035">
        <ele>1155.300049</ele>
        <time>2017-05-27T13:15:37Z</time>
      </trkpt>
      <trkpt lat="45.76515" lon="3.78056">
        <ele>1154.699951</ele>
        <time>2017-05-27T13:15:39Z</time>
      </trkpt>
      <trkpt lat="45.76512" lon="3.78075">
        <ele>1154</ele>
        <time>2017-05-27T13:15:41Z</time>
      </trkpt>
      <trkpt lat="45.76507" lon="3.78093">
        <ele>1153</ele>
        <time>2017-05-27T13:15:43Z</time>
      </trkpt>
      <trkpt lat="45.76503" lon="3.78111">
        <ele>1152</ele>
        <time>2017-05-27T13:15:45Z</time>
      </trkpt>
      <trkpt lat="45.76496" lon="3.78129">
        <ele>1150.900024</ele>
        <time>2017-05-27T13:15:47Z</time>
      </trkpt>
      <trkpt lat="45.76488" lon="3.78147">
        <ele>1150.300049</ele>
        <time>2017-05-27T13:15:49Z</time>
      </trkpt>
      <trkpt lat="45.76483" lon="3.78158">
        <ele>1150</ele>
        <time>2017-05-27T13:15:50Z</time>
      </trkpt>
      <trkpt lat="45.76475" lon="3.78177">
        <ele>1149</ele>
        <time>2017-05-27T13:15:52Z</time>
      </trkpt>
      <trkpt lat="45.76465" lon="3.78205">
        <ele>1147</ele>
        <time>2017-05-27T13:15:55Z</time>
      </trkpt>
      <trkpt lat="45.76458" lon="3.78231">
        <ele>1145.900024</ele>
        <time>2017-05-27T13:15:58Z</time>
      </trkpt>
      <trkpt lat="45.76456" lon="3.78244">
        <ele>1144.199951</ele>
        <time>2017-05-27T13:16:00Z</time>
      </trkpt>
      <trkpt lat="45.76452" lon="3.78258">
        <ele>1142.099976</ele>
        <time>2017-05-27T13:16:03Z</time>
      </trkpt>
      <trkpt lat="45.76455" lon="3.78279">
        <ele>1139</ele>
        <time>2017-05-27T13:16:09Z</time>
      </trkpt>
      <trkpt lat="45.76455" lon="3.78298">
        <ele>1136</ele>
        <time>2017-05-27T13:16:16Z</time>
      </trkpt>
      <trkpt lat="45.76456" lon="3.78315">
        <ele>1134.699951</ele>
        <time>2017-05-27T13:16:20Z</time>
      </trkpt>
      <trkpt lat="45.76457" lon="3.78332">
        <ele>1132.800049</ele>
        <time>2017-05-27T13:16:24Z</time>
      </trkpt>
      <trkpt lat="45.76457" lon="3.78347">
        <ele>1131.900024</ele>
        <time>2017-05-27T13:16:27Z</time>
      </trkpt>
      <trkpt lat="45.76458" lon="3.7836">
        <ele>1130.400024</ele>
        <time>2017-05-27T13:16:30Z</time>
      </trkpt>
      <trkpt lat="45.76458" lon="3.78375">
        <ele>1129.099976</ele>
        <time>2017-05-27T13:16:33Z</time>
      </trkpt>
      <trkpt lat="45.7646" lon="3.7839">
        <ele>1128</ele>
        <time>2017-05-27T13:16:36Z</time>
      </trkpt>
      <trkpt lat="45.76462" lon="3.78405">
        <ele>1126.099976</ele>
        <time>2017-05-27T13:16:40Z</time>
      </trkpt>
      <trkpt lat="45.76462" lon="3.78424">
        <ele>1124</ele>
        <time>2017-05-27T13:16:44Z</time>
      </trkpt>
      <trkpt lat="45.76464" lon="3.78442">
        <ele>1123.099976</ele>
        <time>2017-05-27T13:16:48Z</time>
      </trkpt>
      <trkpt lat="45.76466" lon="3.78459">
        <ele>1122.800049</ele>
        <time>2017-05-27T13:16:50Z</time>
      </trkpt>
      <trkpt lat="45.7647" lon="3.78479">
        <ele>1121.699951</ele>
        <time>2017-05-27T13:16:52Z</time>
      </trkpt>
      <trkpt lat="45.76478" lon="3.78495">
        <ele>1120</ele>
        <time>2017-05-27T13:16:54Z</time>
      </trkpt>
      <trkpt lat="45.76487" lon="3.78514">
        <ele>1119.5</ele>
        <time>2017-05-27T13:16:57Z</time>
      </trkpt>
      <trkpt lat="45.76497" lon="3.78525">
        <ele>1117</ele>
        <time>2017-05-27T13:17:00Z</time>
      </trkpt>
      <trkpt lat="45.76508" lon="3.78536">
        <ele>1116.599976</ele>
        <time>2017-05-27T13:17:03Z</time>
      </trkpt>
      <trkpt lat="45.76519" lon="3.78543">
        <ele>1115.900024</ele>
        <time>2017-05-27T13:17:05Z</time>
      </trkpt>
      <trkpt lat="45.76527" lon="3.78553">
        <ele>1113.900024</ele>
        <time>2017-05-27T13:17:08Z</time>
      </trkpt>
      <trkpt lat="45.76544" lon="3.78563">
        <ele>1112.400024</ele>
        <time>2017-05-27T13:17:13Z</time>
      </trkpt>
      <trkpt lat="45.76554" lon="3.7857">
        <ele>1111.099976</ele>
        <time>2017-05-27T13:17:16Z</time>
      </trkpt>
      <trkpt lat="45.7656" lon="3.78584">
        <ele>1108.199951</ele>
        <time>2017-05-27T13:17:22Z</time>
      </trkpt>
      <trkpt lat="45.76568" lon="3.78592">
        <ele>1106.400024</ele>
        <time>2017-05-27T13:17:26Z</time>
      </trkpt>
      <trkpt lat="45.76576" lon="3.78596">
        <ele>1104</ele>
        <time>2017-05-27T13:17:29Z</time>
      </trkpt>
      <trkpt lat="45.76586" lon="3.786">
        <ele>1103.5</ele>
        <time>2017-05-27T13:17:32Z</time>
      </trkpt>
      <trkpt lat="45.76596" lon="3.78609">
        <ele>1101.300049</ele>
        <time>2017-05-27T13:17:36Z</time>
      </trkpt>
      <trkpt lat="45.76602" lon="3.78621">
        <ele>1099.5</ele>
        <time>2017-05-27T13:17:40Z</time>
      </trkpt>
      <trkpt lat="45.76613" lon="3.78637">
        <ele>1095</ele>
        <time>2017-05-27T13:17:49Z</time>
      </trkpt>
      <trkpt lat="45.76619" lon="3.78647">
        <ele>1093.800049</ele>
        <time>2017-05-27T13:17:53Z</time>
      </trkpt>
      <trkpt lat="45.76632" lon="3.78652">
        <ele>1092.400024</ele>
        <time>2017-05-27T13:17:56Z</time>
      </trkpt>
      <trkpt lat="45.76643" lon="3.78658">
        <ele>1090.5</ele>
        <time>2017-05-27T13:17:59Z</time>
      </trkpt>
      <trkpt lat="45.76656" lon="3.78664">
        <ele>1088.5</ele>
        <time>2017-05-27T13:18:02Z</time>
      </trkpt>
      <trkpt lat="45.76671" lon="3.78672">
        <ele>1087.199951</ele>
        <time>2017-05-27T13:18:04Z</time>
      </trkpt>
      <trkpt lat="45.76683" lon="3.78678">
        <ele>1085.800049</ele>
        <time>2017-05-27T13:18:06Z</time>
      </trkpt>
      <trkpt lat="45.76695" lon="3.78683">
        <ele>1083.699951</ele>
        <time>2017-05-27T13:18:09Z</time>
      </trkpt>
      <trkpt lat="45.76704" lon="3.78688">
        <ele>1079.599976</ele>
        <time>2017-05-27T13:18:27Z</time>
      </trkpt>
      <trkpt lat="45.76713" lon="3.78686">
        <ele>1079.800049</ele>
        <time>2017-05-27T13:18:41Z</time>
      </trkpt>
      <trkpt lat="45.76722" lon="3.78689">
        <ele>1079.599976</ele>
        <time>2017-05-27T13:19:21Z</time>
      </trkpt>
      <trkpt lat="45.76729" lon="3.78699">
        <ele>1079.300049</ele>
        <time>2017-05-27T13:20:39Z</time>
      </trkpt>
      <trkpt lat="45.76738" lon="3.78704">
        <ele>1078.400024</ele>
        <time>2017-05-27T13:20:44Z</time>
      </trkpt>
      <trkpt lat="45.76748" lon="3.78708">
        <ele>1077.400024</ele>
        <time>2017-05-27T13:20:46Z</time>
      </trkpt>
      <trkpt lat="45.76782" lon="3.78743">
        <ele>1074</ele>
        <time>2017-05-27T13:20:51Z</time>
      </trkpt>
      <trkpt lat="45.76791" lon="3.78781">
        <ele>1071.800049</ele>
        <time>2017-05-27T13:20:56Z</time>
      </trkpt>
      <trkpt lat="45.76794" lon="3.78794">
        <ele>1070.599976</ele>
        <time>2017-05-27T13:20:58Z</time>
      </trkpt>
      <trkpt lat="45.76794" lon="3.78809">
        <ele>1069.300049</ele>
        <time>2017-05-27T13:21:00Z</time>
      </trkpt>
      <trkpt lat="45.76794" lon="3.78822">
        <ele>1068</ele>
        <time>2017-05-27T13:21:02Z</time>
      </trkpt>
      <trkpt lat="45.76796" lon="3.7884">
        <ele>1066</ele>
        <time>2017-05-27T13:21:05Z</time>
      </trkpt>
      <trkpt lat="45.76805" lon="3.78852">
        <ele>1064.5</ele>
        <time>2017-05-27T13:21:07Z</time>
      </trkpt>
      <trkpt lat="45.76804" lon="3.78867">
        <ele>1063.300049</ele>
        <time>2017-05-27T13:21:09Z</time>
      </trkpt>
      <trkpt lat="45.76806" lon="3.78881">
        <ele>1061</ele>
        <time>2017-05-27T13:21:12Z</time>
      </trkpt>
      <trkpt lat="45.76807" lon="3.78897">
        <ele>1058.5</ele>
        <time>2017-05-27T13:21:16Z</time>
      </trkpt>
      <trkpt lat="45.76808" lon="3.78912">
        <ele>1055.099976</ele>
        <time>2017-05-27T13:21:27Z</time>
      </trkpt>
      <trkpt lat="45.7681" lon="3.78926">
        <ele>1053.599976</ele>
        <time>2017-05-27T13:21:32Z</time>
      </trkpt>
      <trkpt lat="45.76814" lon="3.78938">
        <ele>1051.099976</ele>
        <time>2017-05-27T13:21:43Z</time>
      </trkpt>
      <trkpt lat="45.76814" lon="3.78952">
        <ele>1050</ele>
        <time>2017-05-27T13:21:52Z</time>
      </trkpt>
      <trkpt lat="45.76815" lon="3.78968">
        <ele>1049.099976</ele>
        <time>2017-05-27T13:21:55Z</time>
      </trkpt>
      <trkpt lat="45.76817" lon="3.78987">
        <ele>1047.699951</ele>
        <time>2017-05-27T13:21:58Z</time>
      </trkpt>
      <trkpt lat="45.7682" lon="3.79002">
        <ele>1046.400024</ele>
        <time>2017-05-27T13:22:00Z</time>
      </trkpt>
      <trkpt lat="45.76819" lon="3.79023">
        <ele>1044.599976</ele>
        <time>2017-05-27T13:22:03Z</time>
      </trkpt>
      <trkpt lat="45.76823" lon="3.7904">
        <ele>1043</ele>
        <time>2017-05-27T13:22:05Z</time>
      </trkpt>
      <trkpt lat="45.76826" lon="3.7906">
        <ele>1040.400024</ele>
        <time>2017-05-27T13:22:08Z</time>
      </trkpt>
      <trkpt lat="45.76829" lon="3.79075">
        <ele>1038.400024</ele>
        <time>2017-05-27T13:22:10Z</time>
      </trkpt>
      <trkpt lat="45.76834" lon="3.79088">
        <ele>1036.400024</ele>
        <time>2017-05-27T13:22:12Z</time>
      </trkpt>
      <trkpt lat="45.76836" lon="3.79106">
        <ele>1034.800049</ele>
        <time>2017-05-27T13:22:14Z</time>
      </trkpt>
      <trkpt lat="45.76837" lon="3.79121">
        <ele>1032.800049</ele>
        <time>2017-05-27T13:22:16Z</time>
      </trkpt>
      <trkpt lat="45.76841" lon="3.79136">
        <ele>1031.099976</ele>
        <time>2017-05-27T13:22:18Z</time>
      </trkpt>
      <trkpt lat="45.76845" lon="3.79148">
        <ele>1029.300049</ele>
        <time>2017-05-27T13:22:20Z</time>
      </trkpt>
      <trkpt lat="45.76847" lon="3.79168">
        <ele>1026.5</ele>
        <time>2017-05-27T13:22:23Z</time>
      </trkpt>
      <trkpt lat="45.76849" lon="3.79186">
        <ele>1025.099976</ele>
        <time>2017-05-27T13:22:25Z</time>
      </trkpt>
      <trkpt lat="45.76848" lon="3.79204">
        <ele>1023.5</ele>
        <time>2017-05-27T13:22:27Z</time>
      </trkpt>
      <trkpt lat="45.76857" lon="3.79221">
        <ele>1021.900024</ele>
        <time>2017-05-27T13:22:29Z</time>
      </trkpt>
      <trkpt lat="45.76861" lon="3.79236">
        <ele>1020</ele>
        <time>2017-05-27T13:22:31Z</time>
      </trkpt>
      <trkpt lat="45.76871" lon="3.79246">
        <ele>1019.099976</ele>
        <time>2017-05-27T13:22:32Z</time>
      </trkpt>
      <trkpt lat="45.76879" lon="3.79255">
        <ele>1017.299988</ele>
        <time>2017-05-27T13:22:33Z</time>
      </trkpt>
      <trkpt lat="45.76893" lon="3.79271">
        <ele>1015.400024</ele>
        <time>2017-05-27T13:22:35Z</time>
      </trkpt>
      <trkpt lat="45.769" lon="3.79282">
        <ele>1014.5</ele>
        <time>2017-05-27T13:22:36Z</time>
      </trkpt>
      <trkpt lat="45.76908" lon="3.79294">
        <ele>1013.700012</ele>
        <time>2017-05-27T13:22:37Z</time>
      </trkpt>
      <trkpt lat="45.76916" lon="3.79305">
        <ele>1013.099976</ele>
        <time>2017-05-27T13:22:38Z</time>
      </trkpt>
      <trkpt lat="45.76922" lon="3.79316">
        <ele>1012.299988</ele>
        <time>2017-05-27T13:22:39Z</time>
      </trkpt>
      <trkpt lat="45.76928" lon="3.79327">
        <ele>1011.5</ele>
        <time>2017-05-27T13:22:40Z</time>
      </trkpt>
      <trkpt lat="45.76938" lon="3.79345">
        <ele>1009.200012</ele>
        <time>2017-05-27T13:22:42Z</time>
      </trkpt>
      <trkpt lat="45.76948" lon="3.7936">
        <ele>1007.5</ele>
        <time>2017-05-27T13:22:44Z</time>
      </trkpt>
      <trkpt lat="45.76953" lon="3.79377">
        <ele>1005.799988</ele>
        <time>2017-05-27T13:22:46Z</time>
      </trkpt>
      <trkpt lat="45.76966" lon="3.79394">
        <ele>1004</ele>
        <time>2017-05-27T13:22:48Z</time>
      </trkpt>
      <trkpt lat="45.7697" lon="3.7941">
        <ele>1002.200012</ele>
        <time>2017-05-27T13:22:50Z</time>
      </trkpt>
      <trkpt lat="45.76978" lon="3.79419">
        <ele>1001.400024</ele>
        <time>2017-05-27T13:22:51Z</time>
      </trkpt>
      <trkpt lat="45.76992" lon="3.79434">
        <ele>999</ele>
        <time>2017-05-27T13:22:53Z</time>
      </trkpt>
      <trkpt lat="45.77012" lon="3.79453">
        <ele>997.799988</ele>
        <time>2017-05-27T13:22:56Z</time>
      </trkpt>
      <trkpt lat="45.77027" lon="3.79463">
        <ele>996.599976</ele>
        <time>2017-05-27T13:22:58Z</time>
      </trkpt>
      <trkpt lat="45.77041" lon="3.79471">
        <ele>995.5</ele>
        <time>2017-05-27T13:23:00Z</time>
      </trkpt>
      <trkpt lat="45.7705" lon="3.79476">
        <ele>994.900024</ele>
        <time>2017-05-27T13:23:01Z</time>
      </trkpt>
      <trkpt lat="45.77063" lon="3.79485">
        <ele>994.099976</ele>
        <time>2017-05-27T13:23:03Z</time>
      </trkpt>
      <trkpt lat="45.77075" lon="3.79492">
        <ele>993.099976</ele>
        <time>2017-05-27T13:23:05Z</time>
      </trkpt>
      <trkpt lat="45.7708" lon="3.79502">
        <ele>991.099976</ele>
        <time>2017-05-27T13:23:12Z</time>
      </trkpt>
      <trkpt lat="45.77087" lon="3.79512">
        <ele>990.099976</ele>
        <time>2017-05-27T13:23:34Z</time>
      </trkpt>
      <trkpt lat="45.77097" lon="3.79515">
        <ele>990.5</ele>
        <time>2017-05-27T13:26:10Z</time>
      </trkpt>
      <trkpt lat="45.77105" lon="3.79526">
        <ele>990.299988</ele>
        <time>2017-05-27T13:26:13Z</time>
      </trkpt>
      <trkpt lat="45.77115" lon="3.79539">
        <ele>989.700012</ele>
        <time>2017-05-27T13:26:16Z</time>
      </trkpt>
      <trkpt lat="45.77121" lon="3.79556">
        <ele>988.5</ele>
        <time>2017-05-27T13:26:19Z</time>
      </trkpt>
      <trkpt lat="45.7713" lon="3.7957">
        <ele>987.400024</ele>
        <time>2017-05-27T13:26:21Z</time>
      </trkpt>
      <trkpt lat="45.7714" lon="3.79587">
        <ele>986.299988</ele>
        <time>2017-05-27T13:26:23Z</time>
      </trkpt>
      <trkpt lat="45.77149" lon="3.79605">
        <ele>985.299988</ele>
        <time>2017-05-27T13:26:25Z</time>
      </trkpt>
      <trkpt lat="45.77157" lon="3.79615">
        <ele>984.299988</ele>
        <time>2017-05-27T13:26:26Z</time>
      </trkpt>
      <trkpt lat="45.77163" lon="3.79627">
        <ele>983.400024</ele>
        <time>2017-05-27T13:26:27Z</time>
      </trkpt>
      <trkpt lat="45.7717" lon="3.79639">
        <ele>982.5</ele>
        <time>2017-05-27T13:26:28Z</time>
      </trkpt>
      <trkpt lat="45.77176" lon="3.7965">
        <ele>981.700012</ele>
        <time>2017-05-27T13:26:29Z</time>
      </trkpt>
      <trkpt lat="45.77182" lon="3.79661">
        <ele>980.900024</ele>
        <time>2017-05-27T13:26:30Z</time>
      </trkpt>
      <trkpt lat="45.77188" lon="3.79673">
        <ele>979.900024</ele>
        <time>2017-05-27T13:26:31Z</time>
      </trkpt>
      <trkpt lat="45.77196" lon="3.79693">
        <ele>978.099976</ele>
        <time>2017-05-27T13:26:33Z</time>
      </trkpt>
      <trkpt lat="45.77202" lon="3.79712">
        <ele>976.200012</ele>
        <time>2017-05-27T13:26:35Z</time>
      </trkpt>
      <trkpt lat="45.77207" lon="3.7973">
        <ele>974.599976</ele>
        <time>2017-05-27T13:26:37Z</time>
      </trkpt>
      <trkpt lat="45.77215" lon="3.79747">
        <ele>973.299988</ele>
        <time>2017-05-27T13:26:39Z</time>
      </trkpt>
      <trkpt lat="45.77224" lon="3.79762">
        <ele>972.299988</ele>
        <time>2017-05-27T13:26:41Z</time>
      </trkpt>
      <trkpt lat="45.77234" lon="3.79775">
        <ele>971.5</ele>
        <time>2017-05-27T13:26:43Z</time>
      </trkpt>
      <trkpt lat="45.77245" lon="3.79787">
        <ele>971</ele>
        <time>2017-05-27T13:26:45Z</time>
      </trkpt>
      <trkpt lat="45.77254" lon="3.79801">
        <ele>970.400024</ele>
        <time>2017-05-27T13:26:47Z</time>
      </trkpt>
      <trkpt lat="45.77261" lon="3.79818">
        <ele>969.900024</ele>
        <time>2017-05-27T13:26:49Z</time>
      </trkpt>
      <trkpt lat="45.77269" lon="3.79834">
        <ele>969.599976</ele>
        <time>2017-05-27T13:26:51Z</time>
      </trkpt>
      <trkpt lat="45.77278" lon="3.79849">
        <ele>969.200012</ele>
        <time>2017-05-27T13:26:53Z</time>
      </trkpt>
      <trkpt lat="45.77289" lon="3.7986">
        <ele>968.700012</ele>
        <time>2017-05-27T13:26:55Z</time>
      </trkpt>
      <trkpt lat="45.773" lon="3.79869">
        <ele>968.400024</ele>
        <time>2017-05-27T13:26:57Z</time>
      </trkpt>
      <trkpt lat="45.77312" lon="3.79878">
        <ele>968.200012</ele>
        <time>2017-05-27T13:26:59Z</time>
      </trkpt>
      <trkpt lat="45.77324" lon="3.79887">
        <ele>968</ele>
        <time>2017-05-27T13:27:01Z</time>
      </trkpt>
      <trkpt lat="45.77335" lon="3.79895">
        <ele>967.700012</ele>
        <time>2017-05-27T13:27:03Z</time>
      </trkpt>
      <trkpt lat="45.77347" lon="3.79902">
        <ele>967.599976</ele>
        <time>2017-05-27T13:27:05Z</time>
      </trkpt>
      <trkpt lat="45.7736" lon="3.79907">
        <ele>967.299988</ele>
        <time>2017-05-27T13:27:07Z</time>
      </trkpt>
      <trkpt lat="45.77373" lon="3.79913">
        <ele>966.799988</ele>
        <time>2017-05-27T13:27:09Z</time>
      </trkpt>
      <trkpt lat="45.77386" lon="3.79921">
        <ele>966</ele>
        <time>2017-05-27T13:27:11Z</time>
      </trkpt>
      <trkpt lat="45.774" lon="3.79929">
        <ele>964.700012</ele>
        <time>2017-05-27T13:27:13Z</time>
      </trkpt>
      <trkpt lat="45.77412" lon="3.79937">
        <ele>963.599976</ele>
        <time>2017-05-27T13:27:15Z</time>
      </trkpt>
      <trkpt lat="45.7742" lon="3.79942">
        <ele>962.299988</ele>
        <time>2017-05-27T13:27:17Z</time>
      </trkpt>
      <trkpt lat="45.77429" lon="3.79943">
        <ele>957</ele>
        <time>2017-05-27T13:28:55Z</time>
      </trkpt>
      <trkpt lat="45.77441" lon="3.79944">
        <ele>956.900024</ele>
        <time>2017-05-27T13:29:07Z</time>
      </trkpt>
      <trkpt lat="45.77452" lon="3.79945">
        <ele>956.599976</ele>
        <time>2017-05-27T13:29:10Z</time>
      </trkpt>
      <trkpt lat="45.77462" lon="3.79946">
        <ele>956.400024</ele>
        <time>2017-05-27T13:29:12Z</time>
      </trkpt>
      <trkpt lat="45.77471" lon="3.79946">
        <ele>955.799988</ele>
        <time>2017-05-27T13:29:14Z</time>
      </trkpt>
      <trkpt lat="45.77483" lon="3.79947">
        <ele>955</ele>
        <time>2017-05-27T13:29:16Z</time>
      </trkpt>
      <trkpt lat="45.77499" lon="3.79949">
        <ele>954</ele>
        <time>2017-05-27T13:29:18Z</time>
      </trkpt>
      <trkpt lat="45.77516" lon="3.79953">
        <ele>952.799988</ele>
        <time>2017-05-27T13:29:20Z</time>
      </trkpt>
      <trkpt lat="45.77525" lon="3.79955">
        <ele>952.099976</ele>
        <time>2017-05-27T13:29:21Z</time>
      </trkpt>
      <trkpt lat="45.77541" lon="3.79957">
        <ele>950.299988</ele>
        <time>2017-05-27T13:29:23Z</time>
      </trkpt>
      <trkpt lat="45.77554" lon="3.79964">
        <ele>948.900024</ele>
        <time>2017-05-27T13:29:25Z</time>
      </trkpt>
      <trkpt lat="45.77566" lon="3.79973">
        <ele>947.400024</ele>
        <time>2017-05-27T13:29:27Z</time>
      </trkpt>
      <trkpt lat="45.77578" lon="3.79981">
        <ele>946.299988</ele>
        <time>2017-05-27T13:29:29Z</time>
      </trkpt>
      <trkpt lat="45.77588" lon="3.79991">
        <ele>945.200012</ele>
        <time>2017-05-27T13:29:31Z</time>
      </trkpt>
      <trkpt lat="45.77601" lon="3.80001">
        <ele>944.099976</ele>
        <time>2017-05-27T13:29:33Z</time>
      </trkpt>
      <trkpt lat="45.77615" lon="3.8001">
        <ele>942.900024</ele>
        <time>2017-05-27T13:29:35Z</time>
      </trkpt>
      <trkpt lat="45.7763" lon="3.80016">
        <ele>941.5</ele>
        <time>2017-05-27T13:29:37Z</time>
      </trkpt>
      <trkpt lat="45.77646" lon="3.80015">
        <ele>940</ele>
        <time>2017-05-27T13:29:39Z</time>
      </trkpt>
      <trkpt lat="45.77661" lon="3.80011">
        <ele>938.700012</ele>
        <time>2017-05-27T13:29:41Z</time>
      </trkpt>
      <trkpt lat="45.77674" lon="3.80008">
        <ele>937.200012</ele>
        <time>2017-05-27T13:29:43Z</time>
      </trkpt>
      <trkpt lat="45.77683" lon="3.80005">
        <ele>935.900024</ele>
        <time>2017-05-27T13:29:45Z</time>
      </trkpt>
      <trkpt lat="45.77693" lon="3.80002">
        <ele>934.599976</ele>
        <time>2017-05-27T13:29:47Z</time>
      </trkpt>
      <trkpt lat="45.77706" lon="3.79999">
        <ele>932.700012</ele>
        <time>2017-05-27T13:29:50Z</time>
      </trkpt>
      <trkpt lat="45.77715" lon="3.79999">
        <ele>931.799988</ele>
        <time>2017-05-27T13:29:52Z</time>
      </trkpt>
      <trkpt lat="45.77727" lon="3.79999">
        <ele>930.5</ele>
        <time>2017-05-27T13:29:54Z</time>
      </trkpt>
      <trkpt lat="45.7774" lon="3.79999">
        <ele>928.599976</ele>
        <time>2017-05-27T13:29:57Z</time>
      </trkpt>
      <trkpt lat="45.77753" lon="3.80001">
        <ele>926.700012</ele>
        <time>2017-05-27T13:30:00Z</time>
      </trkpt>
      <trkpt lat="45.77764" lon="3.80004">
        <ele>925.400024</ele>
        <time>2017-05-27T13:30:02Z</time>
      </trkpt>
      <trkpt lat="45.77775" lon="3.80008">
        <ele>923.799988</ele>
        <time>2017-05-27T13:30:04Z</time>
      </trkpt>
      <trkpt lat="45.77785" lon="3.80017">
        <ele>920.700012</ele>
        <time>2017-05-27T13:30:08Z</time>
      </trkpt>
      <trkpt lat="45.77798" lon="3.80018">
        <ele>918.5</ele>
        <time>2017-05-27T13:30:11Z</time>
      </trkpt>
      <trkpt lat="45.77808" lon="3.80019">
        <ele>915.299988</ele>
        <time>2017-05-27T13:30:14Z</time>
      </trkpt>
      <trkpt lat="45.77818" lon="3.80022">
        <ele>913.900024</ele>
        <time>2017-05-27T13:30:16Z</time>
      </trkpt>
      <trkpt lat="45.77829" lon="3.80022">
        <ele>912.099976</ele>
        <time>2017-05-27T13:30:18Z</time>
      </trkpt>
      <trkpt lat="45.77842" lon="3.80022">
        <ele>909.5</ele>
        <time>2017-05-27T13:30:21Z</time>
      </trkpt>
      <trkpt lat="45.77854" lon="3.80022">
        <ele>907.099976</ele>
        <time>2017-05-27T13:30:24Z</time>
      </trkpt>
      <trkpt lat="45.77864" lon="3.80025">
        <ele>905.700012</ele>
        <time>2017-05-27T13:30:26Z</time>
      </trkpt>
      <trkpt lat="45.77875" lon="3.80027">
        <ele>904.599976</ele>
        <time>2017-05-27T13:30:28Z</time>
      </trkpt>
      <trkpt lat="45.77886" lon="3.80029">
        <ele>903.799988</ele>
        <time>2017-05-27T13:30:30Z</time>
      </trkpt>
      <trkpt lat="45.77897" lon="3.80032">
        <ele>902.900024</ele>
        <time>2017-05-27T13:30:33Z</time>
      </trkpt>
      <trkpt lat="45.77904" lon="3.80042">
        <ele>901.599976</ele>
        <time>2017-05-27T13:30:39Z</time>
      </trkpt>
      <trkpt lat="45.77899" lon="3.80058">
        <ele>901</ele>
        <time>2017-05-27T13:30:43Z</time>
      </trkpt>
      <trkpt lat="45.77891" lon="3.80068">
        <ele>900.599976</ele>
        <time>2017-05-27T13:30:46Z</time>
      </trkpt>
      <trkpt lat="45.77885" lon="3.80081">
        <ele>900.400024</ele>
        <time>2017-05-27T13:30:49Z</time>
      </trkpt>
      <trkpt lat="45.7788" lon="3.80093">
        <ele>899.599976</ele>
        <time>2017-05-27T13:30:54Z</time>
      </trkpt>
      <trkpt lat="45.77871" lon="3.80103">
        <ele>899.799988</ele>
        <time>2017-05-27T13:30:58Z</time>
      </trkpt>
      <trkpt lat="45.77866" lon="3.80113">
        <ele>899.799988</ele>
        <time>2017-05-27T13:31:04Z</time>
      </trkpt>
      <trkpt lat="45.77859" lon="3.80124">
        <ele>900.099976</ele>
        <time>2017-05-27T13:31:08Z</time>
      </trkpt>
      <trkpt lat="45.77849" lon="3.80135">
        <ele>900.400024</ele>
        <time>2017-05-27T13:31:11Z</time>
      </trkpt>
      <trkpt lat="45.77843" lon="3.80143">
        <ele>900.900024</ele>
        <time>2017-05-27T13:31:14Z</time>
      </trkpt>
      <trkpt lat="45.77836" lon="3.80158">
        <ele>901.5</ele>
        <time>2017-05-27T13:31:18Z</time>
      </trkpt>
      <trkpt lat="45.77827" lon="3.80166">
        <ele>902</ele>
        <time>2017-05-27T13:31:21Z</time>
      </trkpt>
      <trkpt lat="45.7782" lon="3.80174">
        <ele>902.400024</ele>
        <time>2017-05-27T13:31:23Z</time>
      </trkpt>
      <trkpt lat="45.77809" lon="3.80185">
        <ele>903</ele>
        <time>2017-05-27T13:31:26Z</time>
      </trkpt>
      <trkpt lat="45.77803" lon="3.80197">
        <ele>903.400024</ele>
        <time>2017-05-27T13:31:30Z</time>
      </trkpt>
      <trkpt lat="45.77797" lon="3.80207">
        <ele>904</ele>
        <time>2017-05-27T13:31:35Z</time>
      </trkpt>
      <trkpt lat="45.77789" lon="3.80217">
        <ele>904.900024</ele>
        <time>2017-05-27T13:31:40Z</time>
      </trkpt>
      <trkpt lat="45.77779" lon="3.80226">
        <ele>905.400024</ele>
        <time>2017-05-27T13:31:44Z</time>
      </trkpt>
      <trkpt lat="45.77772" lon="3.80235">
        <ele>906.599976</ele>
        <time>2017-05-27T13:31:49Z</time>
      </trkpt>
      <trkpt lat="45.77765" lon="3.80246">
        <ele>907.400024</ele>
        <time>2017-05-27T13:31:54Z</time>
      </trkpt>
      <trkpt lat="45.77759" lon="3.80258">
        <ele>908.099976</ele>
        <time>2017-05-27T13:31:59Z</time>
      </trkpt>
      <trkpt lat="45.77754" lon="3.80269">
        <ele>908.900024</ele>
        <time>2017-05-27T13:32:05Z</time>
      </trkpt>
      <trkpt lat="45.7775" lon="3.80281">
        <ele>909.799988</ele>
        <time>2017-05-27T13:32:11Z</time>
      </trkpt>
      <trkpt lat="45.77746" lon="3.80294">
        <ele>910.299988</ele>
        <time>2017-05-27T13:32:16Z</time>
      </trkpt>
      <trkpt lat="45.77739" lon="3.80305">
        <ele>910.799988</ele>
        <time>2017-05-27T13:32:21Z</time>
      </trkpt>
      <trkpt lat="45.77733" lon="3.80317">
        <ele>911.400024</ele>
        <time>2017-05-27T13:32:26Z</time>
      </trkpt>
      <trkpt lat="45.77727" lon="3.80328">
        <ele>912.099976</ele>
        <time>2017-05-27T13:32:31Z</time>
      </trkpt>
      <trkpt lat="45.77717" lon="3.80336">
        <ele>913.200012</ele>
        <time>2017-05-27T13:32:38Z</time>
      </trkpt>
      <trkpt lat="45.77711" lon="3.80348">
        <ele>914.5</ele>
        <time>2017-05-27T13:32:45Z</time>
      </trkpt>
      <trkpt lat="45.77708" lon="3.80362">
        <ele>915.5</ele>
        <time>2017-05-27T13:32:52Z</time>
      </trkpt>
      <trkpt lat="45.77704" lon="3.80375">
        <ele>916.200012</ele>
        <time>2017-05-27T13:32:57Z</time>
      </trkpt>
      <trkpt lat="45.77701" lon="3.80389">
        <ele>917.400024</ele>
        <time>2017-05-27T13:33:03Z</time>
      </trkpt>
      <trkpt lat="45.77695" lon="3.80401">
        <ele>918.5</ele>
        <time>2017-05-27T13:33:09Z</time>
      </trkpt>
      <trkpt lat="45.77688" lon="3.80411">
        <ele>919.799988</ele>
        <time>2017-05-27T13:33:14Z</time>
      </trkpt>
      <trkpt lat="45.77684" lon="3.80423">
        <ele>921.299988</ele>
        <time>2017-05-27T13:33:21Z</time>
      </trkpt>
      <trkpt lat="45.7768" lon="3.80436">
        <ele>922.200012</ele>
        <time>2017-05-27T13:33:27Z</time>
      </trkpt>
      <trkpt lat="45.77677" lon="3.8045">
        <ele>923.599976</ele>
        <time>2017-05-27T13:33:34Z</time>
      </trkpt>
      <trkpt lat="45.77671" lon="3.80464">
        <ele>924.700012</ele>
        <time>2017-05-27T13:33:42Z</time>
      </trkpt>
      <trkpt lat="45.77667" lon="3.80477">
        <ele>925.700012</ele>
        <time>2017-05-27T13:33:49Z</time>
      </trkpt>
      <trkpt lat="45.77664" lon="3.80491">
        <ele>926.799988</ele>
        <time>2017-05-27T13:33:56Z</time>
      </trkpt>
      <trkpt lat="45.77659" lon="3.80502">
        <ele>927.599976</ele>
        <time>2017-05-27T13:34:03Z</time>
      </trkpt>
      <trkpt lat="45.77656" lon="3.80514">
        <ele>928.700012</ele>
        <time>2017-05-27T13:34:10Z</time>
      </trkpt>
      <trkpt lat="45.77661" lon="3.80526">
        <ele>929.5</ele>
        <time>2017-05-27T13:34:16Z</time>
      </trkpt>
      <trkpt lat="45.77659" lon="3.8054">
        <ele>929.700012</ele>
        <time>2017-05-27T13:34:21Z</time>
      </trkpt>
      <trkpt lat="45.77656" lon="3.80552">
        <ele>929.900024</ele>
        <time>2017-05-27T13:34:26Z</time>
      </trkpt>
      <trkpt lat="45.77649" lon="3.80563">
        <ele>930.200012</ele>
        <time>2017-05-27T13:34:32Z</time>
      </trkpt>
      <trkpt lat="45.77649" lon="3.80567">
        <ele>930</ele>
        <time>2017-05-27T13:34:59Z</time>
      </trkpt>
      <trkpt lat="45.77644" lon="3.80582">
        <ele>930.099976</ele>
        <time>2017-05-27T13:35:03Z</time>
      </trkpt>
      <trkpt lat="45.77639" lon="3.80595">
        <ele>930.299988</ele>
        <time>2017-05-27T13:35:06Z</time>
      </trkpt>
      <trkpt lat="45.77635" lon="3.80609">
        <ele>930.400024</ele>
        <time>2017-05-27T13:35:09Z</time>
      </trkpt>
      <trkpt lat="45.77631" lon="3.80624">
        <ele>930.5</ele>
        <time>2017-05-27T13:35:12Z</time>
      </trkpt>
      <trkpt lat="45.77627" lon="3.80639">
        <ele>930.099976</ele>
        <time>2017-05-27T13:35:15Z</time>
      </trkpt>
      <trkpt lat="45.77627" lon="3.80639">
        <ele>930</ele>
        <time>2017-05-27T13:35:15Z</time>
      </trkpt>
      <trkpt lat="45.77625" lon="3.80644">
        <ele>930</ele>
        <time>2017-05-27T13:35:16Z</time>
      </trkpt>
    </trkseg>
  </trk>
</gpx>